﻿<?xml version="1.0" encoding="utf-8"?><gpx creator="Garmin Desktop App" version="1.1" xsi:schemaLocation="http://www.topografix.com/GPX/1/1 http://www.topografix.com/GPX/1/1/gpx.xsd http://www.garmin.com/xmlschemas/WaypointExtension/v1 http://www8.garmin.com/xmlschemas/WaypointExtensionv1.xsd http://www.garmin.com/xmlschemas/TrackPointExtension/v1 http://www.garmin.com/xmlschemas/TrackPointExtensionv1.xsd http://www.garmin.com/xmlschemas/GpxExtensions/v3 http://www8.garmin.com/xmlschemas/GpxExtensionsv3.xsd http://www.garmin.com/xmlschemas/ActivityExtension/v1 http://www8.garmin.com/xmlschemas/ActivityExtensionv1.xsd http://www.garmin.com/xmlschemas/AdventuresExtensions/v1 http://www8.garmin.com/xmlschemas/AdventuresExtensionv1.xsd http://www.garmin.com/xmlschemas/PressureExtension/v1 http://www.garmin.com/xmlschemas/PressureExtensionv1.xsd http://www.garmin.com/xmlschemas/TripExtensions/v1 http://www.garmin.com/xmlschemas/TripExtensionsv1.xsd http://www.garmin.com/xmlschemas/TripMetaDataExtensions/v1 http://www.garmin.com/xmlschemas/TripMetaDataExtensionsv1.xsd http://www.garmin.com/xmlschemas/ViaPointTransportationModeExtensions/v1 http://www.garmin.com/xmlschemas/ViaPointTransportationModeExtensionsv1.xsd http://www.garmin.com/xmlschemas/CreationTimeExtension/v1 http://www.garmin.com/xmlschemas/CreationTimeExtensionsv1.xsd http://www.garmin.com/xmlschemas/AccelerationExtension/v1 http://www.garmin.com/xmlschemas/AccelerationExtensionv1.xsd http://www.garmin.com/xmlschemas/PowerExtension/v1 http://www.garmin.com/xmlschemas/PowerExtensionv1.xsd http://www.garmin.com/xmlschemas/VideoExtension/v1 http://www.garmin.com/xmlschemas/VideoExtensionv1.xsd" xmlns="http://www.topografix.com/GPX/1/1" xmlns:xsi="http://www.w3.org/2001/XMLSchema-instance" xmlns:wptx1="http://www.garmin.com/xmlschemas/WaypointExtension/v1" xmlns:gpxtrx="http://www.garmin.com/xmlschemas/GpxExtensions/v3" xmlns:gpxtpx="http://www.garmin.com/xmlschemas/TrackPointExtension/v1" xmlns:gpxx="http://www.garmin.com/xmlschemas/GpxExtensions/v3" xmlns:trp="http://www.garmin.com/xmlschemas/TripExtensions/v1" xmlns:adv="http://www.garmin.com/xmlschemas/AdventuresExtensions/v1" xmlns:prs="http://www.garmin.com/xmlschemas/PressureExtension/v1" xmlns:tmd="http://www.garmin.com/xmlschemas/TripMetaDataExtensions/v1" xmlns:vptm="http://www.garmin.com/xmlschemas/ViaPointTransportationModeExtensions/v1" xmlns:ctx="http://www.garmin.com/xmlschemas/CreationTimeExtension/v1" xmlns:gpxacc="http://www.garmin.com/xmlschemas/AccelerationExtension/v1" xmlns:gpxpx="http://www.garmin.com/xmlschemas/PowerExtension/v1" xmlns:vidx1="http://www.garmin.com/xmlschemas/VideoExtension/v1">

  <metadata>
    <link href="http://www.garmin.com">
      <text>Garmin International</text>
    </link>
    <time>2019-09-01T21:00:46Z</time>
    <bounds maxlat="57.58605700917542" maxlon="-3.128453996032476" minlat="56.394304018467665" minlon="-4.479353008791804" />
  </metadata>

  <trk>
    <name>Track vom: 2019-09-01 09:26</name>
    <extensions>
      <gpxx:TrackExtension>
        <gpxx:DisplayColor>DarkGray</gpxx:DisplayColor>
      </gpxx:TrackExtension>
    </extensions>
    <trkseg>
      <trkpt lat="56.394901983439922" lon="-3.427302958443761">
        <ele>10.710000000000001</ele>
        <time>2019-09-01T08:26:42Z</time>
      </trkpt>
      <trkpt lat="56.394541980698705" lon="-3.429776960983872">
        <ele>3.5</ele>
        <time>2019-09-01T08:27:11Z</time>
      </trkpt>
      <trkpt lat="56.39444500207901" lon="-3.429720969870687">
        <ele>8.310000000000001</ele>
        <time>2019-09-01T08:27:26Z</time>
      </trkpt>
      <trkpt lat="56.394814979285002" lon="-3.429747959598899">
        <ele>16.960000000000001</ele>
        <time>2019-09-01T08:27:57Z</time>
      </trkpt>
      <trkpt lat="56.394762005656958" lon="-3.429758017882705">
        <ele>12.630000000000001</ele>
        <time>2019-09-01T08:28:33Z</time>
      </trkpt>
      <trkpt lat="56.39463703148067" lon="-3.429693980142474">
        <ele>14.08</ele>
        <time>2019-09-01T08:28:57Z</time>
      </trkpt>
      <trkpt lat="56.394626973196864" lon="-3.42970403842628">
        <ele>18.879999999999999</ele>
        <time>2019-09-01T08:29:29Z</time>
      </trkpt>
      <trkpt lat="56.394626973196864" lon="-3.42970697209239">
        <ele>18.879999999999999</ele>
        <time>2019-09-01T08:29:57Z</time>
      </trkpt>
      <trkpt lat="56.394630996510386" lon="-3.429715018719435">
        <ele>18.879999999999999</ele>
        <time>2019-09-01T08:30:23Z</time>
      </trkpt>
      <trkpt lat="56.394603000953794" lon="-3.429760029539466">
        <ele>18.399999999999999</ele>
        <time>2019-09-01T08:30:40Z</time>
      </trkpt>
      <trkpt lat="56.394603000953794" lon="-3.429760029539466">
        <ele>18.399999999999999</ele>
        <time>2019-09-01T08:31:01Z</time>
      </trkpt>
      <trkpt lat="56.394438967108727" lon="-3.429852984845638">
        <ele>17.920000000000002</ele>
        <time>2019-09-01T08:31:29Z</time>
      </trkpt>
      <trkpt lat="56.394536029547453" lon="-3.42972599901259">
        <ele>11.19</ele>
        <time>2019-09-01T08:31:35Z</time>
      </trkpt>
      <trkpt lat="56.394304018467665" lon="-3.429949963465333">
        <ele>10.710000000000001</ele>
        <time>2019-09-01T08:31:39Z</time>
      </trkpt>
      <trkpt lat="56.394304018467665" lon="-3.430064963176847">
        <ele>10.23</ele>
        <time>2019-09-01T08:31:40Z</time>
      </trkpt>
      <trkpt lat="56.394304018467665" lon="-3.43026302754879">
        <ele>9.27</ele>
        <time>2019-09-01T08:31:41Z</time>
      </trkpt>
      <trkpt lat="56.394304018467665" lon="-3.430440975353122">
        <ele>8.789999999999999</ele>
        <time>2019-09-01T08:31:42Z</time>
      </trkpt>
      <trkpt lat="56.394304018467665" lon="-3.430719003081322">
        <ele>7.83</ele>
        <time>2019-09-01T08:31:44Z</time>
      </trkpt>
      <trkpt lat="56.394304018467665" lon="-3.431715024635196">
        <ele>6.39</ele>
        <time>2019-09-01T08:31:53Z</time>
      </trkpt>
      <trkpt lat="56.394304018467665" lon="-3.431808985769749">
        <ele>6.87</ele>
        <time>2019-09-01T08:31:54Z</time>
      </trkpt>
      <trkpt lat="56.394304018467665" lon="-3.43189699575305">
        <ele>6.87</ele>
        <time>2019-09-01T08:31:55Z</time>
      </trkpt>
      <trkpt lat="56.39433897100389" lon="-3.43228499405086">
        <ele>6.87</ele>
        <time>2019-09-01T08:32:01Z</time>
      </trkpt>
      <trkpt lat="56.394368978217244" lon="-3.432285999879241">
        <ele>6.87</ele>
        <time>2019-09-01T08:32:02Z</time>
      </trkpt>
      <trkpt lat="56.394404014572501" lon="-3.432288011536002">
        <ele>6.87</ele>
        <time>2019-09-01T08:32:03Z</time>
      </trkpt>
      <trkpt lat="56.394833000376821" lon="-3.432308966293931">
        <ele>7.83</ele>
        <time>2019-09-01T08:32:09Z</time>
      </trkpt>
      <trkpt lat="56.3948979601264" lon="-3.432311983779073">
        <ele>7.83</ele>
        <time>2019-09-01T08:32:10Z</time>
      </trkpt>
      <trkpt lat="56.395099963992834" lon="-3.432321036234498">
        <ele>8.310000000000001</ele>
        <time>2019-09-01T08:32:14Z</time>
      </trkpt>
      <trkpt lat="56.395200965926051" lon="-3.43219798989594">
        <ele>8.789999999999999</ele>
        <time>2019-09-01T08:32:15Z</time>
      </trkpt>
      <trkpt lat="56.395199038088322" lon="-3.432129006832838">
        <ele>9.27</ele>
        <time>2019-09-01T08:32:16Z</time>
      </trkpt>
      <trkpt lat="56.395197026431561" lon="-3.432034961879253">
        <ele>9.27</ele>
        <time>2019-09-01T08:32:17Z</time>
      </trkpt>
      <trkpt lat="56.395193003118038" lon="-3.43191702850163">
        <ele>9.27</ele>
        <time>2019-09-01T08:32:18Z</time>
      </trkpt>
      <trkpt lat="56.395189985632896" lon="-3.431783001869917">
        <ele>9.75</ele>
        <time>2019-09-01T08:32:19Z</time>
      </trkpt>
      <trkpt lat="56.395151009783149" lon="-3.430390013381839">
        <ele>11.67</ele>
        <time>2019-09-01T08:32:29Z</time>
      </trkpt>
      <trkpt lat="56.395147992298007" lon="-3.430277025327086">
        <ele>11.67</ele>
        <time>2019-09-01T08:32:30Z</time>
      </trkpt>
      <trkpt lat="56.395121002569795" lon="-3.429028959944844">
        <ele>9.75</ele>
        <time>2019-09-01T08:32:40Z</time>
      </trkpt>
      <trkpt lat="56.395114967599511" lon="-3.428819999098778">
        <ele>8.789999999999999</ele>
        <time>2019-09-01T08:32:42Z</time>
      </trkpt>
      <trkpt lat="56.395070040598512" lon="-3.428242988884449">
        <ele>5.91</ele>
        <time>2019-09-01T08:32:50Z</time>
      </trkpt>
      <trkpt lat="56.395065011456609" lon="-3.428021036088467">
        <ele>3.98</ele>
        <time>2019-09-01T08:32:59Z</time>
      </trkpt>
      <trkpt lat="56.395065011456609" lon="-3.428021036088467">
        <ele>3.98</ele>
        <time>2019-09-01T08:33:25Z</time>
      </trkpt>
      <trkpt lat="56.395065011456609" lon="-3.428021036088467">
        <ele>4.46</ele>
        <time>2019-09-01T08:34:14Z</time>
      </trkpt>
      <trkpt lat="56.395065011456609" lon="-3.428021036088467">
        <ele>5.91</ele>
        <time>2019-09-01T08:35:13Z</time>
      </trkpt>
      <trkpt lat="56.395065011456609" lon="-3.428021036088467">
        <ele>6.39</ele>
        <time>2019-09-01T08:36:05Z</time>
      </trkpt>
      <trkpt lat="56.395065011456609" lon="-3.428021036088467">
        <ele>6.87</ele>
        <time>2019-09-01T08:36:55Z</time>
      </trkpt>
      <trkpt lat="56.395065011456609" lon="-3.428021036088467">
        <ele>7.35</ele>
        <time>2019-09-01T08:37:39Z</time>
      </trkpt>
      <trkpt lat="56.395065011456609" lon="-3.428021036088467">
        <ele>7.83</ele>
        <time>2019-09-01T08:38:26Z</time>
      </trkpt>
      <trkpt lat="56.395065011456609" lon="-3.428021036088467">
        <ele>8.310000000000001</ele>
        <time>2019-09-01T08:39:09Z</time>
      </trkpt>
      <trkpt lat="56.395065011456609" lon="-3.428021036088467">
        <ele>8.310000000000001</ele>
        <time>2019-09-01T08:39:33Z</time>
      </trkpt>
      <trkpt lat="56.395065011456609" lon="-3.428021036088467">
        <ele>8.310000000000001</ele>
        <time>2019-09-01T08:40:09Z</time>
      </trkpt>
      <trkpt lat="56.395070040598512" lon="-3.427956998348236">
        <ele>8.310000000000001</ele>
        <time>2019-09-01T08:40:43Z</time>
      </trkpt>
      <trkpt lat="56.395083032548428" lon="-3.427791958674789">
        <ele>11.19</ele>
        <time>2019-09-01T08:40:46Z</time>
      </trkpt>
      <trkpt lat="56.395088983699679" lon="-3.42770897783339">
        <ele>11.19</ele>
        <time>2019-09-01T08:40:47Z</time>
      </trkpt>
      <trkpt lat="56.395096024498343" lon="-3.427542010322213">
        <ele>11.19</ele>
        <time>2019-09-01T08:40:49Z</time>
      </trkpt>
      <trkpt lat="56.395093007013202" lon="-3.427446959540248">
        <ele>11.19</ele>
        <time>2019-09-01T08:40:50Z</time>
      </trkpt>
      <trkpt lat="56.395090995356441" lon="-3.427343023940921">
        <ele>10.710000000000001</ele>
        <time>2019-09-01T08:40:51Z</time>
      </trkpt>
      <trkpt lat="56.395086972042918" lon="-3.427211008965969">
        <ele>10.710000000000001</ele>
        <time>2019-09-01T08:40:52Z</time>
      </trkpt>
      <trkpt lat="56.395083032548428" lon="-3.427049992606044">
        <ele>9.75</ele>
        <time>2019-09-01T08:40:53Z</time>
      </trkpt>
      <trkpt lat="56.395078003406525" lon="-3.426866009831429">
        <ele>9.27</ele>
        <time>2019-09-01T08:40:54Z</time>
      </trkpt>
      <trkpt lat="56.395039027556777" lon="-3.426100993528962">
        <ele>5.42</ele>
        <time>2019-09-01T08:41:00Z</time>
      </trkpt>
      <trkpt lat="56.395036010071635" lon="-3.426046008244157">
        <ele>3.98</ele>
        <time>2019-09-01T08:41:12Z</time>
      </trkpt>
      <trkpt lat="56.395035004243255" lon="-3.426042990759015">
        <ele>3.98</ele>
        <time>2019-09-01T08:41:51Z</time>
      </trkpt>
      <trkpt lat="56.395012037828565" lon="-3.425437984988093">
        <ele>1.1</ele>
        <time>2019-09-01T08:41:56Z</time>
      </trkpt>
      <trkpt lat="56.394952023401856" lon="-3.423651969060302">
        <ele>2.54</ele>
        <time>2019-09-01T08:42:05Z</time>
      </trkpt>
      <trkpt lat="56.394924027845263" lon="-3.422969011589885">
        <ele>2.54</ele>
        <time>2019-09-01T08:42:09Z</time>
      </trkpt>
      <trkpt lat="56.394918998703361" lon="-3.422834984958172">
        <ele>3.02</ele>
        <time>2019-09-01T08:42:10Z</time>
      </trkpt>
      <trkpt lat="56.394912041723728" lon="-3.422355959191918">
        <ele>2.54</ele>
        <time>2019-09-01T08:42:14Z</time>
      </trkpt>
      <trkpt lat="56.394918998703361" lon="-3.422240959480405">
        <ele>2.54</ele>
        <time>2019-09-01T08:42:15Z</time>
      </trkpt>
      <trkpt lat="56.394926039502025" lon="-3.422112967818975">
        <ele>2.54</ele>
        <time>2019-09-01T08:42:16Z</time>
      </trkpt>
      <trkpt lat="56.395118990913033" lon="-3.421919010579586">
        <ele>3.02</ele>
        <time>2019-09-01T08:42:17Z</time>
      </trkpt>
      <trkpt lat="56.395159978419542" lon="-3.421934014186263">
        <ele>3.5</ele>
        <time>2019-09-01T08:42:18Z</time>
      </trkpt>
      <trkpt lat="56.395228039473295" lon="-3.421959998086095">
        <ele>3.5</ele>
        <time>2019-09-01T08:42:19Z</time>
      </trkpt>
      <trkpt lat="56.39528201892972" lon="-3.421979025006294">
        <ele>3.98</ele>
        <time>2019-09-01T08:42:20Z</time>
      </trkpt>
      <trkpt lat="56.395319988951087" lon="-3.421993022784591">
        <ele>4.46</ele>
        <time>2019-09-01T08:42:21Z</time>
      </trkpt>
      <trkpt lat="56.395405987277627" lon="-3.422025041654706">
        <ele>5.42</ele>
        <time>2019-09-01T08:42:27Z</time>
      </trkpt>
      <trkpt lat="56.395439011976123" lon="-3.422037027776241">
        <ele>5.91</ele>
        <time>2019-09-01T08:42:28Z</time>
      </trkpt>
      <trkpt lat="56.395486034452915" lon="-3.422054965049028">
        <ele>6.39</ele>
        <time>2019-09-01T08:42:29Z</time>
      </trkpt>
      <trkpt lat="56.395544037222862" lon="-3.422067034989595">
        <ele>6.87</ele>
        <time>2019-09-01T08:42:30Z</time>
      </trkpt>
      <trkpt lat="56.395628023892641" lon="-3.422052031382918">
        <ele>6.87</ele>
        <time>2019-09-01T08:42:31Z</time>
      </trkpt>
      <trkpt lat="56.396565958857536" lon="-3.421887997537851">
        <ele>10.710000000000001</ele>
        <time>2019-09-01T08:42:41Z</time>
      </trkpt>
      <trkpt lat="56.397529961541295" lon="-3.421741984784603">
        <ele>14.56</ele>
        <time>2019-09-01T08:42:50Z</time>
      </trkpt>
      <trkpt lat="56.397719979286194" lon="-3.421785989776254">
        <ele>15.039999999999999</ele>
        <time>2019-09-01T08:42:52Z</time>
      </trkpt>
      <trkpt lat="56.39781603589654" lon="-3.421847010031343">
        <ele>15.039999999999999</ele>
        <time>2019-09-01T08:42:53Z</time>
      </trkpt>
      <trkpt lat="56.39833596535027" lon="-3.422284964472055">
        <ele>14.56</ele>
        <time>2019-09-01T08:42:59Z</time>
      </trkpt>
      <trkpt lat="56.398406960070133" lon="-3.422349002212286">
        <ele>14.08</ele>
        <time>2019-09-01T08:43:00Z</time>
      </trkpt>
      <trkpt lat="56.398534029722214" lon="-3.422462996095419">
        <ele>14.08</ele>
        <time>2019-09-01T08:43:02Z</time>
      </trkpt>
      <trkpt lat="56.398865031078458" lon="-3.422734988853335">
        <ele>12.15</ele>
        <time>2019-09-01T08:43:11Z</time>
      </trkpt>
      <trkpt lat="56.398884980008006" lon="-3.422752004116774">
        <ele>10.710000000000001</ele>
        <time>2019-09-01T08:43:22Z</time>
      </trkpt>
      <trkpt lat="56.399122020229697" lon="-3.422905979678035">
        <ele>10.23</ele>
        <time>2019-09-01T08:43:41Z</time>
      </trkpt>
      <trkpt lat="56.399457966908813" lon="-3.423107983544469">
        <ele>10.23</ele>
        <time>2019-09-01T08:43:47Z</time>
      </trkpt>
      <trkpt lat="56.39951404184103" lon="-3.423127010464668">
        <ele>10.23</ele>
        <time>2019-09-01T08:43:48Z</time>
      </trkpt>
      <trkpt lat="56.399570032954216" lon="-3.423145031556487">
        <ele>10.23</ele>
        <time>2019-09-01T08:43:49Z</time>
      </trkpt>
      <trkpt lat="56.399630969390273" lon="-3.423165986314416">
        <ele>10.23</ele>
        <time>2019-09-01T08:43:50Z</time>
      </trkpt>
      <trkpt lat="56.399699030444026" lon="-3.423189036548138">
        <ele>10.710000000000001</ele>
        <time>2019-09-01T08:43:51Z</time>
      </trkpt>
      <trkpt lat="56.399768013507128" lon="-3.423210997134447">
        <ele>10.710000000000001</ele>
        <time>2019-09-01T08:43:52Z</time>
      </trkpt>
      <trkpt lat="56.400624979287386" lon="-3.423421969637275">
        <ele>14.08</ele>
        <time>2019-09-01T08:44:02Z</time>
      </trkpt>
      <trkpt lat="56.401251023635268" lon="-3.423515008762479">
        <ele>15.52</ele>
        <time>2019-09-01T08:44:09Z</time>
      </trkpt>
      <trkpt lat="56.401753015816212" lon="-3.423523977398872">
        <ele>15.52</ele>
        <time>2019-09-01T08:44:15Z</time>
      </trkpt>
      <trkpt lat="56.40183599665761" lon="-3.423526994884014">
        <ele>15.039999999999999</ele>
        <time>2019-09-01T08:44:16Z</time>
      </trkpt>
      <trkpt lat="56.401924006640911" lon="-3.423553984612227">
        <ele>15.039999999999999</ele>
        <time>2019-09-01T08:44:17Z</time>
      </trkpt>
      <trkpt lat="56.40295498073101" lon="-3.424128983169794">
        <ele>13.119999999999999</ele>
        <time>2019-09-01T08:44:27Z</time>
      </trkpt>
      <trkpt lat="56.40422198921442" lon="-3.424802972003818">
        <ele>14.08</ele>
        <time>2019-09-01T08:44:38Z</time>
      </trkpt>
      <trkpt lat="56.405587987974286" lon="-3.425533035770059">
        <ele>11.19</ele>
        <time>2019-09-01T08:44:50Z</time>
      </trkpt>
      <trkpt lat="56.40581295825541" lon="-3.425704026594758">
        <ele>10.710000000000001</ele>
        <time>2019-09-01T08:44:52Z</time>
      </trkpt>
      <trkpt lat="56.407431000843644" lon="-3.427308993414044">
        <ele>10.710000000000001</ele>
        <time>2019-09-01T08:45:06Z</time>
      </trkpt>
      <trkpt lat="56.408086968585849" lon="-3.427921961992979">
        <ele>11.19</ele>
        <time>2019-09-01T08:45:12Z</time>
      </trkpt>
      <trkpt lat="56.40819501131773" lon="-3.427978036925197">
        <ele>11.19</ele>
        <time>2019-09-01T08:45:13Z</time>
      </trkpt>
      <trkpt lat="56.40916203148663" lon="-3.428477011620998">
        <ele>11.67</ele>
        <time>2019-09-01T08:45:22Z</time>
      </trkpt>
      <trkpt lat="56.410349998623133" lon="-3.428615983575583">
        <ele>8.310000000000001</ele>
        <time>2019-09-01T08:45:31Z</time>
      </trkpt>
      <trkpt lat="56.411115014925599" lon="-3.428534008562565">
        <ele>7.35</ele>
        <time>2019-09-01T08:45:37Z</time>
      </trkpt>
      <trkpt lat="56.411229008808732" lon="-3.428542977198958">
        <ele>7.83</ele>
        <time>2019-09-01T08:45:38Z</time>
      </trkpt>
      <trkpt lat="56.411474011838436" lon="-3.428601985797286">
        <ele>8.310000000000001</ele>
        <time>2019-09-01T08:45:40Z</time>
      </trkpt>
      <trkpt lat="56.411597980186343" lon="-3.42863199301064">
        <ele>8.310000000000001</ele>
        <time>2019-09-01T08:45:41Z</time>
      </trkpt>
      <trkpt lat="56.411723960191011" lon="-3.428663006052375">
        <ele>8.789999999999999</ele>
        <time>2019-09-01T08:45:42Z</time>
      </trkpt>
      <trkpt lat="56.412327960133553" lon="-3.428714973852038">
        <ele>11.19</ele>
        <time>2019-09-01T08:45:47Z</time>
      </trkpt>
      <trkpt lat="56.413359018042684" lon="-3.428468964993954">
        <ele>17.440000000000001</ele>
        <time>2019-09-01T08:45:57Z</time>
      </trkpt>
      <trkpt lat="56.41447096131742" lon="-3.428271990269423">
        <ele>23.210000000000001</ele>
        <time>2019-09-01T08:46:07Z</time>
      </trkpt>
      <trkpt lat="56.41655595973134" lon="-3.427967978641391">
        <ele>28.5</ele>
        <time>2019-09-01T08:46:21Z</time>
      </trkpt>
      <trkpt lat="56.417656000703573" lon="-3.427791958674789">
        <ele>29.940000000000001</ele>
        <time>2019-09-01T08:46:28Z</time>
      </trkpt>
      <trkpt lat="56.417824979871511" lon="-3.427739990875125">
        <ele>29.940000000000001</ele>
        <time>2019-09-01T08:46:29Z</time>
      </trkpt>
      <trkpt lat="56.419488033279777" lon="-3.426726032048464">
        <ele>27.530000000000001</ele>
        <time>2019-09-01T08:46:39Z</time>
      </trkpt>
      <trkpt lat="56.420697038993239" lon="-3.425787007436156">
        <ele>23.210000000000001</ele>
        <time>2019-09-01T08:46:47Z</time>
      </trkpt>
      <trkpt lat="56.420821007341146" lon="-3.425659015774727">
        <ele>22.73</ele>
        <time>2019-09-01T08:46:48Z</time>
      </trkpt>
      <trkpt lat="56.420951010659337" lon="-3.425593972206116">
        <ele>22.73</ele>
        <time>2019-09-01T08:46:49Z</time>
      </trkpt>
      <trkpt lat="56.421077996492386" lon="-3.425567988306284">
        <ele>22.73</ele>
        <time>2019-09-01T08:46:50Z</time>
      </trkpt>
      <trkpt lat="56.421204982325435" lon="-3.42555801384151">
        <ele>22.73</ele>
        <time>2019-09-01T08:46:51Z</time>
      </trkpt>
      <trkpt lat="56.421324005350471" lon="-3.425650969147682">
        <ele>23.210000000000001</ele>
        <time>2019-09-01T08:46:52Z</time>
      </trkpt>
      <trkpt lat="56.4214519970119" lon="-3.425751971080899">
        <ele>23.690000000000001</ele>
        <time>2019-09-01T08:46:53Z</time>
      </trkpt>
      <trkpt lat="56.421592980623245" lon="-3.425863031297922">
        <ele>23.690000000000001</ele>
        <time>2019-09-01T08:46:54Z</time>
      </trkpt>
      <trkpt lat="56.422754041850567" lon="-3.426788980141282">
        <ele>25.129999999999999</ele>
        <time>2019-09-01T08:47:02Z</time>
      </trkpt>
      <trkpt lat="56.422902988269925" lon="-3.426916971802712">
        <ele>25.609999999999999</ele>
        <time>2019-09-01T08:47:03Z</time>
      </trkpt>
      <trkpt lat="56.424126997590065" lon="-3.427921961992979">
        <ele>28.5</ele>
        <time>2019-09-01T08:47:12Z</time>
      </trkpt>
      <trkpt lat="56.42491003498435" lon="-3.428589999675751">
        <ele>30.420000000000002</ele>
        <time>2019-09-01T08:47:18Z</time>
      </trkpt>
      <trkpt lat="56.425044983625412" lon="-3.428698964416981">
        <ele>30.420000000000002</ele>
        <time>2019-09-01T08:47:19Z</time>
      </trkpt>
      <trkpt lat="56.426689010113478" lon="-3.429651986807585">
        <ele>31.379999999999999</ele>
        <time>2019-09-01T08:47:30Z</time>
      </trkpt>
      <trkpt lat="56.427009031176567" lon="-3.429627008736134">
        <ele>31.379999999999999</ele>
        <time>2019-09-01T08:47:32Z</time>
      </trkpt>
      <trkpt lat="56.427168035879731" lon="-3.429574035108089">
        <ele>31.379999999999999</ele>
        <time>2019-09-01T08:47:33Z</time>
      </trkpt>
      <trkpt lat="56.427486967295408" lon="-3.429414024576545">
        <ele>31.379999999999999</ele>
        <time>2019-09-01T08:47:35Z</time>
      </trkpt>
      <trkpt lat="56.427643960341811" lon="-3.429256025701761">
        <ele>30.899999999999999</ele>
        <time>2019-09-01T08:47:36Z</time>
      </trkpt>
      <trkpt lat="56.42779097892344" lon="-3.429068019613624">
        <ele>30.899999999999999</ele>
        <time>2019-09-01T08:47:37Z</time>
      </trkpt>
      <trkpt lat="56.427942020818591" lon="-3.42886702157557">
        <ele>30.899999999999999</ele>
        <time>2019-09-01T08:47:38Z</time>
      </trkpt>
      <trkpt lat="56.428076969459653" lon="-3.428627969697118">
        <ele>30.899999999999999</ele>
        <time>2019-09-01T08:47:39Z</time>
      </trkpt>
      <trkpt lat="56.429112972691655" lon="-3.426340967416763">
        <ele>31.859999999999999</ele>
        <time>2019-09-01T08:47:47Z</time>
      </trkpt>
      <trkpt lat="56.430536974221468" lon="-3.422519993036985">
        <ele>37.149999999999999</ele>
        <time>2019-09-01T08:48:00Z</time>
      </trkpt>
      <trkpt lat="56.431666016578674" lon="-3.419504016637802">
        <ele>40.030000000000001</ele>
        <time>2019-09-01T08:48:11Z</time>
      </trkpt>
      <trkpt lat="56.432726997882128" lon="-3.41735296882689">
        <ele>44.840000000000003</ele>
        <time>2019-09-01T08:48:20Z</time>
      </trkpt>
      <trkpt lat="56.434504967182875" lon="-3.414483005180955">
        <ele>51.090000000000003</ele>
        <time>2019-09-01T08:48:33Z</time>
      </trkpt>
      <trkpt lat="56.434655003249645" lon="-3.414319977164269">
        <ele>52.530000000000001</ele>
        <time>2019-09-01T08:48:34Z</time>
      </trkpt>
      <trkpt lat="56.434805039316416" lon="-3.414201959967613">
        <ele>53.490000000000002</ele>
        <time>2019-09-01T08:48:35Z</time>
      </trkpt>
      <trkpt lat="56.434973012655973" lon="-3.414120990782976">
        <ele>54.93</ele>
        <time>2019-09-01T08:48:36Z</time>
      </trkpt>
      <trkpt lat="56.435145009309053" lon="-3.414039015769959">
        <ele>55.409999999999997</ele>
        <time>2019-09-01T08:48:37Z</time>
      </trkpt>
      <trkpt lat="56.437006965279579" lon="-3.413157993927598">
        <ele>60.219999999999999</ele>
        <time>2019-09-01T08:48:48Z</time>
      </trkpt>
      <trkpt lat="56.437764018774033" lon="-3.412847025319934">
        <ele>61.18</ele>
        <time>2019-09-01T08:48:53Z</time>
      </trkpt>
      <trkpt lat="56.437926040962338" lon="-3.412869991734624">
        <ele>61.18</ele>
        <time>2019-09-01T08:48:54Z</time>
      </trkpt>
      <trkpt lat="56.438089990988374" lon="-3.412913996726275">
        <ele>61.18</ele>
        <time>2019-09-01T08:48:55Z</time>
      </trkpt>
      <trkpt lat="56.438255030661821" lon="-3.412998989224434">
        <ele>61.659999999999997</ele>
        <time>2019-09-01T08:48:56Z</time>
      </trkpt>
      <trkpt lat="56.438423004001379" lon="-3.413084987550974">
        <ele>61.659999999999997</ele>
        <time>2019-09-01T08:48:57Z</time>
      </trkpt>
      <trkpt lat="56.439243005588651" lon="-3.413303000852466">
        <ele>62.619999999999997</ele>
        <time>2019-09-01T08:49:02Z</time>
      </trkpt>
      <trkpt lat="56.439411984756589" lon="-3.413297971710563">
        <ele>63.579999999999998</ele>
        <time>2019-09-01T08:49:03Z</time>
      </trkpt>
      <trkpt lat="56.439578030258417" lon="-3.413267964497209">
        <ele>64.069999999999993</ele>
        <time>2019-09-01T08:49:04Z</time>
      </trkpt>
      <trkpt lat="56.439894028007984" lon="-3.413071995601058">
        <ele>64.549999999999997</ele>
        <time>2019-09-01T08:49:06Z</time>
      </trkpt>
      <trkpt lat="56.441210992634296" lon="-3.411843040958047">
        <ele>68.870000000000005</ele>
        <time>2019-09-01T08:49:15Z</time>
      </trkpt>
      <trkpt lat="56.442136019468307" lon="-3.410889012739062">
        <ele>73.680000000000007</ele>
        <time>2019-09-01T08:49:23Z</time>
      </trkpt>
      <trkpt lat="56.442220006138086" lon="-3.410822963342071">
        <ele>74.159999999999997</ele>
        <time>2019-09-01T08:49:24Z</time>
      </trkpt>
      <trkpt lat="56.44231203943491" lon="-3.410809971392155">
        <ele>74.159999999999997</ele>
        <time>2019-09-01T08:49:25Z</time>
      </trkpt>
      <trkpt lat="56.442386973649263" lon="-3.410863028839231">
        <ele>74.159999999999997</ele>
        <time>2019-09-01T08:49:26Z</time>
      </trkpt>
      <trkpt lat="56.442432990297675" lon="-3.410933017730713">
        <ele>74.640000000000001</ele>
        <time>2019-09-01T08:49:27Z</time>
      </trkpt>
      <trkpt lat="56.442488981410861" lon="-3.411155976355076">
        <ele>74.640000000000001</ele>
        <time>2019-09-01T08:49:28Z</time>
      </trkpt>
      <trkpt lat="56.442545978352427" lon="-3.411383964121342">
        <ele>74.640000000000001</ele>
        <time>2019-09-01T08:49:29Z</time>
      </trkpt>
      <trkpt lat="56.442609010264277" lon="-3.411641959100962">
        <ele>74.640000000000001</ele>
        <time>2019-09-01T08:49:30Z</time>
      </trkpt>
      <trkpt lat="56.442903969436884" lon="-3.413214990869165">
        <ele>76.560000000000002</ele>
        <time>2019-09-01T08:49:36Z</time>
      </trkpt>
      <trkpt lat="56.442975969985127" lon="-3.413395034149289">
        <ele>76.560000000000002</ele>
        <time>2019-09-01T08:49:37Z</time>
      </trkpt>
      <trkpt lat="56.443060040473938" lon="-3.413534006103873">
        <ele>76.560000000000002</ele>
        <time>2019-09-01T08:49:38Z</time>
      </trkpt>
      <trkpt lat="56.443141009658575" lon="-3.41361497528851">
        <ele>77.040000000000006</ele>
        <time>2019-09-01T08:49:39Z</time>
      </trkpt>
      <trkpt lat="56.443265983834863" lon="-3.413670966401696">
        <ele>77.040000000000006</ele>
        <time>2019-09-01T08:49:40Z</time>
      </trkpt>
      <trkpt lat="56.44338802434504" lon="-3.413726035505533">
        <ele>77.519999999999996</ele>
        <time>2019-09-01T08:49:41Z</time>
      </trkpt>
      <trkpt lat="56.443519033491611" lon="-3.413784960284829">
        <ele>77.519999999999996</ele>
        <time>2019-09-01T08:49:42Z</time>
      </trkpt>
      <trkpt lat="56.443659011274576" lon="-3.413812033832073">
        <ele>77.519999999999996</ele>
        <time>2019-09-01T08:49:43Z</time>
      </trkpt>
      <trkpt lat="56.443810975179076" lon="-3.413818990811706">
        <ele>78</ele>
        <time>2019-09-01T08:49:44Z</time>
      </trkpt>
      <trkpt lat="56.445602020248771" lon="-3.413888979703188">
        <ele>78</ele>
        <time>2019-09-01T08:49:54Z</time>
      </trkpt>
      <trkpt lat="56.448370981961489" lon="-3.413952011615038">
        <ele>83.769999999999996</ele>
        <time>2019-09-01T08:50:08Z</time>
      </trkpt>
      <trkpt lat="56.450342992320657" lon="-3.413736009970307">
        <ele>86.180000000000007</ele>
        <time>2019-09-01T08:50:17Z</time>
      </trkpt>
      <trkpt lat="56.452166978269815" lon="-3.413583962246776">
        <ele>84.730000000000004</ele>
        <time>2019-09-01T08:50:27Z</time>
      </trkpt>
      <trkpt lat="56.453362992033362" lon="-3.413533000275493">
        <ele>84.25</ele>
        <time>2019-09-01T08:50:34Z</time>
      </trkpt>
      <trkpt lat="56.453515039756894" lon="-3.413470974192023">
        <ele>84.25</ele>
        <time>2019-09-01T08:50:35Z</time>
      </trkpt>
      <trkpt lat="56.45365996286273" lon="-3.413354968652129">
        <ele>84.25</ele>
        <time>2019-09-01T08:50:36Z</time>
      </trkpt>
      <trkpt lat="56.453817961737514" lon="-3.413229994475842">
        <ele>83.769999999999996</ele>
        <time>2019-09-01T08:50:37Z</time>
      </trkpt>
      <trkpt lat="56.455082958564162" lon="-3.412200026214123">
        <ele>81.849999999999994</ele>
        <time>2019-09-01T08:50:45Z</time>
      </trkpt>
      <trkpt lat="56.455385964363813" lon="-3.412070022895932">
        <ele>80.890000000000001</ele>
        <time>2019-09-01T08:50:47Z</time>
      </trkpt>
      <trkpt lat="56.456196997314692" lon="-3.411763999611139">
        <ele>78</ele>
        <time>2019-09-01T08:50:52Z</time>
      </trkpt>
      <trkpt lat="56.456504026427865" lon="-3.411509022116661">
        <ele>76.079999999999998</ele>
        <time>2019-09-01T08:50:54Z</time>
      </trkpt>
      <trkpt lat="56.456652972847223" lon="-3.411353034898639">
        <ele>75.599999999999994</ele>
        <time>2019-09-01T08:50:55Z</time>
      </trkpt>
      <trkpt lat="56.456799991428852" lon="-3.411196041852236">
        <ele>74.640000000000001</ele>
        <time>2019-09-01T08:50:56Z</time>
      </trkpt>
      <trkpt lat="56.458380986005068" lon="-3.40873796492815">
        <ele>69.349999999999994</ele>
        <time>2019-09-01T08:51:08Z</time>
      </trkpt>
      <trkpt lat="56.45870503038168" lon="-3.408235972747207">
        <ele>68.390000000000001</ele>
        <time>2019-09-01T08:51:11Z</time>
      </trkpt>
      <trkpt lat="56.458798991516232" lon="-3.408173024654388">
        <ele>68.390000000000001</ele>
        <time>2019-09-01T08:51:12Z</time>
      </trkpt>
      <trkpt lat="56.458895970135927" lon="-3.408195991069078">
        <ele>67.909999999999997</ele>
        <time>2019-09-01T08:51:13Z</time>
      </trkpt>
      <trkpt lat="56.458991020917892" lon="-3.40821803547442">
        <ele>67.430000000000007</ele>
        <time>2019-09-01T08:51:14Z</time>
      </trkpt>
      <trkpt lat="56.45907199010253" lon="-3.408257011324167">
        <ele>67.430000000000007</ele>
        <time>2019-09-01T08:51:15Z</time>
      </trkpt>
      <trkpt lat="56.459165029227734" lon="-3.408338986337185">
        <ele>66.950000000000003</ele>
        <time>2019-09-01T08:51:16Z</time>
      </trkpt>
      <trkpt lat="56.459276005625725" lon="-3.408437976613641">
        <ele>66.950000000000003</ele>
        <time>2019-09-01T08:51:17Z</time>
      </trkpt>
      <trkpt lat="56.459402991458774" lon="-3.408550964668393">
        <ele>66.469999999999999</ele>
        <time>2019-09-01T08:51:18Z</time>
      </trkpt>
      <trkpt lat="56.459552021697164" lon="-3.408682979643345">
        <ele>65.989999999999995</ele>
        <time>2019-09-01T08:51:19Z</time>
      </trkpt>
      <trkpt lat="56.459719995036721" lon="-3.408812982961536">
        <ele>65.989999999999995</ele>
        <time>2019-09-01T08:51:20Z</time>
      </trkpt>
      <trkpt lat="56.460610991343856" lon="-3.409351017326117">
        <ele>67.909999999999997</ele>
        <time>2019-09-01T08:51:26Z</time>
      </trkpt>
      <trkpt lat="56.460758009925485" lon="-3.409338025376201">
        <ele>67.909999999999997</ele>
        <time>2019-09-01T08:51:27Z</time>
      </trkpt>
      <trkpt lat="56.460904022678733" lon="-3.409298965707421">
        <ele>67.909999999999997</ele>
        <time>2019-09-01T08:51:28Z</time>
      </trkpt>
      <trkpt lat="56.461050035431981" lon="-3.409224031493068">
        <ele>68.390000000000001</ele>
        <time>2019-09-01T08:51:29Z</time>
      </trkpt>
      <trkpt lat="56.461198981851339" lon="-3.409114982932806">
        <ele>68.390000000000001</ele>
        <time>2019-09-01T08:51:30Z</time>
      </trkpt>
      <trkpt lat="56.461355974897742" lon="-3.409000989049673">
        <ele>68.870000000000005</ele>
        <time>2019-09-01T08:51:31Z</time>
      </trkpt>
      <trkpt lat="56.463073007762432" lon="-3.407718976959586">
        <ele>72.719999999999999</ele>
        <time>2019-09-01T08:51:41Z</time>
      </trkpt>
      <trkpt lat="56.463565025478601" lon="-3.407384036108851">
        <ele>74.159999999999997</ele>
        <time>2019-09-01T08:51:44Z</time>
      </trkpt>
      <trkpt lat="56.463719001039863" lon="-3.407327961176634">
        <ele>73.680000000000007</ele>
        <time>2019-09-01T08:51:45Z</time>
      </trkpt>
      <trkpt lat="56.463889991864562" lon="-3.407327961176634">
        <ele>73.680000000000007</ele>
        <time>2019-09-01T08:51:46Z</time>
      </trkpt>
      <trkpt lat="56.464072968810797" lon="-3.407327961176634">
        <ele>74.159999999999997</ele>
        <time>2019-09-01T08:51:47Z</time>
      </trkpt>
      <trkpt lat="56.464264998212457" lon="-3.407367020845413">
        <ele>73.680000000000007</ele>
        <time>2019-09-01T08:51:48Z</time>
      </trkpt>
      <trkpt lat="56.466085966676474" lon="-3.407786032184959">
        <ele>73.200000000000003</ele>
        <time>2019-09-01T08:51:58Z</time>
      </trkpt>
      <trkpt lat="56.467418018728495" lon="-3.40811301022768">
        <ele>70.310000000000002</ele>
        <time>2019-09-01T08:52:07Z</time>
      </trkpt>
      <trkpt lat="56.468465002253652" lon="-3.408365976065397">
        <ele>67.430000000000007</ele>
        <time>2019-09-01T08:52:17Z</time>
      </trkpt>
      <trkpt lat="56.469648024067283" lon="-3.408655989915133">
        <ele>69.349999999999994</ele>
        <time>2019-09-01T08:52:28Z</time>
      </trkpt>
      <trkpt lat="56.471270006150007" lon="-3.409039964899421">
        <ele>68.870000000000005</ele>
        <time>2019-09-01T08:52:41Z</time>
      </trkpt>
      <trkpt lat="56.472858963534236" lon="-3.40944497846067">
        <ele>71.269999999999996</ele>
        <time>2019-09-01T08:52:53Z</time>
      </trkpt>
      <trkpt lat="56.474140975624323" lon="-3.409815961495042">
        <ele>71.760000000000005</ele>
        <time>2019-09-01T08:53:04Z</time>
      </trkpt>
      <trkpt lat="56.474253963679075" lon="-3.409886034205556">
        <ele>71.760000000000005</ele>
        <time>2019-09-01T08:53:05Z</time>
      </trkpt>
      <trkpt lat="56.474363012239337" lon="-3.409954011440277">
        <ele>71.760000000000005</ele>
        <time>2019-09-01T08:53:06Z</time>
      </trkpt>
      <trkpt lat="56.474445993080735" lon="-3.410092983394861">
        <ele>71.760000000000005</ele>
        <time>2019-09-01T08:53:07Z</time>
      </trkpt>
      <trkpt lat="56.47452101111412" lon="-3.4102619625628">
        <ele>71.760000000000005</ele>
        <time>2019-09-01T08:53:08Z</time>
      </trkpt>
      <trkpt lat="56.474569039419293" lon="-3.410470001399517">
        <ele>71.760000000000005</ele>
        <time>2019-09-01T08:53:09Z</time>
      </trkpt>
      <trkpt lat="56.474618995562196" lon="-3.41069002635777">
        <ele>71.760000000000005</ele>
        <time>2019-09-01T08:53:10Z</time>
      </trkpt>
      <trkpt lat="56.475027026608586" lon="-3.412070022895932">
        <ele>70.310000000000002</ele>
        <time>2019-09-01T08:53:16Z</time>
      </trkpt>
      <trkpt lat="56.475131968036294" lon="-3.412250988185406">
        <ele>70.310000000000002</ele>
        <time>2019-09-01T08:53:17Z</time>
      </trkpt>
      <trkpt lat="56.475246967747808" lon="-3.412449974566698">
        <ele>69.829999999999998</ele>
        <time>2019-09-01T08:53:18Z</time>
      </trkpt>
      <trkpt lat="56.475395997986197" lon="-3.412576038390398">
        <ele>69.349999999999994</ele>
        <time>2019-09-01T08:53:19Z</time>
      </trkpt>
      <trkpt lat="56.475553996860981" lon="-3.41269196011126">
        <ele>68.870000000000005</ele>
        <time>2019-09-01T08:53:20Z</time>
      </trkpt>
      <trkpt lat="56.475720964372158" lon="-3.412806037813425">
        <ele>68.390000000000001</ele>
        <time>2019-09-01T08:53:21Z</time>
      </trkpt>
      <trkpt lat="56.477632960304618" lon="-3.413880011066794">
        <ele>62.619999999999997</ele>
        <time>2019-09-01T08:53:31Z</time>
      </trkpt>
      <trkpt lat="56.480037979781628" lon="-3.415279034525156">
        <ele>66.469999999999999</ele>
        <time>2019-09-01T08:53:44Z</time>
      </trkpt>
      <trkpt lat="56.480866027995944" lon="-3.41576099395752">
        <ele>70.310000000000002</ele>
        <time>2019-09-01T08:53:49Z</time>
      </trkpt>
      <trkpt lat="56.481018997728825" lon="-3.415773985907435">
        <ele>70.790000000000006</ele>
        <time>2019-09-01T08:53:50Z</time>
      </trkpt>
      <trkpt lat="56.481172973290086" lon="-3.41576099395752">
        <ele>71.269999999999996</ele>
        <time>2019-09-01T08:53:51Z</time>
      </trkpt>
      <trkpt lat="56.481327032670379" lon="-3.415697040036321">
        <ele>71.760000000000005</ele>
        <time>2019-09-01T08:53:52Z</time>
      </trkpt>
      <trkpt lat="56.481486037373543" lon="-3.415630990639329">
        <ele>72.239999999999995</ele>
        <time>2019-09-01T08:53:53Z</time>
      </trkpt>
      <trkpt lat="56.481644036248326" lon="-3.415565025061369">
        <ele>73.200000000000003</ele>
        <time>2019-09-01T08:53:54Z</time>
      </trkpt>
      <trkpt lat="56.482756985351443" lon="-3.415358997881413">
        <ele>74.640000000000001</ele>
        <time>2019-09-01T08:54:01Z</time>
      </trkpt>
      <trkpt lat="56.482923030853271" lon="-3.41541700065136">
        <ele>74.159999999999997</ele>
        <time>2019-09-01T08:54:02Z</time>
      </trkpt>
      <trkpt lat="56.483903964981437" lon="-3.41574096120894">
        <ele>74.159999999999997</ele>
        <time>2019-09-01T08:54:08Z</time>
      </trkpt>
      <trkpt lat="56.485165022313595" lon="-3.415685975924134">
        <ele>71.760000000000005</ele>
        <time>2019-09-01T08:54:15Z</time>
      </trkpt>
      <trkpt lat="56.487069977447391" lon="-3.41537400148809">
        <ele>66.950000000000003</ele>
        <time>2019-09-01T08:54:25Z</time>
      </trkpt>
      <trkpt lat="56.487255971878767" lon="-3.415339970961213">
        <ele>66.469999999999999</ele>
        <time>2019-09-01T08:54:26Z</time>
      </trkpt>
      <trkpt lat="56.487440960481763" lon="-3.415237963199616">
        <ele>65.989999999999995</ele>
        <time>2019-09-01T08:54:27Z</time>
      </trkpt>
      <trkpt lat="56.489017009735107" lon="-3.41406499966979">
        <ele>62.140000000000001</ele>
        <time>2019-09-01T08:54:36Z</time>
      </trkpt>
      <trkpt lat="56.490313019603491" lon="-3.412401024252176">
        <ele>62.140000000000001</ele>
        <time>2019-09-01T08:54:44Z</time>
      </trkpt>
      <trkpt lat="56.49168798699975" lon="-3.410466983914375">
        <ele>62.619999999999997</ele>
        <time>2019-09-01T08:54:53Z</time>
      </trkpt>
      <trkpt lat="56.492646960541606" lon="-3.408849025145173">
        <ele>63.579999999999998</ele>
        <time>2019-09-01T08:55:00Z</time>
      </trkpt>
      <trkpt lat="56.492924988269806" lon="-3.408441999927163">
        <ele>63.100000000000001</ele>
        <time>2019-09-01T08:55:02Z</time>
      </trkpt>
      <trkpt lat="56.493896031752229" lon="-3.407203992828727">
        <ele>65.030000000000001</ele>
        <time>2019-09-01T08:55:08Z</time>
      </trkpt>
      <trkpt lat="56.495107971131802" lon="-3.405372966080904">
        <ele>69.349999999999994</ele>
        <time>2019-09-01T08:55:16Z</time>
      </trkpt>
      <trkpt lat="56.49656399153173" lon="-3.403134997934103">
        <ele>75.599999999999994</ele>
        <time>2019-09-01T08:55:25Z</time>
      </trkpt>
      <trkpt lat="56.4980230294168" lon="-3.400946985930204">
        <ele>83.769999999999996</ele>
        <time>2019-09-01T08:55:35Z</time>
      </trkpt>
      <trkpt lat="56.499307975172997" lon="-3.399613006040454">
        <ele>82.810000000000002</ele>
        <time>2019-09-01T08:55:43Z</time>
      </trkpt>
      <trkpt lat="56.501151993870735" lon="-3.397981971502304">
        <ele>76.560000000000002</ele>
        <time>2019-09-01T08:55:54Z</time>
      </trkpt>
      <trkpt lat="56.502610025927424" lon="-3.397632027044892">
        <ele>72.719999999999999</ele>
        <time>2019-09-01T08:56:01Z</time>
      </trkpt>
      <trkpt lat="56.503544021397829" lon="-3.397286022081971">
        <ele>73.200000000000003</ele>
        <time>2019-09-01T08:56:06Z</time>
      </trkpt>
      <trkpt lat="56.503708977252245" lon="-3.397120982408524">
        <ele>73.680000000000007</ele>
        <time>2019-09-01T08:56:07Z</time>
      </trkpt>
      <trkpt lat="56.503865970298648" lon="-3.396963989362121">
        <ele>74.640000000000001</ele>
        <time>2019-09-01T08:56:08Z</time>
      </trkpt>
      <trkpt lat="56.503993961960077" lon="-3.396716974675655">
        <ele>75.599999999999994</ele>
        <time>2019-09-01T08:56:09Z</time>
      </trkpt>
      <trkpt lat="56.504120025783777" lon="-3.396472977474332">
        <ele>76.079999999999998</ele>
        <time>2019-09-01T08:56:10Z</time>
      </trkpt>
      <trkpt lat="56.504238964989781" lon="-3.396220011636615">
        <ele>77.040000000000006</ele>
        <time>2019-09-01T08:56:11Z</time>
      </trkpt>
      <trkpt lat="56.50434298440814" lon="-3.395936032757163">
        <ele>77.519999999999996</ele>
        <time>2019-09-01T08:56:12Z</time>
      </trkpt>
      <trkpt lat="56.505638994276524" lon="-3.392672035843134">
        <ele>79.450000000000003</ele>
        <time>2019-09-01T08:56:24Z</time>
      </trkpt>
      <trkpt lat="56.507096020504832" lon="-3.38970098644495">
        <ele>80.409999999999997</ele>
        <time>2019-09-01T08:56:36Z</time>
      </trkpt>
      <trkpt lat="56.508135963231325" lon="-3.387727970257402">
        <ele>79.450000000000003</ele>
        <time>2019-09-01T08:56:44Z</time>
      </trkpt>
      <trkpt lat="56.508302008733153" lon="-3.387541975826025">
        <ele>79.450000000000003</ele>
        <time>2019-09-01T08:56:45Z</time>
      </trkpt>
      <trkpt lat="56.509976964443922" lon="-3.385747997090221">
        <ele>78.480000000000004</ele>
        <time>2019-09-01T08:56:55Z</time>
      </trkpt>
      <trkpt lat="56.511644041165709" lon="-3.383670961484313">
        <ele>77.519999999999996</ele>
        <time>2019-09-01T08:57:06Z</time>
      </trkpt>
      <trkpt lat="56.513002999126911" lon="-3.381820991635323">
        <ele>75.599999999999994</ele>
        <time>2019-09-01T08:57:16Z</time>
      </trkpt>
      <trkpt lat="56.514132963493466" lon="-3.379263002425432">
        <ele>70.790000000000006</ele>
        <time>2019-09-01T08:57:27Z</time>
      </trkpt>
      <trkpt lat="56.515437019988894" lon="-3.37663896381855">
        <ele>67.909999999999997</ele>
        <time>2019-09-01T08:57:37Z</time>
      </trkpt>
      <trkpt lat="56.51691097766161" lon="-3.373445961624384">
        <ele>63.579999999999998</ele>
        <time>2019-09-01T08:57:48Z</time>
      </trkpt>
      <trkpt lat="56.518578976392746" lon="-3.369243023917079">
        <ele>55.890000000000001</ele>
        <time>2019-09-01T08:58:02Z</time>
      </trkpt>
      <trkpt lat="56.519656972959638" lon="-3.365914989262819">
        <ele>45.32</ele>
        <time>2019-09-01T08:58:13Z</time>
      </trkpt>
      <trkpt lat="56.519778007641435" lon="-3.365708040073514">
        <ele>44.359999999999999</ele>
        <time>2019-09-01T08:58:14Z</time>
      </trkpt>
      <trkpt lat="56.520088976249099" lon="-3.365148967131972">
        <ele>41.950000000000003</ele>
        <time>2019-09-01T08:58:17Z</time>
      </trkpt>
      <trkpt lat="56.520173968747258" lon="-3.364948974922299">
        <ele>41.469999999999999</ele>
        <time>2019-09-01T08:58:18Z</time>
      </trkpt>
      <trkpt lat="56.520228032022715" lon="-3.364699026569724">
        <ele>41.469999999999999</ele>
        <time>2019-09-01T08:58:19Z</time>
      </trkpt>
      <trkpt lat="56.52028301730752" lon="-3.364440025761724">
        <ele>41.469999999999999</ele>
        <time>2019-09-01T08:58:20Z</time>
      </trkpt>
      <trkpt lat="56.520342025905848" lon="-3.364165015518665">
        <ele>41.469999999999999</ele>
        <time>2019-09-01T08:58:21Z</time>
      </trkpt>
      <trkpt lat="56.520404973998666" lon="-3.36387399584055">
        <ele>41.469999999999999</ele>
        <time>2019-09-01T08:58:22Z</time>
      </trkpt>
      <trkpt lat="56.521169990301132" lon="-3.361215004697442">
        <ele>40.509999999999998</ele>
        <time>2019-09-01T08:58:31Z</time>
      </trkpt>
      <trkpt lat="56.522078001871705" lon="-3.3586769644171">
        <ele>39.07</ele>
        <time>2019-09-01T08:58:40Z</time>
      </trkpt>
      <trkpt lat="56.522173974663019" lon="-3.358501028269529">
        <ele>39.07</ele>
        <time>2019-09-01T08:58:41Z</time>
      </trkpt>
      <trkpt lat="56.522267013788223" lon="-3.358331965282559">
        <ele>38.590000000000003</ele>
        <time>2019-09-01T08:58:42Z</time>
      </trkpt>
      <trkpt lat="56.522385030984879" lon="-3.358215037733316">
        <ele>38.590000000000003</ele>
        <time>2019-09-01T08:58:43Z</time>
      </trkpt>
      <trkpt lat="56.52251897379756" lon="-3.358120992779732">
        <ele>38.109999999999999</ele>
        <time>2019-09-01T08:58:44Z</time>
      </trkpt>
      <trkpt lat="56.522662974894047" lon="-3.358017979189754">
        <ele>38.109999999999999</ele>
        <time>2019-09-01T08:58:45Z</time>
      </trkpt>
      <trkpt lat="56.522818962112069" lon="-3.357972968369722">
        <ele>37.630000000000003</ele>
        <time>2019-09-01T08:58:46Z</time>
      </trkpt>
      <trkpt lat="56.524277999997139" lon="-3.357621012255549">
        <ele>34.259999999999998</ele>
        <time>2019-09-01T08:58:54Z</time>
      </trkpt>
      <trkpt lat="56.524447984993458" lon="-3.357688989490271">
        <ele>34.259999999999998</ele>
        <time>2019-09-01T08:58:55Z</time>
      </trkpt>
      <trkpt lat="56.525725973770022" lon="-3.358215037733316">
        <ele>33.299999999999997</ele>
        <time>2019-09-01T08:59:03Z</time>
      </trkpt>
      <trkpt lat="56.525878021493554" lon="-3.358314028009772">
        <ele>33.299999999999997</ele>
        <time>2019-09-01T08:59:04Z</time>
      </trkpt>
      <trkpt lat="56.526845963671803" lon="-3.359270989894867">
        <ele>33.780000000000001</ele>
        <time>2019-09-01T08:59:11Z</time>
      </trkpt>
      <trkpt lat="56.527117034420371" lon="-3.359698969870806">
        <ele>33.780000000000001</ele>
        <time>2019-09-01T08:59:17Z</time>
      </trkpt>
      <trkpt lat="56.527475025504827" lon="-3.36043800227344">
        <ele>33.780000000000001</ele>
        <time>2019-09-01T08:59:24Z</time>
      </trkpt>
      <trkpt lat="56.528154965490103" lon="-3.361594034358859">
        <ele>35.710000000000001</ele>
        <time>2019-09-01T08:59:35Z</time>
      </trkpt>
      <trkpt lat="56.528733987361193" lon="-3.362711006775498">
        <ele>33.780000000000001</ele>
        <time>2019-09-01T08:59:41Z</time>
      </trkpt>
      <trkpt lat="56.529322983697057" lon="-3.36398103274405">
        <ele>32.340000000000003</ele>
        <time>2019-09-01T08:59:47Z</time>
      </trkpt>
      <trkpt lat="56.529431026428938" lon="-3.364150011911988">
        <ele>32.340000000000003</ele>
        <time>2019-09-01T08:59:48Z</time>
      </trkpt>
      <trkpt lat="56.529540996998549" lon="-3.364314967766404">
        <ele>32.340000000000003</ele>
        <time>2019-09-01T08:59:49Z</time>
      </trkpt>
      <trkpt lat="56.529676029458642" lon="-3.364430973306298">
        <ele>32.340000000000003</ele>
        <time>2019-09-01T08:59:50Z</time>
      </trkpt>
      <trkpt lat="56.52982103638351" lon="-3.364555025473237">
        <ele>32.340000000000003</ele>
        <time>2019-09-01T08:59:51Z</time>
      </trkpt>
      <trkpt lat="56.529984986409545" lon="-3.36460598744452">
        <ele>32.82</ele>
        <time>2019-09-01T08:59:52Z</time>
      </trkpt>
      <trkpt lat="56.530148014426231" lon="-3.364650998264551">
        <ele>32.82</ele>
        <time>2019-09-01T08:59:53Z</time>
      </trkpt>
      <trkpt lat="56.530310036614537" lon="-3.364647980779409">
        <ele>33.299999999999997</ele>
        <time>2019-09-01T08:59:54Z</time>
      </trkpt>
      <trkpt lat="56.530472980812192" lon="-3.364609004929662">
        <ele>33.299999999999997</ele>
        <time>2019-09-01T08:59:55Z</time>
      </trkpt>
      <trkpt lat="56.530633997172117" lon="-3.364571034908295">
        <ele>33.299999999999997</ele>
        <time>2019-09-01T08:59:56Z</time>
      </trkpt>
      <trkpt lat="56.530930968001485" lon="-3.364404989406467">
        <ele>33.780000000000001</ele>
        <time>2019-09-01T08:59:58Z</time>
      </trkpt>
      <trkpt lat="56.531231962144375" lon="-3.364224024116993">
        <ele>34.259999999999998</ele>
        <time>2019-09-01T09:00:00Z</time>
      </trkpt>
      <trkpt lat="56.531378980726004" lon="-3.364136014133692">
        <ele>34.740000000000002</ele>
        <time>2019-09-01T09:00:01Z</time>
      </trkpt>
      <trkpt lat="56.531527005136013" lon="-3.364107012748718">
        <ele>35.229999999999997</ele>
        <time>2019-09-01T09:00:02Z</time>
      </trkpt>
      <trkpt lat="56.531665977090597" lon="-3.364099971950054">
        <ele>35.710000000000001</ele>
        <time>2019-09-01T09:00:03Z</time>
      </trkpt>
      <trkpt lat="56.531806960701942" lon="-3.364092009142041">
        <ele>36.189999999999998</ele>
        <time>2019-09-01T09:00:04Z</time>
      </trkpt>
      <trkpt lat="56.533100036904216" lon="-3.36402696557343">
        <ele>39.07</ele>
        <time>2019-09-01T09:00:12Z</time>
      </trkpt>
      <trkpt lat="56.534555973485112" lon="-3.363942978903651">
        <ele>44.359999999999999</ele>
        <time>2019-09-01T09:00:21Z</time>
      </trkpt>
      <trkpt lat="56.535180006176233" lon="-3.363867038860917">
        <ele>47.719999999999999</ele>
        <time>2019-09-01T09:00:25Z</time>
      </trkpt>
      <trkpt lat="56.535328030586243" lon="-3.363786991685629">
        <ele>49.159999999999997</ele>
        <time>2019-09-01T09:00:26Z</time>
      </trkpt>
      <trkpt lat="56.535479994490743" lon="-3.363672997802496">
        <ele>50.130000000000003</ele>
        <time>2019-09-01T09:00:27Z</time>
      </trkpt>
      <trkpt lat="56.535638999193907" lon="-3.36355397477746">
        <ele>51.57</ele>
        <time>2019-09-01T09:00:29Z</time>
      </trkpt>
      <trkpt lat="56.537485029548407" lon="-3.36177097633481">
        <ele>52.530000000000001</ele>
        <time>2019-09-01T09:00:39Z</time>
      </trkpt>
      <trkpt lat="56.538636032491922" lon="-3.360658027231693">
        <ele>52.049999999999997</ele>
        <time>2019-09-01T09:00:47Z</time>
      </trkpt>
      <trkpt lat="56.540012005716562" lon="-3.359546000137925">
        <ele>49.649999999999999</ele>
        <time>2019-09-01T09:00:58Z</time>
      </trkpt>
      <trkpt lat="56.541280020028353" lon="-3.358585014939308">
        <ele>46.759999999999998</ele>
        <time>2019-09-01T09:01:06Z</time>
      </trkpt>
      <trkpt lat="56.542660016566515" lon="-3.357539037242532">
        <ele>43.399999999999999</ele>
        <time>2019-09-01T09:01:14Z</time>
      </trkpt>
      <trkpt lat="56.5435950178653" lon="-3.356821965426207">
        <ele>41.950000000000003</ele>
        <time>2019-09-01T09:01:20Z</time>
      </trkpt>
      <trkpt lat="56.544919023290277" lon="-3.355801971629262">
        <ele>41.950000000000003</ele>
        <time>2019-09-01T09:01:28Z</time>
      </trkpt>
      <trkpt lat="56.546711996197701" lon="-3.354420969262719">
        <ele>42.439999999999998</ele>
        <time>2019-09-01T09:01:39Z</time>
      </trkpt>
      <trkpt lat="56.548746032640338" lon="-3.352854978293181">
        <ele>43.880000000000003</ele>
        <time>2019-09-01T09:01:51Z</time>
      </trkpt>
      <trkpt lat="56.550350999459624" lon="-3.351590987294912">
        <ele>49.159999999999997</ele>
        <time>2019-09-01T09:02:01Z</time>
      </trkpt>
      <trkpt lat="56.551872985437512" lon="-3.350460017099977">
        <ele>52.049999999999997</ele>
        <time>2019-09-01T09:02:10Z</time>
      </trkpt>
      <trkpt lat="56.553818006068468" lon="-3.349496014416218">
        <ele>52.049999999999997</ele>
        <time>2019-09-01T09:02:20Z</time>
      </trkpt>
      <trkpt lat="56.555730002000928" lon="-3.348896037787199">
        <ele>52.530000000000001</ele>
        <time>2019-09-01T09:02:30Z</time>
      </trkpt>
      <trkpt lat="56.557275960221887" lon="-3.348883967846632">
        <ele>50.609999999999999</ele>
        <time>2019-09-01T09:02:38Z</time>
      </trkpt>
      <trkpt lat="56.559266997501254" lon="-3.34937104023993">
        <ele>46.280000000000001</ele>
        <time>2019-09-01T09:02:48Z</time>
      </trkpt>
      <trkpt lat="56.560448007658124" lon="-3.349313959479332">
        <ele>47.719999999999999</ele>
        <time>2019-09-01T09:02:55Z</time>
      </trkpt>
      <trkpt lat="56.562093961983919" lon="-3.348873993381858">
        <ele>48.68</ele>
        <time>2019-09-01T09:03:06Z</time>
      </trkpt>
      <trkpt lat="56.563659030944109" lon="-3.3484279923141">
        <ele>49.159999999999997</ele>
        <time>2019-09-01T09:03:15Z</time>
      </trkpt>
      <trkpt lat="56.564168985933065" lon="-3.348282985389233">
        <ele>49.649999999999999</ele>
        <time>2019-09-01T09:03:18Z</time>
      </trkpt>
      <trkpt lat="56.56432899646461" lon="-3.348236968740821">
        <ele>49.649999999999999</ele>
        <time>2019-09-01T09:03:19Z</time>
      </trkpt>
      <trkpt lat="56.565586030483246" lon="-3.347877971827984">
        <ele>51.090000000000003</ele>
        <time>2019-09-01T09:03:28Z</time>
      </trkpt>
      <trkpt lat="56.567420996725559" lon="-3.347355024889112">
        <ele>51.57</ele>
        <time>2019-09-01T09:03:42Z</time>
      </trkpt>
      <trkpt lat="56.568900989368558" lon="-3.346934001892805">
        <ele>53.490000000000002</ele>
        <time>2019-09-01T09:03:52Z</time>
      </trkpt>
      <trkpt lat="56.56937699764967" lon="-3.346817996352911">
        <ele>54.93</ele>
        <time>2019-09-01T09:03:55Z</time>
      </trkpt>
      <trkpt lat="56.569495014846325" lon="-3.346825037151575">
        <ele>55.409999999999997</ele>
        <time>2019-09-01T09:03:56Z</time>
      </trkpt>
      <trkpt lat="56.570897977799177" lon="-3.346917992457748">
        <ele>57.82</ele>
        <time>2019-09-01T09:04:05Z</time>
      </trkpt>
      <trkpt lat="56.572017967700958" lon="-3.346990998834372">
        <ele>58.299999999999997</ele>
        <time>2019-09-01T09:04:12Z</time>
      </trkpt>
      <trkpt lat="56.572811985388398" lon="-3.347036009654403">
        <ele>57.340000000000003</ele>
        <time>2019-09-01T09:04:18Z</time>
      </trkpt>
      <trkpt lat="56.572942994534969" lon="-3.347046989947557">
        <ele>57.340000000000003</ele>
        <time>2019-09-01T09:04:19Z</time>
      </trkpt>
      <trkpt lat="56.574256019666791" lon="-3.347146986052394">
        <ele>56.859999999999999</ele>
        <time>2019-09-01T09:04:29Z</time>
      </trkpt>
      <trkpt lat="56.575510958209634" lon="-3.347242036834359">
        <ele>57.82</ele>
        <time>2019-09-01T09:04:38Z</time>
      </trkpt>
      <trkpt lat="56.576476972550154" lon="-3.347197026014328">
        <ele>63.100000000000001</ele>
        <time>2019-09-01T09:04:46Z</time>
      </trkpt>
      <trkpt lat="56.577639039605856" lon="-3.346699979156256">
        <ele>67.430000000000007</ele>
        <time>2019-09-01T09:04:55Z</time>
      </trkpt>
      <trkpt lat="56.578875035047531" lon="-3.346014004200697">
        <ele>70.790000000000006</ele>
        <time>2019-09-01T09:05:05Z</time>
      </trkpt>
      <trkpt lat="56.579735018312931" lon="-3.345792973414064">
        <ele>69.829999999999998</ele>
        <time>2019-09-01T09:05:14Z</time>
      </trkpt>
      <trkpt lat="56.580832963809371" lon="-3.345603039488196">
        <ele>71.760000000000005</ele>
        <time>2019-09-01T09:05:25Z</time>
      </trkpt>
      <trkpt lat="56.58213903196156" lon="-3.345395000651479">
        <ele>75.599999999999994</ele>
        <time>2019-09-01T09:05:37Z</time>
      </trkpt>
      <trkpt lat="56.582864988595247" lon="-3.345274971798062">
        <ele>78.480000000000004</ele>
        <time>2019-09-01T09:05:44Z</time>
      </trkpt>
      <trkpt lat="56.582964984700084" lon="-3.345258962363005">
        <ele>78.969999999999999</ele>
        <time>2019-09-01T09:05:45Z</time>
      </trkpt>
      <trkpt lat="56.584248002618551" lon="-3.345046984031797">
        <ele>80.890000000000001</ele>
        <time>2019-09-01T09:05:56Z</time>
      </trkpt>
      <trkpt lat="56.58514603972435" lon="-3.344902982935309">
        <ele>82.810000000000002</ele>
        <time>2019-09-01T09:06:05Z</time>
      </trkpt>
      <trkpt lat="56.586127979680896" lon="-3.344742972403765">
        <ele>82.329999999999998</ele>
        <time>2019-09-01T09:06:16Z</time>
      </trkpt>
      <trkpt lat="56.587240006774664" lon="-3.344524959102273">
        <ele>79.930000000000007</ele>
        <time>2019-09-01T09:06:26Z</time>
      </trkpt>
      <trkpt lat="56.587337991222739" lon="-3.344444995746017">
        <ele>79.450000000000003</ele>
        <time>2019-09-01T09:06:27Z</time>
      </trkpt>
      <trkpt lat="56.587435975670815" lon="-3.344357991591096">
        <ele>79.450000000000003</ele>
        <time>2019-09-01T09:06:28Z</time>
      </trkpt>
      <trkpt lat="56.58753496594727" lon="-3.344270987436175">
        <ele>79.450000000000003</ele>
        <time>2019-09-01T09:06:29Z</time>
      </trkpt>
      <trkpt lat="56.587632028385997" lon="-3.344184989109635">
        <ele>79.450000000000003</ele>
        <time>2019-09-01T09:06:30Z</time>
      </trkpt>
      <trkpt lat="56.587720038369298" lon="-3.344102008268237">
        <ele>79.450000000000003</ele>
        <time>2019-09-01T09:06:31Z</time>
      </trkpt>
      <trkpt lat="56.588482037186623" lon="-3.343359958380461">
        <ele>80.409999999999997</ele>
        <time>2019-09-01T09:06:40Z</time>
      </trkpt>
      <trkpt lat="56.589387031272054" lon="-3.342512967064977">
        <ele>83.769999999999996</ele>
        <time>2019-09-01T09:06:50Z</time>
      </trkpt>
      <trkpt lat="56.589820962399244" lon="-3.342102002352476">
        <ele>84.25</ele>
        <time>2019-09-01T09:06:56Z</time>
      </trkpt>
      <trkpt lat="56.590178031474352" lon="-3.34172498434782">
        <ele>84.730000000000004</ele>
        <time>2019-09-01T09:07:05Z</time>
      </trkpt>
      <trkpt lat="56.590529987588525" lon="-3.341392977163196">
        <ele>85.209999999999994</ele>
        <time>2019-09-01T09:07:11Z</time>
      </trkpt>
      <trkpt lat="56.590657979249954" lon="-3.341264985501766">
        <ele>85.209999999999994</ele>
        <time>2019-09-01T09:07:13Z</time>
      </trkpt>
      <trkpt lat="56.590728973969817" lon="-3.341193990781903">
        <ele>85.689999999999998</ele>
        <time>2019-09-01T09:07:14Z</time>
      </trkpt>
      <trkpt lat="56.591288968920708" lon="-3.340653022751212">
        <ele>86.180000000000007</ele>
        <time>2019-09-01T09:07:22Z</time>
      </trkpt>
      <trkpt lat="56.591434981673956" lon="-3.34054397419095">
        <ele>85.689999999999998</ele>
        <time>2019-09-01T09:07:24Z</time>
      </trkpt>
      <trkpt lat="56.591944014653563" lon="-3.340109037235379">
        <ele>85.689999999999998</ele>
        <time>2019-09-01T09:07:31Z</time>
      </trkpt>
      <trkpt lat="56.592579027637839" lon="-3.339465977624059">
        <ele>84.25</ele>
        <time>2019-09-01T09:07:40Z</time>
      </trkpt>
      <trkpt lat="56.592675000429153" lon="-3.33927302621305">
        <ele>83.290000000000006</ele>
        <time>2019-09-01T09:07:42Z</time>
      </trkpt>
      <trkpt lat="56.592713976278901" lon="-3.339170012623072">
        <ele>83.290000000000006</ele>
        <time>2019-09-01T09:07:43Z</time>
      </trkpt>
      <trkpt lat="56.592741971835494" lon="-3.339057024568319">
        <ele>82.810000000000002</ele>
        <time>2019-09-01T09:07:44Z</time>
      </trkpt>
      <trkpt lat="56.592766027897596" lon="-3.338963985443115">
        <ele>82.329999999999998</ele>
        <time>2019-09-01T09:07:45Z</time>
      </trkpt>
      <trkpt lat="56.592743983492255" lon="-3.338836999610066">
        <ele>82.329999999999998</ele>
        <time>2019-09-01T09:07:46Z</time>
      </trkpt>
      <trkpt lat="56.592725040391088" lon="-3.338723005726934">
        <ele>81.849999999999994</ele>
        <time>2019-09-01T09:07:47Z</time>
      </trkpt>
      <trkpt lat="56.59269000403583" lon="-3.33865100517869">
        <ele>81.370000000000005</ele>
        <time>2019-09-01T09:07:48Z</time>
      </trkpt>
      <trkpt lat="56.592638958245516" lon="-3.338562995195389">
        <ele>81.370000000000005</ele>
        <time>2019-09-01T09:07:49Z</time>
      </trkpt>
      <trkpt lat="56.592486994341016" lon="-3.338298965245485">
        <ele>80.409999999999997</ele>
        <time>2019-09-01T09:07:51Z</time>
      </trkpt>
      <trkpt lat="56.592476014047861" lon="-3.338280022144318">
        <ele>79.930000000000007</ele>
        <time>2019-09-01T09:07:52Z</time>
      </trkpt>
      <trkpt lat="56.592425974085927" lon="-3.338186983019114">
        <ele>79.450000000000003</ele>
        <time>2019-09-01T09:07:53Z</time>
      </trkpt>
      <trkpt lat="56.592164961621165" lon="-3.337797978892922">
        <ele>76.560000000000002</ele>
        <time>2019-09-01T09:07:58Z</time>
      </trkpt>
      <trkpt lat="56.592121962457895" lon="-3.337740981951356">
        <ele>76.079999999999998</ele>
        <time>2019-09-01T09:07:59Z</time>
      </trkpt>
      <trkpt lat="56.592032024636865" lon="-3.337724972516298">
        <ele>75.120000000000005</ele>
        <time>2019-09-01T09:08:00Z</time>
      </trkpt>
      <trkpt lat="56.591985002160072" lon="-3.337786998599768">
        <ele>74.640000000000001</ele>
        <time>2019-09-01T09:08:01Z</time>
      </trkpt>
      <trkpt lat="56.591926999390125" lon="-3.337865034118295">
        <ele>74.159999999999997</ele>
        <time>2019-09-01T09:08:02Z</time>
      </trkpt>
      <trkpt lat="56.591859022155404" lon="-3.337954971939325">
        <ele>74.159999999999997</ele>
        <time>2019-09-01T09:08:03Z</time>
      </trkpt>
      <trkpt lat="56.591789033263922" lon="-3.33804901689291">
        <ele>73.680000000000007</ele>
        <time>2019-09-01T09:08:04Z</time>
      </trkpt>
      <trkpt lat="56.591243958100677" lon="-3.338597025722265">
        <ele>75.599999999999994</ele>
        <time>2019-09-01T09:08:13Z</time>
      </trkpt>
      <trkpt lat="56.590876998379827" lon="-3.338997010141611">
        <ele>77.519999999999996</ele>
        <time>2019-09-01T09:08:22Z</time>
      </trkpt>
      <trkpt lat="56.59073400311172" lon="-3.339016959071159">
        <ele>78</ele>
        <time>2019-09-01T09:08:27Z</time>
      </trkpt>
      <trkpt lat="56.590716987848282" lon="-3.338958034291863">
        <ele>78</ele>
        <time>2019-09-01T09:08:28Z</time>
      </trkpt>
      <trkpt lat="56.59069100394845" lon="-3.338871030136943">
        <ele>78</ele>
        <time>2019-09-01T09:08:29Z</time>
      </trkpt>
      <trkpt lat="56.590656973421574" lon="-3.338758964091539">
        <ele>78</ele>
        <time>2019-09-01T09:08:30Z</time>
      </trkpt>
      <trkpt lat="56.590619003400207" lon="-3.338631978258491">
        <ele>78</ele>
        <time>2019-09-01T09:08:31Z</time>
      </trkpt>
      <trkpt lat="56.590434014797211" lon="-3.338015992194414">
        <ele>75.599999999999994</ele>
        <time>2019-09-01T09:08:36Z</time>
      </trkpt>
      <trkpt lat="56.59041197039187" lon="-3.337940974161029">
        <ele>75.120000000000005</ele>
        <time>2019-09-01T09:08:37Z</time>
      </trkpt>
      <trkpt lat="56.590394033119082" lon="-3.337880959734321">
        <ele>74.640000000000001</ele>
        <time>2019-09-01T09:08:38Z</time>
      </trkpt>
      <trkpt lat="56.590377017855644" lon="-3.337824968621135">
        <ele>74.159999999999997</ele>
        <time>2019-09-01T09:08:39Z</time>
      </trkpt>
      <trkpt lat="56.590362014248967" lon="-3.337775012478232">
        <ele>73.680000000000007</ele>
        <time>2019-09-01T09:08:40Z</time>
      </trkpt>
      <trkpt lat="56.590349022299051" lon="-3.337731007486582">
        <ele>72.719999999999999</ele>
        <time>2019-09-01T09:08:41Z</time>
      </trkpt>
      <trkpt lat="56.590337036177516" lon="-3.337692031636834">
        <ele>71.760000000000005</ele>
        <time>2019-09-01T09:08:42Z</time>
      </trkpt>
      <trkpt lat="56.590394033119082" lon="-3.337584994733334">
        <ele>70.790000000000006</ele>
        <time>2019-09-01T09:08:43Z</time>
      </trkpt>
      <trkpt lat="56.590448012575507" lon="-3.337549958378077">
        <ele>70.310000000000002</ele>
        <time>2019-09-01T09:08:44Z</time>
      </trkpt>
      <trkpt lat="56.590520013123751" lon="-3.337504025548697">
        <ele>69.349999999999994</ele>
        <time>2019-09-01T09:08:45Z</time>
      </trkpt>
      <trkpt lat="56.590601988136768" lon="-3.337450968101621">
        <ele>67.909999999999997</ele>
        <time>2019-09-01T09:08:46Z</time>
      </trkpt>
      <trkpt lat="56.590694021433592" lon="-3.337391037493944">
        <ele>66.950000000000003</ele>
        <time>2019-09-01T09:08:47Z</time>
      </trkpt>
      <trkpt lat="56.591081013903022" lon="-3.337128013372421">
        <ele>62.140000000000001</ele>
        <time>2019-09-01T09:08:51Z</time>
      </trkpt>
      <trkpt lat="56.59116399474442" lon="-3.33703899756074">
        <ele>60.700000000000003</ele>
        <time>2019-09-01T09:08:52Z</time>
      </trkpt>
      <trkpt lat="56.591241024434566" lon="-3.336957022547722">
        <ele>59.259999999999998</ele>
        <time>2019-09-01T09:08:53Z</time>
      </trkpt>
      <trkpt lat="56.591312019154429" lon="-3.336882004514337">
        <ele>58.299999999999997</ele>
        <time>2019-09-01T09:08:54Z</time>
      </trkpt>
      <trkpt lat="56.591376978904009" lon="-3.336808998137713">
        <ele>57.340000000000003</ele>
        <time>2019-09-01T09:08:55Z</time>
      </trkpt>
      <trkpt lat="56.591727007180452" lon="-3.336227964609861">
        <ele>53.969999999999999</ele>
        <time>2019-09-01T09:09:02Z</time>
      </trkpt>
      <trkpt lat="56.591827003285289" lon="-3.33605102263391">
        <ele>53.490000000000002</ele>
        <time>2019-09-01T09:09:04Z</time>
      </trkpt>
      <trkpt lat="56.591864973306656" lon="-3.335937028750777">
        <ele>53.009999999999998</ele>
        <time>2019-09-01T09:09:05Z</time>
      </trkpt>
      <trkpt lat="56.59223897382617" lon="-3.334489976987243">
        <ele>51.57</ele>
        <time>2019-09-01T09:09:17Z</time>
      </trkpt>
      <trkpt lat="56.592643987387419" lon="-3.333042003214359">
        <ele>52.530000000000001</ele>
        <time>2019-09-01T09:09:26Z</time>
      </trkpt>
      <trkpt lat="56.592790000140667" lon="-3.332743020728231">
        <ele>54.93</ele>
        <time>2019-09-01T09:09:28Z</time>
      </trkpt>
      <trkpt lat="56.592878010123968" lon="-3.332619974389672">
        <ele>55.890000000000001</ele>
        <time>2019-09-01T09:09:29Z</time>
      </trkpt>
      <trkpt lat="56.592958979308605" lon="-3.332504974678159">
        <ele>56.859999999999999</ele>
        <time>2019-09-01T09:09:30Z</time>
      </trkpt>
      <trkpt lat="56.593031985685229" lon="-3.332435991615057">
        <ele>57.340000000000003</ele>
        <time>2019-09-01T09:09:31Z</time>
      </trkpt>
      <trkpt lat="56.593094011768699" lon="-3.332376983016729">
        <ele>58.299999999999997</ele>
        <time>2019-09-01T09:09:32Z</time>
      </trkpt>
      <trkpt lat="56.593342032283545" lon="-3.332142038270831">
        <ele>64.069999999999993</ele>
        <time>2019-09-01T09:09:38Z</time>
      </trkpt>
      <trkpt lat="56.593416966497898" lon="-3.332200963050127">
        <ele>65.030000000000001</ele>
        <time>2019-09-01T09:09:39Z</time>
      </trkpt>
      <trkpt lat="56.59346298314631" lon="-3.332275981083512">
        <ele>65.989999999999995</ele>
        <time>2019-09-01T09:09:40Z</time>
      </trkpt>
      <trkpt lat="56.593521991744637" lon="-3.332372959703207">
        <ele>66.469999999999999</ele>
        <time>2019-09-01T09:09:41Z</time>
      </trkpt>
      <trkpt lat="56.593590974807739" lon="-3.33248401992023">
        <ele>67.430000000000007</ele>
        <time>2019-09-01T09:09:42Z</time>
      </trkpt>
      <trkpt lat="56.593663981184363" lon="-3.332602959126234">
        <ele>67.909999999999997</ele>
        <time>2019-09-01T09:09:43Z</time>
      </trkpt>
      <trkpt lat="56.59397603943944" lon="-3.333109980449081">
        <ele>69.829999999999998</ele>
        <time>2019-09-01T09:09:47Z</time>
      </trkpt>
      <trkpt lat="56.594049967825413" lon="-3.333231015130878">
        <ele>70.310000000000002</ele>
        <time>2019-09-01T09:09:48Z</time>
      </trkpt>
      <trkpt lat="56.594628989696503" lon="-3.334330972284079">
        <ele>75.120000000000005</ele>
        <time>2019-09-01T09:09:58Z</time>
      </trkpt>
      <trkpt lat="56.595319993793964" lon="-3.33562295883894">
        <ele>77.040000000000006</ele>
        <time>2019-09-01T09:10:10Z</time>
      </trkpt>
      <trkpt lat="56.595577988773584" lon="-3.335915990173817">
        <ele>78</ele>
        <time>2019-09-01T09:10:13Z</time>
      </trkpt>
      <trkpt lat="56.596779031679034" lon="-3.336741020902991">
        <ele>79.450000000000003</ele>
        <time>2019-09-01T09:10:24Z</time>
      </trkpt>
      <trkpt lat="56.597771029919386" lon="-3.337359018623829">
        <ele>80.890000000000001</ele>
        <time>2019-09-01T09:10:32Z</time>
      </trkpt>
      <trkpt lat="56.597893992438912" lon="-3.337436970323324">
        <ele>81.370000000000005</ele>
        <time>2019-09-01T09:10:33Z</time>
      </trkpt>
      <trkpt lat="56.598001029342413" lon="-3.337505031377077">
        <ele>81.849999999999994</ele>
        <time>2019-09-01T09:10:34Z</time>
      </trkpt>
      <trkpt lat="56.598131032660604" lon="-3.337659006938338">
        <ele>82.329999999999998</ele>
        <time>2019-09-01T09:10:35Z</time>
      </trkpt>
      <trkpt lat="56.598250977694988" lon="-3.337802002206445">
        <ele>82.329999999999998</ele>
        <time>2019-09-01T09:10:36Z</time>
      </trkpt>
      <trkpt lat="56.598821030929685" lon="-3.338426034897566">
        <ele>85.689999999999998</ele>
        <time>2019-09-01T09:10:41Z</time>
      </trkpt>
      <trkpt lat="56.598936030641198" lon="-3.338518990203738">
        <ele>86.659999999999997</ele>
        <time>2019-09-01T09:10:42Z</time>
      </trkpt>
      <trkpt lat="56.599863991141319" lon="-3.339321976527572">
        <ele>92.900000000000006</ele>
        <time>2019-09-01T09:10:50Z</time>
      </trkpt>
      <trkpt lat="56.600736966356635" lon="-3.340029995888472">
        <ele>95.790000000000006</ele>
        <time>2019-09-01T09:10:58Z</time>
      </trkpt>
      <trkpt lat="56.601829966530204" lon="-3.340631984174252">
        <ele>95.310000000000002</ele>
        <time>2019-09-01T09:11:08Z</time>
      </trkpt>
      <trkpt lat="56.602053008973598" lon="-3.340747989714146">
        <ele>94.829999999999998</ele>
        <time>2019-09-01T09:11:10Z</time>
      </trkpt>
      <trkpt lat="56.602155016735196" lon="-3.34080196917057">
        <ele>94.349999999999994</ele>
        <time>2019-09-01T09:11:11Z</time>
      </trkpt>
      <trkpt lat="56.60225098952651" lon="-3.340852009132505">
        <ele>94.349999999999994</ele>
        <time>2019-09-01T09:11:12Z</time>
      </trkpt>
      <trkpt lat="56.60233598202467" lon="-3.340898025780916">
        <ele>93.870000000000005</ele>
        <time>2019-09-01T09:11:13Z</time>
      </trkpt>
      <trkpt lat="56.602407982572913" lon="-3.340938007459045">
        <ele>93.390000000000001</ele>
        <time>2019-09-01T09:11:14Z</time>
      </trkpt>
      <trkpt lat="56.602473026141524" lon="-3.34097396582365">
        <ele>92.900000000000006</ele>
        <time>2019-09-01T09:11:15Z</time>
      </trkpt>
      <trkpt lat="56.602624990046024" lon="-3.341058036312461">
        <ele>92.900000000000006</ele>
        <time>2019-09-01T09:11:18Z</time>
      </trkpt>
      <trkpt lat="56.602665977552533" lon="-3.341081002727151">
        <ele>92.420000000000002</ele>
        <time>2019-09-01T09:11:19Z</time>
      </trkpt>
      <trkpt lat="56.602940987795591" lon="-3.341276971623302">
        <ele>91.939999999999998</ele>
        <time>2019-09-01T09:11:29Z</time>
      </trkpt>
      <trkpt lat="56.6029819753021" lon="-3.341309996321797">
        <ele>91.939999999999998</ele>
        <time>2019-09-01T09:11:39Z</time>
      </trkpt>
      <trkpt lat="56.603015000000596" lon="-3.34133698605001">
        <ele>92.420000000000002</ele>
        <time>2019-09-01T09:12:30Z</time>
      </trkpt>
      <trkpt lat="56.603357987478375" lon="-3.341614007949829">
        <ele>92.420000000000002</ele>
        <time>2019-09-01T09:12:36Z</time>
      </trkpt>
      <trkpt lat="56.60340903326869" lon="-3.341653989627957">
        <ele>92.420000000000002</ele>
        <time>2019-09-01T09:12:37Z</time>
      </trkpt>
      <trkpt lat="56.60345102660358" lon="-3.341689025983214">
        <ele>91.939999999999998</ele>
        <time>2019-09-01T09:12:38Z</time>
      </trkpt>
      <trkpt lat="56.60351799800992" lon="-3.341773012652993">
        <ele>91.939999999999998</ele>
        <time>2019-09-01T09:12:39Z</time>
      </trkpt>
      <trkpt lat="56.60418301820755" lon="-3.342617992311716">
        <ele>89.060000000000002</ele>
        <time>2019-09-01T09:12:50Z</time>
      </trkpt>
      <trkpt lat="56.604244960471988" lon="-3.342698039487004">
        <ele>89.060000000000002</ele>
        <time>2019-09-01T09:12:51Z</time>
      </trkpt>
      <trkpt lat="56.604473032057285" lon="-3.342833993956447">
        <ele>87.620000000000005</ele>
        <time>2019-09-01T09:12:54Z</time>
      </trkpt>
      <trkpt lat="56.604552995413542" lon="-3.34288202226162">
        <ele>87.140000000000001</ele>
        <time>2019-09-01T09:12:55Z</time>
      </trkpt>
      <trkpt lat="56.604634970426559" lon="-3.342931978404522">
        <ele>87.140000000000001</ele>
        <time>2019-09-01T09:12:56Z</time>
      </trkpt>
      <trkpt lat="56.604718035086989" lon="-3.343006996437907">
        <ele>87.140000000000001</ele>
        <time>2019-09-01T09:12:57Z</time>
      </trkpt>
      <trkpt lat="56.604790035635233" lon="-3.343091988936067">
        <ele>87.620000000000005</ele>
        <time>2019-09-01T09:12:58Z</time>
      </trkpt>
      <trkpt lat="56.604864969849586" lon="-3.343181004747748">
        <ele>87.620000000000005</ele>
        <time>2019-09-01T09:12:59Z</time>
      </trkpt>
      <trkpt lat="56.605239976197481" lon="-3.343737982213497">
        <ele>90.5</ele>
        <time>2019-09-01T09:13:04Z</time>
      </trkpt>
      <trkpt lat="56.605865014716983" lon="-3.34501001983881">
        <ele>94.349999999999994</ele>
        <time>2019-09-01T09:13:14Z</time>
      </trkpt>
      <trkpt lat="56.606798004359007" lon="-3.346824031323195">
        <ele>94.829999999999998</ele>
        <time>2019-09-01T09:13:25Z</time>
      </trkpt>
      <trkpt lat="56.606899006292224" lon="-3.346940958872438">
        <ele>94.829999999999998</ele>
        <time>2019-09-01T09:13:26Z</time>
      </trkpt>
      <trkpt lat="56.607003025710583" lon="-3.347062999382615">
        <ele>94.349999999999994</ele>
        <time>2019-09-01T09:13:27Z</time>
      </trkpt>
      <trkpt lat="56.607133029028773" lon="-3.347122007980943">
        <ele>94.349999999999994</ele>
        <time>2019-09-01T09:13:28Z</time>
      </trkpt>
      <trkpt lat="56.607265966013074" lon="-3.347173975780606">
        <ele>93.870000000000005</ele>
        <time>2019-09-01T09:13:29Z</time>
      </trkpt>
      <trkpt lat="56.607404015958309" lon="-3.347228039056063">
        <ele>93.390000000000001</ele>
        <time>2019-09-01T09:13:30Z</time>
      </trkpt>
      <trkpt lat="56.607507029548287" lon="-3.347268020734191">
        <ele>93.390000000000001</ele>
        <time>2019-09-01T09:13:31Z</time>
      </trkpt>
      <trkpt lat="56.607683971524239" lon="-3.347209012135863">
        <ele>92.900000000000006</ele>
        <time>2019-09-01T09:13:32Z</time>
      </trkpt>
      <trkpt lat="56.607811963185668" lon="-3.347145980224013">
        <ele>92.420000000000002</ele>
        <time>2019-09-01T09:13:33Z</time>
      </trkpt>
      <trkpt lat="56.607940960675478" lon="-3.347046989947557">
        <ele>91.939999999999998</ele>
        <time>2019-09-01T09:13:34Z</time>
      </trkpt>
      <trkpt lat="56.608047997578979" lon="-3.346960991621018">
        <ele>91.459999999999994</ele>
        <time>2019-09-01T09:13:35Z</time>
      </trkpt>
      <trkpt lat="56.608148999512196" lon="-3.346813973039389">
        <ele>91.459999999999994</ele>
        <time>2019-09-01T09:13:36Z</time>
      </trkpt>
      <trkpt lat="56.608248995617032" lon="-3.346667038276792">
        <ele>90.980000000000004</ele>
        <time>2019-09-01T09:13:37Z</time>
      </trkpt>
      <trkpt lat="56.608497016131878" lon="-3.346160016953945">
        <ele>91.939999999999998</ele>
        <time>2019-09-01T09:13:40Z</time>
      </trkpt>
      <trkpt lat="56.608663983643055" lon="-3.345778975635767">
        <ele>92.420000000000002</ele>
        <time>2019-09-01T09:13:42Z</time>
      </trkpt>
      <trkpt lat="56.608746964484453" lon="-3.345589963719249">
        <ele>92.900000000000006</ele>
        <time>2019-09-01T09:13:43Z</time>
      </trkpt>
      <trkpt lat="56.608818965032697" lon="-3.345385026186705">
        <ele>92.900000000000006</ele>
        <time>2019-09-01T09:13:44Z</time>
      </trkpt>
      <trkpt lat="56.609172010794282" lon="-3.34434499964118">
        <ele>93.870000000000005</ele>
        <time>2019-09-01T09:13:49Z</time>
      </trkpt>
      <trkpt lat="56.609263960272074" lon="-3.344162022694945">
        <ele>93.870000000000005</ele>
        <time>2019-09-01T09:13:50Z</time>
      </trkpt>
      <trkpt lat="56.60936001688242" lon="-3.343988014385104">
        <ele>93.870000000000005</ele>
        <time>2019-09-01T09:13:51Z</time>
      </trkpt>
      <trkpt lat="56.609474010765553" lon="-3.343834038823843">
        <ele>93.870000000000005</ele>
        <time>2019-09-01T09:13:52Z</time>
      </trkpt>
      <trkpt lat="56.609585992991924" lon="-3.343682996928692">
        <ele>93.390000000000001</ele>
        <time>2019-09-01T09:13:53Z</time>
      </trkpt>
      <trkpt lat="56.61002503708005" lon="-3.343131970614195">
        <ele>93.390000000000001</ele>
        <time>2019-09-01T09:13:57Z</time>
      </trkpt>
      <trkpt lat="56.610153028741479" lon="-3.343020994216204">
        <ele>93.390000000000001</ele>
        <time>2019-09-01T09:13:58Z</time>
      </trkpt>
      <trkpt lat="56.610442958772182" lon="-3.34286198951304">
        <ele>93.870000000000005</ele>
        <time>2019-09-01T09:14:00Z</time>
      </trkpt>
      <trkpt lat="56.61060799844563" lon="-3.342799041420221">
        <ele>94.829999999999998</ele>
        <time>2019-09-01T09:14:01Z</time>
      </trkpt>
      <trkpt lat="56.610777983441949" lon="-3.342773979529738">
        <ele>95.790000000000006</ele>
        <time>2019-09-01T09:14:02Z</time>
      </trkpt>
      <trkpt lat="56.610958026722074" lon="-3.342801975086331">
        <ele>96.75</ele>
        <time>2019-09-01T09:14:03Z</time>
      </trkpt>
      <trkpt lat="56.611141003668308" lon="-3.342847991734743">
        <ele>98.189999999999998</ele>
        <time>2019-09-01T09:14:04Z</time>
      </trkpt>
      <trkpt lat="56.61131601780653" lon="-3.342976989224553">
        <ele>99.629999999999995</ele>
        <time>2019-09-01T09:14:05Z</time>
      </trkpt>
      <trkpt lat="56.611496983096004" lon="-3.343110010027885">
        <ele>101.08</ele>
        <time>2019-09-01T09:14:06Z</time>
      </trkpt>
      <trkpt lat="56.611661016941071" lon="-3.343320982530713">
        <ele>102.52</ele>
        <time>2019-09-01T09:14:07Z</time>
      </trkpt>
      <trkpt lat="56.611820021644235" lon="-3.343540001660585">
        <ele>103.95999999999999</ele>
        <time>2019-09-01T09:14:08Z</time>
      </trkpt>
      <trkpt lat="56.611956981942058" lon="-3.34380797110498">
        <ele>105.40000000000001</ele>
        <time>2019-09-01T09:14:09Z</time>
      </trkpt>
      <trkpt lat="56.612076004967093" lon="-3.344104019924998">
        <ele>107.31999999999999</ele>
        <time>2019-09-01T09:14:10Z</time>
      </trkpt>
      <trkpt lat="56.612158985808492" lon="-3.344424962997437">
        <ele>108.77</ele>
        <time>2019-09-01T09:14:11Z</time>
      </trkpt>
      <trkpt lat="56.612224029377103" lon="-3.344757976010442">
        <ele>110.69</ele>
        <time>2019-09-01T09:14:12Z</time>
      </trkpt>
      <trkpt lat="56.612264011055231" lon="-3.345101969316602">
        <ele>112.61</ele>
        <time>2019-09-01T09:14:13Z</time>
      </trkpt>
      <trkpt lat="56.612303992733359" lon="-3.345442023128271">
        <ele>114.05</ele>
        <time>2019-09-01T09:14:14Z</time>
      </trkpt>
      <trkpt lat="56.61271302960813" lon="-3.348695039749146">
        <ele>128.94999999999999</ele>
        <time>2019-09-01T09:14:24Z</time>
      </trkpt>
      <trkpt lat="56.61327201873064" lon="-3.35040302015841">
        <ele>137.61000000000001</ele>
        <time>2019-09-01T09:14:30Z</time>
      </trkpt>
      <trkpt lat="56.613405961543322" lon="-3.350645005702972">
        <ele>139.05000000000001</ele>
        <time>2019-09-01T09:14:31Z</time>
      </trkpt>
      <trkpt lat="56.613554991781712" lon="-3.350866958498955">
        <ele>140.97</ele>
        <time>2019-09-01T09:14:32Z</time>
      </trkpt>
      <trkpt lat="56.615207986906171" lon="-3.352759005501866">
        <ele>156.34999999999999</ele>
        <time>2019-09-01T09:14:42Z</time>
      </trkpt>
      <trkpt lat="56.617045970633626" lon="-3.354321978986263">
        <ele>169.33000000000001</ele>
        <time>2019-09-01T09:14:52Z</time>
      </trkpt>
      <trkpt lat="56.617590039968491" lon="-3.354599000886083">
        <ele>171.72999999999999</ele>
        <time>2019-09-01T09:14:55Z</time>
      </trkpt>
      <trkpt lat="56.617759019136429" lon="-3.354622973129153">
        <ele>172.21000000000001</ele>
        <time>2019-09-01T09:14:56Z</time>
      </trkpt>
      <trkpt lat="56.617921041324735" lon="-3.354611992835999">
        <ele>172.69</ele>
        <time>2019-09-01T09:14:57Z</time>
      </trkpt>
      <trkpt lat="56.618077028542757" lon="-3.354574022814632">
        <ele>173.16999999999999</ele>
        <time>2019-09-01T09:14:58Z</time>
      </trkpt>
      <trkpt lat="56.618228992447257" lon="-3.35450797341764">
        <ele>173.16999999999999</ele>
        <time>2019-09-01T09:14:59Z</time>
      </trkpt>
      <trkpt lat="56.618380034342408" lon="-3.354405965656042">
        <ele>173.66</ele>
        <time>2019-09-01T09:15:00Z</time>
      </trkpt>
      <trkpt lat="56.618526969105005" lon="-3.354275040328503">
        <ele>173.66</ele>
        <time>2019-09-01T09:15:01Z</time>
      </trkpt>
      <trkpt lat="56.618675999343395" lon="-3.35414201952517">
        <ele>173.66</ele>
        <time>2019-09-01T09:15:02Z</time>
      </trkpt>
      <trkpt lat="56.618802985176444" lon="-3.353947978466749">
        <ele>173.16999999999999</ele>
        <time>2019-09-01T09:15:03Z</time>
      </trkpt>
      <trkpt lat="56.61892301402986" lon="-3.353739017620683">
        <ele>173.16999999999999</ele>
        <time>2019-09-01T09:15:04Z</time>
      </trkpt>
      <trkpt lat="56.619041031226516" lon="-3.353533996269107">
        <ele>172.69</ele>
        <time>2019-09-01T09:15:05Z</time>
      </trkpt>
      <trkpt lat="56.620205026119947" lon="-3.351659970358014">
        <ele>170.28999999999999</ele>
        <time>2019-09-01T09:15:14Z</time>
      </trkpt>
      <trkpt lat="56.621535988524556" lon="-3.350519025698304">
        <ele>166.44999999999999</ele>
        <time>2019-09-01T09:15:21Z</time>
      </trkpt>
      <trkpt lat="56.621738998219371" lon="-3.350436966866255">
        <ele>165.47999999999999</ele>
        <time>2019-09-01T09:15:22Z</time>
      </trkpt>
      <trkpt lat="56.621933039277792" lon="-3.35036002099514">
        <ele>165</ele>
        <time>2019-09-01T09:15:23Z</time>
      </trkpt>
      <trkpt lat="56.623195018619299" lon="-3.350407965481281">
        <ele>161.16</ele>
        <time>2019-09-01T09:15:30Z</time>
      </trkpt>
      <trkpt lat="56.625253027305007" lon="-3.351312037557364">
        <ele>163.56</ele>
        <time>2019-09-01T09:15:42Z</time>
      </trkpt>
      <trkpt lat="56.626205965876579" lon="-3.352071018889546">
        <ele>168.84999999999999</ele>
        <time>2019-09-01T09:15:48Z</time>
      </trkpt>
      <trkpt lat="56.62633303552866" lon="-3.352278973907232">
        <ele>169.33000000000001</ele>
        <time>2019-09-01T09:15:49Z</time>
      </trkpt>
      <trkpt lat="56.626452980563045" lon="-3.35250997915864">
        <ele>170.28999999999999</ele>
        <time>2019-09-01T09:15:50Z</time>
      </trkpt>
      <trkpt lat="56.627283962443471" lon="-3.354495987296104">
        <ele>171.72999999999999</ele>
        <time>2019-09-01T09:15:58Z</time>
      </trkpt>
      <trkpt lat="56.628044033423066" lon="-3.356475038453937">
        <ele>174.62</ele>
        <time>2019-09-01T09:16:07Z</time>
      </trkpt>
      <trkpt lat="56.628416022285819" lon="-3.357444992288947">
        <ele>175.09999999999999</ele>
        <time>2019-09-01T09:16:11Z</time>
      </trkpt>
      <trkpt lat="56.628501014783978" lon="-3.357666023075581">
        <ele>175.09999999999999</ele>
        <time>2019-09-01T09:16:12Z</time>
      </trkpt>
      <trkpt lat="56.629446996375918" lon="-3.360060984268785">
        <ele>174.62</ele>
        <time>2019-09-01T09:16:23Z</time>
      </trkpt>
      <trkpt lat="56.629538023844361" lon="-3.360271034762263">
        <ele>175.09999999999999</ele>
        <time>2019-09-01T09:16:24Z</time>
      </trkpt>
      <trkpt lat="56.629657968878746" lon="-3.360435990616679">
        <ele>175.09999999999999</ele>
        <time>2019-09-01T09:16:25Z</time>
      </trkpt>
      <trkpt lat="56.630922965705395" lon="-3.36215696297586">
        <ele>179.41999999999999</ele>
        <time>2019-09-01T09:16:34Z</time>
      </trkpt>
      <trkpt lat="56.632232973352075" lon="-3.363884976133704">
        <ele>183.27000000000001</ele>
        <time>2019-09-01T09:16:44Z</time>
      </trkpt>
      <trkpt lat="56.633054986596107" lon="-3.364874040707946">
        <ele>183.75</ele>
        <time>2019-09-01T09:16:50Z</time>
      </trkpt>
      <trkpt lat="56.634388966485858" lon="-3.365965029224753">
        <ele>187.11000000000001</ele>
        <time>2019-09-01T09:16:58Z</time>
      </trkpt>
      <trkpt lat="56.634829016402364" lon="-3.366255965083838">
        <ele>188.08000000000001</ele>
        <time>2019-09-01T09:17:01Z</time>
      </trkpt>
      <trkpt lat="56.634962037205696" lon="-3.366369036957622">
        <ele>188.08000000000001</ele>
        <time>2019-09-01T09:17:02Z</time>
      </trkpt>
      <trkpt lat="56.635083993896842" lon="-3.366544973105192">
        <ele>188.56</ele>
        <time>2019-09-01T09:17:03Z</time>
      </trkpt>
      <trkpt lat="56.636242959648371" lon="-3.367991019040346">
        <ele>188.08000000000001</ele>
        <time>2019-09-01T09:17:11Z</time>
      </trkpt>
      <trkpt lat="56.637168992310762" lon="-3.369078990072012">
        <ele>189.52000000000001</ele>
        <time>2019-09-01T09:17:18Z</time>
      </trkpt>
      <trkpt lat="56.638081027194858" lon="-3.370828963816166">
        <ele>190.47999999999999</ele>
        <time>2019-09-01T09:17:26Z</time>
      </trkpt>
      <trkpt lat="56.639058021828532" lon="-3.372822012752295">
        <ele>187.11000000000001</ele>
        <time>2019-09-01T09:17:35Z</time>
      </trkpt>
      <trkpt lat="56.639916999265552" lon="-3.37466100230813">
        <ele>184.71000000000001</ele>
        <time>2019-09-01T09:17:43Z</time>
      </trkpt>
      <trkpt lat="56.63997701369226" lon="-3.374902987852693">
        <ele>184.71000000000001</ele>
        <time>2019-09-01T09:17:44Z</time>
      </trkpt>
      <trkpt lat="56.640038033947349" lon="-3.375159977003932">
        <ele>184.22999999999999</ele>
        <time>2019-09-01T09:17:45Z</time>
      </trkpt>
      <trkpt lat="56.640051025897264" lon="-3.375446973368526">
        <ele>183.75</ele>
        <time>2019-09-01T09:17:46Z</time>
      </trkpt>
      <trkpt lat="56.640066029503942" lon="-3.375751990824938">
        <ele>183.27000000000001</ele>
        <time>2019-09-01T09:17:47Z</time>
      </trkpt>
      <trkpt lat="56.640081033110619" lon="-3.376068994402885">
        <ele>182.78999999999999</ele>
        <time>2019-09-01T09:17:48Z</time>
      </trkpt>
      <trkpt lat="56.640040967613459" lon="-3.378119962289929">
        <ele>178.46000000000001</ele>
        <time>2019-09-01T09:17:55Z</time>
      </trkpt>
      <trkpt lat="56.640047002583742" lon="-3.378341998904944">
        <ele>177.97999999999999</ele>
        <time>2019-09-01T09:17:56Z</time>
      </trkpt>
      <trkpt lat="56.640081033110619" lon="-3.378551965579391">
        <ele>177.5</ele>
        <time>2019-09-01T09:17:57Z</time>
      </trkpt>
      <trkpt lat="56.640122020617127" lon="-3.378736032173038">
        <ele>176.53999999999999</ele>
        <time>2019-09-01T09:17:58Z</time>
      </trkpt>
      <trkpt lat="56.640198966488242" lon="-3.378937030211091">
        <ele>176.06</ele>
        <time>2019-09-01T09:17:59Z</time>
      </trkpt>
      <trkpt lat="56.640288988128304" lon="-3.379171974956989">
        <ele>175.58000000000001</ele>
        <time>2019-09-01T09:18:00Z</time>
      </trkpt>
      <trkpt lat="56.64040700532496" lon="-3.379383031278849">
        <ele>175.09999999999999</ele>
        <time>2019-09-01T09:18:01Z</time>
      </trkpt>
      <trkpt lat="56.640545977279544" lon="-3.379601966589689">
        <ele>174.62</ele>
        <time>2019-09-01T09:18:02Z</time>
      </trkpt>
      <trkpt lat="56.640766002237797" lon="-3.37994797155261">
        <ele>174.13999999999999</ele>
        <time>2019-09-01T09:18:03Z</time>
      </trkpt>
      <trkpt lat="56.641720030456781" lon="-3.381126970052719">
        <ele>170.77000000000001</ele>
        <time>2019-09-01T09:18:11Z</time>
      </trkpt>
      <trkpt lat="56.642078021541238" lon="-3.381611024960876">
        <ele>171.72999999999999</ele>
        <time>2019-09-01T09:18:14Z</time>
      </trkpt>
      <trkpt lat="56.64277296513319" lon="-3.382805027067661">
        <ele>171.25</ele>
        <time>2019-09-01T09:18:20Z</time>
      </trkpt>
      <trkpt lat="56.643620040267706" lon="-3.384743006899953">
        <ele>173.16999999999999</ele>
        <time>2019-09-01T09:18:28Z</time>
      </trkpt>
      <trkpt lat="56.644314983859658" lon="-3.386495998129249">
        <ele>173.16999999999999</ele>
        <time>2019-09-01T09:18:36Z</time>
      </trkpt>
      <trkpt lat="56.64446703158319" lon="-3.386899000033736">
        <ele>172.69</ele>
        <time>2019-09-01T09:18:38Z</time>
      </trkpt>
      <trkpt lat="56.644522016867995" lon="-3.387132016941905">
        <ele>172.69</ele>
        <time>2019-09-01T09:18:39Z</time>
      </trkpt>
      <trkpt lat="56.644889982417226" lon="-3.389319023117423">
        <ele>172.69</ele>
        <time>2019-09-01T09:18:47Z</time>
      </trkpt>
      <trkpt lat="56.645006993785501" lon="-3.391462024301291">
        <ele>172.21000000000001</ele>
        <time>2019-09-01T09:18:55Z</time>
      </trkpt>
      <trkpt lat="56.644984027370811" lon="-3.392023025080562">
        <ele>171.72999999999999</ele>
        <time>2019-09-01T09:18:57Z</time>
      </trkpt>
      <trkpt lat="56.64494002237916" lon="-3.392286971211433">
        <ele>171.72999999999999</ele>
        <time>2019-09-01T09:18:58Z</time>
      </trkpt>
      <trkpt lat="56.644852012395859" lon="-3.39281695894897">
        <ele>171.25</ele>
        <time>2019-09-01T09:19:00Z</time>
      </trkpt>
      <trkpt lat="56.644809013232589" lon="-3.393071014434099">
        <ele>170.77000000000001</ele>
        <time>2019-09-01T09:19:01Z</time>
      </trkpt>
      <trkpt lat="56.644770037382841" lon="-3.393308976665139">
        <ele>170.77000000000001</ele>
        <time>2019-09-01T09:19:02Z</time>
      </trkpt>
      <trkpt lat="56.644736006855965" lon="-3.393539981916547">
        <ele>170.28999999999999</ele>
        <time>2019-09-01T09:19:03Z</time>
      </trkpt>
      <trkpt lat="56.644736006855965" lon="-3.393777022138238">
        <ele>170.28999999999999</ele>
        <time>2019-09-01T09:19:04Z</time>
      </trkpt>
      <trkpt lat="56.644759979099035" lon="-3.394038034603">
        <ele>170.77000000000001</ele>
        <time>2019-09-01T09:19:05Z</time>
      </trkpt>
      <trkpt lat="56.644818987697363" lon="-3.394280020147562">
        <ele>170.77000000000001</ele>
        <time>2019-09-01T09:19:06Z</time>
      </trkpt>
      <trkpt lat="56.644883025437593" lon="-3.394541032612324">
        <ele>170.77000000000001</ele>
        <time>2019-09-01T09:19:07Z</time>
      </trkpt>
      <trkpt lat="56.644949996843934" lon="-3.394814031198621">
        <ele>170.28999999999999</ele>
        <time>2019-09-01T09:19:08Z</time>
      </trkpt>
      <trkpt lat="56.645014034584165" lon="-3.395075965672731">
        <ele>170.28999999999999</ele>
        <time>2019-09-01T09:19:09Z</time>
      </trkpt>
      <trkpt lat="56.645074971020222" lon="-3.395327003672719">
        <ele>169.81</ele>
        <time>2019-09-01T09:19:10Z</time>
      </trkpt>
      <trkpt lat="56.645136997103691" lon="-3.395577035844326">
        <ele>169.81</ele>
        <time>2019-09-01T09:19:11Z</time>
      </trkpt>
      <trkpt lat="56.645197011530399" lon="-3.395825978368521">
        <ele>168.84999999999999</ele>
        <time>2019-09-01T09:19:12Z</time>
      </trkpt>
      <trkpt lat="56.645230958238244" lon="-3.396095959469676">
        <ele>167.88999999999999</ele>
        <time>2019-09-01T09:19:13Z</time>
      </trkpt>
      <trkpt lat="56.645261971279979" lon="-3.396394019946456">
        <ele>166.93000000000001</ele>
        <time>2019-09-01T09:19:14Z</time>
      </trkpt>
      <trkpt lat="56.645561037585139" lon="-3.399147978052497">
        <ele>160.68000000000001</ele>
        <time>2019-09-01T09:19:22Z</time>
      </trkpt>
      <trkpt lat="56.645746026188135" lon="-3.400740036740899">
        <ele>155.87</ele>
        <time>2019-09-01T09:19:28Z</time>
      </trkpt>
      <trkpt lat="56.645932020619512" lon="-3.402438964694738">
        <ele>158.27000000000001</ele>
        <time>2019-09-01T09:19:37Z</time>
      </trkpt>
      <trkpt lat="56.646048026159406" lon="-3.403281010687351">
        <ele>157.78999999999999</ele>
        <time>2019-09-01T09:19:42Z</time>
      </trkpt>
      <trkpt lat="56.646082978695631" lon="-3.403434986248612">
        <ele>157.78999999999999</ele>
        <time>2019-09-01T09:19:43Z</time>
      </trkpt>
      <trkpt lat="56.646234020590782" lon="-3.403828013688326">
        <ele>156.83000000000001</ele>
        <time>2019-09-01T09:19:46Z</time>
      </trkpt>
      <trkpt lat="56.646498972550035" lon="-3.404241995885968">
        <ele>154.43000000000001</ele>
        <time>2019-09-01T09:19:50Z</time>
      </trkpt>
      <trkpt lat="56.646570973098278" lon="-3.404337968677282">
        <ele>153.47</ele>
        <time>2019-09-01T09:19:51Z</time>
      </trkpt>
      <trkpt lat="56.646624030545354" lon="-3.404409969225526">
        <ele>152.50999999999999</ele>
        <time>2019-09-01T09:19:52Z</time>
      </trkpt>
      <trkpt lat="56.646712962538004" lon="-3.404476018622518">
        <ele>152.03</ele>
        <time>2019-09-01T09:19:53Z</time>
      </trkpt>
      <trkpt lat="56.646784041076899" lon="-3.404529998078942">
        <ele>151.53999999999999</ele>
        <time>2019-09-01T09:19:54Z</time>
      </trkpt>
      <trkpt lat="56.646859981119633" lon="-3.404502002522349">
        <ele>151.06</ele>
        <time>2019-09-01T09:19:55Z</time>
      </trkpt>
      <trkpt lat="56.646945979446173" lon="-3.404452968388796">
        <ele>151.06</ele>
        <time>2019-09-01T09:19:56Z</time>
      </trkpt>
      <trkpt lat="56.647030971944332" lon="-3.404336040839553">
        <ele>150.58000000000001</ele>
        <time>2019-09-01T09:19:57Z</time>
      </trkpt>
      <trkpt lat="56.647129040211439" lon="-3.404190028086305">
        <ele>150.58000000000001</ele>
        <time>2019-09-01T09:19:58Z</time>
      </trkpt>
      <trkpt lat="56.647214032709599" lon="-3.403982995077968">
        <ele>150.09999999999999</ele>
        <time>2019-09-01T09:19:59Z</time>
      </trkpt>
      <trkpt lat="56.647297013550997" lon="-3.403777973726392">
        <ele>150.09999999999999</ele>
        <time>2019-09-01T09:20:00Z</time>
      </trkpt>
      <trkpt lat="56.647465992718935" lon="-3.40323599986732">
        <ele>150.09999999999999</ele>
        <time>2019-09-01T09:20:03Z</time>
      </trkpt>
      <trkpt lat="56.64751703850925" lon="-3.403069032356143">
        <ele>150.58000000000001</ele>
        <time>2019-09-01T09:20:04Z</time>
      </trkpt>
      <trkpt lat="56.647637989372015" lon="-3.40259101241827">
        <ele>151.53999999999999</ele>
        <time>2019-09-01T09:20:07Z</time>
      </trkpt>
      <trkpt lat="56.647675037384033" lon="-3.402437036857009">
        <ele>152.03</ele>
        <time>2019-09-01T09:20:08Z</time>
      </trkpt>
      <trkpt lat="56.647731028497219" lon="-3.40220301412046">
        <ele>152.99000000000001</ele>
        <time>2019-09-01T09:20:10Z</time>
      </trkpt>
      <trkpt lat="56.647833036258817" lon="-3.401775034144521">
        <ele>156.34999999999999</ele>
        <time>2019-09-01T09:20:18Z</time>
      </trkpt>
      <trkpt lat="56.647848961874843" lon="-3.401705967262387">
        <ele>156.83000000000001</ele>
        <time>2019-09-01T09:20:19Z</time>
      </trkpt>
      <trkpt lat="56.647866982966661" lon="-3.401630027219653">
        <ele>157.31</ele>
        <time>2019-09-01T09:20:20Z</time>
      </trkpt>
      <trkpt lat="56.647882992401719" lon="-3.4015619661659">
        <ele>157.78999999999999</ele>
        <time>2019-09-01T09:20:21Z</time>
      </trkpt>
      <trkpt lat="56.647899001836777" lon="-3.401497006416321">
        <ele>157.78999999999999</ele>
        <time>2019-09-01T09:20:22Z</time>
      </trkpt>
      <trkpt lat="56.647909982129931" lon="-3.401449983939529">
        <ele>158.27000000000001</ele>
        <time>2019-09-01T09:20:23Z</time>
      </trkpt>
      <trkpt lat="56.647920040413737" lon="-3.4014100022614">
        <ele>158.27000000000001</ele>
        <time>2019-09-01T09:20:24Z</time>
      </trkpt>
      <trkpt lat="56.64792800322175" lon="-3.401373960077763">
        <ele>158.75</ele>
        <time>2019-09-01T09:20:25Z</time>
      </trkpt>
      <trkpt lat="56.647936971858144" lon="-3.401339007541537">
        <ele>159.24000000000001</ele>
        <time>2019-09-01T09:20:26Z</time>
      </trkpt>
      <trkpt lat="56.647963961586356" lon="-3.401226019486785">
        <ele>159.72</ele>
        <time>2019-09-01T09:20:28Z</time>
      </trkpt>
      <trkpt lat="56.648026993498206" lon="-3.401048993691802">
        <ele>160.68000000000001</ele>
        <time>2019-09-01T09:20:30Z</time>
      </trkpt>
      <trkpt lat="56.648125983774662" lon="-3.400933993980289">
        <ele>160.68000000000001</ele>
        <time>2019-09-01T09:20:31Z</time>
      </trkpt>
      <trkpt lat="56.648197984322906" lon="-3.400933993980289">
        <ele>161.16</ele>
        <time>2019-09-01T09:20:32Z</time>
      </trkpt>
      <trkpt lat="56.64831499569118" lon="-3.400933993980289">
        <ele>161.63999999999999</ele>
        <time>2019-09-01T09:20:33Z</time>
      </trkpt>
      <trkpt lat="56.648455979302526" lon="-3.400951009243727">
        <ele>162.59999999999999</ele>
        <time>2019-09-01T09:20:34Z</time>
      </trkpt>
      <trkpt lat="56.649137008935213" lon="-3.401100961491466">
        <ele>170.77000000000001</ele>
        <time>2019-09-01T09:20:39Z</time>
      </trkpt>
      <trkpt lat="56.649241028353572" lon="-3.401081012561917">
        <ele>172.69</ele>
        <time>2019-09-01T09:20:40Z</time>
      </trkpt>
      <trkpt lat="56.649427022784948" lon="-3.401055028662086">
        <ele>175.09999999999999</ele>
        <time>2019-09-01T09:20:42Z</time>
      </trkpt>
      <trkpt lat="56.649508997797966" lon="-3.401042958721519">
        <ele>176.53999999999999</ele>
        <time>2019-09-01T09:20:43Z</time>
      </trkpt>
      <trkpt lat="56.649591978639364" lon="-3.401013035327196">
        <ele>177.5</ele>
        <time>2019-09-01T09:20:44Z</time>
      </trkpt>
      <trkpt lat="56.649673031643033" lon="-3.401000965386629">
        <ele>178.46000000000001</ele>
        <time>2019-09-01T09:20:45Z</time>
      </trkpt>
      <trkpt lat="56.649757018312812" lon="-3.400988979265094">
        <ele>178.94</ele>
        <time>2019-09-01T09:20:46Z</time>
      </trkpt>
      <trkpt lat="56.649845028296113" lon="-3.400976993143559">
        <ele>179.41999999999999</ele>
        <time>2019-09-01T09:20:47Z</time>
      </trkpt>
      <trkpt lat="56.649933038279414" lon="-3.400994008406997">
        <ele>179.90000000000001</ele>
        <time>2019-09-01T09:20:48Z</time>
      </trkpt>
      <trkpt lat="56.650025993585587" lon="-3.401012029498816">
        <ele>180.38</ele>
        <time>2019-09-01T09:20:49Z</time>
      </trkpt>
      <trkpt lat="56.650126995518804" lon="-3.401030972599983">
        <ele>180.87</ele>
        <time>2019-09-01T09:20:50Z</time>
      </trkpt>
      <trkpt lat="56.650235960260034" lon="-3.401052011176944">
        <ele>181.34999999999999</ele>
        <time>2019-09-01T09:20:51Z</time>
      </trkpt>
      <trkpt lat="56.650466965511441" lon="-3.401157036423683">
        <ele>181.34999999999999</ele>
        <time>2019-09-01T09:20:53Z</time>
      </trkpt>
      <trkpt lat="56.650586994364858" lon="-3.401248985901475">
        <ele>181.34999999999999</ele>
        <time>2019-09-01T09:20:54Z</time>
      </trkpt>
      <trkpt lat="56.650811964645982" lon="-3.401474040001631">
        <ele>181.83000000000001</ele>
        <time>2019-09-01T09:20:56Z</time>
      </trkpt>
      <trkpt lat="56.650923024863005" lon="-3.401578981429339">
        <ele>181.83000000000001</ele>
        <time>2019-09-01T09:20:57Z</time>
      </trkpt>
      <trkpt lat="56.651188982650638" lon="-3.401637990027666">
        <ele>182.78999999999999</ele>
        <time>2019-09-01T09:20:59Z</time>
      </trkpt>
      <trkpt lat="56.652488010004163" lon="-3.402103018015623">
        <ele>184.22999999999999</ele>
        <time>2019-09-01T09:21:07Z</time>
      </trkpt>
      <trkpt lat="56.653436003252864" lon="-3.403218984603882">
        <ele>186.15000000000001</ele>
        <time>2019-09-01T09:21:13Z</time>
      </trkpt>
      <trkpt lat="56.653568018227816" lon="-3.403393998742104">
        <ele>186.15000000000001</ele>
        <time>2019-09-01T09:21:14Z</time>
      </trkpt>
      <trkpt lat="56.654091970995069" lon="-3.404088020324707">
        <ele>188.56</ele>
        <time>2019-09-01T09:21:18Z</time>
      </trkpt>
      <trkpt lat="56.654556998983026" lon="-3.404566962271929">
        <ele>191.44</ele>
        <time>2019-09-01T09:21:21Z</time>
      </trkpt>
      <trkpt lat="56.654733018949628" lon="-3.40465203858912">
        <ele>192.40000000000001</ele>
        <time>2019-09-01T09:21:22Z</time>
      </trkpt>
      <trkpt lat="56.656078984960914" lon="-3.404980022460222">
        <ele>199.61000000000001</ele>
        <time>2019-09-01T09:21:29Z</time>
      </trkpt>
      <trkpt lat="56.657732985913754" lon="-3.405440021306276">
        <ele>206.81999999999999</ele>
        <time>2019-09-01T09:21:37Z</time>
      </trkpt>
      <trkpt lat="56.659448007121682" lon="-3.40673997066915">
        <ele>217.40000000000001</ele>
        <time>2019-09-01T09:21:46Z</time>
      </trkpt>
      <trkpt lat="56.661329995840788" lon="-3.408604022115469">
        <ele>226.53</ele>
        <time>2019-09-01T09:21:57Z</time>
      </trkpt>
      <trkpt lat="56.661837017163634" lon="-3.409053040668368">
        <ele>227.49000000000001</ele>
        <time>2019-09-01T09:22:00Z</time>
      </trkpt>
      <trkpt lat="56.662040026858449" lon="-3.409141972661018">
        <ele>227.49000000000001</ele>
        <time>2019-09-01T09:22:01Z</time>
      </trkpt>
      <trkpt lat="56.663659997284412" lon="-3.409695010632277">
        <ele>228.93000000000001</ele>
        <time>2019-09-01T09:22:09Z</time>
      </trkpt>
      <trkpt lat="56.665420029312372" lon="-3.410479975864291">
        <ele>231.81</ele>
        <time>2019-09-01T09:22:19Z</time>
      </trkpt>
      <trkpt lat="56.667439984157681" lon="-3.411697028204799">
        <ele>227.97</ele>
        <time>2019-09-01T09:22:30Z</time>
      </trkpt>
      <trkpt lat="56.667625978589058" lon="-3.411691999062896">
        <ele>227.00999999999999</ele>
        <time>2019-09-01T09:22:31Z</time>
      </trkpt>
      <trkpt lat="56.668005008250475" lon="-3.411657968536019">
        <ele>225.09</ele>
        <time>2019-09-01T09:22:33Z</time>
      </trkpt>
      <trkpt lat="56.668189996853471" lon="-3.411542968824506">
        <ele>224.61000000000001</ele>
        <time>2019-09-01T09:22:34Z</time>
      </trkpt>
      <trkpt lat="56.668372973799706" lon="-3.411428974941373">
        <ele>223.63999999999999</ele>
        <time>2019-09-01T09:22:35Z</time>
      </trkpt>
      <trkpt lat="56.668529966846108" lon="-3.411276005208492">
        <ele>223.16</ele>
        <time>2019-09-01T09:22:36Z</time>
      </trkpt>
      <trkpt lat="56.668672962114215" lon="-3.411090010777116">
        <ele>222.68000000000001</ele>
        <time>2019-09-01T09:22:37Z</time>
      </trkpt>
      <trkpt lat="56.668814029544592" lon="-3.410906028002501">
        <ele>222.68000000000001</ele>
        <time>2019-09-01T09:22:38Z</time>
      </trkpt>
      <trkpt lat="56.668934980407357" lon="-3.410701006650925">
        <ele>222.68000000000001</ele>
        <time>2019-09-01T09:22:39Z</time>
      </trkpt>
      <trkpt lat="56.66904897429049" lon="-3.410462960600853">
        <ele>223.16</ele>
        <time>2019-09-01T09:22:40Z</time>
      </trkpt>
      <trkpt lat="56.670128982514143" lon="-3.408132959157229">
        <ele>236.13999999999999</ele>
        <time>2019-09-01T09:22:50Z</time>
      </trkpt>
      <trkpt lat="56.670532990247011" lon="-3.406775007024407">
        <ele>237.09999999999999</ele>
        <time>2019-09-01T09:22:55Z</time>
      </trkpt>
      <trkpt lat="56.670610019937158" lon="-3.40652103535831">
        <ele>236.62</ele>
        <time>2019-09-01T09:22:56Z</time>
      </trkpt>
      <trkpt lat="56.670722002163529" lon="-3.406303022056818">
        <ele>235.66</ele>
        <time>2019-09-01T09:22:57Z</time>
      </trkpt>
      <trkpt lat="56.670833984389901" lon="-3.406085008755326">
        <ele>234.22</ele>
        <time>2019-09-01T09:22:58Z</time>
      </trkpt>
      <trkpt lat="56.670947978273034" lon="-3.405864983797073">
        <ele>232.78</ele>
        <time>2019-09-01T09:22:59Z</time>
      </trkpt>
      <trkpt lat="56.671079993247986" lon="-3.405689969658852">
        <ele>231.33000000000001</ele>
        <time>2019-09-01T09:23:00Z</time>
      </trkpt>
      <trkpt lat="56.671231035143137" lon="-3.405518978834152">
        <ele>229.41</ele>
        <time>2019-09-01T09:23:01Z</time>
      </trkpt>
      <trkpt lat="56.671393979340792" lon="-3.405389981344342">
        <ele>227.97</ele>
        <time>2019-09-01T09:23:02Z</time>
      </trkpt>
      <trkpt lat="56.671577962115407" lon="-3.405293002724648">
        <ele>226.05000000000001</ele>
        <time>2019-09-01T09:23:03Z</time>
      </trkpt>
      <trkpt lat="56.671764962375164" lon="-3.405193006619811">
        <ele>224.61000000000001</ele>
        <time>2019-09-01T09:23:04Z</time>
      </trkpt>
      <trkpt lat="56.673230035230517" lon="-3.404106963425875">
        <ele>224.12</ele>
        <time>2019-09-01T09:23:12Z</time>
      </trkpt>
      <trkpt lat="56.674584969878197" lon="-3.402831992134452">
        <ele>236.13999999999999</ele>
        <time>2019-09-01T09:23:20Z</time>
      </trkpt>
      <trkpt lat="56.674755960702896" lon="-3.402765020728111">
        <ele>237.58000000000001</ele>
        <time>2019-09-01T09:23:21Z</time>
      </trkpt>
      <trkpt lat="56.67493399232626" lon="-3.402735013514757">
        <ele>238.53999999999999</ele>
        <time>2019-09-01T09:23:22Z</time>
      </trkpt>
      <trkpt lat="56.675108000636101" lon="-3.402706012129784">
        <ele>239.50999999999999</ele>
        <time>2019-09-01T09:23:23Z</time>
      </trkpt>
      <trkpt lat="56.675283014774323" lon="-3.402737025171518">
        <ele>240.47</ele>
        <time>2019-09-01T09:23:24Z</time>
      </trkpt>
      <trkpt lat="56.675460040569305" lon="-3.402814976871014">
        <ele>241.43000000000001</ele>
        <time>2019-09-01T09:23:25Z</time>
      </trkpt>
      <trkpt lat="56.675640000030398" lon="-3.402894018217921">
        <ele>241.43000000000001</ele>
        <time>2019-09-01T09:23:26Z</time>
      </trkpt>
      <trkpt lat="56.675819959491491" lon="-3.402988985180855">
        <ele>241.91</ele>
        <time>2019-09-01T09:23:27Z</time>
      </trkpt>
      <trkpt lat="56.678077960386872" lon="-3.404342997819185">
        <ele>237.09999999999999</ele>
        <time>2019-09-01T09:23:39Z</time>
      </trkpt>
      <trkpt lat="56.678532008081675" lon="-3.404603004455566">
        <ele>234.69999999999999</ele>
        <time>2019-09-01T09:23:42Z</time>
      </trkpt>
      <trkpt lat="56.678658993914723" lon="-3.40467500500381">
        <ele>234.22</ele>
        <time>2019-09-01T09:23:43Z</time>
      </trkpt>
      <trkpt lat="56.678787991404533" lon="-3.404656983911991">
        <ele>233.74000000000001</ele>
        <time>2019-09-01T09:23:44Z</time>
      </trkpt>
      <trkpt lat="56.678927969187498" lon="-3.404614990577102">
        <ele>233.25999999999999</ele>
        <time>2019-09-01T09:23:45Z</time>
      </trkpt>
      <trkpt lat="56.67908102273941" lon="-3.404567968100309">
        <ele>232.78</ele>
        <time>2019-09-01T09:23:46Z</time>
      </trkpt>
      <trkpt lat="56.680723037570715" lon="-3.40403001755476">
        <ele>229.88999999999999</ele>
        <time>2019-09-01T09:23:55Z</time>
      </trkpt>
      <trkpt lat="56.682565966621041" lon="-3.403355022892356">
        <ele>227.97</ele>
        <time>2019-09-01T09:24:05Z</time>
      </trkpt>
      <trkpt lat="56.683295024558902" lon="-3.403100967407227">
        <ele>227.00999999999999</ele>
        <time>2019-09-01T09:24:10Z</time>
      </trkpt>
      <trkpt lat="56.683430979028344" lon="-3.40315000154078">
        <ele>227.00999999999999</ele>
        <time>2019-09-01T09:24:11Z</time>
      </trkpt>
      <trkpt lat="56.683567017316818" lon="-3.403216972947121">
        <ele>227.00999999999999</ele>
        <time>2019-09-01T09:24:12Z</time>
      </trkpt>
      <trkpt lat="56.68370196595788" lon="-3.403329961001873">
        <ele>227.49000000000001</ele>
        <time>2019-09-01T09:24:13Z</time>
      </trkpt>
      <trkpt lat="56.683843033388257" lon="-3.403447978198528">
        <ele>227.97</ele>
        <time>2019-09-01T09:24:14Z</time>
      </trkpt>
      <trkpt lat="56.685510026291013" lon="-3.4048240352422">
        <ele>229.41</ele>
        <time>2019-09-01T09:24:25Z</time>
      </trkpt>
      <trkpt lat="56.686893040314317" lon="-3.406218029558659">
        <ele>227.49000000000001</ele>
        <time>2019-09-01T09:24:33Z</time>
      </trkpt>
      <trkpt lat="56.688484009355307" lon="-3.407538011670113">
        <ele>228.93000000000001</ele>
        <time>2019-09-01T09:24:42Z</time>
      </trkpt>
      <trkpt lat="56.689806003123522" lon="-3.407916035503149">
        <ele>225.56999999999999</ele>
        <time>2019-09-01T09:24:49Z</time>
      </trkpt>
      <trkpt lat="56.692039025947452" lon="-3.408504026010633">
        <ele>224.61000000000001</ele>
        <time>2019-09-01T09:25:00Z</time>
      </trkpt>
      <trkpt lat="56.693608034402132" lon="-3.409267030656338">
        <ele>225.09</ele>
        <time>2019-09-01T09:25:09Z</time>
      </trkpt>
      <trkpt lat="56.694897003471851" lon="-3.409889973700047">
        <ele>225.56999999999999</ele>
        <time>2019-09-01T09:25:18Z</time>
      </trkpt>
      <trkpt lat="56.695032035931945" lon="-3.409953005611897">
        <ele>225.09</ele>
        <time>2019-09-01T09:25:19Z</time>
      </trkpt>
      <trkpt lat="56.695167990401387" lon="-3.410015031695366">
        <ele>225.09</ele>
        <time>2019-09-01T09:25:20Z</time>
      </trkpt>
      <trkpt lat="56.695318026468158" lon="-3.409990975633264">
        <ele>225.09</ele>
        <time>2019-09-01T09:25:21Z</time>
      </trkpt>
      <trkpt lat="56.695468984544277" lon="-3.409936996176839">
        <ele>225.56999999999999</ele>
        <time>2019-09-01T09:25:22Z</time>
      </trkpt>
      <trkpt lat="56.695621032267809" lon="-3.409882010892034">
        <ele>225.56999999999999</ele>
        <time>2019-09-01T09:25:23Z</time>
      </trkpt>
      <trkpt lat="56.695740977302194" lon="-3.409839011728764">
        <ele>225.56999999999999</ele>
        <time>2019-09-01T09:25:24Z</time>
      </trkpt>
      <trkpt lat="56.695911968126893" lon="-3.409829959273338">
        <ele>225.56999999999999</ele>
        <time>2019-09-01T09:25:25Z</time>
      </trkpt>
      <trkpt lat="56.696049012243748" lon="-3.409823002293706">
        <ele>226.05000000000001</ele>
        <time>2019-09-01T09:25:26Z</time>
      </trkpt>
      <trkpt lat="56.696191001683474" lon="-3.409841023385525">
        <ele>226.05000000000001</ele>
        <time>2019-09-01T09:25:27Z</time>
      </trkpt>
      <trkpt lat="56.696336008608341" lon="-3.409921992570162">
        <ele>226.05000000000001</ele>
        <time>2019-09-01T09:25:28Z</time>
      </trkpt>
      <trkpt lat="56.69749497435987" lon="-3.410554993897677">
        <ele>225.56999999999999</ele>
        <time>2019-09-01T09:25:36Z</time>
      </trkpt>
      <trkpt lat="56.697653979063034" lon="-3.410589024424553">
        <ele>225.56999999999999</ele>
        <time>2019-09-01T09:25:37Z</time>
      </trkpt>
      <trkpt lat="56.698314975947142" lon="-3.41073302552104">
        <ele>225.56999999999999</ele>
        <time>2019-09-01T09:25:41Z</time>
      </trkpt>
      <trkpt lat="56.698473980650306" lon="-3.410788010805845">
        <ele>226.05000000000001</ele>
        <time>2019-09-01T09:25:42Z</time>
      </trkpt>
      <trkpt lat="56.69861395843327" lon="-3.410914996638894">
        <ele>226.05000000000001</ele>
        <time>2019-09-01T09:25:43Z</time>
      </trkpt>
      <trkpt lat="56.699753981083632" lon="-3.412467995658517">
        <ele>228.93000000000001</ele>
        <time>2019-09-01T09:25:51Z</time>
      </trkpt>
      <trkpt lat="56.700827032327652" lon="-3.41382703743875">
        <ele>232.30000000000001</ele>
        <time>2019-09-01T09:25:58Z</time>
      </trkpt>
      <trkpt lat="56.701850965619087" lon="-3.415040988475084">
        <ele>235.18000000000001</ele>
        <time>2019-09-01T09:26:05Z</time>
      </trkpt>
      <trkpt lat="56.702004019171" lon="-3.415128998458386">
        <ele>235.18000000000001</ele>
        <time>2019-09-01T09:26:06Z</time>
      </trkpt>
      <trkpt lat="56.702157994732261" lon="-3.415217008441687">
        <ele>235.66</ele>
        <time>2019-09-01T09:26:07Z</time>
      </trkpt>
      <trkpt lat="56.70230501331389" lon="-3.415302000939846">
        <ele>235.66</ele>
        <time>2019-09-01T09:26:08Z</time>
      </trkpt>
      <trkpt lat="56.702440967783332" lon="-3.415380036458373">
        <ele>236.13999999999999</ele>
        <time>2019-09-01T09:26:09Z</time>
      </trkpt>
      <trkpt lat="56.702566025778651" lon="-3.415452037006617">
        <ele>236.62</ele>
        <time>2019-09-01T09:26:10Z</time>
      </trkpt>
      <trkpt lat="56.7026930116117" lon="-3.415524959564209">
        <ele>237.09999999999999</ele>
        <time>2019-09-01T09:26:11Z</time>
      </trkpt>
      <trkpt lat="56.702778004109859" lon="-3.415682036429644">
        <ele>238.06</ele>
        <time>2019-09-01T09:26:12Z</time>
      </trkpt>
      <trkpt lat="56.702869031578302" lon="-3.415850009769201">
        <ele>239.02000000000001</ele>
        <time>2019-09-01T09:26:13Z</time>
      </trkpt>
      <trkpt lat="56.703121997416019" lon="-3.416318977251649">
        <ele>242.38999999999999</ele>
        <time>2019-09-01T09:26:16Z</time>
      </trkpt>
      <trkpt lat="56.703239008784294" lon="-3.416422996670008">
        <ele>243.34999999999999</ele>
        <time>2019-09-01T09:26:17Z</time>
      </trkpt>
      <trkpt lat="56.703347973525524" lon="-3.416487034410238">
        <ele>243.83000000000001</ele>
        <time>2019-09-01T09:26:18Z</time>
      </trkpt>
      <trkpt lat="56.703471019864082" lon="-3.416473036631942">
        <ele>244.78999999999999</ele>
        <time>2019-09-01T09:26:19Z</time>
      </trkpt>
      <trkpt lat="56.703610997647047" lon="-3.416458033025265">
        <ele>245.27000000000001</ele>
        <time>2019-09-01T09:26:20Z</time>
      </trkpt>
      <trkpt lat="56.703772014006972" lon="-3.416407993063331">
        <ele>246.22999999999999</ele>
        <time>2019-09-01T09:26:21Z</time>
      </trkpt>
      <trkpt lat="56.703937975689769" lon="-3.416315037757158">
        <ele>246.72</ele>
        <time>2019-09-01T09:26:22Z</time>
      </trkpt>
      <trkpt lat="56.706136967986822" lon="-3.415087005123496">
        <ele>249.59999999999999</ele>
        <time>2019-09-01T09:26:35Z</time>
      </trkpt>
      <trkpt lat="56.706739962100983" lon="-3.414794979617">
        <ele>248.16</ele>
        <time>2019-09-01T09:26:39Z</time>
      </trkpt>
      <trkpt lat="56.706888992339373" lon="-3.414794979617">
        <ele>248.16</ele>
        <time>2019-09-01T09:26:40Z</time>
      </trkpt>
      <trkpt lat="56.707038022577763" lon="-3.414836972951889">
        <ele>248.63999999999999</ele>
        <time>2019-09-01T09:26:41Z</time>
      </trkpt>
      <trkpt lat="56.708209980279207" lon="-3.415021961554885">
        <ele>250.56</ele>
        <time>2019-09-01T09:26:49Z</time>
      </trkpt>
      <trkpt lat="56.708379965275526" lon="-3.41496697627008">
        <ele>250.08000000000001</ele>
        <time>2019-09-01T09:26:50Z</time>
      </trkpt>
      <trkpt lat="56.709760967642069" lon="-3.41425602324307">
        <ele>248.16</ele>
        <time>2019-09-01T09:26:58Z</time>
      </trkpt>
      <trkpt lat="56.710509974509478" lon="-3.413900965824723">
        <ele>248.63999999999999</ele>
        <time>2019-09-01T09:27:03Z</time>
      </trkpt>
      <trkpt lat="56.710640983656049" lon="-3.413879005238414">
        <ele>248.63999999999999</ele>
        <time>2019-09-01T09:27:04Z</time>
      </trkpt>
      <trkpt lat="56.710769981145859" lon="-3.413903983309865">
        <ele>249.12</ele>
        <time>2019-09-01T09:27:05Z</time>
      </trkpt>
      <trkpt lat="56.711235009133816" lon="-3.413994004949927">
        <ele>250.08000000000001</ele>
        <time>2019-09-01T09:27:09Z</time>
      </trkpt>
      <trkpt lat="56.711358977481723" lon="-3.414017977192998">
        <ele>250.08000000000001</ele>
        <time>2019-09-01T09:27:10Z</time>
      </trkpt>
      <trkpt lat="56.711494009941816" lon="-3.4139349963516">
        <ele>249.59999999999999</ele>
        <time>2019-09-01T09:27:11Z</time>
      </trkpt>
      <trkpt lat="56.7116329818964" lon="-3.413825025781989">
        <ele>249.12</ele>
        <time>2019-09-01T09:27:12Z</time>
      </trkpt>
      <trkpt lat="56.711786035448313" lon="-3.413703991100192">
        <ele>248.63999999999999</ele>
        <time>2019-09-01T09:27:13Z</time>
      </trkpt>
      <trkpt lat="56.713408017531037" lon="-3.412328017875552">
        <ele>247.68000000000001</ele>
        <time>2019-09-01T09:27:23Z</time>
      </trkpt>
      <trkpt lat="56.714246040210128" lon="-3.411647994071245">
        <ele>251.03999999999999</ele>
        <time>2019-09-01T09:27:30Z</time>
      </trkpt>
      <trkpt lat="56.715395031496882" lon="-3.410844001919031">
        <ele>252.96000000000001</ele>
        <time>2019-09-01T09:27:39Z</time>
      </trkpt>
      <trkpt lat="56.715511037036777" lon="-3.410719027742744">
        <ele>252.96000000000001</ele>
        <time>2019-09-01T09:27:40Z</time>
      </trkpt>
      <trkpt lat="56.715599969029427" lon="-3.410530015826225">
        <ele>252.96000000000001</ele>
        <time>2019-09-01T09:27:41Z</time>
      </trkpt>
      <trkpt lat="56.715693008154631" lon="-3.410329017788172">
        <ele>252.96000000000001</ele>
        <time>2019-09-01T09:27:42Z</time>
      </trkpt>
      <trkpt lat="56.715786969289184" lon="-3.410128019750118">
        <ele>252.96000000000001</ele>
        <time>2019-09-01T09:27:43Z</time>
      </trkpt>
      <trkpt lat="56.716738985851407" lon="-3.408319959416986">
        <ele>253.44</ele>
        <time>2019-09-01T09:27:52Z</time>
      </trkpt>
      <trkpt lat="56.718418970704079" lon="-3.405787032097578">
        <ele>258.25</ele>
        <time>2019-09-01T09:28:04Z</time>
      </trkpt>
      <trkpt lat="56.718710996210575" lon="-3.405447984114289">
        <ele>258.73000000000002</ele>
        <time>2019-09-01T09:28:06Z</time>
      </trkpt>
      <trkpt lat="56.718873018398881" lon="-3.405303983017802">
        <ele>258.73000000000002</ele>
        <time>2019-09-01T09:28:07Z</time>
      </trkpt>
      <trkpt lat="56.720104990527034" lon="-3.404083997011185">
        <ele>263.54000000000002</ele>
        <time>2019-09-01T09:28:15Z</time>
      </trkpt>
      <trkpt lat="56.721033034846187" lon="-3.403071966022253">
        <ele>269.79000000000002</ele>
        <time>2019-09-01T09:28:22Z</time>
      </trkpt>
      <trkpt lat="56.721162032335997" lon="-3.402988985180855">
        <ele>270.26999999999998</ele>
        <time>2019-09-01T09:28:23Z</time>
      </trkpt>
      <trkpt lat="56.721310978755355" lon="-3.40297699905932">
        <ele>270.75</ele>
        <time>2019-09-01T09:28:24Z</time>
      </trkpt>
      <trkpt lat="56.722504980862141" lon="-3.402990996837616">
        <ele>270.26999999999998</ele>
        <time>2019-09-01T09:28:31Z</time>
      </trkpt>
      <trkpt lat="56.722669014707208" lon="-3.403050005435944">
        <ele>270.26999999999998</ele>
        <time>2019-09-01T09:28:32Z</time>
      </trkpt>
      <trkpt lat="56.722832964733243" lon="-3.4031489957124">
        <ele>270.26999999999998</ele>
        <time>2019-09-01T09:28:33Z</time>
      </trkpt>
      <trkpt lat="56.724432986229658" lon="-3.404177958145738">
        <ele>272.19</ele>
        <time>2019-09-01T09:28:42Z</time>
      </trkpt>
      <trkpt lat="56.726187989115715" lon="-3.405288979411125">
        <ele>275.06999999999999</ele>
        <time>2019-09-01T09:28:53Z</time>
      </trkpt>
      <trkpt lat="56.726311035454273" lon="-3.405273975804448">
        <ele>275.56</ele>
        <time>2019-09-01T09:28:54Z</time>
      </trkpt>
      <trkpt lat="56.726440032944083" lon="-3.40525696054101">
        <ele>276.04000000000002</ele>
        <time>2019-09-01T09:28:55Z</time>
      </trkpt>
      <trkpt lat="56.726683024317026" lon="-3.405225025489926">
        <ele>276.51999999999998</ele>
        <time>2019-09-01T09:28:57Z</time>
      </trkpt>
      <trkpt lat="56.726828031241894" lon="-3.405265007168055">
        <ele>277</ele>
        <time>2019-09-01T09:28:58Z</time>
      </trkpt>
      <trkpt lat="56.726943030953407" lon="-3.405314041301608">
        <ele>277.95999999999998</ele>
        <time>2019-09-01T09:28:59Z</time>
      </trkpt>
      <trkpt lat="56.727045960724354" lon="-3.405420994386077">
        <ele>278.92000000000002</ele>
        <time>2019-09-01T09:29:00Z</time>
      </trkpt>
      <trkpt lat="56.727154003456235" lon="-3.405531970784068">
        <ele>279.39999999999998</ele>
        <time>2019-09-01T09:29:01Z</time>
      </trkpt>
      <trkpt lat="56.728247003629804" lon="-3.406464038416743">
        <ele>283.25</ele>
        <time>2019-09-01T09:29:10Z</time>
      </trkpt>
      <trkpt lat="56.728382036089897" lon="-3.406511982902885">
        <ele>284.20999999999998</ele>
        <time>2019-09-01T09:29:11Z</time>
      </trkpt>
      <trkpt lat="56.728513967245817" lon="-3.406520029529929">
        <ele>285.17000000000002</ele>
        <time>2019-09-01T09:29:12Z</time>
      </trkpt>
      <trkpt lat="56.728643970564008" lon="-3.406493961811066">
        <ele>286.13</ele>
        <time>2019-09-01T09:29:13Z</time>
      </trkpt>
      <trkpt lat="56.728766011074185" lon="-3.406469989567995">
        <ele>287.56999999999999</ele>
        <time>2019-09-01T09:29:14Z</time>
      </trkpt>
      <trkpt lat="56.729069016873837" lon="-3.406355995684862">
        <ele>290.94</ele>
        <time>2019-09-01T09:29:17Z</time>
      </trkpt>
      <trkpt lat="56.729151997715235" lon="-3.406291035935283">
        <ele>291.89999999999998</ele>
        <time>2019-09-01T09:29:18Z</time>
      </trkpt>
      <trkpt lat="56.729237996041775" lon="-3.40622297488153">
        <ele>292.86000000000001</ele>
        <time>2019-09-01T09:29:19Z</time>
      </trkpt>
      <trkpt lat="56.729318965226412" lon="-3.406117027625442">
        <ele>294.30000000000001</ele>
        <time>2019-09-01T09:29:20Z</time>
      </trkpt>
      <trkpt lat="56.729394989088178" lon="-3.405975960195065">
        <ele>295.25999999999999</ele>
        <time>2019-09-01T09:29:21Z</time>
      </trkpt>
      <trkpt lat="56.729474030435085" lon="-3.405830031260848">
        <ele>296.69999999999999</ele>
        <time>2019-09-01T09:29:22Z</time>
      </trkpt>
      <trkpt lat="56.729549970477819" lon="-3.405688963830471">
        <ele>298.14999999999998</ele>
        <time>2019-09-01T09:29:23Z</time>
      </trkpt>
      <trkpt lat="56.729642003774643" lon="-3.405587039887905">
        <ele>299.58999999999997</ele>
        <time>2019-09-01T09:29:24Z</time>
      </trkpt>
      <trkpt lat="56.729745017364621" lon="-3.405511016026139">
        <ele>300.55000000000001</ele>
        <time>2019-09-01T09:29:25Z</time>
      </trkpt>
      <trkpt lat="56.729856999590993" lon="-3.405429041013122">
        <ele>301.50999999999999</ele>
        <time>2019-09-01T09:29:26Z</time>
      </trkpt>
      <trkpt lat="56.731289969757199" lon="-3.404291030019522">
        <ele>309.19999999999999</ele>
        <time>2019-09-01T09:29:37Z</time>
      </trkpt>
      <trkpt lat="56.732337959110737" lon="-3.403457030653954">
        <ele>313.05000000000001</ele>
        <time>2019-09-01T09:29:44Z</time>
      </trkpt>
      <trkpt lat="56.732486989349127" lon="-3.403369020670652">
        <ele>313.52999999999997</ele>
        <time>2019-09-01T09:29:45Z</time>
      </trkpt>
      <trkpt lat="56.732642976567149" lon="-3.403326021507382">
        <ele>313.52999999999997</ele>
        <time>2019-09-01T09:29:46Z</time>
      </trkpt>
      <trkpt lat="56.732801981270313" lon="-3.403310012072325">
        <ele>314.00999999999999</ele>
        <time>2019-09-01T09:29:47Z</time>
      </trkpt>
      <trkpt lat="56.732958974316716" lon="-3.403297020122409">
        <ele>314.49000000000001</ele>
        <time>2019-09-01T09:29:48Z</time>
      </trkpt>
      <trkpt lat="56.73311797901988" lon="-3.403339013457298">
        <ele>314.00999999999999</ele>
        <time>2019-09-01T09:29:49Z</time>
      </trkpt>
      <trkpt lat="56.73328896984458" lon="-3.40338503010571">
        <ele>313.52999999999997</ele>
        <time>2019-09-01T09:29:50Z</time>
      </trkpt>
      <trkpt lat="56.73479100689292" lon="-3.403818039223552">
        <ele>308.24000000000001</ele>
        <time>2019-09-01T09:29:58Z</time>
      </trkpt>
      <trkpt lat="56.735101975500584" lon="-3.403931027278304">
        <ele>307.27999999999997</ele>
        <time>2019-09-01T09:30:00Z</time>
      </trkpt>
      <trkpt lat="56.735233990475535" lon="-3.404014008119702">
        <ele>306.80000000000001</ele>
        <time>2019-09-01T09:30:01Z</time>
      </trkpt>
      <trkpt lat="56.735361982136965" lon="-3.404141999781132">
        <ele>306.80000000000001</ele>
        <time>2019-09-01T09:30:02Z</time>
      </trkpt>
      <trkpt lat="56.735923988744617" lon="-3.404677016660571">
        <ele>306.80000000000001</ele>
        <time>2019-09-01T09:30:06Z</time>
      </trkpt>
      <trkpt lat="56.736070001497865" lon="-3.404754968360066">
        <ele>307.27999999999997</ele>
        <time>2019-09-01T09:30:07Z</time>
      </trkpt>
      <trkpt lat="56.736509967595339" lon="-3.404945991933346">
        <ele>307.75999999999999</ele>
        <time>2019-09-01T09:30:10Z</time>
      </trkpt>
      <trkpt lat="56.73666100949049" lon="-3.404945991933346">
        <ele>307.75999999999999</ele>
        <time>2019-09-01T09:30:11Z</time>
      </trkpt>
      <trkpt lat="56.736800987273455" lon="-3.404884971678257">
        <ele>307.75999999999999</ele>
        <time>2019-09-01T09:30:12Z</time>
      </trkpt>
      <trkpt lat="56.73805701546371" lon="-3.404337968677282">
        <ele>307.27999999999997</ele>
        <time>2019-09-01T09:30:19Z</time>
      </trkpt>
      <trkpt lat="56.738563030958176" lon="-3.404188016429544">
        <ele>308.72000000000003</ele>
        <time>2019-09-01T09:30:22Z</time>
      </trkpt>
      <trkpt lat="56.73872597515583" lon="-3.404180975630879">
        <ele>310.16000000000003</ele>
        <time>2019-09-01T09:30:23Z</time>
      </trkpt>
      <trkpt lat="56.740330019965768" lon="-3.404409969225526">
        <ele>322.66000000000003</ele>
        <time>2019-09-01T09:30:33Z</time>
      </trkpt>
      <trkpt lat="56.74190397374332" lon="-3.404635023325682">
        <ele>324.57999999999998</ele>
        <time>2019-09-01T09:30:42Z</time>
      </trkpt>
      <trkpt lat="56.742447959259152" lon="-3.404705012217164">
        <ele>326.01999999999998</ele>
        <time>2019-09-01T09:30:45Z</time>
      </trkpt>
      <trkpt lat="56.742620039731264" lon="-3.404638040810823">
        <ele>326.5</ele>
        <time>2019-09-01T09:30:46Z</time>
      </trkpt>
      <trkpt lat="56.743954019621015" lon="-3.404129007831216">
        <ele>329.38999999999999</ele>
        <time>2019-09-01T09:30:53Z</time>
      </trkpt>
      <trkpt lat="56.745509030297399" lon="-3.403975032269955">
        <ele>326.99000000000001</ele>
        <time>2019-09-01T09:31:00Z</time>
      </trkpt>
      <trkpt lat="56.746805962175131" lon="-3.403920968994498">
        <ele>328.91000000000003</ele>
        <time>2019-09-01T09:31:07Z</time>
      </trkpt>
      <trkpt lat="56.748684011399746" lon="-3.40424501337111">
        <ele>320.25999999999999</ele>
        <time>2019-09-01T09:31:17Z</time>
      </trkpt>
      <trkpt lat="56.749239983037114" lon="-3.404393959790468">
        <ele>315.93000000000001</ele>
        <time>2019-09-01T09:31:20Z</time>
      </trkpt>
      <trkpt lat="56.749405022710562" lon="-3.404518011957407">
        <ele>314.97000000000003</ele>
        <time>2019-09-01T09:31:21Z</time>
      </trkpt>
      <trkpt lat="56.749725965783" lon="-3.404782963916659">
        <ele>314.00999999999999</ele>
        <time>2019-09-01T09:31:23Z</time>
      </trkpt>
      <trkpt lat="56.74989796243608" lon="-3.404853958636522">
        <ele>314.49000000000001</ele>
        <time>2019-09-01T09:31:24Z</time>
      </trkpt>
      <trkpt lat="56.7511420045048" lon="-3.405333990231156">
        <ele>319.30000000000001</ele>
        <time>2019-09-01T09:31:32Z</time>
      </trkpt>
      <trkpt lat="56.751305032521486" lon="-3.405351005494595">
        <ele>319.77999999999997</ele>
        <time>2019-09-01T09:31:33Z</time>
      </trkpt>
      <trkpt lat="56.751477029174566" lon="-3.405343964695931">
        <ele>319.30000000000001</ele>
        <time>2019-09-01T09:31:34Z</time>
      </trkpt>
      <trkpt lat="56.751997964456677" lon="-3.405201975256205">
        <ele>317.37</ele>
        <time>2019-09-01T09:31:37Z</time>
      </trkpt>
      <trkpt lat="56.752359978854656" lon="-3.405000977218151">
        <ele>314.97000000000003</ele>
        <time>2019-09-01T09:31:39Z</time>
      </trkpt>
      <trkpt lat="56.75253801047802" lon="-3.404844990000129">
        <ele>314.00999999999999</ele>
        <time>2019-09-01T09:31:40Z</time>
      </trkpt>
      <trkpt lat="56.753291040658951" lon="-3.40418198145926">
        <ele>311.12</ele>
        <time>2019-09-01T09:31:44Z</time>
      </trkpt>
      <trkpt lat="56.753492038697004" lon="-3.40407301671803">
        <ele>311.60000000000002</ele>
        <time>2019-09-01T09:31:45Z</time>
      </trkpt>
      <trkpt lat="56.753689013421535" lon="-3.404040997847915">
        <ele>313.05000000000001</ele>
        <time>2019-09-01T09:31:46Z</time>
      </trkpt>
      <trkpt lat="56.753883976489305" lon="-3.40400998480618">
        <ele>314.00999999999999</ele>
        <time>2019-09-01T09:31:47Z</time>
      </trkpt>
      <trkpt lat="56.754082040861249" lon="-3.403982995077968">
        <ele>315.93000000000001</ele>
        <time>2019-09-01T09:31:48Z</time>
      </trkpt>
      <trkpt lat="56.754274992272258" lon="-3.404011996462941">
        <ele>317.37</ele>
        <time>2019-09-01T09:31:49Z</time>
      </trkpt>
      <trkpt lat="56.755523979663849" lon="-3.403989030048251">
        <ele>327.94999999999999</ele>
        <time>2019-09-01T09:31:56Z</time>
      </trkpt>
      <trkpt lat="56.755662029609084" lon="-3.403970003128052">
        <ele>329.38999999999999</ele>
        <time>2019-09-01T09:31:57Z</time>
      </trkpt>
      <trkpt lat="56.755788009613752" lon="-3.403985006734729">
        <ele>330.35000000000002</ele>
        <time>2019-09-01T09:31:58Z</time>
      </trkpt>
      <trkpt lat="56.755909966304898" lon="-3.404046026989818">
        <ele>331.31</ele>
        <time>2019-09-01T09:31:59Z</time>
      </trkpt>
      <trkpt lat="56.756027983501554" lon="-3.404130013659596">
        <ele>332.26999999999998</ele>
        <time>2019-09-01T09:32:00Z</time>
      </trkpt>
      <trkpt lat="56.756149018183351" lon="-3.404229003936052">
        <ele>333.23000000000002</ele>
        <time>2019-09-01T09:32:01Z</time>
      </trkpt>
      <trkpt lat="56.756267035380006" lon="-3.404325982555747">
        <ele>333.70999999999998</ele>
        <time>2019-09-01T09:32:02Z</time>
      </trkpt>
      <trkpt lat="56.756368959322572" lon="-3.404438970610499">
        <ele>334.68000000000001</ele>
        <time>2019-09-01T09:32:03Z</time>
      </trkpt>
      <trkpt lat="56.756455963477492" lon="-3.404560005292296">
        <ele>335.63999999999999</ele>
        <time>2019-09-01T09:32:04Z</time>
      </trkpt>
      <trkpt lat="56.7565350048244" lon="-3.404667964205146">
        <ele>336.60000000000002</ele>
        <time>2019-09-01T09:32:05Z</time>
      </trkpt>
      <trkpt lat="56.756604993715882" lon="-3.404765026643872">
        <ele>337.56</ele>
        <time>2019-09-01T09:32:06Z</time>
      </trkpt>
      <trkpt lat="56.756685040891171" lon="-3.404827974736691">
        <ele>339</ele>
        <time>2019-09-01T09:32:07Z</time>
      </trkpt>
      <trkpt lat="56.756781013682485" lon="-3.404786987230182">
        <ele>339.95999999999998</ele>
        <time>2019-09-01T09:32:08Z</time>
      </trkpt>
      <trkpt lat="56.756890984252095" lon="-3.40474097058177">
        <ele>341.41000000000003</ele>
        <time>2019-09-01T09:32:09Z</time>
      </trkpt>
      <trkpt lat="56.757012018933892" lon="-3.404689002782106">
        <ele>342.85000000000002</ele>
        <time>2019-09-01T09:32:10Z</time>
      </trkpt>
      <trkpt lat="56.758238961920142" lon="-3.404164966195822">
        <ele>348.13</ele>
        <time>2019-09-01T09:32:18Z</time>
      </trkpt>
      <trkpt lat="56.759452996775508" lon="-3.403864977881312">
        <ele>345.73000000000002</ele>
        <time>2019-09-01T09:32:25Z</time>
      </trkpt>
      <trkpt lat="56.759619964286685" lon="-3.403873024508357">
        <ele>345.25</ele>
        <time>2019-09-01T09:32:26Z</time>
      </trkpt>
      <trkpt lat="56.759781986474991" lon="-3.403938990086317">
        <ele>344.76999999999998</ele>
        <time>2019-09-01T09:32:27Z</time>
      </trkpt>
      <trkpt lat="56.760902982205153" lon="-3.404398988932371">
        <ele>344.76999999999998</ele>
        <time>2019-09-01T09:32:34Z</time>
      </trkpt>
      <trkpt lat="56.762197986245155" lon="-3.404928976669908">
        <ele>340.92000000000002</ele>
        <time>2019-09-01T09:32:42Z</time>
      </trkpt>
      <trkpt lat="56.763067021965981" lon="-3.405503975227475">
        <ele>338.51999999999998</ele>
        <time>2019-09-01T09:32:50Z</time>
      </trkpt>
      <trkpt lat="56.764052985236049" lon="-3.406074028462172">
        <ele>333.23000000000002</ele>
        <time>2019-09-01T09:32:58Z</time>
      </trkpt>
      <trkpt lat="56.764200003817677" lon="-3.406047960743308">
        <ele>332.75</ele>
        <time>2019-09-01T09:32:59Z</time>
      </trkpt>
      <trkpt lat="56.764350039884448" lon="-3.406020971015096">
        <ele>331.79000000000002</ele>
        <time>2019-09-01T09:33:00Z</time>
      </trkpt>
      <trkpt lat="56.764652961865067" lon="-3.405947964638472">
        <ele>330.35000000000002</ele>
        <time>2019-09-01T09:33:02Z</time>
      </trkpt>
      <trkpt lat="56.764801992103457" lon="-3.405871018767357">
        <ele>329.87</ele>
        <time>2019-09-01T09:33:03Z</time>
      </trkpt>
      <trkpt lat="56.765221003443003" lon="-3.405654011294246">
        <ele>328.43000000000001</ele>
        <time>2019-09-01T09:33:06Z</time>
      </trkpt>
      <trkpt lat="56.765328040346503" lon="-3.405638001859188">
        <ele>328.43000000000001</ele>
        <time>2019-09-01T09:33:07Z</time>
      </trkpt>
      <trkpt lat="56.76613898947835" lon="-3.405507998540998">
        <ele>326.01999999999998</ele>
        <time>2019-09-01T09:33:15Z</time>
      </trkpt>
      <trkpt lat="56.766243008896708" lon="-3.405528031289578">
        <ele>326.01999999999998</ele>
        <time>2019-09-01T09:33:16Z</time>
      </trkpt>
      <trkpt lat="56.766350967809558" lon="-3.405559966340661">
        <ele>326.01999999999998</ele>
        <time>2019-09-01T09:33:17Z</time>
      </trkpt>
      <trkpt lat="56.766462028026581" lon="-3.405616963282228">
        <ele>325.54000000000002</ele>
        <time>2019-09-01T09:33:18Z</time>
      </trkpt>
      <trkpt lat="56.766578033566475" lon="-3.4056840185076">
        <ele>325.54000000000002</ele>
        <time>2019-09-01T09:33:19Z</time>
      </trkpt>
      <trkpt lat="56.767476992681623" lon="-3.406188022345305">
        <ele>322.66000000000003</ele>
        <time>2019-09-01T09:33:26Z</time>
      </trkpt>
      <trkpt lat="56.767600039020181" lon="-3.406175030395389">
        <ele>323.62</ele>
        <time>2019-09-01T09:33:27Z</time>
      </trkpt>
      <trkpt lat="56.76772995851934" lon="-3.406133037060499">
        <ele>324.10000000000002</ele>
        <time>2019-09-01T09:33:28Z</time>
      </trkpt>
      <trkpt lat="56.768634030595422" lon="-3.405875964090228">
        <ele>328.91000000000003</ele>
        <time>2019-09-01T09:33:36Z</time>
      </trkpt>
      <trkpt lat="56.768744001165032" lon="-3.405871018767357">
        <ele>328.91000000000003</ele>
        <time>2019-09-01T09:33:37Z</time>
      </trkpt>
      <trkpt lat="56.769329980015755" lon="-3.40598601847887">
        <ele>328.43000000000001</ele>
        <time>2019-09-01T09:33:42Z</time>
      </trkpt>
      <trkpt lat="56.769439028576016" lon="-3.406048966571689">
        <ele>328.43000000000001</ele>
        <time>2019-09-01T09:33:43Z</time>
      </trkpt>
      <trkpt lat="56.769537013024092" lon="-3.406138988211751">
        <ele>328.43000000000001</ele>
        <time>2019-09-01T09:33:44Z</time>
      </trkpt>
      <trkpt lat="56.769738011062145" lon="-3.406323976814747">
        <ele>327.94999999999999</ele>
        <time>2019-09-01T09:33:46Z</time>
      </trkpt>
      <trkpt lat="56.770810978487134" lon="-3.407261995598674">
        <ele>325.54000000000002</ele>
        <time>2019-09-01T09:33:55Z</time>
      </trkpt>
      <trkpt lat="56.772028030827641" lon="-3.407671032473445">
        <ele>319.77999999999997</ele>
        <time>2019-09-01T09:34:02Z</time>
      </trkpt>
      <trkpt lat="56.773761995136738" lon="-3.407396022230387">
        <ele>312.08999999999997</ele>
        <time>2019-09-01T09:34:11Z</time>
      </trkpt>
      <trkpt lat="56.775697041302919" lon="-3.406979022547603">
        <ele>311.60000000000002</ele>
        <time>2019-09-01T09:34:22Z</time>
      </trkpt>
      <trkpt lat="56.777045018970966" lon="-3.407293008640409">
        <ele>314.00999999999999</ele>
        <time>2019-09-01T09:34:30Z</time>
      </trkpt>
      <trkpt lat="56.777888992801309" lon="-3.407908994704485">
        <ele>316.41000000000003</ele>
        <time>2019-09-01T09:34:36Z</time>
      </trkpt>
      <trkpt lat="56.778918039053679" lon="-3.409108025953174">
        <ele>318.81</ele>
        <time>2019-09-01T09:34:44Z</time>
      </trkpt>
      <trkpt lat="56.78006200119853" lon="-3.410516018047929">
        <ele>318.32999999999998</ele>
        <time>2019-09-01T09:34:53Z</time>
      </trkpt>
      <trkpt lat="56.780946962535381" lon="-3.411717982962728">
        <ele>319.30000000000001</ele>
        <time>2019-09-01T09:35:00Z</time>
      </trkpt>
      <trkpt lat="56.781901996582747" lon="-3.412850964814425">
        <ele>321.22000000000003</ele>
        <time>2019-09-01T09:35:08Z</time>
      </trkpt>
      <trkpt lat="56.782774971798062" lon="-3.413688987493515">
        <ele>319.30000000000001</ele>
        <time>2019-09-01T09:35:13Z</time>
      </trkpt>
      <trkpt lat="56.782910004258156" lon="-3.41387297026813">
        <ele>319.30000000000001</ele>
        <time>2019-09-01T09:35:14Z</time>
      </trkpt>
      <trkpt lat="56.783000025898218" lon="-3.414116967469454">
        <ele>319.30000000000001</ele>
        <time>2019-09-01T09:35:15Z</time>
      </trkpt>
      <trkpt lat="56.783730005845428" lon="-3.41610599309206">
        <ele>317.37</ele>
        <time>2019-09-01T09:35:22Z</time>
      </trkpt>
      <trkpt lat="56.784529974684119" lon="-3.418110022321343">
        <ele>317.85000000000002</ele>
        <time>2019-09-01T09:35:30Z</time>
      </trkpt>
      <trkpt lat="56.784691996872425" lon="-3.418464995920658">
        <ele>318.81</ele>
        <time>2019-09-01T09:35:32Z</time>
      </trkpt>
      <trkpt lat="56.784762991592288" lon="-3.418618971481919">
        <ele>319.30000000000001</ele>
        <time>2019-09-01T09:35:33Z</time>
      </trkpt>
      <trkpt lat="56.784857958555222" lon="-3.41872600838542">
        <ele>319.77999999999997</ele>
        <time>2019-09-01T09:35:34Z</time>
      </trkpt>
      <trkpt lat="56.784971030429006" lon="-3.418802032247186">
        <ele>320.74000000000001</ele>
        <time>2019-09-01T09:35:35Z</time>
      </trkpt>
      <trkpt lat="56.785085024312139" lon="-3.418879983946681">
        <ele>321.22000000000003</ele>
        <time>2019-09-01T09:35:36Z</time>
      </trkpt>
      <trkpt lat="56.785585004836321" lon="-3.41922196559608">
        <ele>322.66000000000003</ele>
        <time>2019-09-01T09:35:40Z</time>
      </trkpt>
      <trkpt lat="56.78571299649775" lon="-3.419295977801085">
        <ele>323.13999999999999</ele>
        <time>2019-09-01T09:35:41Z</time>
      </trkpt>
      <trkpt lat="56.785845011472702" lon="-3.419344006106257">
        <ele>323.62</ele>
        <time>2019-09-01T09:35:42Z</time>
      </trkpt>
      <trkpt lat="56.785981971770525" lon="-3.419355992227793">
        <ele>324.10000000000002</ele>
        <time>2019-09-01T09:35:43Z</time>
      </trkpt>
      <trkpt lat="56.7860989831388" lon="-3.419340988621116">
        <ele>324.10000000000002</ele>
        <time>2019-09-01T09:35:44Z</time>
      </trkpt>
      <trkpt lat="56.786570968106389" lon="-3.419279968366027">
        <ele>323.62</ele>
        <time>2019-09-01T09:35:48Z</time>
      </trkpt>
      <trkpt lat="56.786684961989522" lon="-3.419321039691567">
        <ele>323.13999999999999</ele>
        <time>2019-09-01T09:35:49Z</time>
      </trkpt>
      <trkpt lat="56.786801973357797" lon="-3.419364038854837">
        <ele>322.66000000000003</ele>
        <time>2019-09-01T09:35:50Z</time>
      </trkpt>
      <trkpt lat="56.786904986947775" lon="-3.419482978060842">
        <ele>322.66000000000003</ele>
        <time>2019-09-01T09:35:51Z</time>
      </trkpt>
      <trkpt lat="56.787010012194514" lon="-3.419609041884542">
        <ele>322.66000000000003</ele>
        <time>2019-09-01T09:35:52Z</time>
      </trkpt>
      <trkpt lat="56.787101961672306" lon="-3.419767962768674">
        <ele>322.66000000000003</ele>
        <time>2019-09-01T09:35:53Z</time>
      </trkpt>
      <trkpt lat="56.787190977483988" lon="-3.419928979128599">
        <ele>323.13999999999999</ele>
        <time>2019-09-01T09:35:54Z</time>
      </trkpt>
      <trkpt lat="56.787276975810528" lon="-3.420084966346622">
        <ele>323.62</ele>
        <time>2019-09-01T09:35:55Z</time>
      </trkpt>
      <trkpt lat="56.787542011588812" lon="-3.420519987121224">
        <ele>325.06</ele>
        <time>2019-09-01T09:35:58Z</time>
      </trkpt>
      <trkpt lat="56.78764401935041" lon="-3.42063800431788">
        <ele>325.54000000000002</ele>
        <time>2019-09-01T09:35:59Z</time>
      </trkpt>
      <trkpt lat="56.78775398992002" lon="-3.420748980715871">
        <ele>325.54000000000002</ele>
        <time>2019-09-01T09:36:00Z</time>
      </trkpt>
      <trkpt lat="56.787876030430198" lon="-3.420799020677805">
        <ele>326.01999999999998</ele>
        <time>2019-09-01T09:36:01Z</time>
      </trkpt>
      <trkpt lat="56.788003016263247" lon="-3.420849982649088">
        <ele>326.01999999999998</ele>
        <time>2019-09-01T09:36:02Z</time>
      </trkpt>
      <trkpt lat="56.788396965712309" lon="-3.421008987352252">
        <ele>327.94999999999999</ele>
        <time>2019-09-01T09:36:05Z</time>
      </trkpt>
      <trkpt lat="56.788530992344022" lon="-3.421066990122199">
        <ele>328.91000000000003</ele>
        <time>2019-09-01T09:36:06Z</time>
      </trkpt>
      <trkpt lat="56.788664013147354" lon="-3.421170003712177">
        <ele>329.38999999999999</ele>
        <time>2019-09-01T09:36:07Z</time>
      </trkpt>
      <trkpt lat="56.789097022265196" lon="-3.421439984813333">
        <ele>329.87</ele>
        <time>2019-09-01T09:36:10Z</time>
      </trkpt>
      <trkpt lat="56.789247980341315" lon="-3.421504022553563">
        <ele>330.35000000000002</ele>
        <time>2019-09-01T09:36:11Z</time>
      </trkpt>
      <trkpt lat="56.789891039952636" lon="-3.422047002241015">
        <ele>330.35000000000002</ele>
        <time>2019-09-01T09:36:16Z</time>
      </trkpt>
      <trkpt lat="56.789979971945286" lon="-3.4221859741956">
        <ele>330.35000000000002</ele>
        <time>2019-09-01T09:36:17Z</time>
      </trkpt>
      <trkpt lat="56.790049038827419" lon="-3.422351013869047">
        <ele>329.87</ele>
        <time>2019-09-01T09:36:18Z</time>
      </trkpt>
      <trkpt lat="56.790119027718902" lon="-3.422517981380224">
        <ele>330.35000000000002</ele>
        <time>2019-09-01T09:36:19Z</time>
      </trkpt>
      <trkpt lat="56.790188010782003" lon="-3.422683021053672">
        <ele>330.35000000000002</ele>
        <time>2019-09-01T09:36:20Z</time>
      </trkpt>
      <trkpt lat="56.790255988016725" lon="-3.422847976908088">
        <ele>330.82999999999998</ele>
        <time>2019-09-01T09:36:21Z</time>
      </trkpt>
      <trkpt lat="56.790325976908207" lon="-3.423015028238297">
        <ele>330.82999999999998</ele>
        <time>2019-09-01T09:36:22Z</time>
      </trkpt>
      <trkpt lat="56.790466038510203" lon="-3.423371007665992">
        <ele>331.31</ele>
        <time>2019-09-01T09:36:24Z</time>
      </trkpt>
      <trkpt lat="56.790529992431402" lon="-3.423564964905381">
        <ele>331.79000000000002</ele>
        <time>2019-09-01T09:36:25Z</time>
      </trkpt>
      <trkpt lat="56.790667958557606" lon="-3.423989005386829">
        <ele>333.23000000000002</ele>
        <time>2019-09-01T09:36:27Z</time>
      </trkpt>
      <trkpt lat="56.790743982419372" lon="-3.424221016466618">
        <ele>333.70999999999998</ele>
        <time>2019-09-01T09:36:28Z</time>
      </trkpt>
      <trkpt lat="56.790831992402673" lon="-3.424455039203167">
        <ele>334.19999999999999</ele>
        <time>2019-09-01T09:36:29Z</time>
      </trkpt>
      <trkpt lat="56.791801024228334" lon="-3.426186991855502">
        <ele>338.51999999999998</ele>
        <time>2019-09-01T09:36:38Z</time>
      </trkpt>
      <trkpt lat="56.791915018111467" lon="-3.426242982968688">
        <ele>338.51999999999998</ele>
        <time>2019-09-01T09:36:39Z</time>
      </trkpt>
      <trkpt lat="56.792033035308123" lon="-3.426301991567016">
        <ele>338.51999999999998</ele>
        <time>2019-09-01T09:36:40Z</time>
      </trkpt>
      <trkpt lat="56.792281977832317" lon="-3.426426965743303">
        <ele>338.51999999999998</ele>
        <time>2019-09-01T09:36:42Z</time>
      </trkpt>
      <trkpt lat="56.792410975322127" lon="-3.426491003483534">
        <ele>338.51999999999998</ele>
        <time>2019-09-01T09:36:43Z</time>
      </trkpt>
      <trkpt lat="56.792550031095743" lon="-3.426588987931609">
        <ele>338.51999999999998</ele>
        <time>2019-09-01T09:36:44Z</time>
      </trkpt>
      <trkpt lat="56.79372601211071" lon="-3.427764968946576">
        <ele>336.60000000000002</ele>
        <time>2019-09-01T09:36:52Z</time>
      </trkpt>
      <trkpt lat="56.793979983776808" lon="-3.427998991683126">
        <ele>336.12</ele>
        <time>2019-09-01T09:36:54Z</time>
      </trkpt>
      <trkpt lat="56.794117027893662" lon="-3.428035033866763">
        <ele>335.63999999999999</ele>
        <time>2019-09-01T09:36:55Z</time>
      </trkpt>
      <trkpt lat="56.79426203481853" lon="-3.428074009716511">
        <ele>335.63999999999999</ele>
        <time>2019-09-01T09:36:56Z</time>
      </trkpt>
      <trkpt lat="56.795043982565403" lon="-3.428323036059737">
        <ele>333.23000000000002</ele>
        <time>2019-09-01T09:37:02Z</time>
      </trkpt>
      <trkpt lat="56.795148001983762" lon="-3.428457984700799">
        <ele>333.23000000000002</ele>
        <time>2019-09-01T09:37:03Z</time>
      </trkpt>
      <trkpt lat="56.795258978381753" lon="-3.428601985797286">
        <ele>332.75</ele>
        <time>2019-09-01T09:37:04Z</time>
      </trkpt>
      <trkpt lat="56.796062970533967" lon="-3.429579986259341">
        <ele>334.19999999999999</ele>
        <time>2019-09-01T09:37:11Z</time>
      </trkpt>
      <trkpt lat="56.796189034357667" lon="-3.429634971544147">
        <ele>334.68000000000001</ele>
        <time>2019-09-01T09:37:12Z</time>
      </trkpt>
      <trkpt lat="56.79658398963511" lon="-3.4298359695822">
        <ele>335.63999999999999</ele>
        <time>2019-09-01T09:37:15Z</time>
      </trkpt>
      <trkpt lat="56.796722039580345" lon="-3.429948035627604">
        <ele>336.12</ele>
        <time>2019-09-01T09:37:16Z</time>
      </trkpt>
      <trkpt lat="56.797972032800317" lon="-3.430653037503362">
        <ele>339.48000000000002</ele>
        <time>2019-09-01T09:37:24Z</time>
      </trkpt>
      <trkpt lat="56.798526998609304" lon="-3.430708022788167">
        <ele>342.85000000000002</ele>
        <time>2019-09-01T09:37:28Z</time>
      </trkpt>
      <trkpt lat="56.798643004149199" lon="-3.430766025558114">
        <ele>343.81</ele>
        <time>2019-09-01T09:37:29Z</time>
      </trkpt>
      <trkpt lat="56.798751968890429" lon="-3.430853029713035">
        <ele>344.29000000000002</ele>
        <time>2019-09-01T09:37:30Z</time>
      </trkpt>
      <trkpt lat="56.7997429613024" lon="-3.431758023798466">
        <ele>343.32999999999998</ele>
        <time>2019-09-01T09:37:37Z</time>
      </trkpt>
      <trkpt lat="56.801190013065934" lon="-3.43299200758338">
        <ele>340.92000000000002</ele>
        <time>2019-09-01T09:37:47Z</time>
      </trkpt>
      <trkpt lat="56.802243031561375" lon="-3.433656021952629">
        <ele>339.48000000000002</ele>
        <time>2019-09-01T09:37:56Z</time>
      </trkpt>
      <trkpt lat="56.802336992695928" lon="-3.433801028877497">
        <ele>338.51999999999998</ele>
        <time>2019-09-01T09:37:57Z</time>
      </trkpt>
      <trkpt lat="56.80242701433599" lon="-3.433986017480493">
        <ele>337.56</ele>
        <time>2019-09-01T09:37:58Z</time>
      </trkpt>
      <trkpt lat="56.802522987127304" lon="-3.434187015518546">
        <ele>336.60000000000002</ele>
        <time>2019-09-01T09:37:59Z</time>
      </trkpt>
      <trkpt lat="56.802626000717282" lon="-3.434399999678135">
        <ele>336.12</ele>
        <time>2019-09-01T09:38:00Z</time>
      </trkpt>
      <trkpt lat="56.803804999217391" lon="-3.436919013038278">
        <ele>333.23000000000002</ele>
        <time>2019-09-01T09:38:10Z</time>
      </trkpt>
      <trkpt lat="56.804622989147902" lon="-3.43866697512567">
        <ele>334.68000000000001</ele>
        <time>2019-09-01T09:38:17Z</time>
      </trkpt>
      <trkpt lat="56.805638959631324" lon="-3.44070796854794">
        <ele>340.92000000000002</ele>
        <time>2019-09-01T09:38:26Z</time>
      </trkpt>
      <trkpt lat="56.806646967306733" lon="-3.443334018811584">
        <ele>338.04000000000002</ele>
        <time>2019-09-01T09:38:36Z</time>
      </trkpt>
      <trkpt lat="56.807539975270629" lon="-3.445940036326647">
        <ele>334.68000000000001</ele>
        <time>2019-09-01T09:38:44Z</time>
      </trkpt>
      <trkpt lat="56.808413034304976" lon="-3.448552004992962">
        <ele>339</ele>
        <time>2019-09-01T09:38:53Z</time>
      </trkpt>
      <trkpt lat="56.809236975386739" lon="-3.451037993654609">
        <ele>337.56</ele>
        <time>2019-09-01T09:39:02Z</time>
      </trkpt>
      <trkpt lat="56.810151021927595" lon="-3.453793041408062">
        <ele>339.48000000000002</ele>
        <time>2019-09-01T09:39:12Z</time>
      </trkpt>
      <trkpt lat="56.811212003231049" lon="-3.456329992040992">
        <ele>339.95999999999998</ele>
        <time>2019-09-01T09:39:21Z</time>
      </trkpt>
      <trkpt lat="56.812126971781254" lon="-3.457388961687684">
        <ele>339</ele>
        <time>2019-09-01T09:39:27Z</time>
      </trkpt>
      <trkpt lat="56.813566982746124" lon="-3.458040989935398">
        <ele>336.60000000000002</ele>
        <time>2019-09-01T09:39:34Z</time>
      </trkpt>
      <trkpt lat="56.815076982602477" lon="-3.458056999370456">
        <ele>335.63999999999999</ele>
        <time>2019-09-01T09:39:41Z</time>
      </trkpt>
      <trkpt lat="56.816399982199073" lon="-3.457027031108737">
        <ele>336.12</ele>
        <time>2019-09-01T09:39:48Z</time>
      </trkpt>
      <trkpt lat="56.817879974842072" lon="-3.455278985202313">
        <ele>339.95999999999998</ele>
        <time>2019-09-01T09:39:56Z</time>
      </trkpt>
      <trkpt lat="56.81892897002399" lon="-3.454356975853443">
        <ele>347.64999999999998</ele>
        <time>2019-09-01T09:40:02Z</time>
      </trkpt>
      <trkpt lat="56.819033995270729" lon="-3.454258991405368">
        <ele>349.10000000000002</ele>
        <time>2019-09-01T09:40:03Z</time>
      </trkpt>
      <trkpt lat="56.819150000810623" lon="-3.454271983355284">
        <ele>350.06</ele>
        <time>2019-09-01T09:40:04Z</time>
      </trkpt>
      <trkpt lat="56.81927396915853" lon="-3.454288998618722">
        <ele>351.01999999999998</ele>
        <time>2019-09-01T09:40:05Z</time>
      </trkpt>
      <trkpt lat="56.820224979892373" lon="-3.454378014430404">
        <ele>352.94</ele>
        <time>2019-09-01T09:40:11Z</time>
      </trkpt>
      <trkpt lat="56.82036898098886" lon="-3.454382959753275">
        <ele>352.94</ele>
        <time>2019-09-01T09:40:12Z</time>
      </trkpt>
      <trkpt lat="56.820514993742108" lon="-3.454321017488837">
        <ele>352.94</ele>
        <time>2019-09-01T09:40:13Z</time>
      </trkpt>
      <trkpt lat="56.820665029808879" lon="-3.454228984192014">
        <ele>352.45999999999998</ele>
        <time>2019-09-01T09:40:14Z</time>
      </trkpt>
      <trkpt lat="56.821354022249579" lon="-3.453805027529597">
        <ele>353.42000000000002</ele>
        <time>2019-09-01T09:40:19Z</time>
      </trkpt>
      <trkpt lat="56.821486037224531" lon="-3.453815001994371">
        <ele>353.89999999999998</ele>
        <time>2019-09-01T09:40:20Z</time>
      </trkpt>
      <trkpt lat="56.821614028885961" lon="-3.453824976459146">
        <ele>353.89999999999998</ele>
        <time>2019-09-01T09:40:21Z</time>
      </trkpt>
      <trkpt lat="56.821854002773762" lon="-3.453842997550964">
        <ele>354.38</ele>
        <time>2019-09-01T09:40:23Z</time>
      </trkpt>
      <trkpt lat="56.821983000263572" lon="-3.453819025307894">
        <ele>354.38</ele>
        <time>2019-09-01T09:40:24Z</time>
      </trkpt>
      <trkpt lat="56.822121972218156" lon="-3.453737972304225">
        <ele>354.38</ele>
        <time>2019-09-01T09:40:25Z</time>
      </trkpt>
      <trkpt lat="56.822413997724652" lon="-3.453567987307906">
        <ele>355.33999999999997</ele>
        <time>2019-09-01T09:40:27Z</time>
      </trkpt>
      <trkpt lat="56.822573002427816" lon="-3.453518031165004">
        <ele>356.31</ele>
        <time>2019-09-01T09:40:28Z</time>
      </trkpt>
      <trkpt lat="56.823888961225748" lon="-3.45323103480041">
        <ele>359.67000000000002</ele>
        <time>2019-09-01T09:40:36Z</time>
      </trkpt>
      <trkpt lat="56.824032040312886" lon="-3.453131960704923">
        <ele>359.67000000000002</ele>
        <time>2019-09-01T09:40:37Z</time>
      </trkpt>
      <trkpt lat="56.824457002803683" lon="-3.452839013189077">
        <ele>360.63</ele>
        <time>2019-09-01T09:40:40Z</time>
      </trkpt>
      <trkpt lat="56.824610978364944" lon="-3.452808000147343">
        <ele>360.14999999999998</ele>
        <time>2019-09-01T09:40:41Z</time>
      </trkpt>
      <trkpt lat="56.825430979952216" lon="-3.452600967139006">
        <ele>356.31</ele>
        <time>2019-09-01T09:40:46Z</time>
      </trkpt>
      <trkpt lat="56.825600964948535" lon="-3.452521003782749">
        <ele>355.82999999999998</ele>
        <time>2019-09-01T09:40:47Z</time>
      </trkpt>
      <trkpt lat="56.827011974528432" lon="-3.451396990567446">
        <ele>354.38</ele>
        <time>2019-09-01T09:40:55Z</time>
      </trkpt>
      <trkpt lat="56.82902698405087" lon="-3.450084971264005">
        <ele>364.48000000000002</ele>
        <time>2019-09-01T09:41:07Z</time>
      </trkpt>
      <trkpt lat="56.830593980848789" lon="-3.44888904131949">
        <ele>367.83999999999997</ele>
        <time>2019-09-01T09:41:16Z</time>
      </trkpt>
      <trkpt lat="56.832304978743196" lon="-3.447490017861128">
        <ele>372.64999999999998</ele>
        <time>2019-09-01T09:41:26Z</time>
      </trkpt>
      <trkpt lat="56.833072006702423" lon="-3.447125991806388">
        <ele>374.56999999999999</ele>
        <time>2019-09-01T09:41:31Z</time>
      </trkpt>
      <trkpt lat="56.833204021677375" lon="-3.447097996249795">
        <ele>375.05000000000001</ele>
        <time>2019-09-01T09:41:32Z</time>
      </trkpt>
      <trkpt lat="56.83332497254014" lon="-3.447162033990026">
        <ele>375.05000000000001</ele>
        <time>2019-09-01T09:41:33Z</time>
      </trkpt>
      <trkpt lat="56.833437038585544" lon="-3.447262030094862">
        <ele>374.56999999999999</ele>
        <time>2019-09-01T09:41:34Z</time>
      </trkpt>
      <trkpt lat="56.833551032468677" lon="-3.447362026199698">
        <ele>374.56999999999999</ele>
        <time>2019-09-01T09:41:35Z</time>
      </trkpt>
      <trkpt lat="56.833670977503061" lon="-3.447467973455787">
        <ele>374.56999999999999</ele>
        <time>2019-09-01T09:41:36Z</time>
      </trkpt>
      <trkpt lat="56.834217980504036" lon="-3.447873992845416">
        <ele>374.56999999999999</ele>
        <time>2019-09-01T09:41:40Z</time>
      </trkpt>
      <trkpt lat="56.834364999085665" lon="-3.44790299423039">
        <ele>375.52999999999997</ele>
        <time>2019-09-01T09:41:41Z</time>
      </trkpt>
      <trkpt lat="56.834517968818545" lon="-3.447900982573628">
        <ele>376.49000000000001</ele>
        <time>2019-09-01T09:41:42Z</time>
      </trkpt>
      <trkpt lat="56.834674961864948" lon="-3.447897965088487">
        <ele>377.94</ele>
        <time>2019-09-01T09:41:43Z</time>
      </trkpt>
      <trkpt lat="56.834830027073622" lon="-3.447895031422377">
        <ele>379.38</ele>
        <time>2019-09-01T09:41:44Z</time>
      </trkpt>
      <trkpt lat="56.835570987313986" lon="-3.447868041694164">
        <ele>383.22000000000003</ele>
        <time>2019-09-01T09:41:49Z</time>
      </trkpt>
      <trkpt lat="56.835719011723995" lon="-3.447799980640411">
        <ele>384.18000000000001</ele>
        <time>2019-09-01T09:41:50Z</time>
      </trkpt>
      <trkpt lat="56.835874998942018" lon="-3.447727980092168">
        <ele>384.66000000000003</ele>
        <time>2019-09-01T09:41:51Z</time>
      </trkpt>
      <trkpt lat="56.836037021130323" lon="-3.447652962058783">
        <ele>384.66000000000003</ele>
        <time>2019-09-01T09:41:52Z</time>
      </trkpt>
      <trkpt lat="56.836195020005107" lon="-3.447510972619057">
        <ele>384.66000000000003</ele>
        <time>2019-09-01T09:41:53Z</time>
      </trkpt>
      <trkpt lat="56.836348995566368" lon="-3.447334030643106">
        <ele>384.18000000000001</ele>
        <time>2019-09-01T09:41:54Z</time>
      </trkpt>
      <trkpt lat="56.836502971127629" lon="-3.447157004848123">
        <ele>383.69999999999999</ele>
        <time>2019-09-01T09:41:55Z</time>
      </trkpt>
      <trkpt lat="56.836640015244484" lon="-3.446962041780353">
        <ele>383.69999999999999</ele>
        <time>2019-09-01T09:41:56Z</time>
      </trkpt>
      <trkpt lat="56.836772030219436" lon="-3.446768000721932">
        <ele>383.69999999999999</ele>
        <time>2019-09-01T09:41:57Z</time>
      </trkpt>
      <trkpt lat="56.837948011234403" lon="-3.445145012810826">
        <ele>377.44999999999999</ele>
        <time>2019-09-01T09:42:05Z</time>
      </trkpt>
      <trkpt lat="56.838079020380974" lon="-3.444945020601153">
        <ele>376.97000000000003</ele>
        <time>2019-09-01T09:42:06Z</time>
      </trkpt>
      <trkpt lat="56.839220970869064" lon="-3.442563973367214">
        <ele>375.52999999999997</ele>
        <time>2019-09-01T09:42:16Z</time>
      </trkpt>
      <trkpt lat="56.839346028864384" lon="-3.442313019186258">
        <ele>376.00999999999999</ele>
        <time>2019-09-01T09:42:17Z</time>
      </trkpt>
      <trkpt lat="56.839496986940503" lon="-3.442120989784598">
        <ele>376.97000000000003</ele>
        <time>2019-09-01T09:42:18Z</time>
      </trkpt>
      <trkpt lat="56.841129027307034" lon="-3.44003900885582">
        <ele>388.50999999999999</ele>
        <time>2019-09-01T09:42:29Z</time>
      </trkpt>
      <trkpt lat="56.842266032472253" lon="-3.438203036785126">
        <ele>390.91000000000003</ele>
        <time>2019-09-01T09:42:37Z</time>
      </trkpt>
      <trkpt lat="56.84372297488153" lon="-3.436628999188542">
        <ele>388.99000000000001</ele>
        <time>2019-09-01T09:42:45Z</time>
      </trkpt>
      <trkpt lat="56.844954025000334" lon="-3.435399038717151">
        <ele>393.31999999999999</ele>
        <time>2019-09-01T09:42:53Z</time>
      </trkpt>
      <trkpt lat="56.847088979557157" lon="-3.433427028357983">
        <ele>397.16000000000003</ele>
        <time>2019-09-01T09:43:05Z</time>
      </trkpt>
      <trkpt lat="56.849332982674241" lon="-3.432050971314311">
        <ele>398.60000000000002</ele>
        <time>2019-09-01T09:43:16Z</time>
      </trkpt>
      <trkpt lat="56.852296991273761" lon="-3.430391019210219">
        <ele>401.00999999999999</ele>
        <time>2019-09-01T09:43:29Z</time>
      </trkpt>
      <trkpt lat="56.854175962507725" lon="-3.429646035656333">
        <ele>410.13999999999999</ele>
        <time>2019-09-01T09:43:38Z</time>
      </trkpt>
      <trkpt lat="56.856185020878911" lon="-3.428451027721167">
        <ele>418.31</ele>
        <time>2019-09-01T09:43:49Z</time>
      </trkpt>
      <trkpt lat="56.858818028122187" lon="-3.42611700296402">
        <ele>423.12</ele>
        <time>2019-09-01T09:44:02Z</time>
      </trkpt>
      <trkpt lat="56.861342992633581" lon="-3.423816002905369">
        <ele>435.13</ele>
        <time>2019-09-01T09:44:15Z</time>
      </trkpt>
      <trkpt lat="56.862443033605814" lon="-3.422138029709458">
        <ele>445.23000000000002</ele>
        <time>2019-09-01T09:44:23Z</time>
      </trkpt>
      <trkpt lat="56.863160021603107" lon="-3.419982958585024">
        <ele>458.20999999999998</ele>
        <time>2019-09-01T09:44:31Z</time>
      </trkpt>
      <trkpt lat="56.864064009860158" lon="-3.416133988648653">
        <ele>477.91000000000003</ele>
        <time>2019-09-01T09:44:43Z</time>
      </trkpt>
      <trkpt lat="56.86482198536396" lon="-3.413212979212403">
        <ele>493.76999999999998</ele>
        <time>2019-09-01T09:44:53Z</time>
      </trkpt>
      <trkpt lat="56.865897970274091" lon="-3.411213979125023">
        <ele>510.12</ele>
        <time>2019-09-01T09:45:01Z</time>
      </trkpt>
      <trkpt lat="56.867136983200908" lon="-3.410076973959804">
        <ele>525.01999999999998</ele>
        <time>2019-09-01T09:45:08Z</time>
      </trkpt>
      <trkpt lat="56.868907995522022" lon="-3.40946501120925">
        <ele>545.20000000000005</ele>
        <time>2019-09-01T09:45:17Z</time>
      </trkpt>
      <trkpt lat="56.871577966958284" lon="-3.408823041245341">
        <ele>572.60000000000002</ele>
        <time>2019-09-01T09:45:29Z</time>
      </trkpt>
      <trkpt lat="56.873880978673697" lon="-3.408582983538508">
        <ele>598.55999999999995</ele>
        <time>2019-09-01T09:45:39Z</time>
      </trkpt>
      <trkpt lat="56.876105032861233" lon="-3.409056980162859">
        <ele>627.39999999999998</ele>
        <time>2019-09-01T09:45:49Z</time>
      </trkpt>
      <trkpt lat="56.87863402068615" lon="-3.40963700786233">
        <ele>661.51999999999998</ele>
        <time>2019-09-01T09:46:01Z</time>
      </trkpt>
      <trkpt lat="56.87998996116221" lon="-3.410071022808552">
        <ele>672.10000000000002</ele>
        <time>2019-09-01T09:46:10Z</time>
      </trkpt>
      <trkpt lat="56.880939966067672" lon="-3.410681979730725">
        <ele>673.05999999999995</ele>
        <time>2019-09-01T09:46:18Z</time>
      </trkpt>
      <trkpt lat="56.882346030324697" lon="-3.411194030195475">
        <ele>669.70000000000005</ele>
        <time>2019-09-01T09:46:28Z</time>
      </trkpt>
      <trkpt lat="56.882909964770079" lon="-3.411463005468249">
        <ele>666.80999999999995</ele>
        <time>2019-09-01T09:46:32Z</time>
      </trkpt>
      <trkpt lat="56.88304197974503" lon="-3.411595020443201">
        <ele>665.37</ele>
        <time>2019-09-01T09:46:33Z</time>
      </trkpt>
      <trkpt lat="56.883156979456544" lon="-3.411773974075913">
        <ele>664.40999999999997</ele>
        <time>2019-09-01T09:46:34Z</time>
      </trkpt>
      <trkpt lat="56.883269967511296" lon="-3.411964997649193">
        <ele>663.45000000000005</ele>
        <time>2019-09-01T09:46:35Z</time>
      </trkpt>
      <trkpt lat="56.883381027728319" lon="-3.412154009565711">
        <ele>662.49000000000001</ele>
        <time>2019-09-01T09:46:36Z</time>
      </trkpt>
      <trkpt lat="56.88359702937305" lon="-3.412499008700252">
        <ele>660.55999999999995</ele>
        <time>2019-09-01T09:46:38Z</time>
      </trkpt>
      <trkpt lat="56.883710017427802" lon="-3.412630017846823">
        <ele>659.60000000000002</ele>
        <time>2019-09-01T09:46:39Z</time>
      </trkpt>
      <trkpt lat="56.884619034826756" lon="-3.41342001222074">
        <ele>654.79999999999995</ele>
        <time>2019-09-01T09:46:48Z</time>
      </trkpt>
      <trkpt lat="56.885882019996643" lon="-3.414292987436056">
        <ele>651.42999999999995</ele>
        <time>2019-09-01T09:47:01Z</time>
      </trkpt>
      <trkpt lat="56.886374959722161" lon="-3.414523992687464">
        <ele>649.50999999999999</ele>
        <time>2019-09-01T09:47:09Z</time>
      </trkpt>
      <trkpt lat="56.886409996077418" lon="-3.41453799046576">
        <ele>649.50999999999999</ele>
        <time>2019-09-01T09:47:10Z</time>
      </trkpt>
      <trkpt lat="56.886445032432675" lon="-3.414552994072437">
        <ele>649.50999999999999</ele>
        <time>2019-09-01T09:47:11Z</time>
      </trkpt>
      <trkpt lat="56.88647797331214" lon="-3.414565986022353">
        <ele>649.50999999999999</ele>
        <time>2019-09-01T09:47:12Z</time>
      </trkpt>
      <trkpt lat="56.886514015495777" lon="-3.41458098962903">
        <ele>649.99000000000001</ele>
        <time>2019-09-01T09:47:13Z</time>
      </trkpt>
      <trkpt lat="56.886547040194273" lon="-3.414593981578946">
        <ele>650.47000000000003</ele>
        <time>2019-09-01T09:47:14Z</time>
      </trkpt>
      <trkpt lat="56.886579981073737" lon="-3.414607979357243">
        <ele>650.47000000000003</ele>
        <time>2019-09-01T09:47:15Z</time>
      </trkpt>
      <trkpt lat="56.886608982458711" lon="-3.414618959650397">
        <ele>650.47000000000003</ele>
        <time>2019-09-01T09:47:16Z</time>
      </trkpt>
      <trkpt lat="56.886639995500445" lon="-3.414632035419345">
        <ele>650.95000000000005</ele>
        <time>2019-09-01T09:47:17Z</time>
      </trkpt>
      <trkpt lat="56.886685006320477" lon="-3.414649972692132">
        <ele>650.95000000000005</ele>
        <time>2019-09-01T09:47:18Z</time>
      </trkpt>
      <trkpt lat="56.886733034625649" lon="-3.414670005440712">
        <ele>651.42999999999995</ele>
        <time>2019-09-01T09:47:19Z</time>
      </trkpt>
      <trkpt lat="56.886768992990255" lon="-3.414684003219008">
        <ele>651.42999999999995</ele>
        <time>2019-09-01T09:47:20Z</time>
      </trkpt>
      <trkpt lat="56.886778967455029" lon="-3.414688026532531">
        <ele>651.90999999999997</ele>
        <time>2019-09-01T09:47:21Z</time>
      </trkpt>
      <trkpt lat="56.886824984103441" lon="-3.414694983512163">
        <ele>651.90999999999997</ele>
        <time>2019-09-01T09:47:22Z</time>
      </trkpt>
      <trkpt lat="56.886853985488415" lon="-3.414699006825686">
        <ele>652.38999999999999</ele>
        <time>2019-09-01T09:47:23Z</time>
      </trkpt>
      <trkpt lat="56.886875024065375" lon="-3.414702024310827">
        <ele>652.87</ele>
        <time>2019-09-01T09:47:24Z</time>
      </trkpt>
      <trkpt lat="56.886901007965207" lon="-3.414705963805318">
        <ele>653.35000000000002</ele>
        <time>2019-09-01T09:47:25Z</time>
      </trkpt>
      <trkpt lat="56.886925986036658" lon="-3.41470898129046">
        <ele>653.35000000000002</ele>
        <time>2019-09-01T09:47:26Z</time>
      </trkpt>
      <trkpt lat="56.887076022103429" lon="-3.414731025695801">
        <ele>654.30999999999995</ele>
        <time>2019-09-01T09:47:32Z</time>
      </trkpt>
      <trkpt lat="56.887094965204597" lon="-3.414733037352562">
        <ele>653.83000000000004</ele>
        <time>2019-09-01T09:47:33Z</time>
      </trkpt>
      <trkpt lat="56.887145005166531" lon="-3.414739994332194">
        <ele>653.35000000000002</ele>
        <time>2019-09-01T09:47:36Z</time>
      </trkpt>
      <trkpt lat="56.887165959924459" lon="-3.414743011817336">
        <ele>652.87</ele>
        <time>2019-09-01T09:47:37Z</time>
      </trkpt>
      <trkpt lat="56.887184986844659" lon="-3.414746029302478">
        <ele>652.87</ele>
        <time>2019-09-01T09:47:38Z</time>
      </trkpt>
      <trkpt lat="56.887202002108097" lon="-3.414748962968588">
        <ele>652.87</ele>
        <time>2019-09-01T09:47:39Z</time>
      </trkpt>
      <trkpt lat="56.887215999886394" lon="-3.414750974625349">
        <ele>652.38999999999999</ele>
        <time>2019-09-01T09:47:40Z</time>
      </trkpt>
      <trkpt lat="56.887236032634974" lon="-3.41475298628211">
        <ele>652.38999999999999</ele>
        <time>2019-09-01T09:47:41Z</time>
      </trkpt>
      <trkpt lat="56.887251958250999" lon="-3.414756003767252">
        <ele>651.90999999999997</ele>
        <time>2019-09-01T09:47:42Z</time>
      </trkpt>
      <trkpt lat="56.887263022363186" lon="-3.414757009595633">
        <ele>651.42999999999995</ele>
        <time>2019-09-01T09:47:43Z</time>
      </trkpt>
      <trkpt lat="56.887263022363186" lon="-3.414757009595633">
        <ele>651.42999999999995</ele>
        <time>2019-09-01T09:47:44Z</time>
      </trkpt>
      <trkpt lat="56.887263022363186" lon="-3.414757009595633">
        <ele>651.42999999999995</ele>
        <time>2019-09-01T09:47:59Z</time>
      </trkpt>
      <trkpt lat="56.887200996279716" lon="-3.415296971797943">
        <ele>649.99000000000001</ele>
        <time>2019-09-01T09:48:13Z</time>
      </trkpt>
      <trkpt lat="56.887175012379885" lon="-3.415329996496439">
        <ele>655.75999999999999</ele>
        <time>2019-09-01T09:58:41Z</time>
      </trkpt>
      <trkpt lat="56.887194039300084" lon="-3.415336031466723">
        <ele>651.42999999999995</ele>
        <time>2019-09-01T09:59:16Z</time>
      </trkpt>
      <trkpt lat="56.887220023199916" lon="-3.415296971797943">
        <ele>650.47000000000003</ele>
        <time>2019-09-01T09:59:37Z</time>
      </trkpt>
      <trkpt lat="56.887211976572871" lon="-3.41531197540462">
        <ele>649.50999999999999</ele>
        <time>2019-09-01T09:59:55Z</time>
      </trkpt>
      <trkpt lat="56.887153973802924" lon="-3.415253972634673">
        <ele>650.47000000000003</ele>
        <time>2019-09-01T10:00:04Z</time>
      </trkpt>
      <trkpt lat="56.887114997953176" lon="-3.415235029533505">
        <ele>650.95000000000005</ele>
        <time>2019-09-01T10:00:36Z</time>
      </trkpt>
      <trkpt lat="56.886939983814955" lon="-3.415124975144863">
        <ele>651.90999999999997</ele>
        <time>2019-09-01T10:00:40Z</time>
      </trkpt>
      <trkpt lat="56.886625997722149" lon="-3.414626000449061">
        <ele>651.42999999999995</ele>
        <time>2019-09-01T10:00:49Z</time>
      </trkpt>
      <trkpt lat="56.886592973023653" lon="-3.414613008499146">
        <ele>650.95000000000005</ele>
        <time>2019-09-01T10:00:52Z</time>
      </trkpt>
      <trkpt lat="56.886604037135839" lon="-3.414617031812668">
        <ele>650.47000000000003</ele>
        <time>2019-09-01T10:00:53Z</time>
      </trkpt>
      <trkpt lat="56.886625997722149" lon="-3.414626000449061">
        <ele>650.47000000000003</ele>
        <time>2019-09-01T10:00:54Z</time>
      </trkpt>
      <trkpt lat="56.886672014370561" lon="-3.414645027369261">
        <ele>649.99000000000001</ele>
        <time>2019-09-01T10:00:55Z</time>
      </trkpt>
      <trkpt lat="56.886729011312127" lon="-3.414667993783951">
        <ele>649.02999999999997</ele>
        <time>2019-09-01T10:00:56Z</time>
      </trkpt>
      <trkpt lat="56.887461002916098" lon="-3.414786010980606">
        <ele>646.13999999999999</ele>
        <time>2019-09-01T10:01:03Z</time>
      </trkpt>
      <trkpt lat="56.888804035261273" lon="-3.414761032909155">
        <ele>638.45000000000005</ele>
        <time>2019-09-01T10:01:11Z</time>
      </trkpt>
      <trkpt lat="56.890084035694599" lon="-3.414105987176299">
        <ele>631.24000000000001</ele>
        <time>2019-09-01T10:01:19Z</time>
      </trkpt>
      <trkpt lat="56.891738958656788" lon="-3.412594981491566">
        <ele>615.86000000000001</ele>
        <time>2019-09-01T10:01:30Z</time>
      </trkpt>
      <trkpt lat="56.893617007881403" lon="-3.410287024453282">
        <ele>600</ele>
        <time>2019-09-01T10:01:42Z</time>
      </trkpt>
      <trkpt lat="56.895450968295336" lon="-3.407217990607023">
        <ele>582.70000000000005</ele>
        <time>2019-09-01T10:01:54Z</time>
      </trkpt>
      <trkpt lat="56.897544013336301" lon="-3.403452001512051">
        <ele>561.07000000000005</ele>
        <time>2019-09-01T10:02:07Z</time>
      </trkpt>
      <trkpt lat="56.898627039045095" lon="-3.402080973610282">
        <ele>552.40999999999997</ele>
        <time>2019-09-01T10:02:13Z</time>
      </trkpt>
      <trkpt lat="56.898827031254768" lon="-3.401955999433994">
        <ele>550.97000000000003</ele>
        <time>2019-09-01T10:02:14Z</time>
      </trkpt>
      <trkpt lat="56.90070197917521" lon="-3.40123800560832">
        <ele>540.88</ele>
        <time>2019-09-01T10:02:23Z</time>
      </trkpt>
      <trkpt lat="56.902653034776449" lon="-3.400969030335546">
        <ele>529.34000000000003</ele>
        <time>2019-09-01T10:02:32Z</time>
      </trkpt>
      <trkpt lat="56.904108971357346" lon="-3.401318974792957">
        <ele>518.76999999999998</ele>
        <time>2019-09-01T10:02:39Z</time>
      </trkpt>
      <trkpt lat="56.905674962326884" lon="-3.402417004108429">
        <ele>508.19</ele>
        <time>2019-09-01T10:02:47Z</time>
      </trkpt>
      <trkpt lat="56.907417979091406" lon="-3.403717037290335">
        <ele>497.62</ele>
        <time>2019-09-01T10:02:56Z</time>
      </trkpt>
      <trkpt lat="56.908753970637918" lon="-3.40474097058177">
        <ele>488.49000000000001</ele>
        <time>2019-09-01T10:03:03Z</time>
      </trkpt>
      <trkpt lat="56.910058027133346" lon="-3.405822990462184">
        <ele>479.83999999999997</ele>
        <time>2019-09-01T10:03:10Z</time>
      </trkpt>
      <trkpt lat="56.912361038848758" lon="-3.408271009102464">
        <ele>469.74000000000001</ele>
        <time>2019-09-01T10:03:23Z</time>
      </trkpt>
      <trkpt lat="56.913037961348891" lon="-3.408923037350178">
        <ele>468.30000000000001</ele>
        <time>2019-09-01T10:03:27Z</time>
      </trkpt>
      <trkpt lat="56.913221022114158" lon="-3.40901498682797">
        <ele>467.81999999999999</ele>
        <time>2019-09-01T10:03:28Z</time>
      </trkpt>
      <trkpt lat="56.915444992482662" lon="-3.409971026703715">
        <ele>465.42000000000002</ele>
        <time>2019-09-01T10:03:39Z</time>
      </trkpt>
      <trkpt lat="56.918058972805738" lon="-3.411114988848567">
        <ele>459.64999999999998</ele>
        <time>2019-09-01T10:03:51Z</time>
      </trkpt>
      <trkpt lat="56.920272968709469" lon="-3.412307985126972">
        <ele>454.36000000000001</ele>
        <time>2019-09-01T10:04:02Z</time>
      </trkpt>
      <trkpt lat="56.922069964930415" lon="-3.413668032735586">
        <ele>448.58999999999997</ele>
        <time>2019-09-01T10:04:11Z</time>
      </trkpt>
      <trkpt lat="56.923963017761707" lon="-3.415315998718143">
        <ele>442.33999999999997</ele>
        <time>2019-09-01T10:04:20Z</time>
      </trkpt>
      <trkpt lat="56.925004972144961" lon="-3.416447974741459">
        <ele>438.01999999999998</ele>
        <time>2019-09-01T10:04:26Z</time>
      </trkpt>
      <trkpt lat="56.925184009596705" lon="-3.416603039950132">
        <ele>437.06</ele>
        <time>2019-09-01T10:04:27Z</time>
      </trkpt>
      <trkpt lat="56.925375033169985" lon="-3.416710998862982">
        <ele>436.10000000000002</ele>
        <time>2019-09-01T10:04:28Z</time>
      </trkpt>
      <trkpt lat="56.925578964874148" lon="-3.416792973876">
        <ele>435.61000000000001</ele>
        <time>2019-09-01T10:04:29Z</time>
      </trkpt>
      <trkpt lat="56.925784992054105" lon="-3.416875032708049">
        <ele>434.64999999999998</ele>
        <time>2019-09-01T10:04:30Z</time>
      </trkpt>
      <trkpt lat="56.926943035796285" lon="-3.417337965220213">
        <ele>429.85000000000002</ele>
        <time>2019-09-01T10:04:37Z</time>
      </trkpt>
      <trkpt lat="56.927202036604285" lon="-3.417392028495669">
        <ele>429.85000000000002</ele>
        <time>2019-09-01T10:04:39Z</time>
      </trkpt>
      <trkpt lat="56.927329022437334" lon="-3.417366966605187">
        <ele>429.85000000000002</ele>
        <time>2019-09-01T10:04:40Z</time>
      </trkpt>
      <trkpt lat="56.927461037412286" lon="-3.417324973270297">
        <ele>429.37</ele>
        <time>2019-09-01T10:04:41Z</time>
      </trkpt>
      <trkpt lat="56.92863299511373" lon="-3.417177032679319">
        <ele>427.44</ele>
        <time>2019-09-01T10:04:49Z</time>
      </trkpt>
      <trkpt lat="56.930594025179744" lon="-3.417220031842589">
        <ele>420.70999999999998</ele>
        <time>2019-09-01T10:05:00Z</time>
      </trkpt>
      <trkpt lat="56.931513017043471" lon="-3.41694300994277">
        <ele>417.35000000000002</ele>
        <time>2019-09-01T10:05:06Z</time>
      </trkpt>
      <trkpt lat="56.931623993441463" lon="-3.416802026331425">
        <ele>416.38999999999999</ele>
        <time>2019-09-01T10:05:07Z</time>
      </trkpt>
      <trkpt lat="56.931735975667834" lon="-3.416655007749796">
        <ele>415.91000000000003</ele>
        <time>2019-09-01T10:05:08Z</time>
      </trkpt>
      <trkpt lat="56.932100001722574" lon="-3.416188973933458">
        <ele>414.47000000000003</ele>
        <time>2019-09-01T10:05:11Z</time>
      </trkpt>
      <trkpt lat="56.932235034182668" lon="-3.41606299392879">
        <ele>413.5</ele>
        <time>2019-09-01T10:05:12Z</time>
      </trkpt>
      <trkpt lat="56.932371994480491" lon="-3.415935002267361">
        <ele>413.01999999999998</ele>
        <time>2019-09-01T10:05:13Z</time>
      </trkpt>
      <trkpt lat="56.932521024718881" lon="-3.415876999497414">
        <ele>412.54000000000002</ele>
        <time>2019-09-01T10:05:14Z</time>
      </trkpt>
      <trkpt lat="56.932680029422045" lon="-3.415831988677383">
        <ele>412.06</ele>
        <time>2019-09-01T10:05:15Z</time>
      </trkpt>
      <trkpt lat="56.932841967791319" lon="-3.415786977857351">
        <ele>412.06</ele>
        <time>2019-09-01T10:05:16Z</time>
      </trkpt>
      <trkpt lat="56.933452002704144" lon="-3.41556896455586">
        <ele>413.01999999999998</ele>
        <time>2019-09-01T10:05:20Z</time>
      </trkpt>
      <trkpt lat="56.93359499797225" lon="-3.415477015078068">
        <ele>413.5</ele>
        <time>2019-09-01T10:05:21Z</time>
      </trkpt>
      <trkpt lat="56.933722989633679" lon="-3.41530904173851">
        <ele>413.5</ele>
        <time>2019-09-01T10:05:22Z</time>
      </trkpt>
      <trkpt lat="56.933851987123489" lon="-3.415119023993611">
        <ele>413.98000000000002</ele>
        <time>2019-09-01T10:05:23Z</time>
      </trkpt>
      <trkpt lat="56.933980984613299" lon="-3.414926994591951">
        <ele>413.98000000000002</ele>
        <time>2019-09-01T10:05:24Z</time>
      </trkpt>
      <trkpt lat="56.934753963723779" lon="-3.41382703743875">
        <ele>413.98000000000002</ele>
        <time>2019-09-01T10:05:30Z</time>
      </trkpt>
      <trkpt lat="56.934893019497395" lon="-3.41367700137198">
        <ele>413.5</ele>
        <time>2019-09-01T10:05:31Z</time>
      </trkpt>
      <trkpt lat="56.935042971745133" lon="-3.413564013317227">
        <ele>413.5</ele>
        <time>2019-09-01T10:05:32Z</time>
      </trkpt>
      <trkpt lat="56.935200970619917" lon="-3.413477009162307">
        <ele>413.01999999999998</ele>
        <time>2019-09-01T10:05:33Z</time>
      </trkpt>
      <trkpt lat="56.935359975323081" lon="-3.413393022492528">
        <ele>413.01999999999998</ele>
        <time>2019-09-01T10:05:34Z</time>
      </trkpt>
      <trkpt lat="56.9355299603194" lon="-3.413337031379342">
        <ele>412.54000000000002</ele>
        <time>2019-09-01T10:05:35Z</time>
      </trkpt>
      <trkpt lat="56.937484033405781" lon="-3.412716016173363">
        <ele>407.74000000000001</ele>
        <time>2019-09-01T10:05:45Z</time>
      </trkpt>
      <trkpt lat="56.937862979248166" lon="-3.412490962073207">
        <ele>406.76999999999998</ele>
        <time>2019-09-01T10:05:47Z</time>
      </trkpt>
      <trkpt lat="56.938048973679543" lon="-3.412313014268875">
        <ele>406.29000000000002</ele>
        <time>2019-09-01T10:05:48Z</time>
      </trkpt>
      <trkpt lat="56.939724013209343" lon="-3.410845007747412">
        <ele>406.76999999999998</ele>
        <time>2019-09-01T10:05:57Z</time>
      </trkpt>
      <trkpt lat="56.940882978960872" lon="-3.40970003977418">
        <ele>404.85000000000002</ele>
        <time>2019-09-01T10:06:04Z</time>
      </trkpt>
      <trkpt lat="56.941038966178894" lon="-3.409539023414254">
        <ele>404.37</ele>
        <time>2019-09-01T10:06:05Z</time>
      </trkpt>
      <trkpt lat="56.941213980317116" lon="-3.409441038966179">
        <ele>404.37</ele>
        <time>2019-09-01T10:06:06Z</time>
      </trkpt>
      <trkpt lat="56.941923005506396" lon="-3.409104002639651">
        <ele>405.32999999999998</ele>
        <time>2019-09-01T10:06:10Z</time>
      </trkpt>
      <trkpt lat="56.942091984674335" lon="-3.409062009304762">
        <ele>405.81</ele>
        <time>2019-09-01T10:06:11Z</time>
      </trkpt>
      <trkpt lat="56.942397002130747" lon="-3.408985985442996">
        <ele>406.29000000000002</ele>
        <time>2019-09-01T10:06:13Z</time>
      </trkpt>
      <trkpt lat="56.942542009055614" lon="-3.408926976844668">
        <ele>406.29000000000002</ele>
        <time>2019-09-01T10:06:14Z</time>
      </trkpt>
      <trkpt lat="56.942687015980482" lon="-3.408805020153523">
        <ele>406.29000000000002</ele>
        <time>2019-09-01T10:06:15Z</time>
      </trkpt>
      <trkpt lat="56.943268971517682" lon="-3.408161960542202">
        <ele>406.76999999999998</ele>
        <time>2019-09-01T10:06:19Z</time>
      </trkpt>
      <trkpt lat="56.943426970392466" lon="-3.408032041043043">
        <ele>406.76999999999998</ele>
        <time>2019-09-01T10:06:20Z</time>
      </trkpt>
      <trkpt lat="56.943601984530687" lon="-3.407936990261078">
        <ele>406.76999999999998</ele>
        <time>2019-09-01T10:06:21Z</time>
      </trkpt>
      <trkpt lat="56.945401998236775" lon="-3.406918002292514">
        <ele>408.69999999999999</ele>
        <time>2019-09-01T10:06:31Z</time>
      </trkpt>
      <trkpt lat="56.945594027638435" lon="-3.40688799507916">
        <ele>408.69999999999999</ele>
        <time>2019-09-01T10:06:32Z</time>
      </trkpt>
      <trkpt lat="56.94786200299859" lon="-3.406488010659814">
        <ele>410.62</ele>
        <time>2019-09-01T10:06:43Z</time>
      </trkpt>
      <trkpt lat="56.949981031939387" lon="-3.406320959329605">
        <ele>407.74000000000001</ele>
        <time>2019-09-01T10:06:53Z</time>
      </trkpt>
      <trkpt lat="56.952203996479511" lon="-3.406298998743296">
        <ele>404.85000000000002</ele>
        <time>2019-09-01T10:07:04Z</time>
      </trkpt>
      <trkpt lat="56.953526996076107" lon="-3.405871018767357">
        <ele>399.56999999999999</ele>
        <time>2019-09-01T10:07:11Z</time>
      </trkpt>
      <trkpt lat="56.953691029921174" lon="-3.405927009880543">
        <ele>399.07999999999998</ele>
        <time>2019-09-01T10:07:12Z</time>
      </trkpt>
      <trkpt lat="56.953857997432351" lon="-3.405989035964012">
        <ele>398.12</ele>
        <time>2019-09-01T10:07:13Z</time>
      </trkpt>
      <trkpt lat="56.954515976831317" lon="-3.406300004571676">
        <ele>395.72000000000003</ele>
        <time>2019-09-01T10:07:17Z</time>
      </trkpt>
      <trkpt lat="56.954657966271043" lon="-3.406409975141287">
        <ele>395.24000000000001</ele>
        <time>2019-09-01T10:07:18Z</time>
      </trkpt>
      <trkpt lat="56.955150989815593" lon="-3.406907021999359">
        <ele>392.83999999999997</ele>
        <time>2019-09-01T10:07:22Z</time>
      </trkpt>
      <trkpt lat="56.955271018669009" lon="-3.406966030597687">
        <ele>392.36000000000001</ele>
        <time>2019-09-01T10:07:23Z</time>
      </trkpt>
      <trkpt lat="56.955393981188536" lon="-3.407019004225731">
        <ele>391.38999999999999</ele>
        <time>2019-09-01T10:07:24Z</time>
      </trkpt>
      <trkpt lat="56.955519961193204" lon="-3.407039036974311">
        <ele>390.91000000000003</ele>
        <time>2019-09-01T10:07:25Z</time>
      </trkpt>
      <trkpt lat="56.955658011138439" lon="-3.407012969255447">
        <ele>389.94999999999999</ele>
        <time>2019-09-01T10:07:26Z</time>
      </trkpt>
      <trkpt lat="56.955807963386178" lon="-3.406984973698854">
        <ele>389.47000000000003</ele>
        <time>2019-09-01T10:07:27Z</time>
      </trkpt>
      <trkpt lat="56.955963028594851" lon="-3.406913978978992">
        <ele>388.99000000000001</ele>
        <time>2019-09-01T10:07:28Z</time>
      </trkpt>
      <trkpt lat="56.957451989874244" lon="-3.406235966831446">
        <ele>384.66000000000003</ele>
        <time>2019-09-01T10:07:36Z</time>
      </trkpt>
      <trkpt lat="56.958588995039463" lon="-3.405720982700586">
        <ele>382.25999999999999</ele>
        <time>2019-09-01T10:07:42Z</time>
      </trkpt>
      <trkpt lat="56.958740958943963" lon="-3.405572036281228">
        <ele>381.30000000000001</ele>
        <time>2019-09-01T10:07:43Z</time>
      </trkpt>
      <trkpt lat="56.958883032202721" lon="-3.405392998829484">
        <ele>380.81999999999999</ele>
        <time>2019-09-01T10:07:44Z</time>
      </trkpt>
      <trkpt lat="56.960208965465426" lon="-3.403732962906361">
        <ele>377.44999999999999</ele>
        <time>2019-09-01T10:07:53Z</time>
      </trkpt>
      <trkpt lat="56.961368015035987" lon="-3.402697965502739">
        <ele>375.52999999999997</ele>
        <time>2019-09-01T10:08:01Z</time>
      </trkpt>
      <trkpt lat="56.963057974353433" lon="-3.402082985267043">
        <ele>375.52999999999997</ele>
        <time>2019-09-01T10:08:10Z</time>
      </trkpt>
      <trkpt lat="56.964540984481573" lon="-3.400912033393979">
        <ele>376.00999999999999</ele>
        <time>2019-09-01T10:08:18Z</time>
      </trkpt>
      <trkpt lat="56.966705024242401" lon="-3.398860981687903">
        <ele>374.56999999999999</ele>
        <time>2019-09-01T10:08:30Z</time>
      </trkpt>
      <trkpt lat="56.968298004940152" lon="-3.397894967347384">
        <ele>374.08999999999997</ele>
        <time>2019-09-01T10:08:38Z</time>
      </trkpt>
      <trkpt lat="56.969062015414238" lon="-3.397364979609847">
        <ele>373.61000000000001</ele>
        <time>2019-09-01T10:08:42Z</time>
      </trkpt>
      <trkpt lat="56.969256978482008" lon="-3.397262971848249">
        <ele>373.13</ele>
        <time>2019-09-01T10:08:43Z</time>
      </trkpt>
      <trkpt lat="56.969461999833584" lon="-3.397236987948418">
        <ele>373.13</ele>
        <time>2019-09-01T10:08:44Z</time>
      </trkpt>
      <trkpt lat="56.96967096067965" lon="-3.397211004048586">
        <ele>373.13</ele>
        <time>2019-09-01T10:08:45Z</time>
      </trkpt>
      <trkpt lat="56.969878999516368" lon="-3.397185020148754">
        <ele>372.64999999999998</ele>
        <time>2019-09-01T10:08:46Z</time>
      </trkpt>
      <trkpt lat="56.970088966190815" lon="-3.397222990170121">
        <ele>372.64999999999998</ele>
        <time>2019-09-01T10:08:47Z</time>
      </trkpt>
      <trkpt lat="56.970295999199152" lon="-3.397278981283307">
        <ele>372.64999999999998</ele>
        <time>2019-09-01T10:08:48Z</time>
      </trkpt>
      <trkpt lat="56.970909973606467" lon="-3.3974330406636">
        <ele>371.69</ele>
        <time>2019-09-01T10:08:51Z</time>
      </trkpt>
      <trkpt lat="56.97110895998776" lon="-3.397416025400162">
        <ele>371.69</ele>
        <time>2019-09-01T10:08:52Z</time>
      </trkpt>
      <trkpt lat="56.971307024359703" lon="-3.397400015965104">
        <ele>371.20999999999998</ele>
        <time>2019-09-01T10:08:53Z</time>
      </trkpt>
      <trkpt lat="56.972630023956299" lon="-3.396713035181165">
        <ele>371.20999999999998</ele>
        <time>2019-09-01T10:09:00Z</time>
      </trkpt>
      <trkpt lat="56.97433297522366" lon="-3.395098010078073">
        <ele>373.13</ele>
        <time>2019-09-01T10:09:10Z</time>
      </trkpt>
      <trkpt lat="56.974486028775573" lon="-3.394959038123488">
        <ele>373.13</ele>
        <time>2019-09-01T10:09:11Z</time>
      </trkpt>
      <trkpt lat="56.974651990458369" lon="-3.394860969856381">
        <ele>373.13</ele>
        <time>2019-09-01T10:09:12Z</time>
      </trkpt>
      <trkpt lat="56.976064005866647" lon="-3.393926974385977">
        <ele>371.69</ele>
        <time>2019-09-01T10:09:20Z</time>
      </trkpt>
      <trkpt lat="56.976354019716382" lon="-3.393529001623392">
        <ele>370.73000000000002</ele>
        <time>2019-09-01T10:09:22Z</time>
      </trkpt>
      <trkpt lat="56.976476982235909" lon="-3.393283998593688">
        <ele>370.24000000000001</ele>
        <time>2019-09-01T10:09:23Z</time>
      </trkpt>
      <trkpt lat="56.976574966683984" lon="-3.393012005835772">
        <ele>370.24000000000001</ele>
        <time>2019-09-01T10:09:24Z</time>
      </trkpt>
      <trkpt lat="56.976664988324046" lon="-3.392721991986036">
        <ele>369.75999999999999</ele>
        <time>2019-09-01T10:09:25Z</time>
      </trkpt>
      <trkpt lat="56.976755009964108" lon="-3.39242803864181">
        <ele>369.75999999999999</ele>
        <time>2019-09-01T10:09:26Z</time>
      </trkpt>
      <trkpt lat="56.97787499986589" lon="-3.389016017317772">
        <ele>368.80000000000001</ele>
        <time>2019-09-01T10:09:38Z</time>
      </trkpt>
      <trkpt lat="56.9780039973557" lon="-3.388803033158183">
        <ele>368.80000000000001</ele>
        <time>2019-09-01T10:09:39Z</time>
      </trkpt>
      <trkpt lat="56.978149004280567" lon="-3.388619972392917">
        <ele>368.80000000000001</ele>
        <time>2019-09-01T10:09:40Z</time>
      </trkpt>
      <trkpt lat="56.978302979841828" lon="-3.38845300488174">
        <ele>368.31999999999999</ele>
        <time>2019-09-01T10:09:41Z</time>
      </trkpt>
      <trkpt lat="56.978475982323289" lon="-3.388330964371562">
        <ele>368.31999999999999</ele>
        <time>2019-09-01T10:09:42Z</time>
      </trkpt>
      <trkpt lat="56.978654013946652" lon="-3.388205990195274">
        <ele>368.31999999999999</ele>
        <time>2019-09-01T10:09:43Z</time>
      </trkpt>
      <trkpt lat="56.978832967579365" lon="-3.388080010190606">
        <ele>368.80000000000001</ele>
        <time>2019-09-01T10:09:44Z</time>
      </trkpt>
      <trkpt lat="56.980836996808648" lon="-3.386983992531896">
        <ele>373.61000000000001</ele>
        <time>2019-09-01T10:09:55Z</time>
      </trkpt>
      <trkpt lat="56.981021985411644" lon="-3.386878967285156">
        <ele>374.08999999999997</ele>
        <time>2019-09-01T10:09:56Z</time>
      </trkpt>
      <trkpt lat="56.981221977621317" lon="-3.38686597533524">
        <ele>374.56999999999999</ele>
        <time>2019-09-01T10:09:57Z</time>
      </trkpt>
      <trkpt lat="56.983012016862631" lon="-3.386749969795346">
        <ele>378.89999999999998</ele>
        <time>2019-09-01T10:10:06Z</time>
      </trkpt>
      <trkpt lat="56.984896017238498" lon="-3.386429026722908">
        <ele>380.81999999999999</ele>
        <time>2019-09-01T10:10:16Z</time>
      </trkpt>
      <trkpt lat="56.986724026501179" lon="-3.386785006150603">
        <ele>377.44999999999999</ele>
        <time>2019-09-01T10:10:25Z</time>
      </trkpt>
      <trkpt lat="56.987117975950241" lon="-3.386837979778647">
        <ele>377.44999999999999</ele>
        <time>2019-09-01T10:10:27Z</time>
      </trkpt>
      <trkpt lat="56.987311011180282" lon="-3.386943005025387">
        <ele>376.97000000000003</ele>
        <time>2019-09-01T10:10:28Z</time>
      </trkpt>
      <trkpt lat="56.9888970348984" lon="-3.387685976922512">
        <ele>376.00999999999999</ele>
        <time>2019-09-01T10:10:36Z</time>
      </trkpt>
      <trkpt lat="56.990817999467254" lon="-3.389207040891051">
        <ele>374.56999999999999</ele>
        <time>2019-09-01T10:10:46Z</time>
      </trkpt>
      <trkpt lat="56.992122977972031" lon="-3.390598017722368">
        <ele>374.08999999999997</ele>
        <time>2019-09-01T10:10:54Z</time>
      </trkpt>
      <trkpt lat="56.993475984781981" lon="-3.391751032322645">
        <ele>369.75999999999999</ele>
        <time>2019-09-01T10:11:02Z</time>
      </trkpt>
      <trkpt lat="56.994717009365559" lon="-3.392097959294915">
        <ele>364.95999999999998</ele>
        <time>2019-09-01T10:11:09Z</time>
      </trkpt>
      <trkpt lat="56.995643964037299" lon="-3.392368024215102">
        <ele>360.63</ele>
        <time>2019-09-01T10:11:14Z</time>
      </trkpt>
      <trkpt lat="56.995990974828601" lon="-3.392547983676195">
        <ele>358.23000000000002</ele>
        <time>2019-09-01T10:11:16Z</time>
      </trkpt>
      <trkpt lat="56.996171018108726" lon="-3.392629958689213">
        <ele>357.26999999999998</ele>
        <time>2019-09-01T10:11:17Z</time>
      </trkpt>
      <trkpt lat="56.996355000883341" lon="-3.392629958689213">
        <ele>356.31</ele>
        <time>2019-09-01T10:11:18Z</time>
      </trkpt>
      <trkpt lat="56.996540995314717" lon="-3.392629958689213">
        <ele>355.82999999999998</ele>
        <time>2019-09-01T10:11:19Z</time>
      </trkpt>
      <trkpt lat="56.996727995574474" lon="-3.392620990052819">
        <ele>355.33999999999997</ele>
        <time>2019-09-01T10:11:20Z</time>
      </trkpt>
      <trkpt lat="56.996914995834231" lon="-3.392582014203072">
        <ele>354.38</ele>
        <time>2019-09-01T10:11:21Z</time>
      </trkpt>
      <trkpt lat="56.99809298850596" lon="-3.392425021156669">
        <ele>348.13</ele>
        <time>2019-09-01T10:11:28Z</time>
      </trkpt>
      <trkpt lat="56.998246964067221" lon="-3.392465002834797">
        <ele>347.17000000000002</ele>
        <time>2019-09-01T10:11:29Z</time>
      </trkpt>
      <trkpt lat="56.998406974598765" lon="-3.392542032524943">
        <ele>345.73000000000002</ele>
        <time>2019-09-01T10:11:30Z</time>
      </trkpt>
      <trkpt lat="57.000019988045096" lon="-3.393045030534267">
        <ele>340.44</ele>
        <time>2019-09-01T10:11:39Z</time>
      </trkpt>
      <trkpt lat="57.001646999269724" lon="-3.393423976376653">
        <ele>340.92000000000002</ele>
        <time>2019-09-01T10:11:49Z</time>
      </trkpt>
      <trkpt lat="57.002475969493389" lon="-3.393770987167954">
        <ele>340.92000000000002</ele>
        <time>2019-09-01T10:11:56Z</time>
      </trkpt>
      <trkpt lat="57.002565991133451" lon="-3.393811974674463">
        <ele>340.92000000000002</ele>
        <time>2019-09-01T10:11:57Z</time>
      </trkpt>
      <trkpt lat="57.00271300971508" lon="-3.393958993256092">
        <ele>339.95999999999998</ele>
        <time>2019-09-01T10:11:59Z</time>
      </trkpt>
      <trkpt lat="57.002837983891368" lon="-3.39408396743238">
        <ele>339.48000000000002</ele>
        <time>2019-09-01T10:12:01Z</time>
      </trkpt>
      <trkpt lat="57.002891963347793" lon="-3.394137024879456">
        <ele>339</ele>
        <time>2019-09-01T10:12:02Z</time>
      </trkpt>
      <trkpt lat="57.00294996611774" lon="-3.394196033477783">
        <ele>339</ele>
        <time>2019-09-01T10:12:03Z</time>
      </trkpt>
      <trkpt lat="57.00301400385797" lon="-3.394259987398982">
        <ele>338.51999999999998</ele>
        <time>2019-09-01T10:12:04Z</time>
      </trkpt>
      <trkpt lat="57.003081981092691" lon="-3.394327964633703">
        <ele>338.51999999999998</ele>
        <time>2019-09-01T10:12:05Z</time>
      </trkpt>
      <trkpt lat="57.003153981640935" lon="-3.394401976838708">
        <ele>338.51999999999998</ele>
        <time>2019-09-01T10:12:06Z</time>
      </trkpt>
      <trkpt lat="57.00350702740252" lon="-3.39483498595655">
        <ele>338.51999999999998</ele>
        <time>2019-09-01T10:12:11Z</time>
      </trkpt>
      <trkpt lat="57.004390982910991" lon="-3.395945001393557">
        <ele>340.44</ele>
        <time>2019-09-01T10:12:21Z</time>
      </trkpt>
      <trkpt lat="57.004890963435173" lon="-3.396698031574488">
        <ele>344.76999999999998</ele>
        <time>2019-09-01T10:12:28Z</time>
      </trkpt>
      <trkpt lat="57.00494796037674" lon="-3.396800039336085">
        <ele>345.25</ele>
        <time>2019-09-01T10:12:29Z</time>
      </trkpt>
      <trkpt lat="57.00505499728024" lon="-3.397016962990165">
        <ele>346.20999999999998</ele>
        <time>2019-09-01T10:12:31Z</time>
      </trkpt>
      <trkpt lat="57.005107970908284" lon="-3.397126011550427">
        <ele>346.69</ele>
        <time>2019-09-01T10:12:32Z</time>
      </trkpt>
      <trkpt lat="57.005266975611448" lon="-3.397455001249909">
        <ele>347.17000000000002</ele>
        <time>2019-09-01T10:12:35Z</time>
      </trkpt>
      <trkpt lat="57.005399996414781" lon="-3.397620962932706">
        <ele>347.17000000000002</ele>
        <time>2019-09-01T10:12:37Z</time>
      </trkpt>
      <trkpt lat="57.005469985306263" lon="-3.397697992622852">
        <ele>347.64999999999998</ele>
        <time>2019-09-01T10:12:38Z</time>
      </trkpt>
      <trkpt lat="57.005550032481551" lon="-3.397769993171096">
        <ele>347.64999999999998</ele>
        <time>2019-09-01T10:12:39Z</time>
      </trkpt>
      <trkpt lat="57.005637958645821" lon="-3.397806035354734">
        <ele>347.64999999999998</ele>
        <time>2019-09-01T10:12:40Z</time>
      </trkpt>
      <trkpt lat="57.005723034963012" lon="-3.397821960970759">
        <ele>347.64999999999998</ele>
        <time>2019-09-01T10:12:41Z</time>
      </trkpt>
      <trkpt lat="57.005805009976029" lon="-3.397836964577436">
        <ele>347.64999999999998</ele>
        <time>2019-09-01T10:12:42Z</time>
      </trkpt>
      <trkpt lat="57.005876004695892" lon="-3.397850962355733">
        <ele>347.64999999999998</ele>
        <time>2019-09-01T10:12:43Z</time>
      </trkpt>
      <trkpt lat="57.005954040214419" lon="-3.397864960134029">
        <ele>347.64999999999998</ele>
        <time>2019-09-01T10:12:44Z</time>
      </trkpt>
      <trkpt lat="57.00608697719872" lon="-3.397875018417835">
        <ele>346.69</ele>
        <time>2019-09-01T10:12:47Z</time>
      </trkpt>
      <trkpt lat="57.006367016583681" lon="-3.397887004539371">
        <ele>344.29000000000002</ele>
        <time>2019-09-01T10:12:56Z</time>
      </trkpt>
      <trkpt lat="57.006381014361978" lon="-3.397887004539371">
        <ele>344.29000000000002</ele>
        <time>2019-09-01T10:12:57Z</time>
      </trkpt>
      <trkpt lat="57.006417978554964" lon="-3.398314984515309">
        <ele>343.32999999999998</ele>
        <time>2019-09-01T10:12:59Z</time>
      </trkpt>
      <trkpt lat="57.006388977169991" lon="-3.398342980071902">
        <ele>342.37</ele>
        <time>2019-09-01T10:13:00Z</time>
      </trkpt>
      <trkpt lat="57.006315970793366" lon="-3.398411041125655">
        <ele>340.92000000000002</ele>
        <time>2019-09-01T10:13:02Z</time>
      </trkpt>
      <trkpt lat="57.005986981093884" lon="-3.398717986419797">
        <ele>337.07999999999998</ele>
        <time>2019-09-01T10:13:12Z</time>
      </trkpt>
      <trkpt lat="57.005953034386039" lon="-3.398751011118293">
        <ele>337.07999999999998</ele>
        <time>2019-09-01T10:13:13Z</time>
      </trkpt>
      <trkpt lat="57.005920009687543" lon="-3.398781018331647">
        <ele>337.07999999999998</ele>
        <time>2019-09-01T10:13:14Z</time>
      </trkpt>
      <trkpt lat="57.005890002474189" lon="-3.39880901388824">
        <ele>336.60000000000002</ele>
        <time>2019-09-01T10:13:15Z</time>
      </trkpt>
      <trkpt lat="57.005867036059499" lon="-3.398804990574718">
        <ele>336.60000000000002</ele>
        <time>2019-09-01T10:13:16Z</time>
      </trkpt>
      <trkpt lat="57.005839040502906" lon="-3.398799961432815">
        <ele>336.60000000000002</ele>
        <time>2019-09-01T10:13:17Z</time>
      </trkpt>
      <trkpt lat="57.005695961415768" lon="-3.398771965876222">
        <ele>335.63999999999999</ele>
        <time>2019-09-01T10:13:23Z</time>
      </trkpt>
      <trkpt lat="57.005695961415768" lon="-3.398771965876222">
        <ele>336.12</ele>
        <time>2019-09-01T10:13:24Z</time>
      </trkpt>
      <trkpt lat="57.005592025816441" lon="-3.398751011118293">
        <ele>336.12</ele>
        <time>2019-09-01T10:13:37Z</time>
      </trkpt>
      <trkpt lat="57.005568975582719" lon="-3.398746987804771">
        <ele>336.60000000000002</ele>
        <time>2019-09-01T10:13:49Z</time>
      </trkpt>
      <trkpt lat="57.005568975582719" lon="-3.398746987804771">
        <ele>336.60000000000002</ele>
        <time>2019-09-01T10:14:02Z</time>
      </trkpt>
      <trkpt lat="57.005568975582719" lon="-3.398746987804771">
        <ele>336.60000000000002</ele>
        <time>2019-09-01T10:14:28Z</time>
      </trkpt>
      <trkpt lat="57.005475014448166" lon="-3.398392014205456">
        <ele>330.82999999999998</ele>
        <time>2019-09-01T11:10:34Z</time>
      </trkpt>
      <trkpt lat="57.005520025268197" lon="-3.398344991728663">
        <ele>340.44</ele>
        <time>2019-09-01T11:11:14Z</time>
      </trkpt>
      <trkpt lat="57.00546202249825" lon="-3.398320013657212">
        <ele>343.32999999999998</ele>
        <time>2019-09-01T11:11:40Z</time>
      </trkpt>
      <trkpt lat="57.005421034991741" lon="-3.398324036970735">
        <ele>343.32999999999998</ele>
        <time>2019-09-01T11:11:45Z</time>
      </trkpt>
      <trkpt lat="57.005267981439829" lon="-3.3984449878335">
        <ele>342.85000000000002</ele>
        <time>2019-09-01T11:11:58Z</time>
      </trkpt>
      <trkpt lat="57.005238980054855" lon="-3.398682028055191">
        <ele>342.85000000000002</ele>
        <time>2019-09-01T11:11:59Z</time>
      </trkpt>
      <trkpt lat="57.005263036116958" lon="-3.398686973378062">
        <ele>342.37</ele>
        <time>2019-09-01T11:12:05Z</time>
      </trkpt>
      <trkpt lat="57.00529295951128" lon="-3.398692002519965">
        <ele>342.37</ele>
        <time>2019-09-01T11:12:06Z</time>
      </trkpt>
      <trkpt lat="57.00533302500844" lon="-3.398699965327978">
        <ele>341.88999999999999</ele>
        <time>2019-09-01T11:12:07Z</time>
      </trkpt>
      <trkpt lat="57.005378035828471" lon="-3.398709017783403">
        <ele>341.88999999999999</ele>
        <time>2019-09-01T11:12:08Z</time>
      </trkpt>
      <trkpt lat="57.005430003628135" lon="-3.398718992248178">
        <ele>341.41000000000003</ele>
        <time>2019-09-01T11:12:09Z</time>
      </trkpt>
      <trkpt lat="57.005670983344316" lon="-3.39876702055335">
        <ele>340.44</ele>
        <time>2019-09-01T11:12:16Z</time>
      </trkpt>
      <trkpt lat="57.005692021921277" lon="-3.398770960047841">
        <ele>339.95999999999998</ele>
        <time>2019-09-01T11:12:17Z</time>
      </trkpt>
      <trkpt lat="57.005707025527954" lon="-3.398773977532983">
        <ele>339.95999999999998</ele>
        <time>2019-09-01T11:12:18Z</time>
      </trkpt>
      <trkpt lat="57.005738038569689" lon="-3.398780012503266">
        <ele>339.48000000000002</ele>
        <time>2019-09-01T11:12:19Z</time>
      </trkpt>
      <trkpt lat="57.005771985277534" lon="-3.398785963654518">
        <ele>339.48000000000002</ele>
        <time>2019-09-01T11:12:20Z</time>
      </trkpt>
      <trkpt lat="57.005791012197733" lon="-3.398789986968041">
        <ele>339</ele>
        <time>2019-09-01T11:12:21Z</time>
      </trkpt>
      <trkpt lat="57.005809033289552" lon="-3.398794010281563">
        <ele>338.51999999999998</ele>
        <time>2019-09-01T11:12:22Z</time>
      </trkpt>
      <trkpt lat="57.005830993875861" lon="-3.398798033595085">
        <ele>338.51999999999998</ele>
        <time>2019-09-01T11:12:23Z</time>
      </trkpt>
      <trkpt lat="57.005905006080866" lon="-3.398795016109943">
        <ele>338.04000000000002</ele>
        <time>2019-09-01T11:12:25Z</time>
      </trkpt>
      <trkpt lat="57.005949011072516" lon="-3.398754028603435">
        <ele>338.04000000000002</ele>
        <time>2019-09-01T11:12:26Z</time>
      </trkpt>
      <trkpt lat="57.006061999127269" lon="-3.398647997528315">
        <ele>337.56</ele>
        <time>2019-09-01T11:12:28Z</time>
      </trkpt>
      <trkpt lat="57.006176998838782" lon="-3.398540960624814">
        <ele>336.60000000000002</ele>
        <time>2019-09-01T11:12:30Z</time>
      </trkpt>
      <trkpt lat="57.006224021315575" lon="-3.398497039452195">
        <ele>336.60000000000002</ele>
        <time>2019-09-01T11:12:31Z</time>
      </trkpt>
      <trkpt lat="57.006487967446446" lon="-3.398251030594111">
        <ele>335.16000000000003</ele>
        <time>2019-09-01T11:12:40Z</time>
      </trkpt>
      <trkpt lat="57.006797008216381" lon="-3.397852974012494">
        <ele>334.68000000000001</ele>
        <time>2019-09-01T11:12:48Z</time>
      </trkpt>
      <trkpt lat="57.007134966552258" lon="-3.39777996763587">
        <ele>335.16000000000003</ele>
        <time>2019-09-01T11:12:52Z</time>
      </trkpt>
      <trkpt lat="57.007584990933537" lon="-3.397819027304649">
        <ele>336.60000000000002</ele>
        <time>2019-09-01T11:12:57Z</time>
      </trkpt>
      <trkpt lat="57.008587969467044" lon="-3.397519960999489">
        <ele>333.70999999999998</ele>
        <time>2019-09-01T11:13:06Z</time>
      </trkpt>
      <trkpt lat="57.009840980172157" lon="-3.397139003500342">
        <ele>328.43000000000001</ele>
        <time>2019-09-01T11:13:17Z</time>
      </trkpt>
      <trkpt lat="57.011316027492285" lon="-3.396691996604204">
        <ele>326.01999999999998</ele>
        <time>2019-09-01T11:13:28Z</time>
      </trkpt>
      <trkpt lat="57.011941988021135" lon="-3.3964469935745">
        <ele>325.06</ele>
        <time>2019-09-01T11:13:33Z</time>
      </trkpt>
      <trkpt lat="57.012057993561029" lon="-3.396374993026257">
        <ele>325.06</ele>
        <time>2019-09-01T11:13:34Z</time>
      </trkpt>
      <trkpt lat="57.012171987444162" lon="-3.396301986649633">
        <ele>325.06</ele>
        <time>2019-09-01T11:13:35Z</time>
      </trkpt>
      <trkpt lat="57.012267960235476" lon="-3.39616502635181">
        <ele>325.06</ele>
        <time>2019-09-01T11:13:36Z</time>
      </trkpt>
      <trkpt lat="57.012368040159345" lon="-3.396014990285039">
        <ele>325.06</ele>
        <time>2019-09-01T11:13:37Z</time>
      </trkpt>
      <trkpt lat="57.0133460406214" lon="-3.3941899985075">
        <ele>325.54000000000002</ele>
        <time>2019-09-01T11:13:47Z</time>
      </trkpt>
      <trkpt lat="57.013534968718886" lon="-3.393612988293171">
        <ele>325.54000000000002</ele>
        <time>2019-09-01T11:13:50Z</time>
      </trkpt>
      <trkpt lat="57.013572016730905" lon="-3.393466975539923">
        <ele>325.06</ele>
        <time>2019-09-01T11:13:51Z</time>
      </trkpt>
      <trkpt lat="57.013572016730905" lon="-3.39318098500371">
        <ele>324.57999999999998</ele>
        <time>2019-09-01T11:13:52Z</time>
      </trkpt>
      <trkpt lat="57.013572016730905" lon="-3.393016029149294">
        <ele>324.57999999999998</ele>
        <time>2019-09-01T11:13:53Z</time>
      </trkpt>
      <trkpt lat="57.013529017567635" lon="-3.392732972279191">
        <ele>324.57999999999998</ele>
        <time>2019-09-01T11:13:54Z</time>
      </trkpt>
      <trkpt lat="57.013491969555616" lon="-3.392486041411758">
        <ele>324.57999999999998</ele>
        <time>2019-09-01T11:13:55Z</time>
      </trkpt>
      <trkpt lat="57.013453999534249" lon="-3.392229974269867">
        <ele>324.57999999999998</ele>
        <time>2019-09-01T11:13:56Z</time>
      </trkpt>
      <trkpt lat="57.013375964015722" lon="-3.391703004017472">
        <ele>325.06</ele>
        <time>2019-09-01T11:13:58Z</time>
      </trkpt>
      <trkpt lat="57.013349980115891" lon="-3.391451966017485">
        <ele>325.06</ele>
        <time>2019-09-01T11:13:59Z</time>
      </trkpt>
      <trkpt lat="57.01332600787282" lon="-3.391216015443206">
        <ele>324.57999999999998</ele>
        <time>2019-09-01T11:14:00Z</time>
      </trkpt>
      <trkpt lat="57.013332964852452" lon="-3.390975035727024">
        <ele>324.57999999999998</ele>
        <time>2019-09-01T11:14:01Z</time>
      </trkpt>
      <trkpt lat="57.013365989550948" lon="-3.390741012990475">
        <ele>324.10000000000002</ele>
        <time>2019-09-01T11:14:02Z</time>
      </trkpt>
      <trkpt lat="57.013400020077825" lon="-3.390504978597164">
        <ele>324.10000000000002</ele>
        <time>2019-09-01T11:14:03Z</time>
      </trkpt>
      <trkpt lat="57.013466991484165" lon="-3.390252012759447">
        <ele>323.62</ele>
        <time>2019-09-01T11:14:04Z</time>
      </trkpt>
      <trkpt lat="57.013534968718886" lon="-3.389995023608208">
        <ele>323.13999999999999</ele>
        <time>2019-09-01T11:14:05Z</time>
      </trkpt>
      <trkpt lat="57.013605963438749" lon="-3.389726970344782">
        <ele>323.13999999999999</ele>
        <time>2019-09-01T11:14:06Z</time>
      </trkpt>
      <trkpt lat="57.014065040275455" lon="-3.387854034081101">
        <ele>322.18000000000001</ele>
        <time>2019-09-01T11:14:13Z</time>
      </trkpt>
      <trkpt lat="57.014102004468441" lon="-3.387582963332534">
        <ele>322.18000000000001</ele>
        <time>2019-09-01T11:14:14Z</time>
      </trkpt>
      <trkpt lat="57.014125976711512" lon="-3.387300996109843">
        <ele>321.69999999999999</ele>
        <time>2019-09-01T11:14:15Z</time>
      </trkpt>
      <trkpt lat="57.014453038573265" lon="-3.384616021066904">
        <ele>317.85000000000002</ele>
        <time>2019-09-01T11:14:24Z</time>
      </trkpt>
      <trkpt lat="57.014707010239363" lon="-3.382665971294045">
        <ele>317.85000000000002</ele>
        <time>2019-09-01T11:14:31Z</time>
      </trkpt>
      <trkpt lat="57.014821004122496" lon="-3.380308980122209">
        <ele>319.30000000000001</ele>
        <time>2019-09-01T11:14:39Z</time>
      </trkpt>
      <trkpt lat="57.014746991917491" lon="-3.37947104126215">
        <ele>319.30000000000001</ele>
        <time>2019-09-01T11:14:42Z</time>
      </trkpt>
      <trkpt lat="57.014720002189279" lon="-3.37919401936233">
        <ele>319.30000000000001</ele>
        <time>2019-09-01T11:14:43Z</time>
      </trkpt>
      <trkpt lat="57.014693012461066" lon="-3.378926971927285">
        <ele>319.30000000000001</ele>
        <time>2019-09-01T11:14:44Z</time>
      </trkpt>
      <trkpt lat="57.014666022732854" lon="-3.378661014139652">
        <ele>319.30000000000001</ele>
        <time>2019-09-01T11:14:45Z</time>
      </trkpt>
      <trkpt lat="57.014592010527849" lon="-3.378437971696258">
        <ele>318.81</ele>
        <time>2019-09-01T11:14:46Z</time>
      </trkpt>
      <trkpt lat="57.014515986666083" lon="-3.378209983929992">
        <ele>318.81</ele>
        <time>2019-09-01T11:14:47Z</time>
      </trkpt>
      <trkpt lat="57.014414984732866" lon="-3.37805500254035">
        <ele>319.30000000000001</ele>
        <time>2019-09-01T11:14:48Z</time>
      </trkpt>
      <trkpt lat="57.014304008334875" lon="-3.377884011715651">
        <ele>319.30000000000001</ele>
        <time>2019-09-01T11:14:49Z</time>
      </trkpt>
      <trkpt lat="57.014182973653078" lon="-3.377697011455894">
        <ele>319.30000000000001</ele>
        <time>2019-09-01T11:14:50Z</time>
      </trkpt>
      <trkpt lat="57.014055987820029" lon="-3.377501964569092">
        <ele>319.77999999999997</ele>
        <time>2019-09-01T11:14:51Z</time>
      </trkpt>
      <trkpt lat="57.013941993936896" lon="-3.37728101760149">
        <ele>320.25999999999999</ele>
        <time>2019-09-01T11:14:52Z</time>
      </trkpt>
      <trkpt lat="57.013840992003679" lon="-3.377041965723038">
        <ele>320.25999999999999</ele>
        <time>2019-09-01T11:14:53Z</time>
      </trkpt>
      <trkpt lat="57.013754993677139" lon="-3.376785982400179">
        <ele>320.74000000000001</ele>
        <time>2019-09-01T11:14:54Z</time>
      </trkpt>
      <trkpt lat="57.013701014220715" lon="-3.376497980207205">
        <ele>321.22000000000003</ele>
        <time>2019-09-01T11:14:55Z</time>
      </trkpt>
      <trkpt lat="57.013675030320883" lon="-3.376204026862979">
        <ele>321.69999999999999</ele>
        <time>2019-09-01T11:14:56Z</time>
      </trkpt>
      <trkpt lat="57.013661032542586" lon="-3.375904960557818">
        <ele>322.66000000000003</ele>
        <time>2019-09-01T11:14:57Z</time>
      </trkpt>
      <trkpt lat="57.01364804059267" lon="-3.375608995556831">
        <ele>322.66000000000003</ele>
        <time>2019-09-01T11:14:58Z</time>
      </trkpt>
      <trkpt lat="57.013620967045426" lon="-3.375009018927813">
        <ele>323.62</ele>
        <time>2019-09-01T11:15:00Z</time>
      </trkpt>
      <trkpt lat="57.013489035889506" lon="-3.374116010963917">
        <ele>324.10000000000002</ele>
        <time>2019-09-01T11:15:03Z</time>
      </trkpt>
      <trkpt lat="57.013409994542599" lon="-3.373813005164266">
        <ele>323.62</ele>
        <time>2019-09-01T11:15:04Z</time>
      </trkpt>
      <trkpt lat="57.013331037014723" lon="-3.373507987707853">
        <ele>323.62</ele>
        <time>2019-09-01T11:15:05Z</time>
      </trkpt>
      <trkpt lat="57.013251995667815" lon="-3.373203976079822">
        <ele>324.10000000000002</ele>
        <time>2019-09-01T11:15:06Z</time>
      </trkpt>
      <trkpt lat="57.013171026483178" lon="-3.372890995815396">
        <ele>324.10000000000002</ele>
        <time>2019-09-01T11:15:07Z</time>
      </trkpt>
      <trkpt lat="57.013085028156638" lon="-3.372607016935945">
        <ele>324.10000000000002</ele>
        <time>2019-09-01T11:15:08Z</time>
      </trkpt>
      <trkpt lat="57.01300498098135" lon="-3.372347010299563">
        <ele>324.57999999999998</ele>
        <time>2019-09-01T11:15:09Z</time>
      </trkpt>
      <trkpt lat="57.012928035110235" lon="-3.372094966471195">
        <ele>325.06</ele>
        <time>2019-09-01T11:15:10Z</time>
      </trkpt>
      <trkpt lat="57.012816974893212" lon="-3.371891034767032">
        <ele>325.54000000000002</ele>
        <time>2019-09-01T11:15:11Z</time>
      </trkpt>
      <trkpt lat="57.012568032369018" lon="-3.371462970972061">
        <ele>326.5</ele>
        <time>2019-09-01T11:15:13Z</time>
      </trkpt>
      <trkpt lat="57.011776026338339" lon="-3.370261006057262">
        <ele>326.5</ele>
        <time>2019-09-01T11:15:19Z</time>
      </trkpt>
      <trkpt lat="57.011640993878245" lon="-3.370098983868957">
        <ele>326.99000000000001</ele>
        <time>2019-09-01T11:15:20Z</time>
      </trkpt>
      <trkpt lat="57.011493975296617" lon="-3.369991024956107">
        <ele>326.99000000000001</ele>
        <time>2019-09-01T11:15:21Z</time>
      </trkpt>
      <trkpt lat="57.011344023048878" lon="-3.369879964739084">
        <ele>326.99000000000001</ele>
        <time>2019-09-01T11:15:22Z</time>
      </trkpt>
      <trkpt lat="57.011197004467249" lon="-3.369770999997854">
        <ele>326.99000000000001</ele>
        <time>2019-09-01T11:15:23Z</time>
      </trkpt>
      <trkpt lat="57.011051997542381" lon="-3.369660023599863">
        <ele>327.47000000000003</ele>
        <time>2019-09-01T11:15:24Z</time>
      </trkpt>
      <trkpt lat="57.010912019759417" lon="-3.369519961997867">
        <ele>327.47000000000003</ele>
        <time>2019-09-01T11:15:25Z</time>
      </trkpt>
      <trkpt lat="57.01076902449131" lon="-3.369377972558141">
        <ele>327.94999999999999</ele>
        <time>2019-09-01T11:15:26Z</time>
      </trkpt>
      <trkpt lat="57.009640987962484" lon="-3.367371009662747">
        <ele>326.5</ele>
        <time>2019-09-01T11:15:35Z</time>
      </trkpt>
      <trkpt lat="57.009311998263001" lon="-3.366602975875139">
        <ele>326.5</ele>
        <time>2019-09-01T11:15:38Z</time>
      </trkpt>
      <trkpt lat="57.0090720243752" lon="-3.365737041458488">
        <ele>326.01999999999998</ele>
        <time>2019-09-01T11:15:41Z</time>
      </trkpt>
      <trkpt lat="57.008844958618283" lon="-3.364514959976077">
        <ele>325.54000000000002</ele>
        <time>2019-09-01T11:15:45Z</time>
      </trkpt>
      <trkpt lat="57.008733982220292" lon="-3.36185596883297">
        <ele>322.66000000000003</ele>
        <time>2019-09-01T11:15:53Z</time>
      </trkpt>
      <trkpt lat="57.00846903026104" lon="-3.359056999906898">
        <ele>319.30000000000001</ele>
        <time>2019-09-01T11:16:01Z</time>
      </trkpt>
      <trkpt lat="57.008296027779579" lon="-3.357339967042208">
        <ele>318.32999999999998</ele>
        <time>2019-09-01T11:16:07Z</time>
      </trkpt>
      <trkpt lat="57.008244981989264" lon="-3.357079038396478">
        <ele>318.32999999999998</ele>
        <time>2019-09-01T11:16:08Z</time>
      </trkpt>
      <trkpt lat="57.00819200836122" lon="-3.356808973476291">
        <ele>318.32999999999998</ele>
        <time>2019-09-01T11:16:09Z</time>
      </trkpt>
      <trkpt lat="57.008137023076415" lon="-3.356530023738742">
        <ele>318.32999999999998</ele>
        <time>2019-09-01T11:16:10Z</time>
      </trkpt>
      <trkpt lat="57.008056975901127" lon="-3.356253001838923">
        <ele>318.32999999999998</ele>
        <time>2019-09-01T11:16:11Z</time>
      </trkpt>
      <trkpt lat="57.007350968196988" lon="-3.354348968714476">
        <ele>321.69999999999999</ele>
        <time>2019-09-01T11:16:18Z</time>
      </trkpt>
      <trkpt lat="57.006663987413049" lon="-3.352795969694853">
        <ele>324.10000000000002</ele>
        <time>2019-09-01T11:16:24Z</time>
      </trkpt>
      <trkpt lat="57.006555022671819" lon="-3.352548032999039">
        <ele>323.62</ele>
        <time>2019-09-01T11:16:25Z</time>
      </trkpt>
      <trkpt lat="57.00645100325346" lon="-3.352314010262489">
        <ele>322.66000000000003</ele>
        <time>2019-09-01T11:16:26Z</time>
      </trkpt>
      <trkpt lat="57.006348995491862" lon="-3.352084010839462">
        <ele>321.69999999999999</ele>
        <time>2019-09-01T11:16:27Z</time>
      </trkpt>
      <trkpt lat="57.006255034357309" lon="-3.351832972839475">
        <ele>320.74000000000001</ele>
        <time>2019-09-01T11:16:28Z</time>
      </trkpt>
      <trkpt lat="57.005504015833139" lon="-3.349486039951444">
        <ele>314.00999999999999</ele>
        <time>2019-09-01T11:16:37Z</time>
      </trkpt>
      <trkpt lat="57.005173014476895" lon="-3.348603006452322">
        <ele>313.52999999999997</ele>
        <time>2019-09-01T11:16:41Z</time>
      </trkpt>
      <trkpt lat="57.005062038078904" lon="-3.34840402007103">
        <ele>313.52999999999997</ele>
        <time>2019-09-01T11:16:42Z</time>
      </trkpt>
      <trkpt lat="57.00494796037674" lon="-3.348198998719454">
        <ele>313.52999999999997</ele>
        <time>2019-09-01T11:16:43Z</time>
      </trkpt>
      <trkpt lat="57.004833966493607" lon="-3.347993977367878">
        <ele>313.52999999999997</ele>
        <time>2019-09-01T11:16:44Z</time>
      </trkpt>
      <trkpt lat="57.004722990095615" lon="-3.347771018743515">
        <ele>314.00999999999999</ele>
        <time>2019-09-01T11:16:45Z</time>
      </trkpt>
      <trkpt lat="57.003726968541741" lon="-3.345266003161669">
        <ele>316.88999999999999</ele>
        <time>2019-09-01T11:16:55Z</time>
      </trkpt>
      <trkpt lat="57.003426980227232" lon="-3.344442984089255">
        <ele>318.81</ele>
        <time>2019-09-01T11:16:59Z</time>
      </trkpt>
      <trkpt lat="57.003383981063962" lon="-3.344260007143021">
        <ele>319.30000000000001</ele>
        <time>2019-09-01T11:17:00Z</time>
      </trkpt>
      <trkpt lat="57.003384986892343" lon="-3.34408599883318">
        <ele>319.30000000000001</ele>
        <time>2019-09-01T11:17:01Z</time>
      </trkpt>
      <trkpt lat="57.003393033519387" lon="-3.343889024108648">
        <ele>319.77999999999997</ele>
        <time>2019-09-01T11:17:02Z</time>
      </trkpt>
      <trkpt lat="57.0034009963274" lon="-3.343662964180112">
        <ele>319.77999999999997</ele>
        <time>2019-09-01T11:17:03Z</time>
      </trkpt>
      <trkpt lat="57.003424968570471" lon="-3.343459032475948">
        <ele>319.77999999999997</ele>
        <time>2019-09-01T11:17:04Z</time>
      </trkpt>
      <trkpt lat="57.003622027114034" lon="-3.341663964092732">
        <ele>319.77999999999997</ele>
        <time>2019-09-01T11:17:12Z</time>
      </trkpt>
      <trkpt lat="57.003645999357104" lon="-3.341427007690072">
        <ele>319.77999999999997</ele>
        <time>2019-09-01T11:17:13Z</time>
      </trkpt>
      <trkpt lat="57.003669971600175" lon="-3.341200025752187">
        <ele>319.30000000000001</ele>
        <time>2019-09-01T11:17:14Z</time>
      </trkpt>
      <trkpt lat="57.003693021833897" lon="-3.340980000793934">
        <ele>319.30000000000001</ele>
        <time>2019-09-01T11:17:15Z</time>
      </trkpt>
      <trkpt lat="57.003670977428555" lon="-3.34071496501565">
        <ele>319.30000000000001</ele>
        <time>2019-09-01T11:17:16Z</time>
      </trkpt>
      <trkpt lat="57.003633007407188" lon="-3.340483037754893">
        <ele>318.81</ele>
        <time>2019-09-01T11:17:17Z</time>
      </trkpt>
      <trkpt lat="57.003415999934077" lon="-3.339185016229749">
        <ele>316.41000000000003</ele>
        <time>2019-09-01T11:17:22Z</time>
      </trkpt>
      <trkpt lat="57.003368977457285" lon="-3.338907994329929">
        <ele>316.41000000000003</ele>
        <time>2019-09-01T11:17:23Z</time>
      </trkpt>
      <trkpt lat="57.003322038799524" lon="-3.338632984086871">
        <ele>315.93000000000001</ele>
        <time>2019-09-01T11:17:24Z</time>
      </trkpt>
      <trkpt lat="57.003276022151113" lon="-3.338361997157335">
        <ele>315.93000000000001</ele>
        <time>2019-09-01T11:17:25Z</time>
      </trkpt>
      <trkpt lat="57.003230005502701" lon="-3.338090004399419">
        <ele>315.93000000000001</ele>
        <time>2019-09-01T11:17:26Z</time>
      </trkpt>
      <trkpt lat="57.002738993614912" lon="-3.336070971563458">
        <ele>318.81</ele>
        <time>2019-09-01T11:17:34Z</time>
      </trkpt>
      <trkpt lat="57.002184027805924" lon="-3.334221001714468">
        <ele>320.25999999999999</ele>
        <time>2019-09-01T11:17:41Z</time>
      </trkpt>
      <trkpt lat="57.002128036692739" lon="-3.333932999521494">
        <ele>320.74000000000001</ele>
        <time>2019-09-01T11:17:42Z</time>
      </trkpt>
      <trkpt lat="57.001933995634317" lon="-3.332436997443438">
        <ele>319.77999999999997</ele>
        <time>2019-09-01T11:17:47Z</time>
      </trkpt>
      <trkpt lat="57.001886973157525" lon="-3.33153803832829">
        <ele>318.81</ele>
        <time>2019-09-01T11:17:50Z</time>
      </trkpt>
      <trkpt lat="57.001946987584233" lon="-3.328608982264996">
        <ele>317.85000000000002</ele>
        <time>2019-09-01T11:17:59Z</time>
      </trkpt>
      <trkpt lat="57.002005996182561" lon="-3.325768020004034">
        <ele>318.32999999999998</ele>
        <time>2019-09-01T11:18:07Z</time>
      </trkpt>
      <trkpt lat="57.002116972580552" lon="-3.323059994727373">
        <ele>316.41000000000003</ele>
        <time>2019-09-01T11:18:15Z</time>
      </trkpt>
      <trkpt lat="57.002102974802256" lon="-3.322746008634567">
        <ele>315.93000000000001</ele>
        <time>2019-09-01T11:18:16Z</time>
      </trkpt>
      <trkpt lat="57.002087971195579" lon="-3.322431016713381">
        <ele>315.44999999999999</ele>
        <time>2019-09-01T11:18:17Z</time>
      </trkpt>
      <trkpt lat="57.002169024199247" lon="-3.319783005863428">
        <ele>313.05000000000001</ele>
        <time>2019-09-01T11:18:25Z</time>
      </trkpt>
      <trkpt lat="57.00243498198688" lon="-3.317412016913295">
        <ele>315.93000000000001</ele>
        <time>2019-09-01T11:18:32Z</time>
      </trkpt>
      <trkpt lat="57.00329102575779" lon="-3.313656002283096">
        <ele>314.97000000000003</ele>
        <time>2019-09-01T11:18:43Z</time>
      </trkpt>
      <trkpt lat="57.003905000165105" lon="-3.311010003089905">
        <ele>311.12</ele>
        <time>2019-09-01T11:18:51Z</time>
      </trkpt>
      <trkpt lat="57.004506988450885" lon="-3.308414965867996">
        <ele>310.16000000000003</ele>
        <time>2019-09-01T11:19:00Z</time>
      </trkpt>
      <trkpt lat="57.004932034760714" lon="-3.306586034595966">
        <ele>308.72000000000003</ele>
        <time>2019-09-01T11:19:06Z</time>
      </trkpt>
      <trkpt lat="57.005736026912928" lon="-3.30429500900209">
        <ele>305.83999999999997</ele>
        <time>2019-09-01T11:19:14Z</time>
      </trkpt>
      <trkpt lat="57.006626017391682" lon="-3.301942041143775">
        <ele>302.94999999999999</ele>
        <time>2019-09-01T11:19:22Z</time>
      </trkpt>
      <trkpt lat="57.007597982883453" lon="-3.299669958651066">
        <ele>301.02999999999997</ele>
        <time>2019-09-01T11:19:31Z</time>
      </trkpt>
      <trkpt lat="57.007709965109825" lon="-3.299458986148238">
        <ele>301.02999999999997</ele>
        <time>2019-09-01T11:19:32Z</time>
      </trkpt>
      <trkpt lat="57.007842985913157" lon="-3.299307022243738">
        <ele>301.50999999999999</ele>
        <time>2019-09-01T11:19:33Z</time>
      </trkpt>
      <trkpt lat="57.007982963696122" lon="-3.299148017540574">
        <ele>301.50999999999999</ele>
        <time>2019-09-01T11:19:34Z</time>
      </trkpt>
      <trkpt lat="57.008132999762893" lon="-3.298978032544255">
        <ele>301.50999999999999</ele>
        <time>2019-09-01T11:19:35Z</time>
      </trkpt>
      <trkpt lat="57.008292004466057" lon="-3.29879698343575">
        <ele>301.99000000000001</ele>
        <time>2019-09-01T11:19:36Z</time>
      </trkpt>
      <trkpt lat="57.009602012112737" lon="-3.29752896912396">
        <ele>301.50999999999999</ele>
        <time>2019-09-01T11:19:44Z</time>
      </trkpt>
      <trkpt lat="57.010498959571123" lon="-3.29709998331964">
        <ele>301.50999999999999</ele>
        <time>2019-09-01T11:19:49Z</time>
      </trkpt>
      <trkpt lat="57.010663999244571" lon="-3.297067964449525">
        <ele>301.50999999999999</ele>
        <time>2019-09-01T11:19:50Z</time>
      </trkpt>
      <trkpt lat="57.010829960927367" lon="-3.297037035226822">
        <ele>300.55000000000001</ele>
        <time>2019-09-01T11:19:51Z</time>
      </trkpt>
      <trkpt lat="57.011004975065589" lon="-3.297004010528326">
        <ele>300.06999999999999</ele>
        <time>2019-09-01T11:19:52Z</time>
      </trkpt>
      <trkpt lat="57.011191975325346" lon="-3.297024965286255">
        <ele>299.58999999999997</ele>
        <time>2019-09-01T11:19:53Z</time>
      </trkpt>
      <trkpt lat="57.011379981413484" lon="-3.297070981934667">
        <ele>298.63</ele>
        <time>2019-09-01T11:19:54Z</time>
      </trkpt>
      <trkpt lat="57.013297006487846" lon="-3.297509020194411">
        <ele>296.22000000000003</ele>
        <time>2019-09-01T11:20:04Z</time>
      </trkpt>
      <trkpt lat="57.013472020626068" lon="-3.29752603545785">
        <ele>296.69999999999999</ele>
        <time>2019-09-01T11:20:05Z</time>
      </trkpt>
      <trkpt lat="57.013645023107529" lon="-3.297484964132309">
        <ele>296.69999999999999</ele>
        <time>2019-09-01T11:20:06Z</time>
      </trkpt>
      <trkpt lat="57.013828000053763" lon="-3.297426039353013">
        <ele>297.18000000000001</ele>
        <time>2019-09-01T11:20:07Z</time>
      </trkpt>
      <trkpt lat="57.015373036265373" lon="-3.29692698083818">
        <ele>298.63</ele>
        <time>2019-09-01T11:20:15Z</time>
      </trkpt>
      <trkpt lat="57.015542015433311" lon="-3.296871995553374">
        <ele>298.63</ele>
        <time>2019-09-01T11:20:16Z</time>
      </trkpt>
      <trkpt lat="57.015704959630966" lon="-3.296785997226834">
        <ele>299.11000000000001</ele>
        <time>2019-09-01T11:20:17Z</time>
      </trkpt>
      <trkpt lat="57.01586396433413" lon="-3.296662028878927">
        <ele>299.58999999999997</ele>
        <time>2019-09-01T11:20:18Z</time>
      </trkpt>
      <trkpt lat="57.016018023714423" lon="-3.296542000025511">
        <ele>300.55000000000001</ele>
        <time>2019-09-01T11:20:19Z</time>
      </trkpt>
      <trkpt lat="57.016150038689375" lon="-3.29634896479547">
        <ele>301.02999999999997</ele>
        <time>2019-09-01T11:20:20Z</time>
      </trkpt>
      <trkpt lat="57.016273001208901" lon="-3.296169005334377">
        <ele>301.50999999999999</ele>
        <time>2019-09-01T11:20:21Z</time>
      </trkpt>
      <trkpt lat="57.016383977606893" lon="-3.295962978154421">
        <ele>301.99000000000001</ele>
        <time>2019-09-01T11:20:22Z</time>
      </trkpt>
      <trkpt lat="57.016483973711729" lon="-3.29572300426662">
        <ele>302.47000000000003</ele>
        <time>2019-09-01T11:20:23Z</time>
      </trkpt>
      <trkpt lat="57.017125021666288" lon="-3.293860964477062">
        <ele>301.99000000000001</ele>
        <time>2019-09-01T11:20:30Z</time>
      </trkpt>
      <trkpt lat="57.017165003344417" lon="-3.293578997254372">
        <ele>301.99000000000001</ele>
        <time>2019-09-01T11:20:31Z</time>
      </trkpt>
      <trkpt lat="57.017355021089315" lon="-3.292450960725546">
        <ele>300.55000000000001</ele>
        <time>2019-09-01T11:20:35Z</time>
      </trkpt>
      <trkpt lat="57.017422998324037" lon="-3.292169999331236">
        <ele>300.06999999999999</ele>
        <time>2019-09-01T11:20:36Z</time>
      </trkpt>
      <trkpt lat="57.017507990822196" lon="-3.291904041543603">
        <ele>300.06999999999999</ele>
        <time>2019-09-01T11:20:37Z</time>
      </trkpt>
      <trkpt lat="57.018412984907627" lon="-3.289596000686288">
        <ele>297.67000000000002</ele>
        <time>2019-09-01T11:20:45Z</time>
      </trkpt>
      <trkpt lat="57.01934396289289" lon="-3.286980008706451">
        <ele>297.67000000000002</ele>
        <time>2019-09-01T11:20:53Z</time>
      </trkpt>
      <trkpt lat="57.02037300914526" lon="-3.283013021573424">
        <ele>295.74000000000001</ele>
        <time>2019-09-01T11:21:04Z</time>
      </trkpt>
      <trkpt lat="57.021396020427346" lon="-3.279071012511849">
        <ele>295.74000000000001</ele>
        <time>2019-09-01T11:21:15Z</time>
      </trkpt>
      <trkpt lat="57.022185008972883" lon="-3.276027040556073">
        <ele>294.77999999999997</ele>
        <time>2019-09-01T11:21:24Z</time>
      </trkpt>
      <trkpt lat="57.022789008915424" lon="-3.273866018280387">
        <ele>294.30000000000001</ele>
        <time>2019-09-01T11:21:31Z</time>
      </trkpt>
      <trkpt lat="57.023915033787489" lon="-3.271643975749612">
        <ele>290.45999999999998</ele>
        <time>2019-09-01T11:21:40Z</time>
      </trkpt>
      <trkpt lat="57.025481024757028" lon="-3.268690025433898">
        <ele>289.00999999999999</ele>
        <time>2019-09-01T11:21:53Z</time>
      </trkpt>
      <trkpt lat="57.026931010186672" lon="-3.266606032848358">
        <ele>290.45999999999998</ele>
        <time>2019-09-01T11:22:03Z</time>
      </trkpt>
      <trkpt lat="57.028650976717472" lon="-3.26446495950222">
        <ele>289.97000000000003</ele>
        <time>2019-09-01T11:22:14Z</time>
      </trkpt>
      <trkpt lat="57.029759986326098" lon="-3.262524968013167">
        <ele>294.77999999999997</ele>
        <time>2019-09-01T11:22:22Z</time>
      </trkpt>
      <trkpt lat="57.030623992905021" lon="-3.259486025199294">
        <ele>296.69999999999999</ele>
        <time>2019-09-01T11:22:31Z</time>
      </trkpt>
      <trkpt lat="57.031610039994121" lon="-3.25599798001349">
        <ele>295.25999999999999</ele>
        <time>2019-09-01T11:22:41Z</time>
      </trkpt>
      <trkpt lat="57.032030979171395" lon="-3.254237025976181">
        <ele>294.30000000000001</ele>
        <time>2019-09-01T11:22:46Z</time>
      </trkpt>
      <trkpt lat="57.033209977671504" lon="-3.251133039593697">
        <ele>290.94</ele>
        <time>2019-09-01T11:22:56Z</time>
      </trkpt>
      <trkpt lat="57.033322965726256" lon="-3.250895999372006">
        <ele>290.94</ele>
        <time>2019-09-01T11:22:57Z</time>
      </trkpt>
      <trkpt lat="57.034494001418352" lon="-3.249089028686285">
        <ele>290.45999999999998</ele>
        <time>2019-09-01T11:23:06Z</time>
      </trkpt>
      <trkpt lat="57.035310985520482" lon="-3.247537035495043">
        <ele>290.45999999999998</ele>
        <time>2019-09-01T11:23:14Z</time>
      </trkpt>
      <trkpt lat="57.036211034283042" lon="-3.246416039764881">
        <ele>289.97000000000003</ele>
        <time>2019-09-01T11:23:22Z</time>
      </trkpt>
      <trkpt lat="57.037705024704337" lon="-3.244667993858457">
        <ele>288.52999999999997</ele>
        <time>2019-09-01T11:23:33Z</time>
      </trkpt>
      <trkpt lat="57.038719989359379" lon="-3.242937969043851">
        <ele>289.49000000000001</ele>
        <time>2019-09-01T11:23:41Z</time>
      </trkpt>
      <trkpt lat="57.040023962035775" lon="-3.240695977583528">
        <ele>288.05000000000001</ele>
        <time>2019-09-01T11:23:50Z</time>
      </trkpt>
      <trkpt lat="57.040301989763975" lon="-3.240255005657673">
        <ele>288.05000000000001</ele>
        <time>2019-09-01T11:23:52Z</time>
      </trkpt>
      <trkpt lat="57.04041900113225" lon="-3.239989969879389">
        <ele>288.05000000000001</ele>
        <time>2019-09-01T11:23:53Z</time>
      </trkpt>
      <trkpt lat="57.04052503220737" lon="-3.239702973514795">
        <ele>288.52999999999997</ele>
        <time>2019-09-01T11:23:54Z</time>
      </trkpt>
      <trkpt lat="57.041187034919858" lon="-3.237683018669486">
        <ele>290.94</ele>
        <time>2019-09-01T11:24:01Z</time>
      </trkpt>
      <trkpt lat="57.041585007682443" lon="-3.236693032085896">
        <ele>290.45999999999998</ele>
        <time>2019-09-01T11:24:05Z</time>
      </trkpt>
      <trkpt lat="57.041650973260403" lon="-3.236411986872554">
        <ele>290.45999999999998</ele>
        <time>2019-09-01T11:24:06Z</time>
      </trkpt>
      <trkpt lat="57.041717022657394" lon="-3.236130019649863">
        <ele>290.45999999999998</ele>
        <time>2019-09-01T11:24:07Z</time>
      </trkpt>
      <trkpt lat="57.041781982406974" lon="-3.235849980264902">
        <ele>289.97000000000003</ele>
        <time>2019-09-01T11:24:08Z</time>
      </trkpt>
      <trkpt lat="57.041844008490443" lon="-3.23556600138545">
        <ele>289.97000000000003</ele>
        <time>2019-09-01T11:24:09Z</time>
      </trkpt>
      <trkpt lat="57.042412972077727" lon="-3.233079006895423">
        <ele>288.52999999999997</ele>
        <time>2019-09-01T11:24:17Z</time>
      </trkpt>
      <trkpt lat="57.042565019801259" lon="-3.232489004731178">
        <ele>288.05000000000001</ele>
        <time>2019-09-01T11:24:19Z</time>
      </trkpt>
      <trkpt lat="57.0428909920156" lon="-3.230934999883175">
        <ele>286.13</ele>
        <time>2019-09-01T11:24:25Z</time>
      </trkpt>
      <trkpt lat="57.042930973693728" lon="-3.230651021003723">
        <ele>286.13</ele>
        <time>2019-09-01T11:24:26Z</time>
      </trkpt>
      <trkpt lat="57.042972967028618" lon="-3.230357989668846">
        <ele>286.13</ele>
        <time>2019-09-01T11:24:27Z</time>
      </trkpt>
      <trkpt lat="57.043271027505398" lon="-3.22750898078084">
        <ele>285.17000000000002</ele>
        <time>2019-09-01T11:24:36Z</time>
      </trkpt>
      <trkpt lat="57.043290976434946" lon="-3.227223996073008">
        <ele>285.64999999999998</ele>
        <time>2019-09-01T11:24:37Z</time>
      </trkpt>
      <trkpt lat="57.043261975049973" lon="-3.226067963987589">
        <ele>286.13</ele>
        <time>2019-09-01T11:24:41Z</time>
      </trkpt>
      <trkpt lat="57.043227022513747" lon="-3.225775016471744">
        <ele>286.61000000000001</ele>
        <time>2019-09-01T11:24:42Z</time>
      </trkpt>
      <trkpt lat="57.04319198615849" lon="-3.225479973480105">
        <ele>286.61000000000001</ele>
        <time>2019-09-01T11:24:43Z</time>
      </trkpt>
      <trkpt lat="57.042928962036967" lon="-3.223438980057836">
        <ele>287.08999999999997</ele>
        <time>2019-09-01T11:24:51Z</time>
      </trkpt>
      <trkpt lat="57.042587986215949" lon="-3.221532013267279">
        <ele>285.64999999999998</ele>
        <time>2019-09-01T11:25:00Z</time>
      </trkpt>
      <trkpt lat="57.042458988726139" lon="-3.22082600556314">
        <ele>284.69</ele>
        <time>2019-09-01T11:25:04Z</time>
      </trkpt>
      <trkpt lat="57.0423539634794" lon="-3.220343962311745">
        <ele>284.20999999999998</ele>
        <time>2019-09-01T11:25:08Z</time>
      </trkpt>
      <trkpt lat="57.042339965701103" lon="-3.220275985077024">
        <ele>284.20999999999998</ele>
        <time>2019-09-01T11:25:09Z</time>
      </trkpt>
      <trkpt lat="57.042329991236329" lon="-3.220233991742134">
        <ele>283.73000000000002</ele>
        <time>2019-09-01T11:25:10Z</time>
      </trkpt>
      <trkpt lat="57.042323034256697" lon="-3.220199961215258">
        <ele>283.73000000000002</ele>
        <time>2019-09-01T11:25:11Z</time>
      </trkpt>
      <trkpt lat="57.042381037026644" lon="-3.220115974545479">
        <ele>283.73000000000002</ele>
        <time>2019-09-01T11:25:12Z</time>
      </trkpt>
      <trkpt lat="57.042430993169546" lon="-3.220119997859001">
        <ele>283.73000000000002</ele>
        <time>2019-09-01T11:25:13Z</time>
      </trkpt>
      <trkpt lat="57.042496958747506" lon="-3.220125027000904">
        <ele>283.73000000000002</ele>
        <time>2019-09-01T11:25:14Z</time>
      </trkpt>
      <trkpt lat="57.042583040893078" lon="-3.220130978152156">
        <ele>283.73000000000002</ele>
        <time>2019-09-01T11:25:15Z</time>
      </trkpt>
      <trkpt lat="57.043144963681698" lon="-3.22035301476717">
        <ele>285.17000000000002</ele>
        <time>2019-09-01T11:25:21Z</time>
      </trkpt>
      <trkpt lat="57.043358031660318" lon="-3.220412023365498">
        <ele>286.13</ele>
        <time>2019-09-01T11:25:23Z</time>
      </trkpt>
      <trkpt lat="57.043472025543451" lon="-3.220415962859988">
        <ele>286.61000000000001</ele>
        <time>2019-09-01T11:25:24Z</time>
      </trkpt>
      <trkpt lat="57.043587025254965" lon="-3.220419986173511">
        <ele>287.08999999999997</ele>
        <time>2019-09-01T11:25:25Z</time>
      </trkpt>
      <trkpt lat="57.043886007741094" lon="-3.220429960638285">
        <ele>288.05000000000001</ele>
        <time>2019-09-01T11:25:28Z</time>
      </trkpt>
      <trkpt lat="57.043981980532408" lon="-3.220415040850639">
        <ele>288.05000000000001</ele>
        <time>2019-09-01T11:25:29Z</time>
      </trkpt>
      <trkpt lat="57.044087005779147" lon="-3.220377992838621">
        <ele>288.52999999999997</ele>
        <time>2019-09-01T11:25:30Z</time>
      </trkpt>
      <trkpt lat="57.044202005490661" lon="-3.220337005332112">
        <ele>289.00999999999999</ele>
        <time>2019-09-01T11:25:31Z</time>
      </trkpt>
      <trkpt lat="57.044315999373794" lon="-3.220297023653984">
        <ele>289.49000000000001</ele>
        <time>2019-09-01T11:25:32Z</time>
      </trkpt>
      <trkpt lat="57.044437034055591" lon="-3.220254024490714">
        <ele>289.97000000000003</ele>
        <time>2019-09-01T11:25:33Z</time>
      </trkpt>
      <trkpt lat="57.044561002403498" lon="-3.220210019499064">
        <ele>290.45999999999998</ele>
        <time>2019-09-01T11:25:34Z</time>
      </trkpt>
      <trkpt lat="57.044682959094644" lon="-3.220218988135457">
        <ele>290.94</ele>
        <time>2019-09-01T11:25:35Z</time>
      </trkpt>
      <trkpt lat="57.044815979897976" lon="-3.220256036147475">
        <ele>291.42000000000002</ele>
        <time>2019-09-01T11:25:36Z</time>
      </trkpt>
      <trkpt lat="57.044950006529689" lon="-3.220294006168842">
        <ele>291.89999999999998</ele>
        <time>2019-09-01T11:25:37Z</time>
      </trkpt>
      <trkpt lat="57.045267010107636" lon="-3.220383021980524">
        <ele>292.38</ele>
        <time>2019-09-01T11:25:40Z</time>
      </trkpt>
      <trkpt lat="57.045356025919318" lon="-3.220362989231944">
        <ele>292.86000000000001</ele>
        <time>2019-09-01T11:25:41Z</time>
      </trkpt>
      <trkpt lat="57.045429032295942" lon="-3.220335999503732">
        <ele>293.33999999999997</ele>
        <time>2019-09-01T11:25:42Z</time>
      </trkpt>
      <trkpt lat="57.045494997873902" lon="-3.220286965370178">
        <ele>293.33999999999997</ele>
        <time>2019-09-01T11:25:43Z</time>
      </trkpt>
      <trkpt lat="57.045560963451862" lon="-3.220222005620599">
        <ele>293.81999999999999</ele>
        <time>2019-09-01T11:25:44Z</time>
      </trkpt>
      <trkpt lat="57.045628018677235" lon="-3.220155034214258">
        <ele>293.81999999999999</ele>
        <time>2019-09-01T11:25:45Z</time>
      </trkpt>
      <trkpt lat="57.045693984255195" lon="-3.220088984817267">
        <ele>294.30000000000001</ele>
        <time>2019-09-01T11:25:46Z</time>
      </trkpt>
      <trkpt lat="57.045757016167045" lon="-3.220026036724448">
        <ele>294.77999999999997</ele>
        <time>2019-09-01T11:25:47Z</time>
      </trkpt>
      <trkpt lat="57.045839997008443" lon="-3.220036011189222">
        <ele>294.77999999999997</ele>
        <time>2019-09-01T11:25:48Z</time>
      </trkpt>
      <trkpt lat="57.045973017811775" lon="-3.220110023394227">
        <ele>295.74000000000001</ele>
        <time>2019-09-01T11:25:49Z</time>
      </trkpt>
      <trkpt lat="57.046020962297916" lon="-3.220223011448979">
        <ele>296.69999999999999</ele>
        <time>2019-09-01T11:25:50Z</time>
      </trkpt>
      <trkpt lat="57.046077037230134" lon="-3.220354020595551">
        <ele>297.67000000000002</ele>
        <time>2019-09-01T11:25:51Z</time>
      </trkpt>
      <trkpt lat="57.046126993373036" lon="-3.220469020307064">
        <ele>299.11000000000001</ele>
        <time>2019-09-01T11:25:52Z</time>
      </trkpt>
      <trkpt lat="57.046165969222784" lon="-3.220560969784856">
        <ele>299.58999999999997</ele>
        <time>2019-09-01T11:25:53Z</time>
      </trkpt>
      <trkpt lat="57.046239981427789" lon="-3.220616038888693">
        <ele>300.55000000000001</ele>
        <time>2019-09-01T11:25:54Z</time>
      </trkpt>
      <trkpt lat="57.046322962269187" lon="-3.220677981153131">
        <ele>301.50999999999999</ele>
        <time>2019-09-01T11:25:55Z</time>
      </trkpt>
      <trkpt lat="57.046416001394391" lon="-3.220747970044613">
        <ele>302.47000000000003</ele>
        <time>2019-09-01T11:25:56Z</time>
      </trkpt>
      <trkpt lat="57.04660995863378" lon="-3.220828017219901">
        <ele>303.91000000000003</ele>
        <time>2019-09-01T11:25:58Z</time>
      </trkpt>
      <trkpt lat="57.046709032729268" lon="-3.220837991684675">
        <ele>304.88</ele>
        <time>2019-09-01T11:25:59Z</time>
      </trkpt>
      <trkpt lat="57.04680198803544" lon="-3.220794992521405">
        <ele>305.83999999999997</ele>
        <time>2019-09-01T11:26:00Z</time>
      </trkpt>
      <trkpt lat="57.046900978311896" lon="-3.220736989751458">
        <ele>306.80000000000001</ele>
        <time>2019-09-01T11:26:01Z</time>
      </trkpt>
      <trkpt lat="57.047000974416733" lon="-3.220679992809892">
        <ele>307.75999999999999</ele>
        <time>2019-09-01T11:26:02Z</time>
      </trkpt>
      <trkpt lat="57.047097031027079" lon="-3.220625007525086">
        <ele>308.72000000000003</ele>
        <time>2019-09-01T11:26:03Z</time>
      </trkpt>
      <trkpt lat="57.04718898050487" lon="-3.220571028068662">
        <ele>309.68000000000001</ele>
        <time>2019-09-01T11:26:04Z</time>
      </trkpt>
      <trkpt lat="57.047286964952946" lon="-3.220519982278347">
        <ele>310.63999999999999</ele>
        <time>2019-09-01T11:26:05Z</time>
      </trkpt>
      <trkpt lat="57.047372963279486" lon="-3.220554012805224">
        <ele>311.60000000000002</ele>
        <time>2019-09-01T11:26:06Z</time>
      </trkpt>
      <trkpt lat="57.047450998798013" lon="-3.220585025846958">
        <ele>312.56999999999999</ele>
        <time>2019-09-01T11:26:07Z</time>
      </trkpt>
      <trkpt lat="57.047522999346256" lon="-3.220671024173498">
        <ele>313.05000000000001</ele>
        <time>2019-09-01T11:26:08Z</time>
      </trkpt>
      <trkpt lat="57.047568010166287" lon="-3.220787029713392">
        <ele>313.52999999999997</ele>
        <time>2019-09-01T11:26:09Z</time>
      </trkpt>
      <trkpt lat="57.047620983794332" lon="-3.220919966697693">
        <ele>313.52999999999997</ele>
        <time>2019-09-01T11:26:10Z</time>
      </trkpt>
      <trkpt lat="57.047750987112522" lon="-3.221250968053937">
        <ele>314.00999999999999</ele>
        <time>2019-09-01T11:26:12Z</time>
      </trkpt>
      <trkpt lat="57.048386000096798" lon="-3.223289027810097">
        <ele>321.22000000000003</ele>
        <time>2019-09-01T11:26:21Z</time>
      </trkpt>
      <trkpt lat="57.048704009503126" lon="-3.224857030436397">
        <ele>329.38999999999999</ele>
        <time>2019-09-01T11:26:29Z</time>
      </trkpt>
      <trkpt lat="57.049101982265711" lon="-3.227168004959822">
        <ele>335.16000000000003</ele>
        <time>2019-09-01T11:26:39Z</time>
      </trkpt>
      <trkpt lat="57.049798015505075" lon="-3.229072960093617">
        <ele>338.51999999999998</ele>
        <time>2019-09-01T11:26:47Z</time>
      </trkpt>
      <trkpt lat="57.050503017380834" lon="-3.230381039902568">
        <ele>340.44</ele>
        <time>2019-09-01T11:26:55Z</time>
      </trkpt>
      <trkpt lat="57.051080027595162" lon="-3.23103197850287">
        <ele>342.37</ele>
        <time>2019-09-01T11:27:01Z</time>
      </trkpt>
      <trkpt lat="57.051160996779799" lon="-3.231082018464804">
        <ele>342.85000000000002</ele>
        <time>2019-09-01T11:27:02Z</time>
      </trkpt>
      <trkpt lat="57.051252024248242" lon="-3.23113901540637">
        <ele>342.85000000000002</ele>
        <time>2019-09-01T11:27:03Z</time>
      </trkpt>
      <trkpt lat="57.051338022574782" lon="-3.231132980436087">
        <ele>343.32999999999998</ele>
        <time>2019-09-01T11:27:04Z</time>
      </trkpt>
      <trkpt lat="57.051444975659251" lon="-3.231125017628074">
        <ele>343.81</ele>
        <time>2019-09-01T11:27:05Z</time>
      </trkpt>
      <trkpt lat="57.051558969542384" lon="-3.231116971001029">
        <ele>343.81</ele>
        <time>2019-09-01T11:27:06Z</time>
      </trkpt>
      <trkpt lat="57.051680004224181" lon="-3.231108002364636">
        <ele>344.29000000000002</ele>
        <time>2019-09-01T11:27:07Z</time>
      </trkpt>
      <trkpt lat="57.052633026614785" lon="-3.230948997661471">
        <ele>348.62</ele>
        <time>2019-09-01T11:27:15Z</time>
      </trkpt>
      <trkpt lat="57.05277300439775" lon="-3.230855036526918">
        <ele>348.62</ele>
        <time>2019-09-01T11:27:17Z</time>
      </trkpt>
      <trkpt lat="57.05283896997571" lon="-3.230765014886856">
        <ele>349.10000000000002</ele>
        <time>2019-09-01T11:27:18Z</time>
      </trkpt>
      <trkpt lat="57.05292496830225" lon="-3.23064599186182">
        <ele>349.10000000000002</ele>
        <time>2019-09-01T11:27:19Z</time>
      </trkpt>
      <trkpt lat="57.052981965243816" lon="-3.230522023513913">
        <ele>349.57999999999998</ele>
        <time>2019-09-01T11:27:20Z</time>
      </trkpt>
      <trkpt lat="57.053060000762343" lon="-3.230352038517594">
        <ele>349.57999999999998</ele>
        <time>2019-09-01T11:27:21Z</time>
      </trkpt>
      <trkpt lat="57.053790986537933" lon="-3.228779006749392">
        <ele>356.31</ele>
        <time>2019-09-01T11:27:29Z</time>
      </trkpt>
      <trkpt lat="57.053881008177996" lon="-3.228635005652905">
        <ele>357.26999999999998</ele>
        <time>2019-09-01T11:27:30Z</time>
      </trkpt>
      <trkpt lat="57.053988967090845" lon="-3.228511037304997">
        <ele>358.23000000000002</ele>
        <time>2019-09-01T11:27:31Z</time>
      </trkpt>
      <trkpt lat="57.055214988067746" lon="-3.227303959429264">
        <ele>367.83999999999997</ele>
        <time>2019-09-01T11:27:40Z</time>
      </trkpt>
      <trkpt lat="57.056322991847992" lon="-3.226213976740837">
        <ele>377.44999999999999</ele>
        <time>2019-09-01T11:27:49Z</time>
      </trkpt>
      <trkpt lat="57.057033022865653" lon="-3.225720031186938">
        <ele>381.77999999999997</ele>
        <time>2019-09-01T11:27:55Z</time>
      </trkpt>
      <trkpt lat="57.058116970583797" lon="-3.225218039005995">
        <ele>384.66000000000003</ele>
        <time>2019-09-01T11:28:02Z</time>
      </trkpt>
      <trkpt lat="57.05956301651895" lon="-3.224555030465126">
        <ele>387.06999999999999</ele>
        <time>2019-09-01T11:28:11Z</time>
      </trkpt>
      <trkpt lat="57.060295008122921" lon="-3.22422000579536">
        <ele>392.36000000000001</ele>
        <time>2019-09-01T11:28:18Z</time>
      </trkpt>
      <trkpt lat="57.061278959736228" lon="-3.223772998899221">
        <ele>398.60000000000002</ele>
        <time>2019-09-01T11:28:26Z</time>
      </trkpt>
      <trkpt lat="57.061842978000641" lon="-3.223516009747982">
        <ele>402.44999999999999</ele>
        <time>2019-09-01T11:28:30Z</time>
      </trkpt>
      <trkpt lat="57.062343964353204" lon="-3.223200011998415">
        <ele>407.25999999999999</ele>
        <time>2019-09-01T11:28:34Z</time>
      </trkpt>
      <trkpt lat="57.06358096562326" lon="-3.222399959340692">
        <ele>419.75</ele>
        <time>2019-09-01T11:28:44Z</time>
      </trkpt>
      <trkpt lat="57.06484897993505" lon="-3.221979020163417">
        <ele>427.44</ele>
        <time>2019-09-01T11:28:52Z</time>
      </trkpt>
      <trkpt lat="57.066602976992726" lon="-3.221752038225532">
        <ele>435.13</ele>
        <time>2019-09-01T11:29:03Z</time>
      </trkpt>
      <trkpt lat="57.066726023331285" lon="-3.221677020192146">
        <ele>436.10000000000002</ele>
        <time>2019-09-01T11:29:04Z</time>
      </trkpt>
      <trkpt lat="57.068074000999331" lon="-3.220850983634591">
        <ele>442.81999999999999</ele>
        <time>2019-09-01T11:29:13Z</time>
      </trkpt>
      <trkpt lat="57.069223998114467" lon="-3.22013801895082">
        <ele>452.44</ele>
        <time>2019-09-01T11:29:21Z</time>
      </trkpt>
      <trkpt lat="57.069562962278724" lon="-3.219894021749497">
        <ele>457.24000000000001</ele>
        <time>2019-09-01T11:29:25Z</time>
      </trkpt>
      <trkpt lat="57.069630017504096" lon="-3.219806011766195">
        <ele>458.20999999999998</ele>
        <time>2019-09-01T11:29:26Z</time>
      </trkpt>
      <trkpt lat="57.069700006395578" lon="-3.219715990126133">
        <ele>459.17000000000002</ele>
        <time>2019-09-01T11:29:27Z</time>
      </trkpt>
      <trkpt lat="57.06994098611176" lon="-3.219402004033327">
        <ele>461.56999999999999</ele>
        <time>2019-09-01T11:29:30Z</time>
      </trkpt>
      <trkpt lat="57.070065038278699" lon="-3.219295972958207">
        <ele>462.52999999999997</ele>
        <time>2019-09-01T11:29:31Z</time>
      </trkpt>
      <trkpt lat="57.070909012109041" lon="-3.218533974140883">
        <ele>463.97000000000003</ele>
        <time>2019-09-01T11:29:39Z</time>
      </trkpt>
      <trkpt lat="57.070988975465298" lon="-3.218417968600988">
        <ele>464.44999999999999</ele>
        <time>2019-09-01T11:29:40Z</time>
      </trkpt>
      <trkpt lat="57.071062987670302" lon="-3.218286037445068">
        <ele>463.97000000000003</ele>
        <time>2019-09-01T11:29:41Z</time>
      </trkpt>
      <trkpt lat="57.071128031238914" lon="-3.218131978064776">
        <ele>463.97000000000003</ele>
        <time>2019-09-01T11:29:42Z</time>
      </trkpt>
      <trkpt lat="57.07174401730299" lon="-3.216676963493228">
        <ele>462.52999999999997</ele>
        <time>2019-09-01T11:29:51Z</time>
      </trkpt>
      <trkpt lat="57.072551026940346" lon="-3.214769996702671">
        <ele>472.63</ele>
        <time>2019-09-01T11:30:04Z</time>
      </trkpt>
      <trkpt lat="57.072736015543342" lon="-3.214266998693347">
        <ele>476.94999999999999</ele>
        <time>2019-09-01T11:30:09Z</time>
      </trkpt>
      <trkpt lat="57.072757976129651" lon="-3.214184017851949">
        <ele>477.91000000000003</ele>
        <time>2019-09-01T11:30:10Z</time>
      </trkpt>
      <trkpt lat="57.07297196611762" lon="-3.213386982679367">
        <ele>485.12</ele>
        <time>2019-09-01T11:30:19Z</time>
      </trkpt>
      <trkpt lat="57.073102975264192" lon="-3.212896976619959">
        <ele>490.88999999999999</ele>
        <time>2019-09-01T11:30:29Z</time>
      </trkpt>
      <trkpt lat="57.073102975264192" lon="-3.212896976619959">
        <ele>490.88999999999999</ele>
        <time>2019-09-01T11:30:30Z</time>
      </trkpt>
      <trkpt lat="57.073102975264192" lon="-3.212896976619959">
        <ele>491.37</ele>
        <time>2019-09-01T11:30:31Z</time>
      </trkpt>
      <trkpt lat="57.073102975264192" lon="-3.212896976619959">
        <ele>491.85000000000002</ele>
        <time>2019-09-01T11:30:47Z</time>
      </trkpt>
      <trkpt lat="57.073102975264192" lon="-3.212896976619959">
        <ele>491.85000000000002</ele>
        <time>2019-09-01T11:31:26Z</time>
      </trkpt>
      <trkpt lat="57.073102975264192" lon="-3.212896976619959">
        <ele>491.85000000000002</ele>
        <time>2019-09-01T11:32:12Z</time>
      </trkpt>
      <trkpt lat="57.073102975264192" lon="-3.212896976619959">
        <ele>491.37</ele>
        <time>2019-09-01T11:32:55Z</time>
      </trkpt>
      <trkpt lat="57.073102975264192" lon="-3.212896976619959">
        <ele>490.88999999999999</ele>
        <time>2019-09-01T11:33:42Z</time>
      </trkpt>
      <trkpt lat="57.073102975264192" lon="-3.212896976619959">
        <ele>490.88999999999999</ele>
        <time>2019-09-01T11:34:33Z</time>
      </trkpt>
      <trkpt lat="57.073102975264192" lon="-3.212896976619959">
        <ele>490.88999999999999</ele>
        <time>2019-09-01T11:35:17Z</time>
      </trkpt>
      <trkpt lat="57.073102975264192" lon="-3.212896976619959">
        <ele>490.41000000000003</ele>
        <time>2019-09-01T11:35:54Z</time>
      </trkpt>
      <trkpt lat="57.073102975264192" lon="-3.212896976619959">
        <ele>490.41000000000003</ele>
        <time>2019-09-01T11:36:29Z</time>
      </trkpt>
      <trkpt lat="57.073102975264192" lon="-3.212896976619959">
        <ele>489.44999999999999</ele>
        <time>2019-09-01T11:37:08Z</time>
      </trkpt>
      <trkpt lat="57.073145974427462" lon="-3.212738977745175">
        <ele>489.44999999999999</ele>
        <time>2019-09-01T11:37:09Z</time>
      </trkpt>
      <trkpt lat="57.073204983025789" lon="-3.212549965828657">
        <ele>487.52999999999997</ele>
        <time>2019-09-01T11:37:15Z</time>
      </trkpt>
      <trkpt lat="57.073232978582382" lon="-3.212466984987259">
        <ele>487.52999999999997</ele>
        <time>2019-09-01T11:37:16Z</time>
      </trkpt>
      <trkpt lat="57.0735929813236" lon="-3.211270971223712">
        <ele>483.19999999999999</ele>
        <time>2019-09-01T11:37:27Z</time>
      </trkpt>
      <trkpt lat="57.073804959654808" lon="-3.210408976301551">
        <ele>478.38999999999999</ele>
        <time>2019-09-01T11:37:32Z</time>
      </trkpt>
      <trkpt lat="57.07385097630322" lon="-3.210221976041794">
        <ele>477.43000000000001</ele>
        <time>2019-09-01T11:37:33Z</time>
      </trkpt>
      <trkpt lat="57.073906967416406" lon="-3.210028018802404">
        <ele>475.99000000000001</ele>
        <time>2019-09-01T11:37:34Z</time>
      </trkpt>
      <trkpt lat="57.074526976794004" lon="-3.208653973415494">
        <ele>469.25999999999999</ele>
        <time>2019-09-01T11:37:43Z</time>
      </trkpt>
      <trkpt lat="57.075184034183621" lon="-3.207270037382841">
        <ele>469.25999999999999</ele>
        <time>2019-09-01T11:37:52Z</time>
      </trkpt>
      <trkpt lat="57.075857017189264" lon="-3.206217018887401">
        <ele>465.89999999999998</ele>
        <time>2019-09-01T11:37:59Z</time>
      </trkpt>
      <trkpt lat="57.075945027172565" lon="-3.206078968942165">
        <ele>465.89999999999998</ele>
        <time>2019-09-01T11:38:00Z</time>
      </trkpt>
      <trkpt lat="57.076028008013964" lon="-3.205950977280736">
        <ele>465.89999999999998</ele>
        <time>2019-09-01T11:38:01Z</time>
      </trkpt>
      <trkpt lat="57.076093973591924" lon="-3.205789038911462">
        <ele>465.89999999999998</ele>
        <time>2019-09-01T11:38:02Z</time>
      </trkpt>
      <trkpt lat="57.076153988018632" lon="-3.205600026994944">
        <ele>465.89999999999998</ele>
        <time>2019-09-01T11:38:03Z</time>
      </trkpt>
      <trkpt lat="57.076220037415624" lon="-3.205393999814987">
        <ele>465.42000000000002</ele>
        <time>2019-09-01T11:38:04Z</time>
      </trkpt>
      <trkpt lat="57.076287008821964" lon="-3.205182021483779">
        <ele>465.42000000000002</ele>
        <time>2019-09-01T11:38:05Z</time>
      </trkpt>
      <trkpt lat="57.077211029827595" lon="-3.202523030340672">
        <ele>462.05000000000001</ele>
        <time>2019-09-01T11:38:17Z</time>
      </trkpt>
      <trkpt lat="57.077400041744113" lon="-3.202152969315648">
        <ele>461.08999999999997</ele>
        <time>2019-09-01T11:38:19Z</time>
      </trkpt>
      <trkpt lat="57.077509006485343" lon="-3.201994970440865">
        <ele>460.61000000000001</ele>
        <time>2019-09-01T11:38:20Z</time>
      </trkpt>
      <trkpt lat="57.078868970274925" lon="-3.200022038072348">
        <ele>459.17000000000002</ele>
        <time>2019-09-01T11:38:32Z</time>
      </trkpt>
      <trkpt lat="57.079789973795414" lon="-3.19865201599896">
        <ele>451.95999999999998</ele>
        <time>2019-09-01T11:38:40Z</time>
      </trkpt>
      <trkpt lat="57.079912014305592" lon="-3.198543973267078">
        <ele>450.02999999999997</ele>
        <time>2019-09-01T11:38:41Z</time>
      </trkpt>
      <trkpt lat="57.080526994541287" lon="-3.197999987751246">
        <ele>441.38</ele>
        <time>2019-09-01T11:38:46Z</time>
      </trkpt>
      <trkpt lat="57.080620033666492" lon="-3.197819022461772">
        <ele>439.45999999999998</ele>
        <time>2019-09-01T11:38:47Z</time>
      </trkpt>
      <trkpt lat="57.080707959830761" lon="-3.19762397557497">
        <ele>438.01999999999998</ele>
        <time>2019-09-01T11:38:48Z</time>
      </trkpt>
      <trkpt lat="57.080793958157301" lon="-3.197411997243762">
        <ele>436.10000000000002</ele>
        <time>2019-09-01T11:38:49Z</time>
      </trkpt>
      <trkpt lat="57.080879034474492" lon="-3.197203036397696">
        <ele>434.64999999999998</ele>
        <time>2019-09-01T11:38:50Z</time>
      </trkpt>
      <trkpt lat="57.081230990588665" lon="-3.19633299484849">
        <ele>430.32999999999998</ele>
        <time>2019-09-01T11:38:55Z</time>
      </trkpt>
      <trkpt lat="57.081298967823386" lon="-3.196167033165693">
        <ele>429.85000000000002</ele>
        <time>2019-09-01T11:38:56Z</time>
      </trkpt>
      <trkpt lat="57.082217037677765" lon="-3.194629959762096">
        <ele>421.68000000000001</ele>
        <time>2019-09-01T11:39:05Z</time>
      </trkpt>
      <trkpt lat="57.082860013470054" lon="-3.193812975659967">
        <ele>414.47000000000003</ele>
        <time>2019-09-01T11:39:11Z</time>
      </trkpt>
      <trkpt lat="57.082902006804943" lon="-3.193760002031922">
        <ele>413.01999999999998</ele>
        <time>2019-09-01T11:39:12Z</time>
      </trkpt>
      <trkpt lat="57.082933019846678" lon="-3.193593034520745">
        <ele>412.06</ele>
        <time>2019-09-01T11:39:13Z</time>
      </trkpt>
      <trkpt lat="57.082954980432987" lon="-3.193479962646961">
        <ele>411.10000000000002</ele>
        <time>2019-09-01T11:39:14Z</time>
      </trkpt>
      <trkpt lat="57.082986999303102" lon="-3.193308971822262">
        <ele>410.13999999999999</ele>
        <time>2019-09-01T11:39:15Z</time>
      </trkpt>
      <trkpt lat="57.082993034273386" lon="-3.193226996809244">
        <ele>409.18000000000001</ele>
        <time>2019-09-01T11:39:16Z</time>
      </trkpt>
      <trkpt lat="57.08300300873816" lon="-3.193063968792558">
        <ele>408.22000000000003</ele>
        <time>2019-09-01T11:39:17Z</time>
      </trkpt>
      <trkpt lat="57.083123037591577" lon="-3.191216010600328">
        <ele>398.60000000000002</ele>
        <time>2019-09-01T11:39:25Z</time>
      </trkpt>
      <trkpt lat="57.083136029541492" lon="-3.191018030047417">
        <ele>397.63999999999999</ele>
        <time>2019-09-01T11:39:26Z</time>
      </trkpt>
      <trkpt lat="57.083195960149169" lon="-3.190888026729226">
        <ele>396.68000000000001</ele>
        <time>2019-09-01T11:39:27Z</time>
      </trkpt>
      <trkpt lat="57.083254968747497" lon="-3.190784007310867">
        <ele>395.72000000000003</ele>
        <time>2019-09-01T11:39:28Z</time>
      </trkpt>
      <trkpt lat="57.083913031965494" lon="-3.189884964376688">
        <ele>388.02999999999997</ele>
        <time>2019-09-01T11:39:35Z</time>
      </trkpt>
      <trkpt lat="57.085135029628873" lon="-3.188633965328336">
        <ele>373.13</ele>
        <time>2019-09-01T11:39:44Z</time>
      </trkpt>
      <trkpt lat="57.086790036410093" lon="-3.187246005982161">
        <ele>357.75</ele>
        <time>2019-09-01T11:39:56Z</time>
      </trkpt>
      <trkpt lat="57.087273001670837" lon="-3.186802016571164">
        <ele>352.94</ele>
        <time>2019-09-01T11:40:00Z</time>
      </trkpt>
      <trkpt lat="57.087350031360984" lon="-3.186657009646297">
        <ele>351.98000000000002</ele>
        <time>2019-09-01T11:40:01Z</time>
      </trkpt>
      <trkpt lat="57.08742898888886" lon="-3.186506973579526">
        <ele>350.54000000000002</ele>
        <time>2019-09-01T11:40:02Z</time>
      </trkpt>
      <trkpt lat="57.087935004383326" lon="-3.184930002316833">
        <ele>346.69</ele>
        <time>2019-09-01T11:40:11Z</time>
      </trkpt>
      <trkpt lat="57.087976997718215" lon="-3.184729004278779">
        <ele>346.69</ele>
        <time>2019-09-01T11:40:12Z</time>
      </trkpt>
      <trkpt lat="57.088014967739582" lon="-3.184520965442061">
        <ele>346.69</ele>
        <time>2019-09-01T11:40:13Z</time>
      </trkpt>
      <trkpt lat="57.088259970769286" lon="-3.182294983416796">
        <ele>342.85000000000002</ele>
        <time>2019-09-01T11:40:21Z</time>
      </trkpt>
      <trkpt lat="57.088456023484468" lon="-3.179533984512091">
        <ele>339.48000000000002</ele>
        <time>2019-09-01T11:40:30Z</time>
      </trkpt>
      <trkpt lat="57.088557025417686" lon="-3.176955040544272">
        <ele>339.95999999999998</ele>
        <time>2019-09-01T11:40:38Z</time>
      </trkpt>
      <trkpt lat="57.088649980723858" lon="-3.175106998533011">
        <ele>338.04000000000002</ele>
        <time>2019-09-01T11:40:46Z</time>
      </trkpt>
      <trkpt lat="57.088662972673774" lon="-3.174869958311319">
        <ele>337.56</ele>
        <time>2019-09-01T11:40:47Z</time>
      </trkpt>
      <trkpt lat="57.088730027899146" lon="-3.173733958974481">
        <ele>338.04000000000002</ele>
        <time>2019-09-01T11:40:52Z</time>
      </trkpt>
      <trkpt lat="57.088755005970597" lon="-3.173527009785175">
        <ele>338.04000000000002</ele>
        <time>2019-09-01T11:40:53Z</time>
      </trkpt>
      <trkpt lat="57.088810997083783" lon="-3.173325005918741">
        <ele>338.51999999999998</ele>
        <time>2019-09-01T11:40:54Z</time>
      </trkpt>
      <trkpt lat="57.08886899985373" lon="-3.173111015930772">
        <ele>338.04000000000002</ele>
        <time>2019-09-01T11:40:55Z</time>
      </trkpt>
      <trkpt lat="57.088930020108819" lon="-3.172888979315758">
        <ele>338.04000000000002</ele>
        <time>2019-09-01T11:40:56Z</time>
      </trkpt>
      <trkpt lat="57.089110985398293" lon="-3.172241980209947">
        <ele>337.56</ele>
        <time>2019-09-01T11:40:59Z</time>
      </trkpt>
      <trkpt lat="57.08992000669241" lon="-3.170545985922217">
        <ele>334.19999999999999</ele>
        <time>2019-09-01T11:41:07Z</time>
      </trkpt>
      <trkpt lat="57.090111030265689" lon="-3.170144995674491">
        <ele>333.70999999999998</ele>
        <time>2019-09-01T11:41:09Z</time>
      </trkpt>
      <trkpt lat="57.090761968865991" lon="-3.16823098808527">
        <ele>331.79000000000002</ele>
        <time>2019-09-01T11:41:17Z</time>
      </trkpt>
      <trkpt lat="57.091482980176806" lon="-3.166098967194557">
        <ele>329.87</ele>
        <time>2019-09-01T11:41:28Z</time>
      </trkpt>
      <trkpt lat="57.091668974608183" lon="-3.165513994172216">
        <ele>328.43000000000001</ele>
        <time>2019-09-01T11:41:35Z</time>
      </trkpt>
      <trkpt lat="57.091690013185143" lon="-3.165445011109114">
        <ele>328.43000000000001</ele>
        <time>2019-09-01T11:41:36Z</time>
      </trkpt>
      <trkpt lat="57.091784980148077" lon="-3.165413998067379">
        <ele>328.43000000000001</ele>
        <time>2019-09-01T11:41:37Z</time>
      </trkpt>
      <trkpt lat="57.091840971261263" lon="-3.16539497114718">
        <ele>328.43000000000001</ele>
        <time>2019-09-01T11:41:38Z</time>
      </trkpt>
      <trkpt lat="57.091924035921693" lon="-3.165364963933826">
        <ele>328.43000000000001</ele>
        <time>2019-09-01T11:41:39Z</time>
      </trkpt>
      <trkpt lat="57.092015985399485" lon="-3.165332023054361">
        <ele>327.94999999999999</ele>
        <time>2019-09-01T11:41:40Z</time>
      </trkpt>
      <trkpt lat="57.092921985313296" lon="-3.165277037769556">
        <ele>326.01999999999998</ele>
        <time>2019-09-01T11:41:49Z</time>
      </trkpt>
      <trkpt lat="57.093377038836479" lon="-3.165242001414299">
        <ele>326.5</ele>
        <time>2019-09-01T11:41:56Z</time>
      </trkpt>
      <trkpt lat="57.093434035778046" lon="-3.165224986150861">
        <ele>326.99000000000001</ele>
        <time>2019-09-01T11:41:57Z</time>
      </trkpt>
      <trkpt lat="57.093490026891232" lon="-3.165208976715803">
        <ele>326.99000000000001</ele>
        <time>2019-09-01T11:41:58Z</time>
      </trkpt>
      <trkpt lat="57.093522967770696" lon="-3.16520000807941">
        <ele>326.99000000000001</ele>
        <time>2019-09-01T11:41:59Z</time>
      </trkpt>
      <trkpt lat="57.093544006347656" lon="-3.165159020572901">
        <ele>326.99000000000001</ele>
        <time>2019-09-01T11:42:00Z</time>
      </trkpt>
      <trkpt lat="57.093572001904249" lon="-3.165101017802954">
        <ele>326.99000000000001</ele>
        <time>2019-09-01T11:42:01Z</time>
      </trkpt>
      <trkpt lat="57.093608966097236" lon="-3.16502801142633">
        <ele>326.99000000000001</ele>
        <time>2019-09-01T11:42:02Z</time>
      </trkpt>
      <trkpt lat="57.093609971925616" lon="-3.164974031969905">
        <ele>326.99000000000001</ele>
        <time>2019-09-01T11:42:03Z</time>
      </trkpt>
      <trkpt lat="57.093610977753997" lon="-3.16487898118794">
        <ele>326.99000000000001</ele>
        <time>2019-09-01T11:42:04Z</time>
      </trkpt>
      <trkpt lat="57.093611983582377" lon="-3.164799017831683">
        <ele>326.99000000000001</ele>
        <time>2019-09-01T11:42:05Z</time>
      </trkpt>
      <trkpt lat="57.093612989410758" lon="-3.164720982313156">
        <ele>326.99000000000001</ele>
        <time>2019-09-01T11:42:06Z</time>
      </trkpt>
      <trkpt lat="57.093613995239139" lon="-3.164635989814997">
        <ele>326.99000000000001</ele>
        <time>2019-09-01T11:42:07Z</time>
      </trkpt>
      <trkpt lat="57.093615001067519" lon="-3.16455502063036">
        <ele>326.5</ele>
        <time>2019-09-01T11:42:08Z</time>
      </trkpt>
      <trkpt lat="57.093618018552661" lon="-3.164326027035713">
        <ele>325.06</ele>
        <time>2019-09-01T11:42:13Z</time>
      </trkpt>
      <trkpt lat="57.093618018552661" lon="-3.164326027035713">
        <ele>323.13999999999999</ele>
        <time>2019-09-01T11:42:27Z</time>
      </trkpt>
      <trkpt lat="57.093618018552661" lon="-3.164326027035713">
        <ele>323.13999999999999</ele>
        <time>2019-09-01T11:42:47Z</time>
      </trkpt>
      <trkpt lat="57.093618018552661" lon="-3.164326027035713">
        <ele>323.62</ele>
        <time>2019-09-01T11:43:31Z</time>
      </trkpt>
      <trkpt lat="57.093618018552661" lon="-3.164326027035713">
        <ele>323.62</ele>
        <time>2019-09-01T11:44:25Z</time>
      </trkpt>
      <trkpt lat="57.093618018552661" lon="-3.164326027035713">
        <ele>323.62</ele>
        <time>2019-09-01T11:44:50Z</time>
      </trkpt>
      <trkpt lat="57.093618018552661" lon="-3.164326027035713">
        <ele>324.10000000000002</ele>
        <time>2019-09-01T11:45:36Z</time>
      </trkpt>
      <trkpt lat="57.093620030209422" lon="-3.164146989583969">
        <ele>325.06</ele>
        <time>2019-09-01T11:46:07Z</time>
      </trkpt>
      <trkpt lat="57.093621036037803" lon="-3.164098961278796">
        <ele>325.54000000000002</ele>
        <time>2019-09-01T11:46:08Z</time>
      </trkpt>
      <trkpt lat="57.093622963875532" lon="-3.163939034566283">
        <ele>326.01999999999998</ele>
        <time>2019-09-01T11:46:10Z</time>
      </trkpt>
      <trkpt lat="57.093631010502577" lon="-3.163313996046782">
        <ele>324.10000000000002</ele>
        <time>2019-09-01T11:46:15Z</time>
      </trkpt>
      <trkpt lat="57.093631010502577" lon="-3.163176029920578">
        <ele>323.62</ele>
        <time>2019-09-01T11:46:16Z</time>
      </trkpt>
      <trkpt lat="57.093653976917267" lon="-3.162553003057838">
        <ele>320.25999999999999</ele>
        <time>2019-09-01T11:46:20Z</time>
      </trkpt>
      <trkpt lat="57.093669986352324" lon="-3.162378994747996">
        <ele>319.77999999999997</ele>
        <time>2019-09-01T11:46:21Z</time>
      </trkpt>
      <trkpt lat="57.093718014657497" lon="-3.162206998094916">
        <ele>319.77999999999997</ele>
        <time>2019-09-01T11:46:22Z</time>
      </trkpt>
      <trkpt lat="57.094253031536937" lon="-3.160564983263612">
        <ele>319.30000000000001</ele>
        <time>2019-09-01T11:46:31Z</time>
      </trkpt>
      <trkpt lat="57.094396026805043" lon="-3.160312017425895">
        <ele>318.81</ele>
        <time>2019-09-01T11:46:33Z</time>
      </trkpt>
      <trkpt lat="57.09514201618731" lon="-3.158998992294073">
        <ele>318.81</ele>
        <time>2019-09-01T11:46:43Z</time>
      </trkpt>
      <trkpt lat="57.095477040857077" lon="-3.158481996506453">
        <ele>320.25999999999999</ele>
        <time>2019-09-01T11:46:47Z</time>
      </trkpt>
      <trkpt lat="57.09557100199163" lon="-3.158360961824656">
        <ele>320.25999999999999</ele>
        <time>2019-09-01T11:46:48Z</time>
      </trkpt>
      <trkpt lat="57.095664963126183" lon="-3.158254008740187">
        <ele>320.74000000000001</ele>
        <time>2019-09-01T11:46:49Z</time>
      </trkpt>
      <trkpt lat="57.095764959231019" lon="-3.158159041777253">
        <ele>320.74000000000001</ele>
        <time>2019-09-01T11:46:50Z</time>
      </trkpt>
      <trkpt lat="57.095865039154887" lon="-3.158063990995288">
        <ele>321.22000000000003</ele>
        <time>2019-09-01T11:46:51Z</time>
      </trkpt>
      <trkpt lat="57.096346998587251" lon="-3.157609021291137">
        <ele>325.06</ele>
        <time>2019-09-01T11:46:57Z</time>
      </trkpt>
      <trkpt lat="57.096427967771888" lon="-3.157537020742893">
        <ele>326.01999999999998</ele>
        <time>2019-09-01T11:46:58Z</time>
      </trkpt>
      <trkpt lat="57.096520001068711" lon="-3.157502990216017">
        <ele>326.99000000000001</ele>
        <time>2019-09-01T11:46:59Z</time>
      </trkpt>
      <trkpt lat="57.096618991345167" lon="-3.157467031851411">
        <ele>327.94999999999999</ele>
        <time>2019-09-01T11:47:00Z</time>
      </trkpt>
      <trkpt lat="57.09673197939992" lon="-3.157443981617689">
        <ele>328.91000000000003</ele>
        <time>2019-09-01T11:47:01Z</time>
      </trkpt>
      <trkpt lat="57.096849996596575" lon="-3.157428978011012">
        <ele>329.38999999999999</ele>
        <time>2019-09-01T11:47:02Z</time>
      </trkpt>
      <trkpt lat="57.097102040424943" lon="-3.157397964969277">
        <ele>331.79000000000002</ele>
        <time>2019-09-01T11:47:04Z</time>
      </trkpt>
      <trkpt lat="57.097236989066005" lon="-3.157406011596322">
        <ele>332.75</ele>
        <time>2019-09-01T11:47:05Z</time>
      </trkpt>
      <trkpt lat="57.097374033182859" lon="-3.157451022416353">
        <ele>334.19999999999999</ele>
        <time>2019-09-01T11:47:06Z</time>
      </trkpt>
      <trkpt lat="57.098656967282295" lon="-3.158002970740199">
        <ele>343.81</ele>
        <time>2019-09-01T11:47:16Z</time>
      </trkpt>
      <trkpt lat="57.09879501722753" lon="-3.158027026802301">
        <ele>344.29000000000002</ele>
        <time>2019-09-01T11:47:17Z</time>
      </trkpt>
      <trkpt lat="57.098928960040212" lon="-3.157968018203974">
        <ele>344.29000000000002</ele>
        <time>2019-09-01T11:47:18Z</time>
      </trkpt>
      <trkpt lat="57.099063992500305" lon="-3.157909009605646">
        <ele>344.76999999999998</ele>
        <time>2019-09-01T11:47:19Z</time>
      </trkpt>
      <trkpt lat="57.099192989990115" lon="-3.157797027379274">
        <ele>344.76999999999998</ele>
        <time>2019-09-01T11:47:20Z</time>
      </trkpt>
      <trkpt lat="57.099318969994783" lon="-3.157641962170601">
        <ele>345.25</ele>
        <time>2019-09-01T11:47:21Z</time>
      </trkpt>
      <trkpt lat="57.099451990798116" lon="-3.157478012144566">
        <ele>345.25</ele>
        <time>2019-09-01T11:47:22Z</time>
      </trkpt>
      <trkpt lat="57.09956799633801" lon="-3.1572500243783">
        <ele>345.73000000000002</ele>
        <time>2019-09-01T11:47:23Z</time>
      </trkpt>
      <trkpt lat="57.099681990221143" lon="-3.156990017741919">
        <ele>346.20999999999998</ele>
        <time>2019-09-01T11:47:24Z</time>
      </trkpt>
      <trkpt lat="57.099796989932656" lon="-3.156717019155622">
        <ele>347.17000000000002</ele>
        <time>2019-09-01T11:47:25Z</time>
      </trkpt>
      <trkpt lat="57.100843973457813" lon="-3.152936026453972">
        <ele>367.36000000000001</ele>
        <time>2019-09-01T11:47:37Z</time>
      </trkpt>
      <trkpt lat="57.10137396119535" lon="-3.150116018950939">
        <ele>388.02999999999997</ele>
        <time>2019-09-01T11:47:46Z</time>
      </trkpt>
      <trkpt lat="57.101462977007031" lon="-3.149643028154969">
        <ele>392.36000000000001</ele>
        <time>2019-09-01T11:47:48Z</time>
      </trkpt>
      <trkpt lat="57.101560961455107" lon="-3.149399030953646">
        <ele>394.27999999999997</ele>
        <time>2019-09-01T11:47:49Z</time>
      </trkpt>
      <trkpt lat="57.101656012237072" lon="-3.149160984903574">
        <ele>396.19999999999999</ele>
        <time>2019-09-01T11:47:50Z</time>
      </trkpt>
      <trkpt lat="57.102406024932861" lon="-3.147292993962765">
        <ele>415.91000000000003</ele>
        <time>2019-09-01T11:47:58Z</time>
      </trkpt>
      <trkpt lat="57.10291899740696" lon="-3.145844014361501">
        <ele>424.07999999999998</ele>
        <time>2019-09-01T11:48:05Z</time>
      </trkpt>
      <trkpt lat="57.103841006755829" lon="-3.14320002682507">
        <ele>424.07999999999998</ele>
        <time>2019-09-01T11:48:14Z</time>
      </trkpt>
      <trkpt lat="57.10470300167799" lon="-3.141335975378752">
        <ele>424.07999999999998</ele>
        <time>2019-09-01T11:48:21Z</time>
      </trkpt>
      <trkpt lat="57.104830993339419" lon="-3.141102958470583">
        <ele>424.07999999999998</ele>
        <time>2019-09-01T11:48:22Z</time>
      </trkpt>
      <trkpt lat="57.104988992214203" lon="-3.140956023707986">
        <ele>424.56</ele>
        <time>2019-09-01T11:48:23Z</time>
      </trkpt>
      <trkpt lat="57.106274021789432" lon="-3.139897976070643">
        <ele>423.12</ele>
        <time>2019-09-01T11:48:30Z</time>
      </trkpt>
      <trkpt lat="57.106610974296927" lon="-3.139749029651284">
        <ele>421.68000000000001</ele>
        <time>2019-09-01T11:48:32Z</time>
      </trkpt>
      <trkpt lat="57.106776013970375" lon="-3.139706030488014">
        <ele>421.19</ele>
        <time>2019-09-01T11:48:33Z</time>
      </trkpt>
      <trkpt lat="57.107602972537279" lon="-3.13961198553443">
        <ele>417.35000000000002</ele>
        <time>2019-09-01T11:48:38Z</time>
      </trkpt>
      <trkpt lat="57.107728030532598" lon="-3.139535961672664">
        <ele>416.87</ele>
        <time>2019-09-01T11:48:39Z</time>
      </trkpt>
      <trkpt lat="57.107865996658802" lon="-3.139348039403558">
        <ele>415.91000000000003</ele>
        <time>2019-09-01T11:48:40Z</time>
      </trkpt>
      <trkpt lat="57.108003040775657" lon="-3.13915902748704">
        <ele>415.43000000000001</ele>
        <time>2019-09-01T11:48:41Z</time>
      </trkpt>
      <trkpt lat="57.108152993023396" lon="-3.138954006135464">
        <ele>414.47000000000003</ele>
        <time>2019-09-01T11:48:42Z</time>
      </trkpt>
      <trkpt lat="57.109697023406625" lon="-3.136895997449756">
        <ele>406.29000000000002</ele>
        <time>2019-09-01T11:48:51Z</time>
      </trkpt>
      <trkpt lat="57.111086994409561" lon="-3.135278038680553">
        <ele>406.76999999999998</ele>
        <time>2019-09-01T11:49:00Z</time>
      </trkpt>
      <trkpt lat="57.111227978020906" lon="-3.135115010663867">
        <ele>407.25999999999999</ele>
        <time>2019-09-01T11:49:01Z</time>
      </trkpt>
      <trkpt lat="57.111369967460632" lon="-3.13503697514534">
        <ele>408.22000000000003</ele>
        <time>2019-09-01T11:49:02Z</time>
      </trkpt>
      <trkpt lat="57.111509023234248" lon="-3.13499397598207">
        <ele>409.18000000000001</ele>
        <time>2019-09-01T11:49:03Z</time>
      </trkpt>
      <trkpt lat="57.111651012673974" lon="-3.13501400873065">
        <ele>410.62</ele>
        <time>2019-09-01T11:49:04Z</time>
      </trkpt>
      <trkpt lat="57.111799959093332" lon="-3.13503404147923">
        <ele>411.57999999999998</ele>
        <time>2019-09-01T11:49:05Z</time>
      </trkpt>
      <trkpt lat="57.113224966451526" lon="-3.135432014241815">
        <ele>423.12</ele>
        <time>2019-09-01T11:49:13Z</time>
      </trkpt>
      <trkpt lat="57.11580902338028" lon="-3.136654011905193">
        <ele>451</ele>
        <time>2019-09-01T11:49:26Z</time>
      </trkpt>
      <trkpt lat="57.118254024535418" lon="-3.137476025149226">
        <ele>464.44999999999999</ele>
        <time>2019-09-01T11:49:38Z</time>
      </trkpt>
      <trkpt lat="57.119222972542048" lon="-3.137747012078762">
        <ele>470.22000000000003</ele>
        <time>2019-09-01T11:49:43Z</time>
      </trkpt>
      <trkpt lat="57.119401004165411" lon="-3.137820018455386">
        <ele>471.66000000000003</ele>
        <time>2019-09-01T11:49:44Z</time>
      </trkpt>
      <trkpt lat="57.119536958634853" lon="-3.137992015108466">
        <ele>472.63</ele>
        <time>2019-09-01T11:49:45Z</time>
      </trkpt>
      <trkpt lat="57.119692023843527" lon="-3.138188989832997">
        <ele>473.58999999999997</ele>
        <time>2019-09-01T11:49:46Z</time>
      </trkpt>
      <trkpt lat="57.119853962212801" lon="-3.138410020619631">
        <ele>475.02999999999997</ele>
        <time>2019-09-01T11:49:47Z</time>
      </trkpt>
      <trkpt lat="57.121351975947618" lon="-3.140504993498325">
        <ele>482.72000000000003</ele>
        <time>2019-09-01T11:49:55Z</time>
      </trkpt>
      <trkpt lat="57.123129023239017" lon="-3.142802976071835">
        <ele>491.85000000000002</ele>
        <time>2019-09-01T11:50:04Z</time>
      </trkpt>
      <trkpt lat="57.12530898861587" lon="-3.144842963665724">
        <ele>510.12</ele>
        <time>2019-09-01T11:50:14Z</time>
      </trkpt>
      <trkpt lat="57.128083985298872" lon="-3.147439006716013">
        <ele>532.23000000000002</ele>
        <time>2019-09-01T11:50:28Z</time>
      </trkpt>
      <trkpt lat="57.129779979586601" lon="-3.148943977430463">
        <ele>544.24000000000001</ele>
        <time>2019-09-01T11:50:37Z</time>
      </trkpt>
      <trkpt lat="57.129909982904792" lon="-3.149105999618769">
        <ele>545.69000000000005</ele>
        <time>2019-09-01T11:50:38Z</time>
      </trkpt>
      <trkpt lat="57.130028000101447" lon="-3.149316972121596">
        <ele>546.64999999999998</ele>
        <time>2019-09-01T11:50:39Z</time>
      </trkpt>
      <trkpt lat="57.130152974277735" lon="-3.149543032050133">
        <ele>547.61000000000001</ele>
        <time>2019-09-01T11:50:40Z</time>
      </trkpt>
      <trkpt lat="57.130263028666377" lon="-3.149827010929585">
        <ele>548.57000000000005</ele>
        <time>2019-09-01T11:50:41Z</time>
      </trkpt>
      <trkpt lat="57.130374005064368" lon="-3.150134962052107">
        <ele>549.04999999999995</ele>
        <time>2019-09-01T11:50:42Z</time>
      </trkpt>
      <trkpt lat="57.131275981664658" lon="-3.152003958821297">
        <ele>551.45000000000005</ele>
        <time>2019-09-01T11:50:49Z</time>
      </trkpt>
      <trkpt lat="57.131703961640596" lon="-3.152619022876024">
        <ele>552.89999999999998</ele>
        <time>2019-09-01T11:50:52Z</time>
      </trkpt>
      <trkpt lat="57.131877969950438" lon="-3.15276000648737">
        <ele>552.89999999999998</ele>
        <time>2019-09-01T11:50:53Z</time>
      </trkpt>
      <trkpt lat="57.133047999814153" lon="-3.15370598807931">
        <ele>554.82000000000005</ele>
        <time>2019-09-01T11:51:00Z</time>
      </trkpt>
      <trkpt lat="57.134297993034124" lon="-3.15441501326859">
        <ele>551.45000000000005</ele>
        <time>2019-09-01T11:51:07Z</time>
      </trkpt>
      <trkpt lat="57.135452013462782" lon="-3.15518899820745">
        <ele>546.64999999999998</ele>
        <time>2019-09-01T11:51:13Z</time>
      </trkpt>
      <trkpt lat="57.136077973991632" lon="-3.156013023108244">
        <ele>543.75999999999999</ele>
        <time>2019-09-01T11:51:17Z</time>
      </trkpt>
      <trkpt lat="57.137314975261688" lon="-3.157416991889477">
        <ele>539.91999999999996</ele>
        <time>2019-09-01T11:51:24Z</time>
      </trkpt>
      <trkpt lat="57.138630012050271" lon="-3.159061018377543">
        <ele>536.07000000000005</ele>
        <time>2019-09-01T11:51:32Z</time>
      </trkpt>
      <trkpt lat="57.138787005096674" lon="-3.159221028909087">
        <ele>535.59000000000003</ele>
        <time>2019-09-01T11:51:33Z</time>
      </trkpt>
      <trkpt lat="57.138931006193161" lon="-3.159416997805238">
        <ele>535.11000000000001</ele>
        <time>2019-09-01T11:51:34Z</time>
      </trkpt>
      <trkpt lat="57.139989975839853" lon="-3.161270990967751">
        <ele>525.5</ele>
        <time>2019-09-01T11:51:42Z</time>
      </trkpt>
      <trkpt lat="57.140509989112616" lon="-3.161983033642173">
        <ele>516.37</ele>
        <time>2019-09-01T11:51:46Z</time>
      </trkpt>
      <trkpt lat="57.140629012137651" lon="-3.162083029747009">
        <ele>514.44000000000005</ele>
        <time>2019-09-01T11:51:47Z</time>
      </trkpt>
      <trkpt lat="57.140748035162687" lon="-3.162160981446505">
        <ele>512.03999999999996</ele>
        <time>2019-09-01T11:51:48Z</time>
      </trkpt>
      <trkpt lat="57.14176400564611" lon="-3.162857014685869">
        <ele>496.66000000000003</ele>
        <time>2019-09-01T11:51:55Z</time>
      </trkpt>
      <trkpt lat="57.142290975898504" lon="-3.163445005193353">
        <ele>488.00999999999999</ele>
        <time>2019-09-01T11:51:59Z</time>
      </trkpt>
      <trkpt lat="57.142587024718523" lon="-3.163837026804686">
        <ele>481.75999999999999</ele>
        <time>2019-09-01T11:52:02Z</time>
      </trkpt>
      <trkpt lat="57.142671011388302" lon="-3.163948003202677">
        <ele>480.31999999999999</ele>
        <time>2019-09-01T11:52:03Z</time>
      </trkpt>
      <trkpt lat="57.142756003886461" lon="-3.164023021236062">
        <ele>478.38999999999999</ele>
        <time>2019-09-01T11:52:04Z</time>
      </trkpt>
      <trkpt lat="57.142863962799311" lon="-3.164032995700836">
        <ele>476.94999999999999</ele>
        <time>2019-09-01T11:52:05Z</time>
      </trkpt>
      <trkpt lat="57.142977034673095" lon="-3.164014974609017">
        <ele>475.50999999999999</ele>
        <time>2019-09-01T11:52:06Z</time>
      </trkpt>
      <trkpt lat="57.143093040212989" lon="-3.163931993767619">
        <ele>474.06999999999999</ele>
        <time>2019-09-01T11:52:07Z</time>
      </trkpt>
      <trkpt lat="57.143217008560896" lon="-3.163843983784318">
        <ele>472.13999999999999</ele>
        <time>2019-09-01T11:52:08Z</time>
      </trkpt>
      <trkpt lat="57.143352963030338" lon="-3.163785981014371">
        <ele>470.69999999999999</ele>
        <time>2019-09-01T11:52:09Z</time>
      </trkpt>
      <trkpt lat="57.143501993268728" lon="-3.163733007386327">
        <ele>469.25999999999999</ele>
        <time>2019-09-01T11:52:10Z</time>
      </trkpt>
      <trkpt lat="57.143668960779905" lon="-3.163755973801017">
        <ele>467.33999999999997</ele>
        <time>2019-09-01T11:52:11Z</time>
      </trkpt>
      <trkpt lat="57.143847998231649" lon="-3.163808025419712">
        <ele>465.42000000000002</ele>
        <time>2019-09-01T11:52:12Z</time>
      </trkpt>
      <trkpt lat="57.144039021804929" lon="-3.163865022361279">
        <ele>463.97000000000003</ele>
        <time>2019-09-01T11:52:13Z</time>
      </trkpt>
      <trkpt lat="57.145986976101995" lon="-3.16442602314055">
        <ele>450.51999999999998</ele>
        <time>2019-09-01T11:52:22Z</time>
      </trkpt>
      <trkpt lat="57.148981997743249" lon="-3.165165977552533">
        <ele>432.25</ele>
        <time>2019-09-01T11:52:35Z</time>
      </trkpt>
      <trkpt lat="57.150067035108805" lon="-3.165706023573875">
        <ele>429.85000000000002</ele>
        <time>2019-09-01T11:52:41Z</time>
      </trkpt>
      <trkpt lat="57.151395985856652" lon="-3.166910000145435">
        <ele>429.85000000000002</ele>
        <time>2019-09-01T11:52:49Z</time>
      </trkpt>
      <trkpt lat="57.15343102812767" lon="-3.168869018554688">
        <ele>413.98000000000002</ele>
        <time>2019-09-01T11:53:01Z</time>
      </trkpt>
      <trkpt lat="57.154609020799398" lon="-3.170103002339602">
        <ele>398.60000000000002</ele>
        <time>2019-09-01T11:53:09Z</time>
      </trkpt>
      <trkpt lat="57.15471999719739" lon="-3.170195035636425">
        <ele>396.19999999999999</ele>
        <time>2019-09-01T11:53:10Z</time>
      </trkpt>
      <trkpt lat="57.154830973595381" lon="-3.170262007042766">
        <ele>394.27999999999997</ele>
        <time>2019-09-01T11:53:11Z</time>
      </trkpt>
      <trkpt lat="57.15493499301374" lon="-3.170274998992682">
        <ele>392.83999999999997</ele>
        <time>2019-09-01T11:53:12Z</time>
      </trkpt>
      <trkpt lat="57.155055021867156" lon="-3.170254966244102">
        <ele>390.91000000000003</ele>
        <time>2019-09-01T11:53:13Z</time>
      </trkpt>
      <trkpt lat="57.155201034620404" lon="-3.170230994001031">
        <ele>388.99000000000001</ele>
        <time>2019-09-01T11:53:14Z</time>
      </trkpt>
      <trkpt lat="57.15536498464644" lon="-3.170204004272819">
        <ele>387.06999999999999</ele>
        <time>2019-09-01T11:53:15Z</time>
      </trkpt>
      <trkpt lat="57.156073004007339" lon="-3.170087998732925">
        <ele>380.33999999999997</ele>
        <time>2019-09-01T11:53:19Z</time>
      </trkpt>
      <trkpt lat="57.156240977346897" lon="-3.170028990134597">
        <ele>378.42000000000002</ele>
        <time>2019-09-01T11:53:20Z</time>
      </trkpt>
      <trkpt lat="57.156410962343216" lon="-3.169912984594703">
        <ele>376.49000000000001</ele>
        <time>2019-09-01T11:53:21Z</time>
      </trkpt>
      <trkpt lat="57.157551990821958" lon="-3.169100023806095">
        <ele>369.75999999999999</ele>
        <time>2019-09-01T11:53:27Z</time>
      </trkpt>
      <trkpt lat="57.158601991832256" lon="-3.168427040800452">
        <ele>363.51999999999998</ele>
        <time>2019-09-01T11:53:33Z</time>
      </trkpt>
      <trkpt lat="57.158777005970478" lon="-3.168366020545363">
        <ele>363.04000000000002</ele>
        <time>2019-09-01T11:53:34Z</time>
      </trkpt>
      <trkpt lat="57.160181980580091" lon="-3.168369960039854">
        <ele>360.14999999999998</ele>
        <time>2019-09-01T11:53:42Z</time>
      </trkpt>
      <trkpt lat="57.16129400767386" lon="-3.168686041608453">
        <ele>356.31</ele>
        <time>2019-09-01T11:53:49Z</time>
      </trkpt>
      <trkpt lat="57.161851990967989" lon="-3.16909097135067">
        <ele>353.89999999999998</ele>
        <time>2019-09-01T11:53:53Z</time>
      </trkpt>
      <trkpt lat="57.161976965144277" lon="-3.169147968292236">
        <ele>352.94</ele>
        <time>2019-09-01T11:53:54Z</time>
      </trkpt>
      <trkpt lat="57.162108980119228" lon="-3.169147968292236">
        <ele>351.98000000000002</ele>
        <time>2019-09-01T11:53:55Z</time>
      </trkpt>
      <trkpt lat="57.162238983437419" lon="-3.16913497634232">
        <ele>351.5</ele>
        <time>2019-09-01T11:53:56Z</time>
      </trkpt>
      <trkpt lat="57.16236999258399" lon="-3.169078985229135">
        <ele>351.01999999999998</ele>
        <time>2019-09-01T11:53:57Z</time>
      </trkpt>
      <trkpt lat="57.16249798424542" lon="-3.169023999944329">
        <ele>350.54000000000002</ele>
        <time>2019-09-01T11:53:58Z</time>
      </trkpt>
      <trkpt lat="57.162922024726868" lon="-3.168901037424803">
        <ele>350.54000000000002</ele>
        <time>2019-09-01T11:54:02Z</time>
      </trkpt>
      <trkpt lat="57.163000982254744" lon="-3.168886033818126">
        <ele>350.54000000000002</ele>
        <time>2019-09-01T11:54:03Z</time>
      </trkpt>
      <trkpt lat="57.163088992238045" lon="-3.168869018554688">
        <ele>351.01999999999998</ele>
        <time>2019-09-01T11:54:04Z</time>
      </trkpt>
      <trkpt lat="57.163441032171249" lon="-3.169030034914613">
        <ele>352.45999999999998</ele>
        <time>2019-09-01T11:54:12Z</time>
      </trkpt>
      <trkpt lat="57.163473973050714" lon="-3.169045960530639">
        <ele>352.94</ele>
        <time>2019-09-01T11:54:13Z</time>
      </trkpt>
      <trkpt lat="57.163497023284435" lon="-3.169056018814445">
        <ele>353.42000000000002</ele>
        <time>2019-09-01T11:54:14Z</time>
      </trkpt>
      <trkpt lat="57.163563994690776" lon="-3.169202031567693">
        <ele>353.42000000000002</ele>
        <time>2019-09-01T11:54:15Z</time>
      </trkpt>
      <trkpt lat="57.163555026054382" lon="-3.169222986325622">
        <ele>353.42000000000002</ele>
        <time>2019-09-01T11:54:16Z</time>
      </trkpt>
      <trkpt lat="57.163542034104466" lon="-3.169253999367356">
        <ele>353.89999999999998</ele>
        <time>2019-09-01T11:54:17Z</time>
      </trkpt>
      <trkpt lat="57.163517978042364" lon="-3.169313007965684">
        <ele>353.89999999999998</ele>
        <time>2019-09-01T11:54:18Z</time>
      </trkpt>
      <trkpt lat="57.163479002192616" lon="-3.169406969100237">
        <ele>353.89999999999998</ele>
        <time>2019-09-01T11:54:19Z</time>
      </trkpt>
      <trkpt lat="57.163329971954226" lon="-3.169807959347963">
        <ele>354.86000000000001</ele>
        <time>2019-09-01T11:54:22Z</time>
      </trkpt>
      <trkpt lat="57.163300970569253" lon="-3.169946009293199">
        <ele>355.33999999999997</ele>
        <time>2019-09-01T11:54:23Z</time>
      </trkpt>
      <trkpt lat="57.163169961422682" lon="-3.171167001128197">
        <ele>356.31</ele>
        <time>2019-09-01T11:54:29Z</time>
      </trkpt>
      <trkpt lat="57.163195023313165" lon="-3.171428013592959">
        <ele>356.31</ele>
        <time>2019-09-01T11:54:30Z</time>
      </trkpt>
      <trkpt lat="57.163220001384616" lon="-3.17168902605772">
        <ele>356.79000000000002</ele>
        <time>2019-09-01T11:54:31Z</time>
      </trkpt>
      <trkpt lat="57.163243973627687" lon="-3.171941991895437">
        <ele>356.79000000000002</ele>
        <time>2019-09-01T11:54:32Z</time>
      </trkpt>
      <trkpt lat="57.163254031911492" lon="-3.172174002975225">
        <ele>357.26999999999998</ele>
        <time>2019-09-01T11:54:33Z</time>
      </trkpt>
      <trkpt lat="57.163230981677771" lon="-3.172394027933478">
        <ele>357.26999999999998</ele>
        <time>2019-09-01T11:54:34Z</time>
      </trkpt>
      <trkpt lat="57.163206003606319" lon="-3.172631990164518">
        <ele>357.26999999999998</ele>
        <time>2019-09-01T11:54:35Z</time>
      </trkpt>
      <trkpt lat="57.163125034421682" lon="-3.174697961658239">
        <ele>355.33999999999997</ele>
        <time>2019-09-01T11:54:42Z</time>
      </trkpt>
      <trkpt lat="57.163169039413333" lon="-3.1761160120368">
        <ele>355.33999999999997</ele>
        <time>2019-09-01T11:54:47Z</time>
      </trkpt>
      <trkpt lat="57.163128973916173" lon="-3.176370989531279">
        <ele>355.33999999999997</ele>
        <time>2019-09-01T11:54:48Z</time>
      </trkpt>
      <trkpt lat="57.163085974752903" lon="-3.176644993945956">
        <ele>355.33999999999997</ele>
        <time>2019-09-01T11:54:49Z</time>
      </trkpt>
      <trkpt lat="57.162997964769602" lon="-3.177209012210369">
        <ele>355.33999999999997</ele>
        <time>2019-09-01T11:54:51Z</time>
      </trkpt>
      <trkpt lat="57.162957983091474" lon="-3.17751201801002">
        <ele>355.33999999999997</ele>
        <time>2019-09-01T11:54:52Z</time>
      </trkpt>
      <trkpt lat="57.162947002798319" lon="-3.177845031023026">
        <ele>355.33999999999997</ele>
        <time>2019-09-01T11:54:53Z</time>
      </trkpt>
      <trkpt lat="57.162837032228708" lon="-3.181018000468612">
        <ele>356.31</ele>
        <time>2019-09-01T11:55:01Z</time>
      </trkpt>
      <trkpt lat="57.162743993103504" lon="-3.182673007249832">
        <ele>356.79000000000002</ele>
        <time>2019-09-01T11:55:05Z</time>
      </trkpt>
      <trkpt lat="57.162681967020035" lon="-3.183015994727612">
        <ele>356.79000000000002</ele>
        <time>2019-09-01T11:55:06Z</time>
      </trkpt>
      <trkpt lat="57.162621030583978" lon="-3.183350013568997">
        <ele>357.26999999999998</ele>
        <time>2019-09-01T11:55:07Z</time>
      </trkpt>
      <trkpt lat="57.162532014772296" lon="-3.1836589705199">
        <ele>357.75</ele>
        <time>2019-09-01T11:55:08Z</time>
      </trkpt>
      <trkpt lat="57.162441993132234" lon="-3.18395703099668">
        <ele>358.23000000000002</ele>
        <time>2019-09-01T11:55:09Z</time>
      </trkpt>
      <trkpt lat="57.161989035084844" lon="-3.185953013598919">
        <ele>360.14999999999998</ele>
        <time>2019-09-01T11:55:16Z</time>
      </trkpt>
      <trkpt lat="57.161601036787033" lon="-3.188829012215138">
        <ele>363.51999999999998</ele>
        <time>2019-09-01T11:55:25Z</time>
      </trkpt>
      <trkpt lat="57.161567006260157" lon="-3.18911500275135">
        <ele>364.48000000000002</ele>
        <time>2019-09-01T11:55:26Z</time>
      </trkpt>
      <trkpt lat="57.16159600764513" lon="-3.189426977187395">
        <ele>364.95999999999998</ele>
        <time>2019-09-01T11:55:27Z</time>
      </trkpt>
      <trkpt lat="57.161625009030104" lon="-3.189745992422104">
        <ele>365.92000000000002</ele>
        <time>2019-09-01T11:55:28Z</time>
      </trkpt>
      <trkpt lat="57.161656022071838" lon="-3.190076993778348">
        <ele>366.88</ele>
        <time>2019-09-01T11:55:29Z</time>
      </trkpt>
      <trkpt lat="57.16174696572125" lon="-3.191341990604997">
        <ele>371.20999999999998</ele>
        <time>2019-09-01T11:55:33Z</time>
      </trkpt>
      <trkpt lat="57.161754006519914" lon="-3.191612977534533">
        <ele>372.17000000000002</ele>
        <time>2019-09-01T11:55:34Z</time>
      </trkpt>
      <trkpt lat="57.161731040105224" lon="-3.191881030797958">
        <ele>373.13</ele>
        <time>2019-09-01T11:55:35Z</time>
      </trkpt>
      <trkpt lat="57.161659961566329" lon="-3.192069036886096">
        <ele>374.56999999999999</ele>
        <time>2019-09-01T11:55:36Z</time>
      </trkpt>
      <trkpt lat="57.161588966846466" lon="-3.192259976640344">
        <ele>375.52999999999997</ele>
        <time>2019-09-01T11:55:37Z</time>
      </trkpt>
      <trkpt lat="57.161514032632113" lon="-3.192458963021636">
        <ele>376.00999999999999</ele>
        <time>2019-09-01T11:55:38Z</time>
      </trkpt>
      <trkpt lat="57.161440020427108" lon="-3.192656021565199">
        <ele>376.49000000000001</ele>
        <time>2019-09-01T11:55:39Z</time>
      </trkpt>
      <trkpt lat="57.161399032920599" lon="-3.192885015159845">
        <ele>376.97000000000003</ele>
        <time>2019-09-01T11:55:40Z</time>
      </trkpt>
      <trkpt lat="57.161357961595058" lon="-3.193128006532788">
        <ele>377.44999999999999</ele>
        <time>2019-09-01T11:55:41Z</time>
      </trkpt>
      <trkpt lat="57.160915983840823" lon="-3.19594700820744">
        <ele>384.66000000000003</ele>
        <time>2019-09-01T11:55:51Z</time>
      </trkpt>
      <trkpt lat="57.160874996334314" lon="-3.197984984144568">
        <ele>388.50999999999999</ele>
        <time>2019-09-01T11:55:57Z</time>
      </trkpt>
      <trkpt lat="57.161353016272187" lon="-3.20101797580719">
        <ele>397.16000000000003</ele>
        <time>2019-09-01T11:56:06Z</time>
      </trkpt>
      <trkpt lat="57.162456996738911" lon="-3.203836977481842">
        <ele>407.74000000000001</ele>
        <time>2019-09-01T11:56:15Z</time>
      </trkpt>
      <trkpt lat="57.16370296664536" lon="-3.206919003278017">
        <ele>412.06</ele>
        <time>2019-09-01T11:56:26Z</time>
      </trkpt>
      <trkpt lat="57.163974037393928" lon="-3.207697011530399">
        <ele>411.57999999999998</ele>
        <time>2019-09-01T11:56:29Z</time>
      </trkpt>
      <trkpt lat="57.164055006578565" lon="-3.207964980974793">
        <ele>411.10000000000002</ele>
        <time>2019-09-01T11:56:30Z</time>
      </trkpt>
      <trkpt lat="57.164525985717773" lon="-3.210881967097521">
        <ele>402.93000000000001</ele>
        <time>2019-09-01T11:56:39Z</time>
      </trkpt>
      <trkpt lat="57.164720026776195" lon="-3.213542969897389">
        <ele>394.75999999999999</ele>
        <time>2019-09-01T11:56:47Z</time>
      </trkpt>
      <trkpt lat="57.16468901373446" lon="-3.213883023709059">
        <ele>393.80000000000001</ele>
        <time>2019-09-01T11:56:48Z</time>
      </trkpt>
      <trkpt lat="57.164641991257668" lon="-3.214220982044935">
        <ele>393.31999999999999</ele>
        <time>2019-09-01T11:56:49Z</time>
      </trkpt>
      <trkpt lat="57.164149973541498" lon="-3.216877961531282">
        <ele>390.91000000000003</ele>
        <time>2019-09-01T11:56:58Z</time>
      </trkpt>
      <trkpt lat="57.164100017398596" lon="-3.217053981497884">
        <ele>391.38999999999999</ele>
        <time>2019-09-01T11:56:59Z</time>
      </trkpt>
      <trkpt lat="57.164022987708449" lon="-3.217185996472836">
        <ele>391.38999999999999</ele>
        <time>2019-09-01T11:57:00Z</time>
      </trkpt>
      <trkpt lat="57.163928020745516" lon="-3.217342989519239">
        <ele>391.87</ele>
        <time>2019-09-01T11:57:01Z</time>
      </trkpt>
      <trkpt lat="57.163817966356874" lon="-3.217523032799363">
        <ele>392.36000000000001</ele>
        <time>2019-09-01T11:57:02Z</time>
      </trkpt>
      <trkpt lat="57.163697015494108" lon="-3.217697963118553">
        <ele>392.83999999999997</ele>
        <time>2019-09-01T11:57:03Z</time>
      </trkpt>
      <trkpt lat="57.163554020226002" lon="-3.217837018892169">
        <ele>393.80000000000001</ele>
        <time>2019-09-01T11:57:04Z</time>
      </trkpt>
      <trkpt lat="57.163402978330851" lon="-3.217984037473798">
        <ele>395.24000000000001</ele>
        <time>2019-09-01T11:57:05Z</time>
      </trkpt>
      <trkpt lat="57.163256965577602" lon="-3.218126026913524">
        <ele>396.19999999999999</ele>
        <time>2019-09-01T11:57:06Z</time>
      </trkpt>
      <trkpt lat="57.163123022764921" lon="-3.218256030231714">
        <ele>397.63999999999999</ele>
        <time>2019-09-01T11:57:07Z</time>
      </trkpt>
      <trkpt lat="57.163000982254744" lon="-3.218374969437718">
        <ele>398.60000000000002</ele>
        <time>2019-09-01T11:57:08Z</time>
      </trkpt>
      <trkpt lat="57.162925964221358" lon="-3.218512013554573">
        <ele>400.05000000000001</ele>
        <time>2019-09-01T11:57:09Z</time>
      </trkpt>
      <trkpt lat="57.162861004471779" lon="-3.218651991337538">
        <ele>401.00999999999999</ele>
        <time>2019-09-01T11:57:10Z</time>
      </trkpt>
      <trkpt lat="57.162823034450412" lon="-3.21878400631249">
        <ele>402.44999999999999</ele>
        <time>2019-09-01T11:57:11Z</time>
      </trkpt>
      <trkpt lat="57.162798978388309" lon="-3.218963965773583">
        <ele>403.41000000000003</ele>
        <time>2019-09-01T11:57:12Z</time>
      </trkpt>
      <trkpt lat="57.162772994488478" lon="-3.219165969640017">
        <ele>404.37</ele>
        <time>2019-09-01T11:57:13Z</time>
      </trkpt>
      <trkpt lat="57.162578031420708" lon="-3.220897000283003">
        <ele>408.22000000000003</ele>
        <time>2019-09-01T11:57:19Z</time>
      </trkpt>
      <trkpt lat="57.162565039470792" lon="-3.221162036061287">
        <ele>408.69999999999999</ele>
        <time>2019-09-01T11:57:20Z</time>
      </trkpt>
      <trkpt lat="57.162553975358605" lon="-3.221394969150424">
        <ele>408.69999999999999</ele>
        <time>2019-09-01T11:57:21Z</time>
      </trkpt>
      <trkpt lat="57.162607032805681" lon="-3.221591021865606">
        <ele>408.69999999999999</ele>
        <time>2019-09-01T11:57:22Z</time>
      </trkpt>
      <trkpt lat="57.162665035575628" lon="-3.221775004640222">
        <ele>409.18000000000001</ele>
        <time>2019-09-01T11:57:23Z</time>
      </trkpt>
      <trkpt lat="57.162728989496827" lon="-3.221945995464921">
        <ele>409.18000000000001</ele>
        <time>2019-09-01T11:57:24Z</time>
      </trkpt>
      <trkpt lat="57.162803001701832" lon="-3.222134001553059">
        <ele>409.66000000000003</ele>
        <time>2019-09-01T11:57:25Z</time>
      </trkpt>
      <trkpt lat="57.163344975560904" lon="-3.223861008882523">
        <ele>410.62</ele>
        <time>2019-09-01T11:57:32Z</time>
      </trkpt>
      <trkpt lat="57.163774967193604" lon="-3.226312967017293">
        <ele>413.01999999999998</ele>
        <time>2019-09-01T11:57:41Z</time>
      </trkpt>
      <trkpt lat="57.164319958537817" lon="-3.228032011538744">
        <ele>411.57999999999998</ele>
        <time>2019-09-01T11:57:50Z</time>
      </trkpt>
      <trkpt lat="57.165135014802217" lon="-3.229470010846853">
        <ele>409.18000000000001</ele>
        <time>2019-09-01T11:57:57Z</time>
      </trkpt>
      <trkpt lat="57.165414970368147" lon="-3.22976597584784">
        <ele>407.74000000000001</ele>
        <time>2019-09-01T11:57:59Z</time>
      </trkpt>
      <trkpt lat="57.16556902974844" lon="-3.229857003316283">
        <ele>406.76999999999998</ele>
        <time>2019-09-01T11:58:00Z</time>
      </trkpt>
      <trkpt lat="57.165718981996179" lon="-3.229946019127965">
        <ele>405.81</ele>
        <time>2019-09-01T11:58:01Z</time>
      </trkpt>
      <trkpt lat="57.165867006406188" lon="-3.230015002191067">
        <ele>405.32999999999998</ele>
        <time>2019-09-01T11:58:02Z</time>
      </trkpt>
      <trkpt lat="57.166020981967449" lon="-3.23004299774766">
        <ele>404.37</ele>
        <time>2019-09-01T11:58:03Z</time>
      </trkpt>
      <trkpt lat="57.16726896353066" lon="-3.229898996651173">
        <ele>401.00999999999999</ele>
        <time>2019-09-01T11:58:11Z</time>
      </trkpt>
      <trkpt lat="57.167948987334967" lon="-3.229865971952677">
        <ele>405.81</ele>
        <time>2019-09-01T11:58:17Z</time>
      </trkpt>
      <trkpt lat="57.168362969532609" lon="-3.22993797250092">
        <ele>414.47000000000003</ele>
        <time>2019-09-01T11:58:21Z</time>
      </trkpt>
      <trkpt lat="57.168467994779348" lon="-3.229998992756009">
        <ele>416.87</ele>
        <time>2019-09-01T11:58:22Z</time>
      </trkpt>
      <trkpt lat="57.168575031682849" lon="-3.230061018839479">
        <ele>419.75</ele>
        <time>2019-09-01T11:58:23Z</time>
      </trkpt>
      <trkpt lat="57.168679973110557" lon="-3.230122039094567">
        <ele>421.68000000000001</ele>
        <time>2019-09-01T11:58:24Z</time>
      </trkpt>
      <trkpt lat="57.168777035549283" lon="-3.23021600022912">
        <ele>424.56</ele>
        <time>2019-09-01T11:58:25Z</time>
      </trkpt>
      <trkpt lat="57.168864961713552" lon="-3.230339968577027">
        <ele>426.95999999999998</ele>
        <time>2019-09-01T11:58:26Z</time>
      </trkpt>
      <trkpt lat="57.168958000838757" lon="-3.230471983551979">
        <ele>428.88999999999999</ele>
        <time>2019-09-01T11:58:27Z</time>
      </trkpt>
      <trkpt lat="57.169627966359258" lon="-3.231370020657778">
        <ele>445.70999999999998</ele>
        <time>2019-09-01T11:58:34Z</time>
      </trkpt>
      <trkpt lat="57.169707007706165" lon="-3.231448978185654">
        <ele>448.11000000000001</ele>
        <time>2019-09-01T11:58:35Z</time>
      </trkpt>
      <trkpt lat="57.169785965234041" lon="-3.231478985399008">
        <ele>450.02999999999997</ele>
        <time>2019-09-01T11:58:36Z</time>
      </trkpt>
      <trkpt lat="57.169868024066091" lon="-3.231472028419375">
        <ele>451.95999999999998</ele>
        <time>2019-09-01T11:58:37Z</time>
      </trkpt>
      <trkpt lat="57.169947987422347" lon="-3.231464987620711">
        <ele>453.88</ele>
        <time>2019-09-01T11:58:38Z</time>
      </trkpt>
      <trkpt lat="57.170025017112494" lon="-3.231432968750596">
        <ele>456.27999999999997</ele>
        <time>2019-09-01T11:58:39Z</time>
      </trkpt>
      <trkpt lat="57.170113027095795" lon="-3.231342025101185">
        <ele>458.20999999999998</ele>
        <time>2019-09-01T11:58:40Z</time>
      </trkpt>
      <trkpt lat="57.170216962695122" lon="-3.231233982369304">
        <ele>459.64999999999998</ele>
        <time>2019-09-01T11:58:41Z</time>
      </trkpt>
      <trkpt lat="57.170705962926149" lon="-3.23073199018836">
        <ele>465.89999999999998</ele>
        <time>2019-09-01T11:58:45Z</time>
      </trkpt>
      <trkpt lat="57.170938979834318" lon="-3.230499979108572">
        <ele>468.77999999999997</ele>
        <time>2019-09-01T11:58:47Z</time>
      </trkpt>
      <trkpt lat="57.171033024787903" lon="-3.230405012145639">
        <ele>470.69999999999999</ele>
        <time>2019-09-01T11:58:48Z</time>
      </trkpt>
      <trkpt lat="57.171146012842655" lon="-3.230373999103904">
        <ele>472.13999999999999</ele>
        <time>2019-09-01T11:58:49Z</time>
      </trkpt>
      <trkpt lat="57.171252965927124" lon="-3.230384979397059">
        <ele>474.55000000000001</ele>
        <time>2019-09-01T11:58:50Z</time>
      </trkpt>
      <trkpt lat="57.171354973688722" lon="-3.230443987995386">
        <ele>476.47000000000003</ele>
        <time>2019-09-01T11:58:51Z</time>
      </trkpt>
      <trkpt lat="57.171452958136797" lon="-3.230522023513913">
        <ele>478.87</ele>
        <time>2019-09-01T11:58:52Z</time>
      </trkpt>
      <trkpt lat="57.171535016968846" lon="-3.230632999911904">
        <ele>481.27999999999997</ele>
        <time>2019-09-01T11:58:53Z</time>
      </trkpt>
      <trkpt lat="57.171604000031948" lon="-3.230777001008391">
        <ele>483.19999999999999</ele>
        <time>2019-09-01T11:58:54Z</time>
      </trkpt>
      <trkpt lat="57.17167298309505" lon="-3.230918990448117">
        <ele>485.60000000000002</ele>
        <time>2019-09-01T11:58:55Z</time>
      </trkpt>
      <trkpt lat="57.171740960329771" lon="-3.231060979887843">
        <ele>487.52999999999997</ele>
        <time>2019-09-01T11:58:56Z</time>
      </trkpt>
      <trkpt lat="57.171770967543125" lon="-3.231238005682826">
        <ele>489.44999999999999</ele>
        <time>2019-09-01T11:58:57Z</time>
      </trkpt>
      <trkpt lat="57.171791000291705" lon="-3.231445038691163">
        <ele>491.37</ele>
        <time>2019-09-01T11:58:58Z</time>
      </trkpt>
      <trkpt lat="57.171811033040285" lon="-3.231663974002004">
        <ele>493.29000000000002</ele>
        <time>2019-09-01T11:58:59Z</time>
      </trkpt>
      <trkpt lat="57.172015970572829" lon="-3.233312023803592">
        <ele>506.75</ele>
        <time>2019-09-01T11:59:06Z</time>
      </trkpt>
      <trkpt lat="57.172068022191525" lon="-3.233504975214601">
        <ele>508.67000000000002</ele>
        <time>2019-09-01T11:59:07Z</time>
      </trkpt>
      <trkpt lat="57.172129964455962" lon="-3.233689041808248">
        <ele>510.60000000000002</ele>
        <time>2019-09-01T11:59:08Z</time>
      </trkpt>
      <trkpt lat="57.172704041004181" lon="-3.234831998124719">
        <ele>522.61000000000001</ele>
        <time>2019-09-01T11:59:15Z</time>
      </trkpt>
      <trkpt lat="57.172779981046915" lon="-3.234908021986485">
        <ele>524.05999999999995</ele>
        <time>2019-09-01T11:59:16Z</time>
      </trkpt>
      <trkpt lat="57.172852987423539" lon="-3.234950015321374">
        <ele>525.5</ele>
        <time>2019-09-01T11:59:17Z</time>
      </trkpt>
      <trkpt lat="57.172934040427208" lon="-3.234916990622878">
        <ele>526.94000000000005</ele>
        <time>2019-09-01T11:59:18Z</time>
      </trkpt>
      <trkpt lat="57.173020960763097" lon="-3.234882960096002">
        <ele>528.38</ele>
        <time>2019-09-01T11:59:19Z</time>
      </trkpt>
      <trkpt lat="57.173096984624863" lon="-3.234787993133068">
        <ele>529.82000000000005</ele>
        <time>2019-09-01T11:59:20Z</time>
      </trkpt>
      <trkpt lat="57.173179965466261" lon="-3.234652038663626">
        <ele>531.26999999999998</ele>
        <time>2019-09-01T11:59:21Z</time>
      </trkpt>
      <trkpt lat="57.173267975449562" lon="-3.234507031738758">
        <ele>533.19000000000005</ele>
        <time>2019-09-01T11:59:22Z</time>
      </trkpt>
      <trkpt lat="57.173357997089624" lon="-3.234368981793523">
        <ele>534.63</ele>
        <time>2019-09-01T11:59:23Z</time>
      </trkpt>
      <trkpt lat="57.173454975709319" lon="-3.234289018437266">
        <ele>536.07000000000005</ele>
        <time>2019-09-01T11:59:24Z</time>
      </trkpt>
      <trkpt lat="57.173567963764071" lon="-3.234272003173828">
        <ele>537.99000000000001</ele>
        <time>2019-09-01T11:59:25Z</time>
      </trkpt>
      <trkpt lat="57.173687992617488" lon="-3.234272003173828">
        <ele>539.44000000000005</ele>
        <time>2019-09-01T11:59:26Z</time>
      </trkpt>
      <trkpt lat="57.17382101342082" lon="-3.234272003173828">
        <ele>541.36000000000001</ele>
        <time>2019-09-01T11:59:27Z</time>
      </trkpt>
      <trkpt lat="57.174871014431119" lon="-3.234143005684018">
        <ele>551.92999999999995</ele>
        <time>2019-09-01T11:59:34Z</time>
      </trkpt>
      <trkpt lat="57.175473002716899" lon="-3.233942007645965">
        <ele>553.86000000000001</ele>
        <time>2019-09-01T11:59:39Z</time>
      </trkpt>
      <trkpt lat="57.175603006035089" lon="-3.233908982947469">
        <ele>553.38</ele>
        <time>2019-09-01T11:59:40Z</time>
      </trkpt>
      <trkpt lat="57.177076963707805" lon="-3.234032029286027">
        <ele>540.88</ele>
        <time>2019-09-01T11:59:49Z</time>
      </trkpt>
      <trkpt lat="57.178218998014927" lon="-3.234192961826921">
        <ele>533.19000000000005</ele>
        <time>2019-09-01T11:59:55Z</time>
      </trkpt>
      <trkpt lat="57.178413039073348" lon="-3.234269991517067">
        <ele>531.75</ele>
        <time>2019-09-01T11:59:56Z</time>
      </trkpt>
      <trkpt lat="57.180212968960404" lon="-3.235357962548733">
        <ele>537.02999999999997</ele>
        <time>2019-09-01T12:00:06Z</time>
      </trkpt>
      <trkpt lat="57.181720035150647" lon="-3.236164972186089">
        <ele>558.17999999999995</ele>
        <time>2019-09-01T12:00:17Z</time>
      </trkpt>
      <trkpt lat="57.183071030303836" lon="-3.237082958221436">
        <ele>567.79999999999995</ele>
        <time>2019-09-01T12:00:25Z</time>
      </trkpt>
      <trkpt lat="57.184710027649999" lon="-3.238204959779978">
        <ele>574.52999999999997</ele>
        <time>2019-09-01T12:00:35Z</time>
      </trkpt>
      <trkpt lat="57.186414990574121" lon="-3.238698989152908">
        <ele>584.62</ele>
        <time>2019-09-01T12:00:44Z</time>
      </trkpt>
      <trkpt lat="57.187330964952707" lon="-3.238950027152896">
        <ele>598.55999999999995</ele>
        <time>2019-09-01T12:00:52Z</time>
      </trkpt>
      <trkpt lat="57.188739040866494" lon="-3.239250015467405">
        <ele>617.77999999999997</ele>
        <time>2019-09-01T12:01:03Z</time>
      </trkpt>
      <trkpt lat="57.190030021592975" lon="-3.238851958885789">
        <ele>631.72000000000003</ele>
        <time>2019-09-01T12:01:12Z</time>
      </trkpt>
      <trkpt lat="57.190425982698798" lon="-3.238670993596315">
        <ele>635.57000000000005</ele>
        <time>2019-09-01T12:01:15Z</time>
      </trkpt>
      <trkpt lat="57.190555986016989" lon="-3.238682979717851">
        <ele>636.52999999999997</ele>
        <time>2019-09-01T12:01:16Z</time>
      </trkpt>
      <trkpt lat="57.190690012648702" lon="-3.238707035779953">
        <ele>637.49000000000001</ele>
        <time>2019-09-01T12:01:17Z</time>
      </trkpt>
      <trkpt lat="57.191738002002239" lon="-3.239314975216985">
        <ele>646.13999999999999</ele>
        <time>2019-09-01T12:01:24Z</time>
      </trkpt>
      <trkpt lat="57.191879991441965" lon="-3.239450007677078">
        <ele>647.10000000000002</ele>
        <time>2019-09-01T12:01:25Z</time>
      </trkpt>
      <trkpt lat="57.193505996838212" lon="-3.241091016680002">
        <ele>642.29999999999995</ele>
        <time>2019-09-01T12:01:36Z</time>
      </trkpt>
      <trkpt lat="57.19481298699975" lon="-3.241509022191167">
        <ele>630.27999999999997</ele>
        <time>2019-09-01T12:01:44Z</time>
      </trkpt>
      <trkpt lat="57.195938006043434" lon="-3.242524992674589">
        <ele>626.91999999999996</ele>
        <time>2019-09-01T12:01:52Z</time>
      </trkpt>
      <trkpt lat="57.197570968419313" lon="-3.244638992473483">
        <ele>622.59000000000003</ele>
        <time>2019-09-01T12:02:05Z</time>
      </trkpt>
      <trkpt lat="57.198742004111409" lon="-3.245850009843707">
        <ele>626.91999999999996</ele>
        <time>2019-09-01T12:02:14Z</time>
      </trkpt>
      <trkpt lat="57.200037008151412" lon="-3.247075024992228">
        <ele>636.04999999999995</ele>
        <time>2019-09-01T12:02:25Z</time>
      </trkpt>
      <trkpt lat="57.200965974479914" lon="-3.247687993571162">
        <ele>641.82000000000005</ele>
        <time>2019-09-01T12:02:35Z</time>
      </trkpt>
      <trkpt lat="57.201067982241511" lon="-3.247774997726083">
        <ele>641.82000000000005</ele>
        <time>2019-09-01T12:02:36Z</time>
      </trkpt>
      <trkpt lat="57.202084958553314" lon="-3.248761966824532">
        <ele>638.92999999999995</ele>
        <time>2019-09-01T12:02:44Z</time>
      </trkpt>
      <trkpt lat="57.203014008700848" lon="-3.25002402998507">
        <ele>627.88</ele>
        <time>2019-09-01T12:02:51Z</time>
      </trkpt>
      <trkpt lat="57.204641019925475" lon="-3.251530006527901">
        <ele>606.73000000000002</ele>
        <time>2019-09-01T12:03:01Z</time>
      </trkpt>
      <trkpt lat="57.206615963950753" lon="-3.253515008836985">
        <ele>583.65999999999997</ele>
        <time>2019-09-01T12:03:14Z</time>
      </trkpt>
      <trkpt lat="57.20832696184516" lon="-3.255412001162767">
        <ele>566.35000000000002</ele>
        <time>2019-09-01T12:03:25Z</time>
      </trkpt>
      <trkpt lat="57.209254000335932" lon="-3.256652019917965">
        <ele>556.25999999999999</ele>
        <time>2019-09-01T12:03:32Z</time>
      </trkpt>
      <trkpt lat="57.210363009944558" lon="-3.257642006501555">
        <ele>548.09000000000003</ele>
        <time>2019-09-01T12:03:41Z</time>
      </trkpt>
      <trkpt lat="57.211818024516106" lon="-3.258718997240067">
        <ele>537.99000000000001</ele>
        <time>2019-09-01T12:03:52Z</time>
      </trkpt>
      <trkpt lat="57.213175976648927" lon="-3.259925991296768">
        <ele>528.38</ele>
        <time>2019-09-01T12:04:02Z</time>
      </trkpt>
      <trkpt lat="57.214176021516323" lon="-3.261213032528758">
        <ele>517.33000000000004</ele>
        <time>2019-09-01T12:04:11Z</time>
      </trkpt>
      <trkpt lat="57.215079003944993" lon="-3.26237702742219">
        <ele>500.98000000000002</ele>
        <time>2019-09-01T12:04:18Z</time>
      </trkpt>
      <trkpt lat="57.216435028240085" lon="-3.264050977304578">
        <ele>483.68000000000001</ele>
        <time>2019-09-01T12:04:27Z</time>
      </trkpt>
      <trkpt lat="57.216815985739231" lon="-3.264617007225752">
        <ele>480.31999999999999</ele>
        <time>2019-09-01T12:04:30Z</time>
      </trkpt>
      <trkpt lat="57.216952024027705" lon="-3.26476201415062">
        <ele>479.83999999999997</ele>
        <time>2019-09-01T12:04:31Z</time>
      </trkpt>
      <trkpt lat="57.218286003917456" lon="-3.265878986567259">
        <ele>474.55000000000001</ele>
        <time>2019-09-01T12:04:41Z</time>
      </trkpt>
      <trkpt lat="57.219488974660635" lon="-3.266751039773226">
        <ele>467.81999999999999</ele>
        <time>2019-09-01T12:04:51Z</time>
      </trkpt>
      <trkpt lat="57.220561020076275" lon="-3.267482025548816">
        <ele>461.08999999999997</ele>
        <time>2019-09-01T12:04:59Z</time>
      </trkpt>
      <trkpt lat="57.221062006428838" lon="-3.2680319622159">
        <ele>460.61000000000001</ele>
        <time>2019-09-01T12:05:04Z</time>
      </trkpt>
      <trkpt lat="57.221146998926997" lon="-3.268175041303039">
        <ele>460.61000000000001</ele>
        <time>2019-09-01T12:05:05Z</time>
      </trkpt>
      <trkpt lat="57.221185974776745" lon="-3.268345026299357">
        <ele>460.13</ele>
        <time>2019-09-01T12:05:06Z</time>
      </trkpt>
      <trkpt lat="57.221226962283254" lon="-3.26852397993207">
        <ele>459.64999999999998</ele>
        <time>2019-09-01T12:05:07Z</time>
      </trkpt>
      <trkpt lat="57.22126099281013" lon="-3.268721038475633">
        <ele>459.17000000000002</ele>
        <time>2019-09-01T12:05:08Z</time>
      </trkpt>
      <trkpt lat="57.22126099281013" lon="-3.268924970179796">
        <ele>458.69</ele>
        <time>2019-09-01T12:05:09Z</time>
      </trkpt>
      <trkpt lat="57.221251018345356" lon="-3.269156981259584">
        <ele>457.72000000000003</ele>
        <time>2019-09-01T12:05:10Z</time>
      </trkpt>
      <trkpt lat="57.22119502723217" lon="-3.269368959590793">
        <ele>457.24000000000001</ele>
        <time>2019-09-01T12:05:11Z</time>
      </trkpt>
      <trkpt lat="57.221134006977081" lon="-3.269598037004471">
        <ele>456.75999999999999</ele>
        <time>2019-09-01T12:05:12Z</time>
      </trkpt>
      <trkpt lat="57.221067035570741" lon="-3.269840022549033">
        <ele>455.80000000000001</ele>
        <time>2019-09-01T12:05:13Z</time>
      </trkpt>
      <trkpt lat="57.220612987875938" lon="-3.271891996264458">
        <ele>449.55000000000001</ele>
        <time>2019-09-01T12:05:21Z</time>
      </trkpt>
      <trkpt lat="57.220579041168094" lon="-3.272146973758936">
        <ele>449.06999999999999</ele>
        <time>2019-09-01T12:05:22Z</time>
      </trkpt>
      <trkpt lat="57.220444008708" lon="-3.273564018309116">
        <ele>444.75</ele>
        <time>2019-09-01T12:05:27Z</time>
      </trkpt>
      <trkpt lat="57.220417018979788" lon="-3.273846991360188">
        <ele>444.26999999999998</ele>
        <time>2019-09-01T12:05:28Z</time>
      </trkpt>
      <trkpt lat="57.220390029251575" lon="-3.27413197606802">
        <ele>443.31</ele>
        <time>2019-09-01T12:05:29Z</time>
      </trkpt>
      <trkpt lat="57.219901029020548" lon="-3.275931989774108">
        <ele>440.42000000000002</ele>
        <time>2019-09-01T12:05:37Z</time>
      </trkpt>
      <trkpt lat="57.219697013497353" lon="-3.276846036314964">
        <ele>439.45999999999998</ele>
        <time>2019-09-01T12:05:41Z</time>
      </trkpt>
      <trkpt lat="57.219662982970476" lon="-3.277104031294584">
        <ele>438.98000000000002</ele>
        <time>2019-09-01T12:05:42Z</time>
      </trkpt>
      <trkpt lat="57.219643034040928" lon="-3.277388010174036">
        <ele>438.98000000000002</ele>
        <time>2019-09-01T12:05:43Z</time>
      </trkpt>
      <trkpt lat="57.219607997685671" lon="-3.279539979994297">
        <ele>436.10000000000002</ele>
        <time>2019-09-01T12:05:49Z</time>
      </trkpt>
      <trkpt lat="57.219903962686658" lon="-3.283317033201456">
        <ele>430.32999999999998</ele>
        <time>2019-09-01T12:05:58Z</time>
      </trkpt>
      <trkpt lat="57.220261031761765" lon="-3.286684965714812">
        <ele>426.48000000000002</ele>
        <time>2019-09-01T12:06:06Z</time>
      </trkpt>
      <trkpt lat="57.220562025904655" lon="-3.288185996934772">
        <ele>426.48000000000002</ele>
        <time>2019-09-01T12:06:12Z</time>
      </trkpt>
      <trkpt lat="57.221199972555041" lon="-3.290433017536998">
        <ele>427.44</ele>
        <time>2019-09-01T12:06:21Z</time>
      </trkpt>
      <trkpt lat="57.22156098112464" lon="-3.292828984558582">
        <ele>420.23000000000002</ele>
        <time>2019-09-01T12:06:29Z</time>
      </trkpt>
      <trkpt lat="57.221642034128308" lon="-3.294967040419579">
        <ele>416.38999999999999</ele>
        <time>2019-09-01T12:06:34Z</time>
      </trkpt>
      <trkpt lat="57.221540026366711" lon="-3.297580014914274">
        <ele>413.98000000000002</ele>
        <time>2019-09-01T12:06:40Z</time>
      </trkpt>
      <trkpt lat="57.221726020798087" lon="-3.300222996622324">
        <ele>409.66000000000003</ele>
        <time>2019-09-01T12:06:47Z</time>
      </trkpt>
      <trkpt lat="57.221957026049495" lon="-3.303268980234861">
        <ele>409.66000000000003</ele>
        <time>2019-09-01T12:06:55Z</time>
      </trkpt>
      <trkpt lat="57.222359022125602" lon="-3.305741976946592">
        <ele>411.10000000000002</ele>
        <time>2019-09-01T12:07:02Z</time>
      </trkpt>
      <trkpt lat="57.222965033724904" lon="-3.308187983930111">
        <ele>403.88999999999999</ele>
        <time>2019-09-01T12:07:11Z</time>
      </trkpt>
      <trkpt lat="57.223549000918865" lon="-3.310943031683564">
        <ele>404.85000000000002</ele>
        <time>2019-09-01T12:07:21Z</time>
      </trkpt>
      <trkpt lat="57.224051998928189" lon="-3.313845014199615">
        <ele>408.69999999999999</ele>
        <time>2019-09-01T12:07:30Z</time>
      </trkpt>
      <trkpt lat="57.224692963063717" lon="-3.315400024875999">
        <ele>410.62</ele>
        <time>2019-09-01T12:07:36Z</time>
      </trkpt>
      <trkpt lat="57.225871039554477" lon="-3.31757596693933">
        <ele>405.81</ele>
        <time>2019-09-01T12:07:45Z</time>
      </trkpt>
      <trkpt lat="57.227081973105669" lon="-3.320813979953528">
        <ele>399.56999999999999</ele>
        <time>2019-09-01T12:07:54Z</time>
      </trkpt>
      <trkpt lat="57.228008005768061" lon="-3.324144026264548">
        <ele>400.05000000000001</ele>
        <time>2019-09-01T12:08:03Z</time>
      </trkpt>
      <trkpt lat="57.229058006778359" lon="-3.327828040346503">
        <ele>395.24000000000001</ele>
        <time>2019-09-01T12:08:13Z</time>
      </trkpt>
      <trkpt lat="57.229923019185662" lon="-3.329609027132392">
        <ele>390.91000000000003</ele>
        <time>2019-09-01T12:08:19Z</time>
      </trkpt>
      <trkpt lat="57.231268985196948" lon="-3.331973981112242">
        <ele>385.63</ele>
        <time>2019-09-01T12:08:27Z</time>
      </trkpt>
      <trkpt lat="57.232055040076375" lon="-3.334702039137483">
        <ele>385.63</ele>
        <time>2019-09-01T12:08:34Z</time>
      </trkpt>
      <trkpt lat="57.233181986957788" lon="-3.338857032358646">
        <ele>380.81999999999999</ele>
        <time>2019-09-01T12:08:44Z</time>
      </trkpt>
      <trkpt lat="57.234677989035845" lon="-3.344368971884251">
        <ele>371.69</ele>
        <time>2019-09-01T12:08:57Z</time>
      </trkpt>
      <trkpt lat="57.235795967280865" lon="-3.348487000912428">
        <ele>373.61000000000001</ele>
        <time>2019-09-01T12:09:08Z</time>
      </trkpt>
      <trkpt lat="57.236541034653783" lon="-3.350927978754044">
        <ele>374.08999999999997</ele>
        <time>2019-09-01T12:09:15Z</time>
      </trkpt>
      <trkpt lat="57.236659973859787" lon="-3.351210029795766">
        <ele>374.08999999999997</ele>
        <time>2019-09-01T12:09:16Z</time>
      </trkpt>
      <trkpt lat="57.236787965521216" lon="-3.351479005068541">
        <ele>374.56999999999999</ele>
        <time>2019-09-01T12:09:17Z</time>
      </trkpt>
      <trkpt lat="57.23694403655827" lon="-3.351689977571368">
        <ele>374.56999999999999</ele>
        <time>2019-09-01T12:09:18Z</time>
      </trkpt>
      <trkpt lat="57.237102035433054" lon="-3.351896004751325">
        <ele>374.56999999999999</ele>
        <time>2019-09-01T12:09:19Z</time>
      </trkpt>
      <trkpt lat="57.237269002944231" lon="-3.35205702111125">
        <ele>375.05000000000001</ele>
        <time>2019-09-01T12:09:20Z</time>
      </trkpt>
      <trkpt lat="57.237449968233705" lon="-3.35218601860106">
        <ele>375.05000000000001</ele>
        <time>2019-09-01T12:09:21Z</time>
      </trkpt>
      <trkpt lat="57.237635040655732" lon="-3.352318033576012">
        <ele>375.52999999999997</ele>
        <time>2019-09-01T12:09:22Z</time>
      </trkpt>
      <trkpt lat="57.239110004156828" lon="-3.353297961875796">
        <ele>376.97000000000003</ele>
        <time>2019-09-01T12:09:29Z</time>
      </trkpt>
      <trkpt lat="57.241140017285943" lon="-3.354725986719132">
        <ele>373.13</ele>
        <time>2019-09-01T12:09:38Z</time>
      </trkpt>
      <trkpt lat="57.243328029289842" lon="-3.35697996430099">
        <ele>366.39999999999998</ele>
        <time>2019-09-01T12:09:48Z</time>
      </trkpt>
      <trkpt lat="57.245072973892093" lon="-3.359020035713911">
        <ele>361.11000000000001</ele>
        <time>2019-09-01T12:09:57Z</time>
      </trkpt>
      <trkpt lat="57.246679030358791" lon="-3.361590011045337">
        <ele>354.86000000000001</ele>
        <time>2019-09-01T12:10:07Z</time>
      </trkpt>
      <trkpt lat="57.248569987714291" lon="-3.364800028502941">
        <ele>345.73000000000002</ele>
        <time>2019-09-01T12:10:18Z</time>
      </trkpt>
      <trkpt lat="57.250682981684804" lon="-3.368389997631311">
        <ele>336.12</ele>
        <time>2019-09-01T12:10:30Z</time>
      </trkpt>
      <trkpt lat="57.251654025167227" lon="-3.370012985542417">
        <ele>332.75</ele>
        <time>2019-09-01T12:10:37Z</time>
      </trkpt>
      <trkpt lat="57.252495987340808" lon="-3.371488032862544">
        <ele>331.31</ele>
        <time>2019-09-01T12:10:47Z</time>
      </trkpt>
      <trkpt lat="57.252849033102393" lon="-3.372105024755001">
        <ele>330.82999999999998</ele>
        <time>2019-09-01T12:10:55Z</time>
      </trkpt>
      <trkpt lat="57.253011977300048" lon="-3.372391015291214">
        <ele>330.82999999999998</ele>
        <time>2019-09-01T12:11:05Z</time>
      </trkpt>
      <trkpt lat="57.253067968413234" lon="-3.372374000027776">
        <ele>330.82999999999998</ele>
        <time>2019-09-01T12:11:06Z</time>
      </trkpt>
      <trkpt lat="57.25310099311173" lon="-3.372300993651152">
        <ele>330.82999999999998</ele>
        <time>2019-09-01T12:11:07Z</time>
      </trkpt>
      <trkpt lat="57.253148015588522" lon="-3.372195968404412">
        <ele>330.82999999999998</ele>
        <time>2019-09-01T12:11:08Z</time>
      </trkpt>
      <trkpt lat="57.25320803001523" lon="-3.372063031420112">
        <ele>330.35000000000002</ele>
        <time>2019-09-01T12:11:09Z</time>
      </trkpt>
      <trkpt lat="57.253727959468961" lon="-3.370885038748384">
        <ele>326.01999999999998</ele>
        <time>2019-09-01T12:11:15Z</time>
      </trkpt>
      <trkpt lat="57.254780977964401" lon="-3.368504997342825">
        <ele>324.57999999999998</ele>
        <time>2019-09-01T12:11:24Z</time>
      </trkpt>
      <trkpt lat="57.255156990140676" lon="-3.367729000747204">
        <ele>326.5</ele>
        <time>2019-09-01T12:11:28Z</time>
      </trkpt>
      <trkpt lat="57.255250029265881" lon="-3.367609977722168">
        <ele>326.99000000000001</ele>
        <time>2019-09-01T12:11:29Z</time>
      </trkpt>
      <trkpt lat="57.255315994843841" lon="-3.367609977722168">
        <ele>327.94999999999999</ele>
        <time>2019-09-01T12:11:30Z</time>
      </trkpt>
      <trkpt lat="57.255424959585071" lon="-3.367640990763903">
        <ele>328.43000000000001</ele>
        <time>2019-09-01T12:11:31Z</time>
      </trkpt>
      <trkpt lat="57.255533002316952" lon="-3.367710979655385">
        <ele>329.38999999999999</ele>
        <time>2019-09-01T12:11:32Z</time>
      </trkpt>
      <trkpt lat="57.256246972829103" lon="-3.368101995438337">
        <ele>334.68000000000001</ele>
        <time>2019-09-01T12:11:37Z</time>
      </trkpt>
      <trkpt lat="57.256396003067493" lon="-3.368113981559873">
        <ele>335.16000000000003</ele>
        <time>2019-09-01T12:11:38Z</time>
      </trkpt>
      <trkpt lat="57.256545033305883" lon="-3.368082968518138">
        <ele>336.60000000000002</ele>
        <time>2019-09-01T12:11:39Z</time>
      </trkpt>
      <trkpt lat="57.257999964058399" lon="-3.367388024926186">
        <ele>342.85000000000002</ele>
        <time>2019-09-01T12:11:48Z</time>
      </trkpt>
      <trkpt lat="57.259493032470345" lon="-3.366125039756298">
        <ele>349.57999999999998</ele>
        <time>2019-09-01T12:11:57Z</time>
      </trkpt>
      <trkpt lat="57.260323008522391" lon="-3.365134969353676">
        <ele>355.33999999999997</ele>
        <time>2019-09-01T12:12:03Z</time>
      </trkpt>
      <trkpt lat="57.260431973263621" lon="-3.364900024607778">
        <ele>356.31</ele>
        <time>2019-09-01T12:12:04Z</time>
      </trkpt>
      <trkpt lat="57.260542027652264" lon="-3.364644963294268">
        <ele>357.26999999999998</ele>
        <time>2019-09-01T12:12:05Z</time>
      </trkpt>
      <trkpt lat="57.260627020150423" lon="-3.364346986636519">
        <ele>358.23000000000002</ele>
        <time>2019-09-01T12:12:06Z</time>
      </trkpt>
      <trkpt lat="57.260715030133724" lon="-3.364038029685617">
        <ele>358.70999999999998</ele>
        <time>2019-09-01T12:12:07Z</time>
      </trkpt>
      <trkpt lat="57.261261027306318" lon="-3.361278958618641">
        <ele>364</ele>
        <time>2019-09-01T12:12:15Z</time>
      </trkpt>
      <trkpt lat="57.261634021997452" lon="-3.357853023335338">
        <ele>371.69</ele>
        <time>2019-09-01T12:12:24Z</time>
      </trkpt>
      <trkpt lat="57.261958988383412" lon="-3.354862025007606">
        <ele>376.00999999999999</ele>
        <time>2019-09-01T12:12:32Z</time>
      </trkpt>
      <trkpt lat="57.262255037203431" lon="-3.350953962653875">
        <ele>382.74000000000001</ele>
        <time>2019-09-01T12:12:42Z</time>
      </trkpt>
      <trkpt lat="57.262092009186745" lon="-3.346975995227695">
        <ele>390.91000000000003</ele>
        <time>2019-09-01T12:12:52Z</time>
      </trkpt>
      <trkpt lat="57.261977009475231" lon="-3.345628017559648">
        <ele>392.83999999999997</ele>
        <time>2019-09-01T12:12:56Z</time>
      </trkpt>
      <trkpt lat="57.26191196590662" lon="-3.345314031466842">
        <ele>393.31999999999999</ele>
        <time>2019-09-01T12:12:57Z</time>
      </trkpt>
      <trkpt lat="57.261497983708978" lon="-3.342917980626226">
        <ele>394.75999999999999</ele>
        <time>2019-09-01T12:13:04Z</time>
      </trkpt>
      <trkpt lat="57.261490020900965" lon="-3.340294025838375">
        <ele>394.75999999999999</ele>
        <time>2019-09-01T12:13:11Z</time>
      </trkpt>
      <trkpt lat="57.261891011148691" lon="-3.337414003908634">
        <ele>393.31999999999999</ele>
        <time>2019-09-01T12:13:19Z</time>
      </trkpt>
      <trkpt lat="57.261982960626483" lon="-3.337115021422505">
        <ele>393.31999999999999</ele>
        <time>2019-09-01T12:13:20Z</time>
      </trkpt>
      <trkpt lat="57.262072982266545" lon="-3.336817966774106">
        <ele>392.83999999999997</ele>
        <time>2019-09-01T12:13:21Z</time>
      </trkpt>
      <trkpt lat="57.262202985584736" lon="-3.33656701259315">
        <ele>392.83999999999997</ele>
        <time>2019-09-01T12:13:22Z</time>
      </trkpt>
      <trkpt lat="57.262340029701591" lon="-3.336299965158105">
        <ele>392.36000000000001</ele>
        <time>2019-09-01T12:13:23Z</time>
      </trkpt>
      <trkpt lat="57.262485958635807" lon="-3.336040964350104">
        <ele>391.87</ele>
        <time>2019-09-01T12:13:24Z</time>
      </trkpt>
      <trkpt lat="57.262653009966016" lon="-3.335801996290684">
        <ele>391.87</ele>
        <time>2019-09-01T12:13:25Z</time>
      </trkpt>
      <trkpt lat="57.264112969860435" lon="-3.333701994270086">
        <ele>391.38999999999999</ele>
        <time>2019-09-01T12:13:33Z</time>
      </trkpt>
      <trkpt lat="57.26665897294879" lon="-3.330394998192787">
        <ele>391.38999999999999</ele>
        <time>2019-09-01T12:13:47Z</time>
      </trkpt>
      <trkpt lat="57.268629977479577" lon="-3.328083017840982">
        <ele>388.50999999999999</ele>
        <time>2019-09-01T12:13:57Z</time>
      </trkpt>
      <trkpt lat="57.270323960110545" lon="-3.326114024966955">
        <ele>387.55000000000001</ele>
        <time>2019-09-01T12:14:06Z</time>
      </trkpt>
      <trkpt lat="57.270511966198683" lon="-3.326006988063455">
        <ele>387.55000000000001</ele>
        <time>2019-09-01T12:14:07Z</time>
      </trkpt>
      <trkpt lat="57.270708018913865" lon="-3.325894000008702">
        <ele>387.55000000000001</ele>
        <time>2019-09-01T12:14:08Z</time>
      </trkpt>
      <trkpt lat="57.27091496810317" lon="-3.325783023610711">
        <ele>387.06999999999999</ele>
        <time>2019-09-01T12:14:09Z</time>
      </trkpt>
      <trkpt lat="57.271134993061423" lon="-3.325728960335255">
        <ele>386.58999999999997</ele>
        <time>2019-09-01T12:14:10Z</time>
      </trkpt>
      <trkpt lat="57.273316970095038" lon="-3.325096964836121">
        <ele>382.25999999999999</ele>
        <time>2019-09-01T12:14:19Z</time>
      </trkpt>
      <trkpt lat="57.275602966547012" lon="-3.323960965499282">
        <ele>379.38</ele>
        <time>2019-09-01T12:14:29Z</time>
      </trkpt>
      <trkpt lat="57.278127009049058" lon="-3.322363961488009">
        <ele>376.49000000000001</ele>
        <time>2019-09-01T12:14:41Z</time>
      </trkpt>
      <trkpt lat="57.279880000278354" lon="-3.320827977731824">
        <ele>376.00999999999999</ele>
        <time>2019-09-01T12:14:50Z</time>
      </trkpt>
      <trkpt lat="57.281699040904641" lon="-3.319322001188994">
        <ele>378.42000000000002</ele>
        <time>2019-09-01T12:14:59Z</time>
      </trkpt>
      <trkpt lat="57.283958969637752" lon="-3.317545959725976">
        <ele>378.42000000000002</ele>
        <time>2019-09-01T12:15:10Z</time>
      </trkpt>
      <trkpt lat="57.285368973389268" lon="-3.31669301725924">
        <ele>376.49000000000001</ele>
        <time>2019-09-01T12:15:17Z</time>
      </trkpt>
      <trkpt lat="57.287288010120392" lon="-3.316395040601492">
        <ele>374.08999999999997</ele>
        <time>2019-09-01T12:15:26Z</time>
      </trkpt>
      <trkpt lat="57.28762898594141" lon="-3.31626201979816">
        <ele>373.61000000000001</ele>
        <time>2019-09-01T12:15:28Z</time>
      </trkpt>
      <trkpt lat="57.287779022008181" lon="-3.316154982894659">
        <ele>373.13</ele>
        <time>2019-09-01T12:15:29Z</time>
      </trkpt>
      <trkpt lat="57.287916988134384" lon="-3.315960019826889">
        <ele>372.64999999999998</ele>
        <time>2019-09-01T12:15:30Z</time>
      </trkpt>
      <trkpt lat="57.289133034646511" lon="-3.314242986962199">
        <ele>367.36000000000001</ele>
        <time>2019-09-01T12:15:38Z</time>
      </trkpt>
      <trkpt lat="57.289297990500927" lon="-3.314079036936164">
        <ele>366.39999999999998</ele>
        <time>2019-09-01T12:15:39Z</time>
      </trkpt>
      <trkpt lat="57.28947501629591" lon="-3.313952973112464">
        <ele>365.92000000000002</ele>
        <time>2019-09-01T12:15:40Z</time>
      </trkpt>
      <trkpt lat="57.289658999070525" lon="-3.313833028078079">
        <ele>364.95999999999998</ele>
        <time>2019-09-01T12:15:41Z</time>
      </trkpt>
      <trkpt lat="57.291434034705162" lon="-3.313092989847064">
        <ele>355.82999999999998</ele>
        <time>2019-09-01T12:15:50Z</time>
      </trkpt>
      <trkpt lat="57.292867004871368" lon="-3.312113983556628">
        <ele>346.20999999999998</ele>
        <time>2019-09-01T12:15:59Z</time>
      </trkpt>
      <trkpt lat="57.294152034446597" lon="-3.310716971755028">
        <ele>337.07999999999998</ele>
        <time>2019-09-01T12:16:09Z</time>
      </trkpt>
      <trkpt lat="57.295472016558051" lon="-3.309488017112017">
        <ele>330.82999999999998</ele>
        <time>2019-09-01T12:16:19Z</time>
      </trkpt>
      <trkpt lat="57.295696986839175" lon="-3.309309985488653">
        <ele>330.35000000000002</ele>
        <time>2019-09-01T12:16:21Z</time>
      </trkpt>
      <trkpt lat="57.295787008479238" lon="-3.309164978563786">
        <ele>329.87</ele>
        <time>2019-09-01T12:16:22Z</time>
      </trkpt>
      <trkpt lat="57.295869989320636" lon="-3.309030029922724">
        <ele>329.38999999999999</ele>
        <time>2019-09-01T12:16:23Z</time>
      </trkpt>
      <trkpt lat="57.295976020395756" lon="-3.308859039098024">
        <ele>329.38999999999999</ele>
        <time>2019-09-01T12:16:24Z</time>
      </trkpt>
      <trkpt lat="57.296026982367039" lon="-3.308707997202873">
        <ele>328.91000000000003</ele>
        <time>2019-09-01T12:16:25Z</time>
      </trkpt>
      <trkpt lat="57.29609202593565" lon="-3.308511022478342">
        <ele>328.91000000000003</ele>
        <time>2019-09-01T12:16:26Z</time>
      </trkpt>
      <trkpt lat="57.296569962054491" lon="-3.307094983756542">
        <ele>326.99000000000001</ele>
        <time>2019-09-01T12:16:33Z</time>
      </trkpt>
      <trkpt lat="57.296659983694553" lon="-3.306958023458719">
        <ele>326.5</ele>
        <time>2019-09-01T12:16:34Z</time>
      </trkpt>
      <trkpt lat="57.296756040304899" lon="-3.306817961856723">
        <ele>326.5</ele>
        <time>2019-09-01T12:16:35Z</time>
      </trkpt>
      <trkpt lat="57.296861987560987" lon="-3.306700028479099">
        <ele>326.01999999999998</ele>
        <time>2019-09-01T12:16:36Z</time>
      </trkpt>
      <trkpt lat="57.296977993100882" lon="-3.306616963818669">
        <ele>326.01999999999998</ele>
        <time>2019-09-01T12:16:37Z</time>
      </trkpt>
      <trkpt lat="57.297090981155634" lon="-3.306535994634032">
        <ele>325.54000000000002</ele>
        <time>2019-09-01T12:16:38Z</time>
      </trkpt>
      <trkpt lat="57.297214027494192" lon="-3.306510010734201">
        <ele>325.06</ele>
        <time>2019-09-01T12:16:39Z</time>
      </trkpt>
      <trkpt lat="57.29734000749886" lon="-3.306496012955904">
        <ele>325.06</ele>
        <time>2019-09-01T12:16:40Z</time>
      </trkpt>
      <trkpt lat="57.297470010817051" lon="-3.306482015177608">
        <ele>324.57999999999998</ele>
        <time>2019-09-01T12:16:41Z</time>
      </trkpt>
      <trkpt lat="57.29877800680697" lon="-3.30659500323236">
        <ele>317.37</ele>
        <time>2019-09-01T12:16:51Z</time>
      </trkpt>
      <trkpt lat="57.30006898753345" lon="-3.306765994057059">
        <ele>313.52999999999997</ele>
        <time>2019-09-01T12:16:59Z</time>
      </trkpt>
      <trkpt lat="57.302031023427844" lon="-3.306751996278763">
        <ele>316.88999999999999</ele>
        <time>2019-09-01T12:17:10Z</time>
      </trkpt>
      <trkpt lat="57.303417976945639" lon="-3.30627397634089">
        <ele>319.30000000000001</ele>
        <time>2019-09-01T12:17:17Z</time>
      </trkpt>
      <trkpt lat="57.304611979052424" lon="-3.305695960298181">
        <ele>318.81</ele>
        <time>2019-09-01T12:17:24Z</time>
      </trkpt>
      <trkpt lat="57.304766038432717" lon="-3.305686991661787">
        <ele>318.32999999999998</ele>
        <time>2019-09-01T12:17:25Z</time>
      </trkpt>
      <trkpt lat="57.304920013993979" lon="-3.305741976946592">
        <ele>317.85000000000002</ele>
        <time>2019-09-01T12:17:26Z</time>
      </trkpt>
      <trkpt lat="57.305069966241717" lon="-3.305827975273132">
        <ele>317.85000000000002</ele>
        <time>2019-09-01T12:17:27Z</time>
      </trkpt>
      <trkpt lat="57.305204998701811" lon="-3.305983962491155">
        <ele>317.37</ele>
        <time>2019-09-01T12:17:28Z</time>
      </trkpt>
      <trkpt lat="57.305336007848382" lon="-3.306176997721195">
        <ele>316.88999999999999</ele>
        <time>2019-09-01T12:17:29Z</time>
      </trkpt>
      <trkpt lat="57.30548202060163" lon="-3.306390987709165">
        <ele>316.41000000000003</ele>
        <time>2019-09-01T12:17:30Z</time>
      </trkpt>
      <trkpt lat="57.306624976918101" lon="-3.308168035000563">
        <ele>309.68000000000001</ele>
        <time>2019-09-01T12:17:37Z</time>
      </trkpt>
      <trkpt lat="57.307184971868992" lon="-3.308833977207542">
        <ele>305.36000000000001</ele>
        <time>2019-09-01T12:17:41Z</time>
      </trkpt>
      <trkpt lat="57.307297037914395" lon="-3.308919975534082">
        <ele>304.38999999999999</ele>
        <time>2019-09-01T12:17:42Z</time>
      </trkpt>
      <trkpt lat="57.307424023747444" lon="-3.308961968868971">
        <ele>303.43000000000001</ele>
        <time>2019-09-01T12:17:43Z</time>
      </trkpt>
      <trkpt lat="57.307562995702028" lon="-3.30891796387732">
        <ele>302.47000000000003</ele>
        <time>2019-09-01T12:17:44Z</time>
      </trkpt>
      <trkpt lat="57.307714037597179" lon="-3.308861972764134">
        <ele>301.50999999999999</ele>
        <time>2019-09-01T12:17:45Z</time>
      </trkpt>
      <trkpt lat="57.307875975966454" lon="-3.308801036328077">
        <ele>301.02999999999997</ele>
        <time>2019-09-01T12:17:46Z</time>
      </trkpt>
      <trkpt lat="57.309191012755036" lon="-3.30874596722424">
        <ele>293.81999999999999</ele>
        <time>2019-09-01T12:17:53Z</time>
      </trkpt>
      <trkpt lat="57.309379018843174" lon="-3.308792989701033">
        <ele>293.81999999999999</ele>
        <time>2019-09-01T12:17:54Z</time>
      </trkpt>
      <trkpt lat="57.310303039848804" lon="-3.309268997982144">
        <ele>290.94</ele>
        <time>2019-09-01T12:17:59Z</time>
      </trkpt>
      <trkpt lat="57.310471013188362" lon="-3.309391960501671">
        <ele>290.45999999999998</ele>
        <time>2019-09-01T12:18:00Z</time>
      </trkpt>
      <trkpt lat="57.310628006234765" lon="-3.309566974639893">
        <ele>289.97000000000003</ele>
        <time>2019-09-01T12:18:01Z</time>
      </trkpt>
      <trkpt lat="57.311124969273806" lon="-3.310125041753054">
        <ele>288.05000000000001</ele>
        <time>2019-09-01T12:18:04Z</time>
      </trkpt>
      <trkpt lat="57.311316998675466" lon="-3.310252027586103">
        <ele>287.08999999999997</ele>
        <time>2019-09-01T12:18:05Z</time>
      </trkpt>
      <trkpt lat="57.31285298243165" lon="-3.311099018901587">
        <ele>281.31999999999999</ele>
        <time>2019-09-01T12:18:13Z</time>
      </trkpt>
      <trkpt lat="57.314085038378835" lon="-3.311640992760658">
        <ele>277.95999999999998</ele>
        <time>2019-09-01T12:18:20Z</time>
      </trkpt>
      <trkpt lat="57.314247982576489" lon="-3.311758004128933">
        <ele>277.48000000000002</ele>
        <time>2019-09-01T12:18:21Z</time>
      </trkpt>
      <trkpt lat="57.315334025770426" lon="-3.312752014026046">
        <ele>273.14999999999998</ele>
        <time>2019-09-01T12:18:28Z</time>
      </trkpt>
      <trkpt lat="57.315477021038532" lon="-3.312852010130882">
        <ele>272.67000000000002</ele>
        <time>2019-09-01T12:18:29Z</time>
      </trkpt>
      <trkpt lat="57.315627979114652" lon="-3.312913030385971">
        <ele>272.67000000000002</ele>
        <time>2019-09-01T12:18:30Z</time>
      </trkpt>
      <trkpt lat="57.31579503044486" lon="-3.312906995415688">
        <ele>271.70999999999998</ele>
        <time>2019-09-01T12:18:31Z</time>
      </trkpt>
      <trkpt lat="57.31596996076405" lon="-3.312898026779294">
        <ele>271.23000000000002</ele>
        <time>2019-09-01T12:18:32Z</time>
      </trkpt>
      <trkpt lat="57.316156961023808" lon="-3.312875982373953">
        <ele>270.26999999999998</ele>
        <time>2019-09-01T12:18:33Z</time>
      </trkpt>
      <trkpt lat="57.316528027877212" lon="-3.312789984047413">
        <ele>268.35000000000002</ele>
        <time>2019-09-01T12:18:35Z</time>
      </trkpt>
      <trkpt lat="57.317421035841107" lon="-3.312201993539929">
        <ele>265.45999999999998</ele>
        <time>2019-09-01T12:18:41Z</time>
      </trkpt>
      <trkpt lat="57.317741978913546" lon="-3.311893036589027">
        <ele>264.98000000000002</ele>
        <time>2019-09-01T12:18:45Z</time>
      </trkpt>
      <trkpt lat="57.31781498529017" lon="-3.311819024384022">
        <ele>264.98000000000002</ele>
        <time>2019-09-01T12:18:46Z</time>
      </trkpt>
      <trkpt lat="57.318510012701154" lon="-3.311131037771702">
        <ele>262.10000000000002</ele>
        <time>2019-09-01T12:18:54Z</time>
      </trkpt>
      <trkpt lat="57.318697012960911" lon="-3.310964992269874">
        <ele>260.64999999999998</ele>
        <time>2019-09-01T12:18:56Z</time>
      </trkpt>
      <trkpt lat="57.318797009065747" lon="-3.310900032520294">
        <ele>259.69</ele>
        <time>2019-09-01T12:18:57Z</time>
      </trkpt>
      <trkpt lat="57.318898010998964" lon="-3.310833983123303">
        <ele>259.20999999999998</ele>
        <time>2019-09-01T12:18:58Z</time>
      </trkpt>
      <trkpt lat="57.319004964083433" lon="-3.31076399423182">
        <ele>258.25</ele>
        <time>2019-09-01T12:18:59Z</time>
      </trkpt>
      <trkpt lat="57.319129016250372" lon="-3.310683025047183">
        <ele>257.29000000000002</ele>
        <time>2019-09-01T12:19:00Z</time>
      </trkpt>
      <trkpt lat="57.319238986819983" lon="-3.31063399091363">
        <ele>256.32999999999998</ele>
        <time>2019-09-01T12:19:01Z</time>
      </trkpt>
      <trkpt lat="57.319478960707784" lon="-3.31052795983851">
        <ele>254.88999999999999</ele>
        <time>2019-09-01T12:19:03Z</time>
      </trkpt>
      <trkpt lat="57.319588009268045" lon="-3.31042000092566">
        <ele>253.93000000000001</ele>
        <time>2019-09-01T12:19:04Z</time>
      </trkpt>
      <trkpt lat="57.319689011201262" lon="-3.310292009264231">
        <ele>253.44</ele>
        <time>2019-09-01T12:19:05Z</time>
      </trkpt>
      <trkpt lat="57.319783978164196" lon="-3.310170974582434">
        <ele>253.44</ele>
        <time>2019-09-01T12:19:06Z</time>
      </trkpt>
      <trkpt lat="57.319882968440652" lon="-3.310081036761403">
        <ele>252.96000000000001</ele>
        <time>2019-09-01T12:19:07Z</time>
      </trkpt>
      <trkpt lat="57.319966033101082" lon="-3.310038959607482">
        <ele>252.96000000000001</ele>
        <time>2019-09-01T12:19:08Z</time>
      </trkpt>
      <trkpt lat="57.320097964257002" lon="-3.310063015669584">
        <ele>253.44</ele>
        <time>2019-09-01T12:19:09Z</time>
      </trkpt>
      <trkpt lat="57.320211958140135" lon="-3.310083970427513">
        <ele>253.93000000000001</ele>
        <time>2019-09-01T12:19:10Z</time>
      </trkpt>
      <trkpt lat="57.321390034630895" lon="-3.310225959867239">
        <ele>256.32999999999998</ele>
        <time>2019-09-01T12:19:19Z</time>
      </trkpt>
      <trkpt lat="57.322125965729356" lon="-3.310422012582421">
        <ele>252.96000000000001</ele>
        <time>2019-09-01T12:19:24Z</time>
      </trkpt>
      <trkpt lat="57.32228203676641" lon="-3.310507005080581">
        <ele>252.47999999999999</ele>
        <time>2019-09-01T12:19:25Z</time>
      </trkpt>
      <trkpt lat="57.32243500649929" lon="-3.310640025883913">
        <ele>251.52000000000001</ele>
        <time>2019-09-01T12:19:26Z</time>
      </trkpt>
      <trkpt lat="57.322593005374074" lon="-3.310776986181736">
        <ele>250.56</ele>
        <time>2019-09-01T12:19:27Z</time>
      </trkpt>
      <trkpt lat="57.322751004248857" lon="-3.310915036126971">
        <ele>249.12</ele>
        <time>2019-09-01T12:19:28Z</time>
      </trkpt>
      <trkpt lat="57.323356010019779" lon="-3.311369000002742">
        <ele>244.78999999999999</ele>
        <time>2019-09-01T12:19:32Z</time>
      </trkpt>
      <trkpt lat="57.32479996047914" lon="-3.311764039099217">
        <ele>238.06</ele>
        <time>2019-09-01T12:19:40Z</time>
      </trkpt>
      <trkpt lat="57.326665017753839" lon="-3.312319004908204">
        <ele>243.83000000000001</ele>
        <time>2019-09-01T12:19:50Z</time>
      </trkpt>
      <trkpt lat="57.327679982408881" lon="-3.313011014834046">
        <ele>245.27000000000001</ele>
        <time>2019-09-01T12:19:56Z</time>
      </trkpt>
      <trkpt lat="57.32896601781249" lon="-3.314097980037332">
        <ele>244.78999999999999</ele>
        <time>2019-09-01T12:20:04Z</time>
      </trkpt>
      <trkpt lat="57.330369986593723" lon="-3.315322995185852">
        <ele>244.31</ele>
        <time>2019-09-01T12:20:12Z</time>
      </trkpt>
      <trkpt lat="57.332116020843387" lon="-3.315910985693336">
        <ele>244.78999999999999</ele>
        <time>2019-09-01T12:20:20Z</time>
      </trkpt>
      <trkpt lat="57.333530969917774" lon="-3.316518003121018">
        <ele>246.22999999999999</ele>
        <time>2019-09-01T12:20:28Z</time>
      </trkpt>
      <trkpt lat="57.335049016401172" lon="-3.317089984193444">
        <ele>247.68000000000001</ele>
        <time>2019-09-01T12:20:39Z</time>
      </trkpt>
      <trkpt lat="57.335603982210159" lon="-3.317206995561719">
        <ele>247.19999999999999</ele>
        <time>2019-09-01T12:20:44Z</time>
      </trkpt>
      <trkpt lat="57.335824007168412" lon="-3.317270027473569">
        <ele>246.72</ele>
        <time>2019-09-01T12:20:46Z</time>
      </trkpt>
      <trkpt lat="57.335930038243532" lon="-3.317373963072896">
        <ele>246.72</ele>
        <time>2019-09-01T12:20:47Z</time>
      </trkpt>
      <trkpt lat="57.336036991328001" lon="-3.317477982491255">
        <ele>246.72</ele>
        <time>2019-09-01T12:20:48Z</time>
      </trkpt>
      <trkpt lat="57.336346032097936" lon="-3.317779982462525">
        <ele>246.72</ele>
        <time>2019-09-01T12:20:51Z</time>
      </trkpt>
      <trkpt lat="57.336445022374392" lon="-3.317876039072871">
        <ele>246.72</ele>
        <time>2019-09-01T12:20:52Z</time>
      </trkpt>
      <trkpt lat="57.336545018479228" lon="-3.317973017692566">
        <ele>246.72</ele>
        <time>2019-09-01T12:20:53Z</time>
      </trkpt>
      <trkpt lat="57.336650965735316" lon="-3.318077037110925">
        <ele>246.22999999999999</ele>
        <time>2019-09-01T12:20:54Z</time>
      </trkpt>
      <trkpt lat="57.336769988760352" lon="-3.318151971325278">
        <ele>246.22999999999999</ele>
        <time>2019-09-01T12:20:55Z</time>
      </trkpt>
      <trkpt lat="57.33689596876502" lon="-3.318229001015425">
        <ele>246.22999999999999</ele>
        <time>2019-09-01T12:20:56Z</time>
      </trkpt>
      <trkpt lat="57.33702496625483" lon="-3.318307036533952">
        <ele>246.22999999999999</ele>
        <time>2019-09-01T12:20:57Z</time>
      </trkpt>
      <trkpt lat="57.338191978633404" lon="-3.318983959034085">
        <ele>248.16</ele>
        <time>2019-09-01T12:21:07Z</time>
      </trkpt>
      <trkpt lat="57.338792039081454" lon="-3.319080015644431">
        <ele>249.12</ele>
        <time>2019-09-01T12:21:12Z</time>
      </trkpt>
      <trkpt lat="57.338907960802317" lon="-3.319061994552612">
        <ele>249.12</ele>
        <time>2019-09-01T12:21:13Z</time>
      </trkpt>
      <trkpt lat="57.339024972170591" lon="-3.319042967632413">
        <ele>249.12</ele>
        <time>2019-09-01T12:21:14Z</time>
      </trkpt>
      <trkpt lat="57.339137960225344" lon="-3.319001980125904">
        <ele>249.59999999999999</ele>
        <time>2019-09-01T12:21:15Z</time>
      </trkpt>
      <trkpt lat="57.339244997128844" lon="-3.31890600733459">
        <ele>249.59999999999999</ele>
        <time>2019-09-01T12:21:16Z</time>
      </trkpt>
      <trkpt lat="57.3393439874053" lon="-3.318787990137935">
        <ele>250.08000000000001</ele>
        <time>2019-09-01T12:21:17Z</time>
      </trkpt>
      <trkpt lat="57.339434009045362" lon="-3.318647006526589">
        <ele>250.56</ele>
        <time>2019-09-01T12:21:18Z</time>
      </trkpt>
      <trkpt lat="57.339522019028664" lon="-3.318510968238115">
        <ele>251.03999999999999</ele>
        <time>2019-09-01T12:21:19Z</time>
      </trkpt>
      <trkpt lat="57.339607011526823" lon="-3.318377025425434">
        <ele>251.03999999999999</ele>
        <time>2019-09-01T12:21:20Z</time>
      </trkpt>
      <trkpt lat="57.339753024280071" lon="-3.318050969392061">
        <ele>252</ele>
        <time>2019-09-01T12:21:22Z</time>
      </trkpt>
      <trkpt lat="57.339836005121469" lon="-3.317848965525627">
        <ele>252</ele>
        <time>2019-09-01T12:21:23Z</time>
      </trkpt>
      <trkpt lat="57.340276977047324" lon="-3.316291021183133">
        <ele>252.96000000000001</ele>
        <time>2019-09-01T12:21:28Z</time>
      </trkpt>
      <trkpt lat="57.340751979500055" lon="-3.314679013565183">
        <ele>252.47999999999999</ele>
        <time>2019-09-01T12:21:34Z</time>
      </trkpt>
      <trkpt lat="57.340815011411905" lon="-3.314575999975205">
        <ele>252.47999999999999</ele>
        <time>2019-09-01T12:21:35Z</time>
      </trkpt>
      <trkpt lat="57.340862033888698" lon="-3.314500981941819">
        <ele>252.47999999999999</ele>
        <time>2019-09-01T12:21:36Z</time>
      </trkpt>
      <trkpt lat="57.340905033051968" lon="-3.314461000263691">
        <ele>252.47999999999999</ele>
        <time>2019-09-01T12:21:37Z</time>
      </trkpt>
      <trkpt lat="57.340937973931432" lon="-3.314464017748833">
        <ele>252.47999999999999</ele>
        <time>2019-09-01T12:21:38Z</time>
      </trkpt>
      <trkpt lat="57.340959012508392" lon="-3.314466029405594">
        <ele>252</ele>
        <time>2019-09-01T12:21:39Z</time>
      </trkpt>
      <trkpt lat="57.341037970036268" lon="-3.314473992213607">
        <ele>251.52000000000001</ele>
        <time>2019-09-01T12:21:46Z</time>
      </trkpt>
      <trkpt lat="57.341090021654963" lon="-3.31448002718389">
        <ele>251.03999999999999</ele>
        <time>2019-09-01T12:21:47Z</time>
      </trkpt>
      <trkpt lat="57.341135032474995" lon="-3.314423030242324">
        <ele>251.03999999999999</ele>
        <time>2019-09-01T12:21:48Z</time>
      </trkpt>
      <trkpt lat="57.341179037466645" lon="-3.314348012208939">
        <ele>251.03999999999999</ele>
        <time>2019-09-01T12:21:49Z</time>
      </trkpt>
      <trkpt lat="57.341226981952786" lon="-3.31426695920527">
        <ele>251.03999999999999</ele>
        <time>2019-09-01T12:21:50Z</time>
      </trkpt>
      <trkpt lat="57.341290013864636" lon="-3.314195964485407">
        <ele>251.03999999999999</ele>
        <time>2019-09-01T12:21:51Z</time>
      </trkpt>
      <trkpt lat="57.341355979442596" lon="-3.314148019999266">
        <ele>251.03999999999999</ele>
        <time>2019-09-01T12:21:52Z</time>
      </trkpt>
      <trkpt lat="57.341428985819221" lon="-3.31409496255219">
        <ele>251.03999999999999</ele>
        <time>2019-09-01T12:21:53Z</time>
      </trkpt>
      <trkpt lat="57.342212023213506" lon="-3.313450980931521">
        <ele>251.03999999999999</ele>
        <time>2019-09-01T12:22:01Z</time>
      </trkpt>
      <trkpt lat="57.343450030311942" lon="-3.312032008543611">
        <ele>256.81</ele>
        <time>2019-09-01T12:22:11Z</time>
      </trkpt>
      <trkpt lat="57.345239985734224" lon="-3.310481021180749">
        <ele>263.06</ele>
        <time>2019-09-01T12:22:23Z</time>
      </trkpt>
      <trkpt lat="57.346997000277042" lon="-3.309511989355087">
        <ele>267.38</ele>
        <time>2019-09-01T12:22:33Z</time>
      </trkpt>
      <trkpt lat="57.34823701903224" lon="-3.308654017746449">
        <ele>265.45999999999998</ele>
        <time>2019-09-01T12:22:41Z</time>
      </trkpt>
      <trkpt lat="57.348357969895005" lon="-3.308510016649962">
        <ele>264.98000000000002</ele>
        <time>2019-09-01T12:22:42Z</time>
      </trkpt>
      <trkpt lat="57.348477998748422" lon="-3.308352017775178">
        <ele>264.5</ele>
        <time>2019-09-01T12:22:43Z</time>
      </trkpt>
      <trkpt lat="57.348580006510019" lon="-3.30814003944397">
        <ele>264.01999999999998</ele>
        <time>2019-09-01T12:22:44Z</time>
      </trkpt>
      <trkpt lat="57.348686959594488" lon="-3.307915991172195">
        <ele>263.54000000000002</ele>
        <time>2019-09-01T12:22:45Z</time>
      </trkpt>
      <trkpt lat="57.349551972001791" lon="-3.306110026314855">
        <ele>262.10000000000002</ele>
        <time>2019-09-01T12:22:53Z</time>
      </trkpt>
      <trkpt lat="57.350519997999072" lon="-3.304198030382395">
        <ele>260.64999999999998</ele>
        <time>2019-09-01T12:23:02Z</time>
      </trkpt>
      <trkpt lat="57.351562958210707" lon="-3.301902981474996">
        <ele>259.20999999999998</ele>
        <time>2019-09-01T12:23:11Z</time>
      </trkpt>
      <trkpt lat="57.35184702090919" lon="-3.300876030698419">
        <ele>256.81</ele>
        <time>2019-09-01T12:23:15Z</time>
      </trkpt>
      <trkpt lat="57.351884990930557" lon="-3.300619041547179">
        <ele>255.84999999999999</ele>
        <time>2019-09-01T12:23:16Z</time>
      </trkpt>
      <trkpt lat="57.352008037269115" lon="-3.299911022186279">
        <ele>253.93000000000001</ele>
        <time>2019-09-01T12:23:19Z</time>
      </trkpt>
      <trkpt lat="57.352085988968611" lon="-3.299725027754903">
        <ele>253.44</ele>
        <time>2019-09-01T12:23:20Z</time>
      </trkpt>
      <trkpt lat="57.352164024487138" lon="-3.299559988081455">
        <ele>252.96000000000001</ele>
        <time>2019-09-01T12:23:21Z</time>
      </trkpt>
      <trkpt lat="57.35227600671351" lon="-3.29948203638196">
        <ele>252.96000000000001</ele>
        <time>2019-09-01T12:23:22Z</time>
      </trkpt>
      <trkpt lat="57.352388994768262" lon="-3.299417998641729">
        <ele>252.96000000000001</ele>
        <time>2019-09-01T12:23:23Z</time>
      </trkpt>
      <trkpt lat="57.352527966722846" lon="-3.299417998641729">
        <ele>253.44</ele>
        <time>2019-09-01T12:23:24Z</time>
      </trkpt>
      <trkpt lat="57.352674985304475" lon="-3.299417998641729">
        <ele>253.44</ele>
        <time>2019-09-01T12:23:25Z</time>
      </trkpt>
      <trkpt lat="57.353096008300781" lon="-3.299340968951583">
        <ele>253.93000000000001</ele>
        <time>2019-09-01T12:23:28Z</time>
      </trkpt>
      <trkpt lat="57.353240009397268" lon="-3.29926704056561">
        <ele>253.93000000000001</ele>
        <time>2019-09-01T12:23:29Z</time>
      </trkpt>
      <trkpt lat="57.353386022150517" lon="-3.299154974520207">
        <ele>253.44</ele>
        <time>2019-09-01T12:23:30Z</time>
      </trkpt>
      <trkpt lat="57.353547038510442" lon="-3.299031006172299">
        <ele>252.96000000000001</ele>
        <time>2019-09-01T12:23:31Z</time>
      </trkpt>
      <trkpt lat="57.353686010465026" lon="-3.298874013125897">
        <ele>252.47999999999999</ele>
        <time>2019-09-01T12:23:32Z</time>
      </trkpt>
      <trkpt lat="57.353840991854668" lon="-3.298700004816055">
        <ele>251.52000000000001</ele>
        <time>2019-09-01T12:23:33Z</time>
      </trkpt>
      <trkpt lat="57.354885963723063" lon="-3.297580014914274">
        <ele>247.68000000000001</ele>
        <time>2019-09-01T12:23:40Z</time>
      </trkpt>
      <trkpt lat="57.355001969262958" lon="-3.29735697247088">
        <ele>247.68000000000001</ele>
        <time>2019-09-01T12:23:41Z</time>
      </trkpt>
      <trkpt lat="57.356004025787115" lon="-3.295269962400198">
        <ele>246.22999999999999</ele>
        <time>2019-09-01T12:23:49Z</time>
      </trkpt>
      <trkpt lat="57.357098031789064" lon="-3.292224984616041">
        <ele>250.56</ele>
        <time>2019-09-01T12:23:59Z</time>
      </trkpt>
      <trkpt lat="57.357981987297535" lon="-3.289484018459916">
        <ele>254.88999999999999</ele>
        <time>2019-09-01T12:24:09Z</time>
      </trkpt>
      <trkpt lat="57.358949007466435" lon="-3.287461968138814">
        <ele>257.29000000000002</ele>
        <time>2019-09-01T12:24:17Z</time>
      </trkpt>
      <trkpt lat="57.359836986288428" lon="-3.28491697087884">
        <ele>259.20999999999998</ele>
        <time>2019-09-01T12:24:26Z</time>
      </trkpt>
      <trkpt lat="57.360449032858014" lon="-3.282890981063247">
        <ele>262.10000000000002</ele>
        <time>2019-09-01T12:24:33Z</time>
      </trkpt>
      <trkpt lat="57.361361989751458" lon="-3.280158983543515">
        <ele>266.89999999999998</ele>
        <time>2019-09-01T12:24:42Z</time>
      </trkpt>
      <trkpt lat="57.362455995753407" lon="-3.276661969721317">
        <ele>271.23000000000002</ele>
        <time>2019-09-01T12:24:52Z</time>
      </trkpt>
      <trkpt lat="57.362839970737696" lon="-3.275510966777802">
        <ele>272.19</ele>
        <time>2019-09-01T12:24:56Z</time>
      </trkpt>
      <trkpt lat="57.362909959629178" lon="-3.27520796097815">
        <ele>272.67000000000002</ele>
        <time>2019-09-01T12:24:57Z</time>
      </trkpt>
      <trkpt lat="57.362961005419493" lon="-3.274889029562473">
        <ele>273.14999999999998</ele>
        <time>2019-09-01T12:24:58Z</time>
      </trkpt>
      <trkpt lat="57.363314973190427" lon="-3.272042032331228">
        <ele>280.36000000000001</ele>
        <time>2019-09-01T12:25:07Z</time>
      </trkpt>
      <trkpt lat="57.363846972584724" lon="-3.268724977970123">
        <ele>286.13</ele>
        <time>2019-09-01T12:25:17Z</time>
      </trkpt>
      <trkpt lat="57.363917967304587" lon="-3.268452985212207">
        <ele>286.13</ele>
        <time>2019-09-01T12:25:18Z</time>
      </trkpt>
      <trkpt lat="57.363997008651495" lon="-3.268154002726078">
        <ele>287.08999999999997</ele>
        <time>2019-09-01T12:25:19Z</time>
      </trkpt>
      <trkpt lat="57.364869983866811" lon="-3.265754012390971">
        <ele>292.38</ele>
        <time>2019-09-01T12:25:27Z</time>
      </trkpt>
      <trkpt lat="57.365175001323223" lon="-3.264984972774983">
        <ele>294.77999999999997</ele>
        <time>2019-09-01T12:25:30Z</time>
      </trkpt>
      <trkpt lat="57.365301987156272" lon="-3.264766037464142">
        <ele>295.74000000000001</ele>
        <time>2019-09-01T12:25:31Z</time>
      </trkpt>
      <trkpt lat="57.366739986464381" lon="-3.262697970494628">
        <ele>301.02999999999997</ele>
        <time>2019-09-01T12:25:41Z</time>
      </trkpt>
      <trkpt lat="57.367043998092413" lon="-3.262266973033547">
        <ele>301.99000000000001</ele>
        <time>2019-09-01T12:25:43Z</time>
      </trkpt>
      <trkpt lat="57.367180036380887" lon="-3.262006966397166">
        <ele>301.99000000000001</ele>
        <time>2019-09-01T12:25:44Z</time>
      </trkpt>
      <trkpt lat="57.368261972442269" lon="-3.259305981919169">
        <ele>301.02999999999997</ele>
        <time>2019-09-01T12:25:53Z</time>
      </trkpt>
      <trkpt lat="57.36847504042089" lon="-3.25879099778831">
        <ele>302.94999999999999</ele>
        <time>2019-09-01T12:25:55Z</time>
      </trkpt>
      <trkpt lat="57.369714975357056" lon="-3.256584964692593">
        <ele>313.05000000000001</ele>
        <time>2019-09-01T12:26:04Z</time>
      </trkpt>
      <trkpt lat="57.370758019387722" lon="-3.254323024302721">
        <ele>317.37</ele>
        <time>2019-09-01T12:26:12Z</time>
      </trkpt>
      <trkpt lat="57.371836015954614" lon="-3.252407005056739">
        <ele>316.41000000000003</ele>
        <time>2019-09-01T12:26:20Z</time>
      </trkpt>
      <trkpt lat="57.372391987591982" lon="-3.250713022425771">
        <ele>316.88999999999999</ele>
        <time>2019-09-01T12:26:26Z</time>
      </trkpt>
      <trkpt lat="57.3727519903332" lon="-3.249289020895958">
        <ele>323.13999999999999</ele>
        <time>2019-09-01T12:26:32Z</time>
      </trkpt>
      <trkpt lat="57.372965980321169" lon="-3.248417973518372">
        <ele>326.01999999999998</ele>
        <time>2019-09-01T12:26:36Z</time>
      </trkpt>
      <trkpt lat="57.372997999191284" lon="-3.248179005458951">
        <ele>326.99000000000001</ele>
        <time>2019-09-01T12:26:37Z</time>
      </trkpt>
      <trkpt lat="57.373029012233019" lon="-3.247944982722402">
        <ele>327.47000000000003</ele>
        <time>2019-09-01T12:26:38Z</time>
      </trkpt>
      <trkpt lat="57.373049966990948" lon="-3.247709032148123">
        <ele>327.94999999999999</ele>
        <time>2019-09-01T12:26:39Z</time>
      </trkpt>
      <trkpt lat="57.373039992526174" lon="-3.247456988319755">
        <ele>328.43000000000001</ele>
        <time>2019-09-01T12:26:40Z</time>
      </trkpt>
      <trkpt lat="57.373027000576258" lon="-3.247207039967179">
        <ele>328.91000000000003</ele>
        <time>2019-09-01T12:26:41Z</time>
      </trkpt>
      <trkpt lat="57.372990036383271" lon="-3.246957007795572">
        <ele>329.38999999999999</ele>
        <time>2019-09-01T12:26:42Z</time>
      </trkpt>
      <trkpt lat="57.372952988371253" lon="-3.246704963967204">
        <ele>329.38999999999999</ele>
        <time>2019-09-01T12:26:43Z</time>
      </trkpt>
      <trkpt lat="57.372890040278435" lon="-3.246465995907784">
        <ele>329.87</ele>
        <time>2019-09-01T12:26:44Z</time>
      </trkpt>
      <trkpt lat="57.372615030035377" lon="-3.245539963245392">
        <ele>330.82999999999998</ele>
        <time>2019-09-01T12:26:48Z</time>
      </trkpt>
      <trkpt lat="57.372571025043726" lon="-3.24529797770083">
        <ele>331.31</ele>
        <time>2019-09-01T12:26:49Z</time>
      </trkpt>
      <trkpt lat="57.37253699451685" lon="-3.245087005198002">
        <ele>331.31</ele>
        <time>2019-09-01T12:26:50Z</time>
      </trkpt>
      <trkpt lat="57.37251503393054" lon="-3.244766984134913">
        <ele>331.31</ele>
        <time>2019-09-01T12:26:51Z</time>
      </trkpt>
      <trkpt lat="57.37249500118196" lon="-3.244485016912222">
        <ele>330.82999999999998</ele>
        <time>2019-09-01T12:26:52Z</time>
      </trkpt>
      <trkpt lat="57.37247496843338" lon="-3.244195003062487">
        <ele>330.82999999999998</ele>
        <time>2019-09-01T12:26:53Z</time>
      </trkpt>
      <trkpt lat="57.372343959286809" lon="-3.242113022133708">
        <ele>329.87</ele>
        <time>2019-09-01T12:27:00Z</time>
      </trkpt>
      <trkpt lat="57.372343959286809" lon="-3.241842035204172">
        <ele>329.38999999999999</ele>
        <time>2019-09-01T12:27:01Z</time>
      </trkpt>
      <trkpt lat="57.372362986207008" lon="-3.241579011082649">
        <ele>328.91000000000003</ele>
        <time>2019-09-01T12:27:02Z</time>
      </trkpt>
      <trkpt lat="57.372401962056756" lon="-3.24130198918283">
        <ele>328.43000000000001</ele>
        <time>2019-09-01T12:27:03Z</time>
      </trkpt>
      <trkpt lat="57.372442027553916" lon="-3.241013986989856">
        <ele>327.47000000000003</ele>
        <time>2019-09-01T12:27:04Z</time>
      </trkpt>
      <trkpt lat="57.372497012838721" lon="-3.240725984796882">
        <ele>326.5</ele>
        <time>2019-09-01T12:27:05Z</time>
      </trkpt>
      <trkpt lat="57.372927004471421" lon="-3.237870018929243">
        <ele>318.81</ele>
        <time>2019-09-01T12:27:14Z</time>
      </trkpt>
      <trkpt lat="57.372996993362904" lon="-3.237287979573011">
        <ele>317.37</ele>
        <time>2019-09-01T12:27:16Z</time>
      </trkpt>
      <trkpt lat="57.373572997748852" lon="-3.234876003116369">
        <ele>316.88999999999999</ele>
        <time>2019-09-01T12:27:24Z</time>
      </trkpt>
      <trkpt lat="57.374139027670026" lon="-3.232390014454722">
        <ele>309.68000000000001</ele>
        <time>2019-09-01T12:27:33Z</time>
      </trkpt>
      <trkpt lat="57.37475099042058" lon="-3.229795983061194">
        <ele>306.31999999999999</ele>
        <time>2019-09-01T12:27:43Z</time>
      </trkpt>
      <trkpt lat="57.374833971261978" lon="-3.229598002508283">
        <ele>306.31999999999999</ele>
        <time>2019-09-01T12:27:44Z</time>
      </trkpt>
      <trkpt lat="57.374921981245279" lon="-3.229394992813468">
        <ele>306.31999999999999</ele>
        <time>2019-09-01T12:27:45Z</time>
      </trkpt>
      <trkpt lat="57.376069966703653" lon="-3.227378977462649">
        <ele>306.31999999999999</ele>
        <time>2019-09-01T12:27:56Z</time>
      </trkpt>
      <trkpt lat="57.377173025161028" lon="-3.226013984531164">
        <ele>305.36000000000001</ele>
        <time>2019-09-01T12:28:05Z</time>
      </trkpt>
      <trkpt lat="57.378203999251127" lon="-3.224681010469794">
        <ele>305.36000000000001</ele>
        <time>2019-09-01T12:28:14Z</time>
      </trkpt>
      <trkpt lat="57.37958500161767" lon="-3.22318802587688">
        <ele>305.83999999999997</ele>
        <time>2019-09-01T12:28:24Z</time>
      </trkpt>
      <trkpt lat="57.380848992615938" lon="-3.222620990127325">
        <ele>300.06999999999999</ele>
        <time>2019-09-01T12:28:33Z</time>
      </trkpt>
      <trkpt lat="57.382192024961114" lon="-3.221963010728359">
        <ele>296.69999999999999</ele>
        <time>2019-09-01T12:28:43Z</time>
      </trkpt>
      <trkpt lat="57.383049996569753" lon="-3.221187014132738">
        <ele>297.18000000000001</ele>
        <time>2019-09-01T12:28:51Z</time>
      </trkpt>
      <trkpt lat="57.384145008400083" lon="-3.220198033377528">
        <ele>297.67000000000002</ele>
        <time>2019-09-01T12:28:59Z</time>
      </trkpt>
      <trkpt lat="57.38540698774159" lon="-3.219433017075062">
        <ele>297.18000000000001</ele>
        <time>2019-09-01T12:29:06Z</time>
      </trkpt>
      <trkpt lat="57.386562013998628" lon="-3.218388967216015">
        <ele>298.63</ele>
        <time>2019-09-01T12:29:13Z</time>
      </trkpt>
      <trkpt lat="57.388277035206556" lon="-3.21616399101913">
        <ele>301.99000000000001</ele>
        <time>2019-09-01T12:29:24Z</time>
      </trkpt>
      <trkpt lat="57.389609003439546" lon="-3.214496998116374">
        <ele>298.14999999999998</ele>
        <time>2019-09-01T12:29:32Z</time>
      </trkpt>
      <trkpt lat="57.390923034399748" lon="-3.212798992171884">
        <ele>294.30000000000001</ele>
        <time>2019-09-01T12:29:40Z</time>
      </trkpt>
      <trkpt lat="57.391510019078851" lon="-3.211642038077116">
        <ele>291.89999999999998</ele>
        <time>2019-09-01T12:29:45Z</time>
      </trkpt>
      <trkpt lat="57.39159400574863" lon="-3.211383959278464">
        <ele>290.94</ele>
        <time>2019-09-01T12:29:46Z</time>
      </trkpt>
      <trkpt lat="57.391635999083519" lon="-3.21111598983407">
        <ele>290.45999999999998</ele>
        <time>2019-09-01T12:29:47Z</time>
      </trkpt>
      <trkpt lat="57.391775976866484" lon="-3.210261035710573">
        <ele>288.05000000000001</ele>
        <time>2019-09-01T12:29:50Z</time>
      </trkpt>
      <trkpt lat="57.392465975135565" lon="-3.208287013694644">
        <ele>281.80000000000001</ele>
        <time>2019-09-01T12:29:57Z</time>
      </trkpt>
      <trkpt lat="57.394085023552179" lon="-3.204940035939217">
        <ele>279.88</ele>
        <time>2019-09-01T12:30:10Z</time>
      </trkpt>
      <trkpt lat="57.395235020667315" lon="-3.202795023098588">
        <ele>281.31999999999999</ele>
        <time>2019-09-01T12:30:18Z</time>
      </trkpt>
      <trkpt lat="57.39634201861918" lon="-3.200281038880348">
        <ele>280.83999999999997</ele>
        <time>2019-09-01T12:30:26Z</time>
      </trkpt>
      <trkpt lat="57.397464020177722" lon="-3.197507970035076">
        <ele>281.31999999999999</ele>
        <time>2019-09-01T12:30:36Z</time>
      </trkpt>
      <trkpt lat="57.398441014811397" lon="-3.195738969370723">
        <ele>279.39999999999998</ele>
        <time>2019-09-01T12:30:43Z</time>
      </trkpt>
      <trkpt lat="57.399477018043399" lon="-3.193250969052315">
        <ele>277.48000000000002</ele>
        <time>2019-09-01T12:30:52Z</time>
      </trkpt>
      <trkpt lat="57.399696037173271" lon="-3.192844027653337">
        <ele>276.04000000000002</ele>
        <time>2019-09-01T12:30:54Z</time>
      </trkpt>
      <trkpt lat="57.399809025228024" lon="-3.192669013515115">
        <ele>275.56</ele>
        <time>2019-09-01T12:30:55Z</time>
      </trkpt>
      <trkpt lat="57.399938022717834" lon="-3.192501962184906">
        <ele>275.06999999999999</ele>
        <time>2019-09-01T12:30:56Z</time>
      </trkpt>
      <trkpt lat="57.400948964059353" lon="-3.191190026700497">
        <ele>270.26999999999998</ele>
        <time>2019-09-01T12:31:02Z</time>
      </trkpt>
      <trkpt lat="57.402749983593822" lon="-3.188571017235518">
        <ele>264.01999999999998</ele>
        <time>2019-09-01T12:31:11Z</time>
      </trkpt>
      <trkpt lat="57.404179014265537" lon="-3.185897022485733">
        <ele>260.17000000000002</ele>
        <time>2019-09-01T12:31:20Z</time>
      </trkpt>
      <trkpt lat="57.404758958145976" lon="-3.183792997151613">
        <ele>260.64999999999998</ele>
        <time>2019-09-01T12:31:26Z</time>
      </trkpt>
      <trkpt lat="57.405008990317583" lon="-3.183091012760997">
        <ele>261.62</ele>
        <time>2019-09-01T12:31:29Z</time>
      </trkpt>
      <trkpt lat="57.405099011957645" lon="-3.18284198641777">
        <ele>262.10000000000002</ele>
        <time>2019-09-01T12:31:30Z</time>
      </trkpt>
      <trkpt lat="57.406515972688794" lon="-3.180243009701371">
        <ele>261.62</ele>
        <time>2019-09-01T12:31:41Z</time>
      </trkpt>
      <trkpt lat="57.407028023153543" lon="-3.179081026464701">
        <ele>262.10000000000002</ele>
        <time>2019-09-01T12:31:46Z</time>
      </trkpt>
      <trkpt lat="57.407148974016309" lon="-3.178899977356195">
        <ele>261.62</ele>
        <time>2019-09-01T12:31:47Z</time>
      </trkpt>
      <trkpt lat="57.407281994819641" lon="-3.178750025108457">
        <ele>261.62</ele>
        <time>2019-09-01T12:31:48Z</time>
      </trkpt>
      <trkpt lat="57.407405963167548" lon="-3.178610969334841">
        <ele>261.62</ele>
        <time>2019-09-01T12:31:49Z</time>
      </trkpt>
      <trkpt lat="57.407523980364203" lon="-3.178407037630677">
        <ele>261.62</ele>
        <time>2019-09-01T12:31:50Z</time>
      </trkpt>
      <trkpt lat="57.407643003389239" lon="-3.17820000462234">
        <ele>261.13999999999999</ele>
        <time>2019-09-01T12:31:51Z</time>
      </trkpt>
      <trkpt lat="57.407733025029302" lon="-3.177908984944224">
        <ele>261.13999999999999</ele>
        <time>2019-09-01T12:31:52Z</time>
      </trkpt>
      <trkpt lat="57.407830003648996" lon="-3.177596004679799">
        <ele>261.13999999999999</ele>
        <time>2019-09-01T12:31:53Z</time>
      </trkpt>
      <trkpt lat="57.407926982268691" lon="-3.177273971959949">
        <ele>260.64999999999998</ele>
        <time>2019-09-01T12:31:54Z</time>
      </trkpt>
      <trkpt lat="57.407995965331793" lon="-3.176926039159298">
        <ele>261.13999999999999</ele>
        <time>2019-09-01T12:31:55Z</time>
      </trkpt>
      <trkpt lat="57.408459987491369" lon="-3.17459000274539">
        <ele>259.69</ele>
        <time>2019-09-01T12:32:03Z</time>
      </trkpt>
      <trkpt lat="57.40865402854979" lon="-3.173883995041251">
        <ele>258.25</ele>
        <time>2019-09-01T12:32:06Z</time>
      </trkpt>
      <trkpt lat="57.408741032704711" lon="-3.173658018931747">
        <ele>257.76999999999998</ele>
        <time>2019-09-01T12:32:07Z</time>
      </trkpt>
      <trkpt lat="57.408837005496025" lon="-3.173446040600538">
        <ele>256.81</ele>
        <time>2019-09-01T12:32:08Z</time>
      </trkpt>
      <trkpt lat="57.408952005207539" lon="-3.173262979835272">
        <ele>255.37</ele>
        <time>2019-09-01T12:32:09Z</time>
      </trkpt>
      <trkpt lat="57.409070022404194" lon="-3.173072962090373">
        <ele>253.93000000000001</ele>
        <time>2019-09-01T12:32:10Z</time>
      </trkpt>
      <trkpt lat="57.409205976873636" lon="-3.172923009842634">
        <ele>252.47999999999999</ele>
        <time>2019-09-01T12:32:11Z</time>
      </trkpt>
      <trkpt lat="57.409346960484982" lon="-3.172812033444643">
        <ele>251.03999999999999</ele>
        <time>2019-09-01T12:32:12Z</time>
      </trkpt>
      <trkpt lat="57.409488027915359" lon="-3.17270097322762">
        <ele>249.59999999999999</ele>
        <time>2019-09-01T12:32:13Z</time>
      </trkpt>
      <trkpt lat="57.409648960456252" lon="-3.172643976286054">
        <ele>248.63999999999999</ele>
        <time>2019-09-01T12:32:14Z</time>
      </trkpt>
      <trkpt lat="57.40981500595808" lon="-3.172610029578209">
        <ele>247.19999999999999</ele>
        <time>2019-09-01T12:32:15Z</time>
      </trkpt>
      <trkpt lat="57.411120990291238" lon="-3.172265030443668">
        <ele>241.91</ele>
        <time>2019-09-01T12:32:22Z</time>
      </trkpt>
      <trkpt lat="57.411289969459176" lon="-3.172171991318464">
        <ele>241.43000000000001</ele>
        <time>2019-09-01T12:32:23Z</time>
      </trkpt>
      <trkpt lat="57.411446962505579" lon="-3.172003012150526">
        <ele>240.94999999999999</ele>
        <time>2019-09-01T12:32:24Z</time>
      </trkpt>
      <trkpt lat="57.411602027714252" lon="-3.171821041032672">
        <ele>240.47</ele>
        <time>2019-09-01T12:32:25Z</time>
      </trkpt>
      <trkpt lat="57.41174602881074" lon="-3.171594981104136">
        <ele>239.99000000000001</ele>
        <time>2019-09-01T12:32:26Z</time>
      </trkpt>
      <trkpt lat="57.411890029907227" lon="-3.171369004994631">
        <ele>239.50999999999999</ele>
        <time>2019-09-01T12:32:27Z</time>
      </trkpt>
      <trkpt lat="57.412154981866479" lon="-3.170952005311847">
        <ele>239.50999999999999</ele>
        <time>2019-09-01T12:32:29Z</time>
      </trkpt>
      <trkpt lat="57.412302000448108" lon="-3.170800041407347">
        <ele>239.99000000000001</ele>
        <time>2019-09-01T12:32:30Z</time>
      </trkpt>
      <trkpt lat="57.413091994822025" lon="-3.170027984306216">
        <ele>241.91</ele>
        <time>2019-09-01T12:32:35Z</time>
      </trkpt>
      <trkpt lat="57.413199031725526" lon="-3.169815000146627">
        <ele>241.91</ele>
        <time>2019-09-01T12:32:36Z</time>
      </trkpt>
      <trkpt lat="57.413312019780278" lon="-3.169582989066839">
        <ele>241.91</ele>
        <time>2019-09-01T12:32:37Z</time>
      </trkpt>
      <trkpt lat="57.413413021713495" lon="-3.169302027672529">
        <ele>241.91</ele>
        <time>2019-09-01T12:32:38Z</time>
      </trkpt>
      <trkpt lat="57.413519974797964" lon="-3.169002961367369">
        <ele>241.43000000000001</ele>
        <time>2019-09-01T12:32:39Z</time>
      </trkpt>
      <trkpt lat="57.413950972259045" lon="-3.167795967310667">
        <ele>239.50999999999999</ele>
        <time>2019-09-01T12:32:43Z</time>
      </trkpt>
      <trkpt lat="57.414092039689422" lon="-3.167566973716021">
        <ele>239.99000000000001</ele>
        <time>2019-09-01T12:32:44Z</time>
      </trkpt>
      <trkpt lat="57.414235034957528" lon="-3.167334040626884">
        <ele>239.99000000000001</ele>
        <time>2019-09-01T12:32:45Z</time>
      </trkpt>
      <trkpt lat="57.414534017443657" lon="-3.166846968233585">
        <ele>239.50999999999999</ele>
        <time>2019-09-01T12:32:47Z</time>
      </trkpt>
      <trkpt lat="57.414701990783215" lon="-3.166572963818908">
        <ele>239.50999999999999</ele>
        <time>2019-09-01T12:32:48Z</time>
      </trkpt>
      <trkpt lat="57.41544303484261" lon="-3.164772028103471">
        <ele>239.02000000000001</ele>
        <time>2019-09-01T12:32:54Z</time>
      </trkpt>
      <trkpt lat="57.415586030110717" lon="-3.164519984275103">
        <ele>238.53999999999999</ele>
        <time>2019-09-01T12:32:55Z</time>
      </trkpt>
      <trkpt lat="57.415874032303691" lon="-3.164001982659102">
        <ele>237.09999999999999</ele>
        <time>2019-09-01T12:32:57Z</time>
      </trkpt>
      <trkpt lat="57.415984002873302" lon="-3.163691014051437">
        <ele>236.62</ele>
        <time>2019-09-01T12:32:58Z</time>
      </trkpt>
      <trkpt lat="57.416308969259262" lon="-3.162774033844471">
        <ele>234.69999999999999</ele>
        <time>2019-09-01T12:33:01Z</time>
      </trkpt>
      <trkpt lat="57.41643100976944" lon="-3.162535987794399">
        <ele>234.22</ele>
        <time>2019-09-01T12:33:02Z</time>
      </trkpt>
      <trkpt lat="57.416574005037546" lon="-3.162333983927965">
        <ele>234.69999999999999</ele>
        <time>2019-09-01T12:33:03Z</time>
      </trkpt>
      <trkpt lat="57.416723035275936" lon="-3.162122005596757">
        <ele>234.69999999999999</ele>
        <time>2019-09-01T12:33:04Z</time>
      </trkpt>
      <trkpt lat="57.41690400056541" lon="-3.161963000893593">
        <ele>235.18000000000001</ele>
        <time>2019-09-01T12:33:05Z</time>
      </trkpt>
      <trkpt lat="57.41709703579545" lon="-3.161821011453867">
        <ele>235.66</ele>
        <time>2019-09-01T12:33:06Z</time>
      </trkpt>
      <trkpt lat="57.41838701069355" lon="-3.160900007933378">
        <ele>241.43000000000001</ele>
        <time>2019-09-01T12:33:13Z</time>
      </trkpt>
      <trkpt lat="57.418553978204727" lon="-3.16081702709198">
        <ele>242.38999999999999</ele>
        <time>2019-09-01T12:33:14Z</time>
      </trkpt>
      <trkpt lat="57.419493002817035" lon="-3.16021696664393">
        <ele>247.19999999999999</ele>
        <time>2019-09-01T12:33:20Z</time>
      </trkpt>
      <trkpt lat="57.419642033055425" lon="-3.16017203964293">
        <ele>247.68000000000001</ele>
        <time>2019-09-01T12:33:21Z</time>
      </trkpt>
      <trkpt lat="57.419801037758589" lon="-3.160160975530744">
        <ele>247.68000000000001</ele>
        <time>2019-09-01T12:33:22Z</time>
      </trkpt>
      <trkpt lat="57.419970016926527" lon="-3.16019400022924">
        <ele>248.16</ele>
        <time>2019-09-01T12:33:23Z</time>
      </trkpt>
      <trkpt lat="57.420143019407988" lon="-3.160246973857284">
        <ele>248.16</ele>
        <time>2019-09-01T12:33:24Z</time>
      </trkpt>
      <trkpt lat="57.420315016061068" lon="-3.160300031304359">
        <ele>248.16</ele>
        <time>2019-09-01T12:33:25Z</time>
      </trkpt>
      <trkpt lat="57.420779038220644" lon="-3.160558026283979">
        <ele>248.16</ele>
        <time>2019-09-01T12:33:28Z</time>
      </trkpt>
      <trkpt lat="57.420905018225312" lon="-3.160708984360099">
        <ele>248.63999999999999</ele>
        <time>2019-09-01T12:33:29Z</time>
      </trkpt>
      <trkpt lat="57.42105295881629" lon="-3.160887015983462">
        <ele>249.12</ele>
        <time>2019-09-01T12:33:30Z</time>
      </trkpt>
      <trkpt lat="57.421147003769875" lon="-3.161066975444555">
        <ele>249.59999999999999</ele>
        <time>2019-09-01T12:33:31Z</time>
      </trkpt>
      <trkpt lat="57.421249011531472" lon="-3.161261016502976">
        <ele>250.08000000000001</ele>
        <time>2019-09-01T12:33:32Z</time>
      </trkpt>
      <trkpt lat="57.421354036778212" lon="-3.16141901537776">
        <ele>251.03999999999999</ele>
        <time>2019-09-01T12:33:33Z</time>
      </trkpt>
      <trkpt lat="57.421463001519442" lon="-3.161558993160725">
        <ele>251.52000000000001</ele>
        <time>2019-09-01T12:33:34Z</time>
      </trkpt>
      <trkpt lat="57.421570960432291" lon="-3.161667035892606">
        <ele>252.47999999999999</ele>
        <time>2019-09-01T12:33:35Z</time>
      </trkpt>
      <trkpt lat="57.421697024255991" lon="-3.161744987592101">
        <ele>252.47999999999999</ele>
        <time>2019-09-01T12:33:36Z</time>
      </trkpt>
      <trkpt lat="57.42180498316884" lon="-3.161744987592101">
        <ele>252.96000000000001</ele>
        <time>2019-09-01T12:33:37Z</time>
      </trkpt>
      <trkpt lat="57.421925012022257" lon="-3.161721015349031">
        <ele>253.44</ele>
        <time>2019-09-01T12:33:38Z</time>
      </trkpt>
      <trkpt lat="57.422045962885022" lon="-3.161639040336013">
        <ele>253.44</ele>
        <time>2019-09-01T12:33:39Z</time>
      </trkpt>
      <trkpt lat="57.422180995345116" lon="-3.161547007039189">
        <ele>253.93000000000001</ele>
        <time>2019-09-01T12:33:40Z</time>
      </trkpt>
      <trkpt lat="57.422328013926744" lon="-3.161447010934353">
        <ele>254.41</ele>
        <time>2019-09-01T12:33:41Z</time>
      </trkpt>
      <trkpt lat="57.423299979418516" lon="-3.160190982744098">
        <ele>256.32999999999998</ele>
        <time>2019-09-01T12:33:47Z</time>
      </trkpt>
      <trkpt lat="57.424219977110624" lon="-3.15843204036355">
        <ele>256.81</ele>
        <time>2019-09-01T12:33:54Z</time>
      </trkpt>
      <trkpt lat="57.425319012254477" lon="-3.155819987878203">
        <ele>246.22999999999999</ele>
        <time>2019-09-01T12:34:04Z</time>
      </trkpt>
      <trkpt lat="57.426249990239739" lon="-3.154524983838201">
        <ele>239.02000000000001</ele>
        <time>2019-09-01T12:34:11Z</time>
      </trkpt>
      <trkpt lat="57.427277024835348" lon="-3.153860969468951">
        <ele>232.30000000000001</ele>
        <time>2019-09-01T12:34:18Z</time>
      </trkpt>
      <trkpt lat="57.427420020103455" lon="-3.153840014711022">
        <ele>231.33000000000001</ele>
        <time>2019-09-01T12:34:19Z</time>
      </trkpt>
      <trkpt lat="57.427883958443999" lon="-3.153773965314031">
        <ele>229.41</ele>
        <time>2019-09-01T12:34:22Z</time>
      </trkpt>
      <trkpt lat="57.428203979507089" lon="-3.15366298891604">
        <ele>227.97</ele>
        <time>2019-09-01T12:34:24Z</time>
      </trkpt>
      <trkpt lat="57.428364995867014" lon="-3.153574978932738">
        <ele>227.49000000000001</ele>
        <time>2019-09-01T12:34:25Z</time>
      </trkpt>
      <trkpt lat="57.428516959771514" lon="-3.153423015028238">
        <ele>227.49000000000001</ele>
        <time>2019-09-01T12:34:26Z</time>
      </trkpt>
      <trkpt lat="57.428672024980187" lon="-3.153268033638597">
        <ele>227.00999999999999</ele>
        <time>2019-09-01T12:34:27Z</time>
      </trkpt>
      <trkpt lat="57.428823988884687" lon="-3.153087990358472">
        <ele>227.00999999999999</ele>
        <time>2019-09-01T12:34:28Z</time>
      </trkpt>
      <trkpt lat="57.428972013294697" lon="-3.152893027290702">
        <ele>227.49000000000001</ele>
        <time>2019-09-01T12:34:29Z</time>
      </trkpt>
      <trkpt lat="57.429650025442243" lon="-3.152018962427974">
        <ele>228.93000000000001</ele>
        <time>2019-09-01T12:34:34Z</time>
      </trkpt>
      <trkpt lat="57.429801989346743" lon="-3.151899017393589">
        <ele>229.41</ele>
        <time>2019-09-01T12:34:35Z</time>
      </trkpt>
      <trkpt lat="57.429958982393146" lon="-3.151798015460372">
        <ele>230.37</ele>
        <time>2019-09-01T12:34:36Z</time>
      </trkpt>
      <trkpt lat="57.430119998753071" lon="-3.15175199881196">
        <ele>230.84999999999999</ele>
        <time>2019-09-01T12:34:37Z</time>
      </trkpt>
      <trkpt lat="57.430279003456235" lon="-3.151705982163549">
        <ele>231.81</ele>
        <time>2019-09-01T12:34:38Z</time>
      </trkpt>
      <trkpt lat="57.43043901398778" lon="-3.151660971343517">
        <ele>232.30000000000001</ele>
        <time>2019-09-01T12:34:39Z</time>
      </trkpt>
      <trkpt lat="57.430606987327337" lon="-3.151634987443686">
        <ele>233.25999999999999</ele>
        <time>2019-09-01T12:34:40Z</time>
      </trkpt>
      <trkpt lat="57.430778983980417" lon="-3.151629036292434">
        <ele>234.22</ele>
        <time>2019-09-01T12:34:41Z</time>
      </trkpt>
      <trkpt lat="57.432639012113214" lon="-3.151490986347199">
        <ele>242.38999999999999</ele>
        <time>2019-09-01T12:34:52Z</time>
      </trkpt>
      <trkpt lat="57.433588011190295" lon="-3.151284959167242">
        <ele>244.31</ele>
        <time>2019-09-01T12:34:58Z</time>
      </trkpt>
      <trkpt lat="57.43497203104198" lon="-3.15046101808548">
        <ele>240.94999999999999</ele>
        <time>2019-09-01T12:35:05Z</time>
      </trkpt>
      <trkpt lat="57.43617701344192" lon="-3.149728020653129">
        <ele>236.13999999999999</ele>
        <time>2019-09-01T12:35:12Z</time>
      </trkpt>
      <trkpt lat="57.437950959429145" lon="-3.148584980517626">
        <ele>234.22</ele>
        <time>2019-09-01T12:35:23Z</time>
      </trkpt>
      <trkpt lat="57.439681990072131" lon="-3.147143041715026">
        <ele>232.30000000000001</ele>
        <time>2019-09-01T12:35:32Z</time>
      </trkpt>
      <trkpt lat="57.440409958362579" lon="-3.14608097076416">
        <ele>235.66</ele>
        <time>2019-09-01T12:35:37Z</time>
      </trkpt>
      <trkpt lat="57.440535016357899" lon="-3.14581903629005">
        <ele>236.13999999999999</ele>
        <time>2019-09-01T12:35:38Z</time>
      </trkpt>
      <trkpt lat="57.441702028736472" lon="-3.143341010436416">
        <ele>236.62</ele>
        <time>2019-09-01T12:35:47Z</time>
      </trkpt>
      <trkpt lat="57.442338969558477" lon="-3.141552982851863">
        <ele>232.78</ele>
        <time>2019-09-01T12:35:53Z</time>
      </trkpt>
      <trkpt lat="57.442465033382177" lon="-3.141335975378752">
        <ele>232.30000000000001</ele>
        <time>2019-09-01T12:35:54Z</time>
      </trkpt>
      <trkpt lat="57.442585984244943" lon="-3.141135983169079">
        <ele>231.81</ele>
        <time>2019-09-01T12:35:55Z</time>
      </trkpt>
      <trkpt lat="57.442736020311713" lon="-3.140996005386114">
        <ele>231.81</ele>
        <time>2019-09-01T12:35:56Z</time>
      </trkpt>
      <trkpt lat="57.442885972559452" lon="-3.140856027603149">
        <ele>231.33000000000001</ele>
        <time>2019-09-01T12:35:57Z</time>
      </trkpt>
      <trkpt lat="57.443032991141081" lon="-3.140718983486295">
        <ele>230.84999999999999</ele>
        <time>2019-09-01T12:35:58Z</time>
      </trkpt>
      <trkpt lat="57.443176992237568" lon="-3.140584034845233">
        <ele>230.84999999999999</ele>
        <time>2019-09-01T12:35:59Z</time>
      </trkpt>
      <trkpt lat="57.443298026919365" lon="-3.140346994623542">
        <ele>229.88999999999999</ele>
        <time>2019-09-01T12:36:00Z</time>
      </trkpt>
      <trkpt lat="57.443405985832214" lon="-3.140078019350767">
        <ele>229.41</ele>
        <time>2019-09-01T12:36:01Z</time>
      </trkpt>
      <trkpt lat="57.443519979715347" lon="-3.139791022986174">
        <ele>228.44999999999999</ele>
        <time>2019-09-01T12:36:02Z</time>
      </trkpt>
      <trkpt lat="57.443964974954724" lon="-3.138639014214277">
        <ele>224.61000000000001</ele>
        <time>2019-09-01T12:36:06Z</time>
      </trkpt>
      <trkpt lat="57.444028006866574" lon="-3.138337014243007">
        <ele>223.16</ele>
        <time>2019-09-01T12:36:07Z</time>
      </trkpt>
      <trkpt lat="57.444075029343367" lon="-3.138037025928497">
        <ele>222.19999999999999</ele>
        <time>2019-09-01T12:36:08Z</time>
      </trkpt>
      <trkpt lat="57.444111993536353" lon="-3.137717004865408">
        <ele>220.75999999999999</ele>
        <time>2019-09-01T12:36:09Z</time>
      </trkpt>
      <trkpt lat="57.444134959951043" lon="-3.13737996853888">
        <ele>219.31999999999999</ele>
        <time>2019-09-01T12:36:10Z</time>
      </trkpt>
      <trkpt lat="57.444153986871243" lon="-3.13703496940434">
        <ele>217.88</ele>
        <time>2019-09-01T12:36:11Z</time>
      </trkpt>
      <trkpt lat="57.444239985197783" lon="-3.135517006739974">
        <ele>210.19</ele>
        <time>2019-09-01T12:36:17Z</time>
      </trkpt>
      <trkpt lat="57.444365965202451" lon="-3.133679023012519">
        <ele>202.49000000000001</ele>
        <time>2019-09-01T12:36:27Z</time>
      </trkpt>
      <trkpt lat="57.444479959085584" lon="-3.131892001256347">
        <ele>196.72999999999999</ele>
        <time>2019-09-01T12:36:38Z</time>
      </trkpt>
      <trkpt lat="57.444614991545677" lon="-3.130043959245086">
        <ele>191.91999999999999</ele>
        <time>2019-09-01T12:36:51Z</time>
      </trkpt>
      <trkpt lat="57.444712975993752" lon="-3.128701010718942">
        <ele>189.52000000000001</ele>
        <time>2019-09-01T12:37:01Z</time>
      </trkpt>
      <trkpt lat="57.444747006520629" lon="-3.128590034320951">
        <ele>189.03999999999999</ele>
        <time>2019-09-01T12:37:02Z</time>
      </trkpt>
      <trkpt lat="57.444786988198757" lon="-3.128586011007428">
        <ele>189.03999999999999</ele>
        <time>2019-09-01T12:37:03Z</time>
      </trkpt>
      <trkpt lat="57.444842979311943" lon="-3.128579976037145">
        <ele>188.56</ele>
        <time>2019-09-01T12:37:04Z</time>
      </trkpt>
      <trkpt lat="57.444916991516948" lon="-3.128570001572371">
        <ele>188.56</ele>
        <time>2019-09-01T12:37:05Z</time>
      </trkpt>
      <trkpt lat="57.445064010098577" lon="-3.128472017124295">
        <ele>187.59</ele>
        <time>2019-09-01T12:37:07Z</time>
      </trkpt>
      <trkpt lat="57.445149002596736" lon="-3.128453996032476">
        <ele>187.11000000000001</ele>
        <time>2019-09-01T12:37:08Z</time>
      </trkpt>
      <trkpt lat="57.445239024236798" lon="-3.128478974103928">
        <ele>187.11000000000001</ele>
        <time>2019-09-01T12:37:09Z</time>
      </trkpt>
      <trkpt lat="57.445603972300887" lon="-3.128583999350667">
        <ele>185.66999999999999</ele>
        <time>2019-09-01T12:37:13Z</time>
      </trkpt>
      <trkpt lat="57.445684019476175" lon="-3.128607971593738">
        <ele>185.66999999999999</ele>
        <time>2019-09-01T12:37:14Z</time>
      </trkpt>
      <trkpt lat="57.44575803168118" lon="-3.128630015999079">
        <ele>185.19</ele>
        <time>2019-09-01T12:37:15Z</time>
      </trkpt>
      <trkpt lat="57.445831960067153" lon="-3.128651976585388">
        <ele>184.71000000000001</ele>
        <time>2019-09-01T12:37:16Z</time>
      </trkpt>
      <trkpt lat="57.445907983928919" lon="-3.12867502681911">
        <ele>184.22999999999999</ele>
        <time>2019-09-01T12:37:17Z</time>
      </trkpt>
      <trkpt lat="57.447052029892802" lon="-3.128982977941632">
        <ele>182.31</ele>
        <time>2019-09-01T12:37:31Z</time>
      </trkpt>
      <trkpt lat="57.447998011484742" lon="-3.129290007054806">
        <ele>181.83000000000001</ele>
        <time>2019-09-01T12:37:42Z</time>
      </trkpt>
      <trkpt lat="57.448842991143465" lon="-3.130149990320206">
        <ele>178.94</ele>
        <time>2019-09-01T12:37:51Z</time>
      </trkpt>
      <trkpt lat="57.449139039963484" lon="-3.130456013604999">
        <ele>177.5</ele>
        <time>2019-09-01T12:37:54Z</time>
      </trkpt>
      <trkpt lat="57.45018401183188" lon="-3.130969991907477">
        <ele>172.69</ele>
        <time>2019-09-01T12:38:02Z</time>
      </trkpt>
      <trkpt lat="57.451359992846847" lon="-3.130806041881442">
        <ele>167.88999999999999</ele>
        <time>2019-09-01T12:38:09Z</time>
      </trkpt>
      <trkpt lat="57.452338999137282" lon="-3.130565984174609">
        <ele>160.19999999999999</ele>
        <time>2019-09-01T12:38:16Z</time>
      </trkpt>
      <trkpt lat="57.452921038493514" lon="-3.130477974191308">
        <ele>154.91</ele>
        <time>2019-09-01T12:38:24Z</time>
      </trkpt>
      <trkpt lat="57.453175010159612" lon="-3.130440004169941">
        <ele>150.58000000000001</ele>
        <time>2019-09-01T12:38:34Z</time>
      </trkpt>
      <trkpt lat="57.453326974064112" lon="-3.130393987521529">
        <ele>150.09999999999999</ele>
        <time>2019-09-01T12:38:37Z</time>
      </trkpt>
      <trkpt lat="57.453332003206015" lon="-3.130316035822034">
        <ele>149.62</ele>
        <time>2019-09-01T12:38:38Z</time>
      </trkpt>
      <trkpt lat="57.453338960185647" lon="-3.130212016403675">
        <ele>149.62</ele>
        <time>2019-09-01T12:38:39Z</time>
      </trkpt>
      <trkpt lat="57.453347006812692" lon="-3.130092993378639">
        <ele>149.13999999999999</ele>
        <time>2019-09-01T12:38:40Z</time>
      </trkpt>
      <trkpt lat="57.453353963792324" lon="-3.129983022809029">
        <ele>149.13999999999999</ele>
        <time>2019-09-01T12:38:41Z</time>
      </trkpt>
      <trkpt lat="57.453368967399001" lon="-3.129741037264466">
        <ele>148.18000000000001</ele>
        <time>2019-09-01T12:38:44Z</time>
      </trkpt>
      <trkpt lat="57.453441973775625" lon="-3.128822967410088">
        <ele>149.13999999999999</ele>
        <time>2019-09-01T12:38:56Z</time>
      </trkpt>
      <trkpt lat="57.453373996540904" lon="-3.128563966602087">
        <ele>149.62</ele>
        <time>2019-09-01T12:39:02Z</time>
      </trkpt>
      <trkpt lat="57.453459994867444" lon="-3.128606965765357">
        <ele>149.13999999999999</ele>
        <time>2019-09-01T12:39:04Z</time>
      </trkpt>
      <trkpt lat="57.453456977382302" lon="-3.128644013777375">
        <ele>149.13999999999999</ele>
        <time>2019-09-01T12:39:05Z</time>
      </trkpt>
      <trkpt lat="57.453452032059431" lon="-3.128704028204083">
        <ele>149.13999999999999</ele>
        <time>2019-09-01T12:39:06Z</time>
      </trkpt>
      <trkpt lat="57.453445997089148" lon="-3.128772005438805">
        <ele>149.13999999999999</ele>
        <time>2019-09-01T12:39:07Z</time>
      </trkpt>
      <trkpt lat="57.453440967947245" lon="-3.128832019865513">
        <ele>149.62</ele>
        <time>2019-09-01T12:39:08Z</time>
      </trkpt>
      <trkpt lat="57.453402997925878" lon="-3.129273997619748">
        <ele>150.58000000000001</ele>
        <time>2019-09-01T12:39:19Z</time>
      </trkpt>
      <trkpt lat="57.453096974641085" lon="-3.129353038966656">
        <ele>152.03</ele>
        <time>2019-09-01T12:39:33Z</time>
      </trkpt>
      <trkpt lat="57.453036960214376" lon="-3.129337029531598">
        <ele>152.50999999999999</ele>
        <time>2019-09-01T12:39:44Z</time>
      </trkpt>
      <trkpt lat="57.453036960214376" lon="-3.129337029531598">
        <ele>152.50999999999999</ele>
        <time>2019-09-01T12:40:03Z</time>
      </trkpt>
      <trkpt lat="57.453009970486164" lon="-3.129308028146625">
        <ele>152.99000000000001</ele>
        <time>2019-09-01T12:40:20Z</time>
      </trkpt>
      <trkpt lat="57.453009970486164" lon="-3.129308028146625">
        <ele>152.99000000000001</ele>
        <time>2019-09-01T12:40:42Z</time>
      </trkpt>
      <trkpt lat="57.453034026548266" lon="-3.129359995946288">
        <ele>156.34999999999999</ele>
        <time>2019-09-01T14:00:52Z</time>
      </trkpt>
      <trkpt lat="57.452992033213377" lon="-3.12940701842308">
        <ele>155.87</ele>
        <time>2019-09-01T14:01:40Z</time>
      </trkpt>
      <trkpt lat="57.452983986586332" lon="-3.129408024251461">
        <ele>155.87</ele>
        <time>2019-09-01T14:02:14Z</time>
      </trkpt>
      <trkpt lat="57.452981974929571" lon="-3.129368964582682">
        <ele>156.34999999999999</ele>
        <time>2019-09-01T14:02:28Z</time>
      </trkpt>
      <trkpt lat="57.453180961310863" lon="-3.129275003448129">
        <ele>154.43000000000001</ele>
        <time>2019-09-01T14:02:36Z</time>
      </trkpt>
      <trkpt lat="57.45340802706778" lon="-3.129217000678182">
        <ele>154.43000000000001</ele>
        <time>2019-09-01T14:02:39Z</time>
      </trkpt>
      <trkpt lat="57.453411966562271" lon="-3.129171989858151">
        <ele>154.43000000000001</ele>
        <time>2019-09-01T14:02:40Z</time>
      </trkpt>
      <trkpt lat="57.453415989875793" lon="-3.1291279848665">
        <ele>153.94999999999999</ele>
        <time>2019-09-01T14:02:41Z</time>
      </trkpt>
      <trkpt lat="57.45336402207613" lon="-3.12854896299541">
        <ele>153.47</ele>
        <time>2019-09-01T14:02:53Z</time>
      </trkpt>
      <trkpt lat="57.453461000695825" lon="-3.128594979643822">
        <ele>152.50999999999999</ele>
        <time>2019-09-01T14:02:56Z</time>
      </trkpt>
      <trkpt lat="57.453454965725541" lon="-3.128666980192065">
        <ele>152.03</ele>
        <time>2019-09-01T14:02:58Z</time>
      </trkpt>
      <trkpt lat="57.45345002040267" lon="-3.128732023760676">
        <ele>152.03</ele>
        <time>2019-09-01T14:02:59Z</time>
      </trkpt>
      <trkpt lat="57.453441973775625" lon="-3.128821039572358">
        <ele>152.03</ele>
        <time>2019-09-01T14:03:00Z</time>
      </trkpt>
      <trkpt lat="57.453433005139232" lon="-3.128930004313588">
        <ele>151.53999999999999</ele>
        <time>2019-09-01T14:03:01Z</time>
      </trkpt>
      <trkpt lat="57.453338038176298" lon="-3.130218973383308">
        <ele>151.06</ele>
        <time>2019-09-01T14:03:12Z</time>
      </trkpt>
      <trkpt lat="57.453333009034395" lon="-3.130304971709848">
        <ele>150.58000000000001</ele>
        <time>2019-09-01T14:03:14Z</time>
      </trkpt>
      <trkpt lat="57.453332003206015" lon="-3.130417037755251">
        <ele>150.58000000000001</ele>
        <time>2019-09-01T14:03:15Z</time>
      </trkpt>
      <trkpt lat="57.453367961570621" lon="-3.130417037755251">
        <ele>150.58000000000001</ele>
        <time>2019-09-01T14:03:16Z</time>
      </trkpt>
      <trkpt lat="57.453424958512187" lon="-3.130417037755251">
        <ele>150.58000000000001</ele>
        <time>2019-09-01T14:03:17Z</time>
      </trkpt>
      <trkpt lat="57.453499976545572" lon="-3.130417037755251">
        <ele>150.58000000000001</ele>
        <time>2019-09-01T14:03:18Z</time>
      </trkpt>
      <trkpt lat="57.453584969043732" lon="-3.130417037755251">
        <ele>151.06</ele>
        <time>2019-09-01T14:03:19Z</time>
      </trkpt>
      <trkpt lat="57.454476971179247" lon="-3.130594985559583">
        <ele>151.06</ele>
        <time>2019-09-01T14:03:27Z</time>
      </trkpt>
      <trkpt lat="57.45598797686398" lon="-3.13125598244369">
        <ele>152.50999999999999</ele>
        <time>2019-09-01T14:03:38Z</time>
      </trkpt>
      <trkpt lat="57.457287004217505" lon="-3.131528981029987">
        <ele>148.66</ele>
        <time>2019-09-01T14:03:47Z</time>
      </trkpt>
      <trkpt lat="57.458674963563681" lon="-3.131892001256347">
        <ele>146.74000000000001</ele>
        <time>2019-09-01T14:03:57Z</time>
      </trkpt>
      <trkpt lat="57.459734017029405" lon="-3.13256599009037">
        <ele>145.30000000000001</ele>
        <time>2019-09-01T14:04:05Z</time>
      </trkpt>
      <trkpt lat="57.461106972768903" lon="-3.134008012712002">
        <ele>143.84999999999999</ele>
        <time>2019-09-01T14:04:15Z</time>
      </trkpt>
      <trkpt lat="57.462688973173499" lon="-3.135435031726956">
        <ele>145.30000000000001</ele>
        <time>2019-09-01T14:04:26Z</time>
      </trkpt>
      <trkpt lat="57.463736040517688" lon="-3.135777013376355">
        <ele>145.78</ele>
        <time>2019-09-01T14:04:33Z</time>
      </trkpt>
      <trkpt lat="57.463875012472272" lon="-3.135884972289205">
        <ele>146.25999999999999</ele>
        <time>2019-09-01T14:04:34Z</time>
      </trkpt>
      <trkpt lat="57.465255009010434" lon="-3.136620987206698">
        <ele>148.18000000000001</ele>
        <time>2019-09-01T14:04:43Z</time>
      </trkpt>
      <trkpt lat="57.465551979839802" lon="-3.136758031323552">
        <ele>149.13999999999999</ele>
        <time>2019-09-01T14:04:45Z</time>
      </trkpt>
      <trkpt lat="57.465692041441798" lon="-3.136865990236402">
        <ele>149.62</ele>
        <time>2019-09-01T14:04:46Z</time>
      </trkpt>
      <trkpt lat="57.465821038931608" lon="-3.137004962190986">
        <ele>150.09999999999999</ele>
        <time>2019-09-01T14:04:47Z</time>
      </trkpt>
      <trkpt lat="57.465947018936276" lon="-3.137148041278124">
        <ele>151.06</ele>
        <time>2019-09-01T14:04:48Z</time>
      </trkpt>
      <trkpt lat="57.466057995334268" lon="-3.137306962162256">
        <ele>151.53999999999999</ele>
        <time>2019-09-01T14:04:49Z</time>
      </trkpt>
      <trkpt lat="57.466272991150618" lon="-3.137611979618669">
        <ele>152.50999999999999</ele>
        <time>2019-09-01T14:04:51Z</time>
      </trkpt>
      <trkpt lat="57.466394025832415" lon="-3.137719016522169">
        <ele>152.50999999999999</ele>
        <time>2019-09-01T14:04:52Z</time>
      </trkpt>
      <trkpt lat="57.466524029150605" lon="-3.137774001806974">
        <ele>152.99000000000001</ele>
        <time>2019-09-01T14:04:53Z</time>
      </trkpt>
      <trkpt lat="57.466781018301845" lon="-3.137882966548204">
        <ele>153.94999999999999</ele>
        <time>2019-09-01T14:04:55Z</time>
      </trkpt>
      <trkpt lat="57.466914961114526" lon="-3.137939963489771">
        <ele>154.91</ele>
        <time>2019-09-01T14:04:56Z</time>
      </trkpt>
      <trkpt lat="57.468278026208282" lon="-3.138582017272711">
        <ele>165</ele>
        <time>2019-09-01T14:05:06Z</time>
      </trkpt>
      <trkpt lat="57.468668036162853" lon="-3.138845041394234">
        <ele>168.84999999999999</ele>
        <time>2019-09-01T14:05:09Z</time>
      </trkpt>
      <trkpt lat="57.46879099868238" lon="-3.138965992256999">
        <ele>169.81</ele>
        <time>2019-09-01T14:05:10Z</time>
      </trkpt>
      <trkpt lat="57.468903986737132" lon="-3.139123991131783">
        <ele>170.77000000000001</ele>
        <time>2019-09-01T14:05:11Z</time>
      </trkpt>
      <trkpt lat="57.470544995740056" lon="-3.141462961211801">
        <ele>177.5</ele>
        <time>2019-09-01T14:05:24Z</time>
      </trkpt>
      <trkpt lat="57.472109980881214" lon="-3.143993960693479">
        <ele>178.94</ele>
        <time>2019-09-01T14:05:36Z</time>
      </trkpt>
      <trkpt lat="57.473348993808031" lon="-3.146412977948785">
        <ele>179.41999999999999</ele>
        <time>2019-09-01T14:05:46Z</time>
      </trkpt>
      <trkpt lat="57.474561017006636" lon="-3.147948039695621">
        <ele>181.34999999999999</ele>
        <time>2019-09-01T14:05:54Z</time>
      </trkpt>
      <trkpt lat="57.475339025259018" lon="-3.148796958848834">
        <ele>181.34999999999999</ele>
        <time>2019-09-01T14:05:59Z</time>
      </trkpt>
      <trkpt lat="57.475566007196903" lon="-3.149129971861839">
        <ele>181.34999999999999</ele>
        <time>2019-09-01T14:06:01Z</time>
      </trkpt>
      <trkpt lat="57.475653011351824" lon="-3.149325018748641">
        <ele>181.34999999999999</ele>
        <time>2019-09-01T14:06:02Z</time>
      </trkpt>
      <trkpt lat="57.475739009678364" lon="-3.149527022615075">
        <ele>181.34999999999999</ele>
        <time>2019-09-01T14:06:03Z</time>
      </trkpt>
      <trkpt lat="57.475811010226607" lon="-3.149745035916567">
        <ele>180.87</ele>
        <time>2019-09-01T14:06:04Z</time>
      </trkpt>
      <trkpt lat="57.475846968591213" lon="-3.150005964562297">
        <ele>180.38</ele>
        <time>2019-09-01T14:06:05Z</time>
      </trkpt>
      <trkpt lat="57.47588200494647" lon="-3.150267982855439">
        <ele>179.90000000000001</ele>
        <time>2019-09-01T14:06:06Z</time>
      </trkpt>
      <trkpt lat="57.475905977189541" lon="-3.15054701641202">
        <ele>179.90000000000001</ele>
        <time>2019-09-01T14:06:07Z</time>
      </trkpt>
      <trkpt lat="57.475918969139457" lon="-3.150839963927865">
        <ele>179.41999999999999</ele>
        <time>2019-09-01T14:06:08Z</time>
      </trkpt>
      <trkpt lat="57.476107981055975" lon="-3.153879996389151">
        <ele>177.02000000000001</ele>
        <time>2019-09-01T14:06:18Z</time>
      </trkpt>
      <trkpt lat="57.476452980190516" lon="-3.156231036409736">
        <ele>171.72999999999999</ele>
        <time>2019-09-01T14:06:26Z</time>
      </trkpt>
      <trkpt lat="57.476782975718379" lon="-3.159862998872995">
        <ele>163.08000000000001</ele>
        <time>2019-09-01T14:06:38Z</time>
      </trkpt>
      <trkpt lat="57.477144990116358" lon="-3.162238011136651">
        <ele>156.34999999999999</ele>
        <time>2019-09-01T14:06:46Z</time>
      </trkpt>
      <trkpt lat="57.477382030338049" lon="-3.162994980812073">
        <ele>154.91</ele>
        <time>2019-09-01T14:06:49Z</time>
      </trkpt>
      <trkpt lat="57.47749200090766" lon="-3.163213999941945">
        <ele>153.94999999999999</ele>
        <time>2019-09-01T14:06:50Z</time>
      </trkpt>
      <trkpt lat="57.478112010285258" lon="-3.164602965116501">
        <ele>150.58000000000001</ele>
        <time>2019-09-01T14:06:56Z</time>
      </trkpt>
      <trkpt lat="57.478189039975405" lon="-3.16487998701632">
        <ele>150.09999999999999</ele>
        <time>2019-09-01T14:06:57Z</time>
      </trkpt>
      <trkpt lat="57.478746017441154" lon="-3.167412998154759">
        <ele>147.22</ele>
        <time>2019-09-01T14:07:06Z</time>
      </trkpt>
      <trkpt lat="57.478778958320618" lon="-3.167719021439552">
        <ele>146.74000000000001</ele>
        <time>2019-09-01T14:07:07Z</time>
      </trkpt>
      <trkpt lat="57.479230994358659" lon="-3.170688981190324">
        <ele>142.88999999999999</ele>
        <time>2019-09-01T14:07:16Z</time>
      </trkpt>
      <trkpt lat="57.479700967669487" lon="-3.173121996223927">
        <ele>140.00999999999999</ele>
        <time>2019-09-01T14:07:24Z</time>
      </trkpt>
      <trkpt lat="57.480069017037749" lon="-3.174252966418862">
        <ele>138.56999999999999</ele>
        <time>2019-09-01T14:07:29Z</time>
      </trkpt>
      <trkpt lat="57.480169013142586" lon="-3.174469973891974">
        <ele>138.09</ele>
        <time>2019-09-01T14:07:30Z</time>
      </trkpt>
      <trkpt lat="57.480280995368958" lon="-3.174642976373434">
        <ele>138.09</ele>
        <time>2019-09-01T14:07:31Z</time>
      </trkpt>
      <trkpt lat="57.481455970555544" lon="-3.176104025915265">
        <ele>134.24000000000001</ele>
        <time>2019-09-01T14:07:39Z</time>
      </trkpt>
      <trkpt lat="57.482538996264338" lon="-3.177453009411693">
        <ele>131.84</ele>
        <time>2019-09-01T14:07:47Z</time>
      </trkpt>
      <trkpt lat="57.483457988128066" lon="-3.179558040574193">
        <ele>128.94999999999999</ele>
        <time>2019-09-01T14:07:56Z</time>
      </trkpt>
      <trkpt lat="57.484289975836873" lon="-3.181969011202455">
        <ele>125.11</ele>
        <time>2019-09-01T14:08:05Z</time>
      </trkpt>
      <trkpt lat="57.484613014385104" lon="-3.183164019137621">
        <ele>122.70999999999999</ele>
        <time>2019-09-01T14:08:10Z</time>
      </trkpt>
      <trkpt lat="57.484702030196786" lon="-3.183341966941953">
        <ele>121.73999999999999</ele>
        <time>2019-09-01T14:08:11Z</time>
      </trkpt>
      <trkpt lat="57.484788028523326" lon="-3.183513963595033">
        <ele>121.26000000000001</ele>
        <time>2019-09-01T14:08:12Z</time>
      </trkpt>
      <trkpt lat="57.484872015193105" lon="-3.183682020753622">
        <ele>120.78</ele>
        <time>2019-09-01T14:08:13Z</time>
      </trkpt>
      <trkpt lat="57.484961031004786" lon="-3.183825016021729">
        <ele>119.81999999999999</ele>
        <time>2019-09-01T14:08:14Z</time>
      </trkpt>
      <trkpt lat="57.485057003796101" lon="-3.183948984369636">
        <ele>119.34</ele>
        <time>2019-09-01T14:08:15Z</time>
      </trkpt>
      <trkpt lat="57.485163034871221" lon="-3.184041017666459">
        <ele>118.86</ele>
        <time>2019-09-01T14:08:16Z</time>
      </trkpt>
      <trkpt lat="57.485268982127309" lon="-3.18413196131587">
        <ele>117.90000000000001</ele>
        <time>2019-09-01T14:08:17Z</time>
      </trkpt>
      <trkpt lat="57.485376019030809" lon="-3.184216031804681">
        <ele>117.42</ele>
        <time>2019-09-01T14:08:18Z</time>
      </trkpt>
      <trkpt lat="57.485492024570704" lon="-3.184255007654429">
        <ele>116.45999999999999</ele>
        <time>2019-09-01T14:08:19Z</time>
      </trkpt>
      <trkpt lat="57.485610041767359" lon="-3.184293983504176">
        <ele>115.5</ele>
        <time>2019-09-01T14:08:20Z</time>
      </trkpt>
      <trkpt lat="57.487163040786982" lon="-3.184609981253743">
        <ele>111.17</ele>
        <time>2019-09-01T14:08:33Z</time>
      </trkpt>
      <trkpt lat="57.487288014963269" lon="-3.184673013165593">
        <ele>111.17</ele>
        <time>2019-09-01T14:08:34Z</time>
      </trkpt>
      <trkpt lat="57.487416006624699" lon="-3.184758005663753">
        <ele>110.69</ele>
        <time>2019-09-01T14:08:35Z</time>
      </trkpt>
      <trkpt lat="57.488351007923484" lon="-3.185701975598931">
        <ele>108.29000000000001</ele>
        <time>2019-09-01T14:08:43Z</time>
      </trkpt>
      <trkpt lat="57.488797008991241" lon="-3.186541004106402">
        <ele>105.88</ele>
        <time>2019-09-01T14:08:48Z</time>
      </trkpt>
      <trkpt lat="57.488871021196246" lon="-3.186699002981186">
        <ele>104.92</ele>
        <time>2019-09-01T14:08:49Z</time>
      </trkpt>
      <trkpt lat="57.48894696123898" lon="-3.186861025169492">
        <ele>104.44</ele>
        <time>2019-09-01T14:08:50Z</time>
      </trkpt>
      <trkpt lat="57.489020973443985" lon="-3.187020029872656">
        <ele>103.48</ele>
        <time>2019-09-01T14:08:51Z</time>
      </trkpt>
      <trkpt lat="57.489077970385551" lon="-3.187211975455284">
        <ele>102.52</ele>
        <time>2019-09-01T14:08:52Z</time>
      </trkpt>
      <trkpt lat="57.48911602422595" lon="-3.187407022342086">
        <ele>102.04000000000001</ele>
        <time>2019-09-01T14:08:53Z</time>
      </trkpt>
      <trkpt lat="57.489157011732459" lon="-3.187608020380139">
        <ele>101.08</ele>
        <time>2019-09-01T14:08:54Z</time>
      </trkpt>
      <trkpt lat="57.489203028380871" lon="-3.187838019803166">
        <ele>100.11</ele>
        <time>2019-09-01T14:08:55Z</time>
      </trkpt>
      <trkpt lat="57.489215014502406" lon="-3.188060978427529">
        <ele>99.150000000000006</ele>
        <time>2019-09-01T14:08:56Z</time>
      </trkpt>
      <trkpt lat="57.489228006452322" lon="-3.188302963972092">
        <ele>98.189999999999998</ele>
        <time>2019-09-01T14:08:57Z</time>
      </trkpt>
      <trkpt lat="57.489239992573857" lon="-3.188541010022163">
        <ele>97.230000000000004</ele>
        <time>2019-09-01T14:08:58Z</time>
      </trkpt>
      <trkpt lat="57.489263964816928" lon="-3.188989022746682">
        <ele>95.310000000000002</ele>
        <time>2019-09-01T14:09:00Z</time>
      </trkpt>
      <trkpt lat="57.489240998402238" lon="-3.189207036048174">
        <ele>94.829999999999998</ele>
        <time>2019-09-01T14:09:01Z</time>
      </trkpt>
      <trkpt lat="57.48920202255249" lon="-3.189391018822789">
        <ele>94.349999999999994</ele>
        <time>2019-09-01T14:09:02Z</time>
      </trkpt>
      <trkpt lat="57.489153994247317" lon="-3.189553041011095">
        <ele>93.390000000000001</ele>
        <time>2019-09-01T14:09:03Z</time>
      </trkpt>
      <trkpt lat="57.489104960113764" lon="-3.18971598520875">
        <ele>92.900000000000006</ele>
        <time>2019-09-01T14:09:04Z</time>
      </trkpt>
      <trkpt lat="57.489026002585888" lon="-3.189860992133617">
        <ele>92.900000000000006</ele>
        <time>2019-09-01T14:09:05Z</time>
      </trkpt>
      <trkpt lat="57.488941010087729" lon="-3.190001975744963">
        <ele>92.420000000000002</ele>
        <time>2019-09-01T14:09:06Z</time>
      </trkpt>
      <trkpt lat="57.488850988447666" lon="-3.190148994326592">
        <ele>92.420000000000002</ele>
        <time>2019-09-01T14:09:07Z</time>
      </trkpt>
      <trkpt lat="57.488757027313113" lon="-3.190304981544614">
        <ele>92.420000000000002</ele>
        <time>2019-09-01T14:09:08Z</time>
      </trkpt>
      <trkpt lat="57.488554017618299" lon="-3.190639000386">
        <ele>91.939999999999998</ele>
        <time>2019-09-01T14:09:10Z</time>
      </trkpt>
      <trkpt lat="57.488446980714798" lon="-3.190816026180983">
        <ele>92.420000000000002</ele>
        <time>2019-09-01T14:09:11Z</time>
      </trkpt>
      <trkpt lat="57.487833006307483" lon="-3.191919000819325">
        <ele>93.390000000000001</ele>
        <time>2019-09-01T14:09:17Z</time>
      </trkpt>
      <trkpt lat="57.487479038536549" lon="-3.19242199882865">
        <ele>92.420000000000002</ele>
        <time>2019-09-01T14:09:22Z</time>
      </trkpt>
      <trkpt lat="57.487442996352911" lon="-3.192472038790584">
        <ele>91.939999999999998</ele>
        <time>2019-09-01T14:09:23Z</time>
      </trkpt>
      <trkpt lat="57.487428998574615" lon="-3.192565999925137">
        <ele>91.459999999999994</ele>
        <time>2019-09-01T14:09:24Z</time>
      </trkpt>
      <trkpt lat="57.487416006624699" lon="-3.192648980766535">
        <ele>90.980000000000004</ele>
        <time>2019-09-01T14:09:25Z</time>
      </trkpt>
      <trkpt lat="57.487405026331544" lon="-3.192721987143159">
        <ele>90.980000000000004</ele>
        <time>2019-09-01T14:09:26Z</time>
      </trkpt>
      <trkpt lat="57.487399997189641" lon="-3.192750988528132">
        <ele>90.5</ele>
        <time>2019-09-01T14:09:27Z</time>
      </trkpt>
      <trkpt lat="57.487399997189641" lon="-3.192750988528132">
        <ele>90.019999999999996</ele>
        <time>2019-09-01T14:09:28Z</time>
      </trkpt>
      <trkpt lat="57.487415000796318" lon="-3.192842015996575">
        <ele>90.019999999999996</ele>
        <time>2019-09-01T14:09:29Z</time>
      </trkpt>
      <trkpt lat="57.487422963604331" lon="-3.192887026816607">
        <ele>89.540000000000006</ele>
        <time>2019-09-01T14:09:41Z</time>
      </trkpt>
      <trkpt lat="57.48744199052453" lon="-3.19300102069974">
        <ele>91.939999999999998</ele>
        <time>2019-09-01T14:10:07Z</time>
      </trkpt>
      <trkpt lat="57.487358003854752" lon="-3.193306960165501">
        <ele>93.870000000000005</ele>
        <time>2019-09-01T14:10:11Z</time>
      </trkpt>
      <trkpt lat="57.487310981377959" lon="-3.193321963772178">
        <ele>94.349999999999994</ele>
        <time>2019-09-01T14:10:12Z</time>
      </trkpt>
      <trkpt lat="57.48724602162838" lon="-3.193341996520758">
        <ele>94.829999999999998</ele>
        <time>2019-09-01T14:10:13Z</time>
      </trkpt>
      <trkpt lat="57.486472958698869" lon="-3.193581970408559">
        <ele>98.189999999999998</ele>
        <time>2019-09-01T14:10:20Z</time>
      </trkpt>
      <trkpt lat="57.485254984349012" lon="-3.193982960656285">
        <ele>101.08</ele>
        <time>2019-09-01T14:10:28Z</time>
      </trkpt>
      <trkpt lat="57.483892003074288" lon="-3.19470196031034">
        <ele>106.84</ele>
        <time>2019-09-01T14:10:37Z</time>
      </trkpt>
      <trkpt lat="57.482804032042623" lon="-3.195262961089611">
        <ele>109.73</ele>
        <time>2019-09-01T14:10:45Z</time>
      </trkpt>
      <trkpt lat="57.481373995542526" lon="-3.196673970669508">
        <ele>105.40000000000001</ele>
        <time>2019-09-01T14:10:56Z</time>
      </trkpt>
      <trkpt lat="57.481185989454389" lon="-3.197047971189022">
        <ele>104.44</ele>
        <time>2019-09-01T14:10:58Z</time>
      </trkpt>
      <trkpt lat="57.481089010834694" lon="-3.197242012247443">
        <ele>103.95999999999999</ele>
        <time>2019-09-01T14:10:59Z</time>
      </trkpt>
      <trkpt lat="57.480992032214999" lon="-3.197454996407032">
        <ele>103.48</ele>
        <time>2019-09-01T14:11:00Z</time>
      </trkpt>
      <trkpt lat="57.480766978114843" lon="-3.198211966082454">
        <ele>101.08</ele>
        <time>2019-09-01T14:11:03Z</time>
      </trkpt>
      <trkpt lat="57.480705035850406" lon="-3.1984599865973">
        <ele>100.59999999999999</ele>
        <time>2019-09-01T14:11:04Z</time>
      </trkpt>
      <trkpt lat="57.480406975373626" lon="-3.199694976210594">
        <ele>94.349999999999994</ele>
        <time>2019-09-01T14:11:09Z</time>
      </trkpt>
      <trkpt lat="57.479621004313231" lon="-3.202236033976078">
        <ele>88.099999999999994</ele>
        <time>2019-09-01T14:11:18Z</time>
      </trkpt>
      <trkpt lat="57.478730008006096" lon="-3.205064004287124">
        <ele>84.730000000000004</ele>
        <time>2019-09-01T14:11:28Z</time>
      </trkpt>
      <trkpt lat="57.477960968390107" lon="-3.207889962941408">
        <ele>85.209999999999994</ele>
        <time>2019-09-01T14:11:38Z</time>
      </trkpt>
      <trkpt lat="57.477267030626535" lon="-3.210030030459166">
        <ele>86.659999999999997</ele>
        <time>2019-09-01T14:11:46Z</time>
      </trkpt>
      <trkpt lat="57.476260028779507" lon="-3.212216030806303">
        <ele>88.579999999999998</ele>
        <time>2019-09-01T14:11:55Z</time>
      </trkpt>
      <trkpt lat="57.475213967263699" lon="-3.214283008128405">
        <ele>84.730000000000004</ele>
        <time>2019-09-01T14:12:05Z</time>
      </trkpt>
      <trkpt lat="57.474838038906455" lon="-3.215530989691615">
        <ele>83.769999999999996</ele>
        <time>2019-09-01T14:12:12Z</time>
      </trkpt>
      <trkpt lat="57.474344009533525" lon="-3.217396968975663">
        <ele>84.25</ele>
        <time>2019-09-01T14:12:22Z</time>
      </trkpt>
      <trkpt lat="57.47364797629416" lon="-3.218959020450711">
        <ele>86.180000000000007</ele>
        <time>2019-09-01T14:12:32Z</time>
      </trkpt>
      <trkpt lat="57.473074989393353" lon="-3.220170959830284">
        <ele>89.060000000000002</ele>
        <time>2019-09-01T14:12:42Z</time>
      </trkpt>
      <trkpt lat="57.472377028316259" lon="-3.221596973016858">
        <ele>90.980000000000004</ele>
        <time>2019-09-01T14:12:55Z</time>
      </trkpt>
      <trkpt lat="57.471492988988757" lon="-3.22342598810792">
        <ele>92.900000000000006</ele>
        <time>2019-09-01T14:13:09Z</time>
      </trkpt>
      <trkpt lat="57.470688996836543" lon="-3.225102033466101">
        <ele>93.870000000000005</ele>
        <time>2019-09-01T14:13:21Z</time>
      </trkpt>
      <trkpt lat="57.470095977187157" lon="-3.226315984502435">
        <ele>95.790000000000006</ele>
        <time>2019-09-01T14:13:28Z</time>
      </trkpt>
      <trkpt lat="57.469143960624933" lon="-3.228197973221541">
        <ele>95.310000000000002</ele>
        <time>2019-09-01T14:13:39Z</time>
      </trkpt>
      <trkpt lat="57.46904999949038" lon="-3.228336023166776">
        <ele>95.790000000000006</ele>
        <time>2019-09-01T14:13:40Z</time>
      </trkpt>
      <trkpt lat="57.468547001481056" lon="-3.228787975385785">
        <ele>97.709999999999994</ele>
        <time>2019-09-01T14:13:45Z</time>
      </trkpt>
      <trkpt lat="57.468432001769543" lon="-3.22888595983386">
        <ele>97.709999999999994</ele>
        <time>2019-09-01T14:13:46Z</time>
      </trkpt>
      <trkpt lat="57.468353966251016" lon="-3.229002971202135">
        <ele>97.230000000000004</ele>
        <time>2019-09-01T14:13:47Z</time>
      </trkpt>
      <trkpt lat="57.468270985409617" lon="-3.22916298173368">
        <ele>96.75</ele>
        <time>2019-09-01T14:13:48Z</time>
      </trkpt>
      <trkpt lat="57.468195967376232" lon="-3.229358028620482">
        <ele>96.269999999999996</ele>
        <time>2019-09-01T14:13:49Z</time>
      </trkpt>
      <trkpt lat="57.468051966279745" lon="-3.229717025533319">
        <ele>96.75</ele>
        <time>2019-09-01T14:13:51Z</time>
      </trkpt>
      <trkpt lat="57.467907965183258" lon="-3.230117009952664">
        <ele>97.709999999999994</ele>
        <time>2019-09-01T14:13:53Z</time>
      </trkpt>
      <trkpt lat="57.467121994122863" lon="-3.232381967827678">
        <ele>103.95999999999999</ele>
        <time>2019-09-01T14:14:03Z</time>
      </trkpt>
      <trkpt lat="57.465867977589369" lon="-3.235172973945737">
        <ele>113.09</ele>
        <time>2019-09-01T14:14:15Z</time>
      </trkpt>
      <trkpt lat="57.464543972164392" lon="-3.238204959779978">
        <ele>125.59</ele>
        <time>2019-09-01T14:14:28Z</time>
      </trkpt>
      <trkpt lat="57.463436974212527" lon="-3.239827025681734">
        <ele>132.80000000000001</ele>
        <time>2019-09-01T14:14:38Z</time>
      </trkpt>
      <trkpt lat="57.463232958689332" lon="-3.240106981247664">
        <ele>132.80000000000001</ele>
        <time>2019-09-01T14:14:40Z</time>
      </trkpt>
      <trkpt lat="57.463113013654947" lon="-3.240194991230965">
        <ele>133.28</ele>
        <time>2019-09-01T14:14:41Z</time>
      </trkpt>
      <trkpt lat="57.462992984801531" lon="-3.240283001214266">
        <ele>133.75999999999999</ele>
        <time>2019-09-01T14:14:42Z</time>
      </trkpt>
      <trkpt lat="57.462865998968482" lon="-3.240348966792226">
        <ele>134.24000000000001</ele>
        <time>2019-09-01T14:14:43Z</time>
      </trkpt>
      <trkpt lat="57.462738007307053" lon="-3.240394983440638">
        <ele>135.19999999999999</ele>
        <time>2019-09-01T14:14:44Z</time>
      </trkpt>
      <trkpt lat="57.462352020666003" lon="-3.24042197316885">
        <ele>137.61000000000001</ele>
        <time>2019-09-01T14:14:47Z</time>
      </trkpt>
      <trkpt lat="57.461932003498077" lon="-3.240408981218934">
        <ele>139.53</ele>
        <time>2019-09-01T14:14:51Z</time>
      </trkpt>
      <trkpt lat="57.461846005171537" lon="-3.240448040887713">
        <ele>139.53</ele>
        <time>2019-09-01T14:14:52Z</time>
      </trkpt>
      <trkpt lat="57.46176403015852" lon="-3.240488022565842">
        <ele>140.00999999999999</ele>
        <time>2019-09-01T14:14:53Z</time>
      </trkpt>
      <trkpt lat="57.46167903766036" lon="-3.24052800424397">
        <ele>140.49000000000001</ele>
        <time>2019-09-01T14:14:54Z</time>
      </trkpt>
      <trkpt lat="57.461597984656692" lon="-3.240565974265337">
        <ele>140.49000000000001</ele>
        <time>2019-09-01T14:14:55Z</time>
      </trkpt>
      <trkpt lat="57.461517015472054" lon="-3.240608973428607">
        <ele>140.49000000000001</ele>
        <time>2019-09-01T14:14:56Z</time>
      </trkpt>
      <trkpt lat="57.461450966075063" lon="-3.240702012553811">
        <ele>140.49000000000001</ele>
        <time>2019-09-01T14:14:57Z</time>
      </trkpt>
      <trkpt lat="57.460676981136203" lon="-3.24179601855576">
        <ele>141.93000000000001</ele>
        <time>2019-09-01T14:15:07Z</time>
      </trkpt>
      <trkpt lat="57.459737034514546" lon="-3.243311969563365">
        <ele>142.88999999999999</ele>
        <time>2019-09-01T14:15:18Z</time>
      </trkpt>
      <trkpt lat="57.458570022135973" lon="-3.245283979922533">
        <ele>145.78</ele>
        <time>2019-09-01T14:15:31Z</time>
      </trkpt>
      <trkpt lat="57.457502000033855" lon="-3.247239980846643">
        <ele>152.50999999999999</ele>
        <time>2019-09-01T14:15:44Z</time>
      </trkpt>
      <trkpt lat="57.457029009237885" lon="-3.24834999628365">
        <ele>157.78999999999999</ele>
        <time>2019-09-01T14:15:52Z</time>
      </trkpt>
      <trkpt lat="57.456558030098677" lon="-3.249609963968396">
        <ele>163.56</ele>
        <time>2019-09-01T14:16:03Z</time>
      </trkpt>
      <trkpt lat="57.456025024875998" lon="-3.250861968845129">
        <ele>170.28999999999999</ele>
        <time>2019-09-01T14:16:14Z</time>
      </trkpt>
      <trkpt lat="57.455248022451997" lon="-3.252146998420358">
        <ele>174.62</ele>
        <time>2019-09-01T14:16:27Z</time>
      </trkpt>
      <trkpt lat="57.454445036128163" lon="-3.253233041614294">
        <ele>177.5</ele>
        <time>2019-09-01T14:16:38Z</time>
      </trkpt>
      <trkpt lat="57.4536660220474" lon="-3.254231996834278">
        <ele>182.78999999999999</ele>
        <time>2019-09-01T14:16:48Z</time>
      </trkpt>
      <trkpt lat="57.452858006581664" lon="-3.255255008116365">
        <ele>188.08000000000001</ele>
        <time>2019-09-01T14:17:01Z</time>
      </trkpt>
      <trkpt lat="57.451852010563016" lon="-3.2564050052315">
        <ele>191.44</ele>
        <time>2019-09-01T14:17:16Z</time>
      </trkpt>
      <trkpt lat="57.450858000665903" lon="-3.257389962673187">
        <ele>193.84</ele>
        <time>2019-09-01T14:17:28Z</time>
      </trkpt>
      <trkpt lat="57.449901038780808" lon="-3.258389001712203">
        <ele>191.44</ele>
        <time>2019-09-01T14:17:39Z</time>
      </trkpt>
      <trkpt lat="57.448963019996881" lon="-3.259892966598272">
        <ele>187.11000000000001</ele>
        <time>2019-09-01T14:17:50Z</time>
      </trkpt>
      <trkpt lat="57.448317026719451" lon="-3.261637995019555">
        <ele>184.22999999999999</ele>
        <time>2019-09-01T14:17:58Z</time>
      </trkpt>
      <trkpt lat="57.447621999308467" lon="-3.264393964782357">
        <ele>181.83000000000001</ele>
        <time>2019-09-01T14:18:08Z</time>
      </trkpt>
      <trkpt lat="57.446945998817682" lon="-3.266923036426306">
        <ele>184.22999999999999</ele>
        <time>2019-09-01T14:18:18Z</time>
      </trkpt>
      <trkpt lat="57.446473008021712" lon="-3.268376961350441">
        <ele>185.66999999999999</ele>
        <time>2019-09-01T14:18:27Z</time>
      </trkpt>
      <trkpt lat="57.445751996710896" lon="-3.270490961149335">
        <ele>186.63</ele>
        <time>2019-09-01T14:18:39Z</time>
      </trkpt>
      <trkpt lat="57.445048000663519" lon="-3.272949038073421">
        <ele>185.66999999999999</ele>
        <time>2019-09-01T14:18:52Z</time>
      </trkpt>
      <trkpt lat="57.444730997085571" lon="-3.275102013722062">
        <ele>182.31</ele>
        <time>2019-09-01T14:19:02Z</time>
      </trkpt>
      <trkpt lat="57.444563023746014" lon="-3.277430003508925">
        <ele>181.34999999999999</ele>
        <time>2019-09-01T14:19:12Z</time>
      </trkpt>
      <trkpt lat="57.4444480240345" lon="-3.278293004259467">
        <ele>181.34999999999999</ele>
        <time>2019-09-01T14:19:16Z</time>
      </trkpt>
      <trkpt lat="57.444046027958393" lon="-3.280164012685418">
        <ele>183.75</ele>
        <time>2019-09-01T14:19:26Z</time>
      </trkpt>
      <trkpt lat="57.442955961450934" lon="-3.283343017101288">
        <ele>188.08000000000001</ele>
        <time>2019-09-01T14:19:46Z</time>
      </trkpt>
      <trkpt lat="57.441975027322769" lon="-3.285401025786996">
        <ele>189.52000000000001</ele>
        <time>2019-09-01T14:19:59Z</time>
      </trkpt>
      <trkpt lat="57.440721010789275" lon="-3.287845021113753">
        <ele>189.03999999999999</ele>
        <time>2019-09-01T14:20:15Z</time>
      </trkpt>
      <trkpt lat="57.44002103805542" lon="-3.289636988192797">
        <ele>190.96000000000001</ele>
        <time>2019-09-01T14:20:26Z</time>
      </trkpt>
      <trkpt lat="57.439514016732574" lon="-3.290935009717941">
        <ele>194.31999999999999</ele>
        <time>2019-09-01T14:20:31Z</time>
      </trkpt>
      <trkpt lat="57.43884002789855" lon="-3.292656987905502">
        <ele>198.65000000000001</ele>
        <time>2019-09-01T14:20:37Z</time>
      </trkpt>
      <trkpt lat="57.438142988830805" lon="-3.295106012374163">
        <ele>198.16999999999999</ele>
        <time>2019-09-01T14:20:47Z</time>
      </trkpt>
      <trkpt lat="57.437920030206442" lon="-3.297729967162013">
        <ele>193.84</ele>
        <time>2019-09-01T14:20:57Z</time>
      </trkpt>
      <trkpt lat="57.43785398080945" lon="-3.298330027610064">
        <ele>193.84</ele>
        <time>2019-09-01T14:21:00Z</time>
      </trkpt>
      <trkpt lat="57.437794972211123" lon="-3.298706039786339">
        <ele>194.31999999999999</ele>
        <time>2019-09-01T14:21:02Z</time>
      </trkpt>
      <trkpt lat="57.437461037188768" lon="-3.299667024984956">
        <ele>195.77000000000001</ele>
        <time>2019-09-01T14:21:07Z</time>
      </trkpt>
      <trkpt lat="57.437362968921661" lon="-3.299873974174261">
        <ele>196.25</ele>
        <time>2019-09-01T14:21:08Z</time>
      </trkpt>
      <trkpt lat="57.436264017596841" lon="-3.301794016733766">
        <ele>202.49000000000001</ele>
        <time>2019-09-01T14:21:17Z</time>
      </trkpt>
      <trkpt lat="57.435160959139466" lon="-3.304334990680218">
        <ele>210.66999999999999</ele>
        <time>2019-09-01T14:21:25Z</time>
      </trkpt>
      <trkpt lat="57.43390099145472" lon="-3.307404024526477">
        <ele>219.80000000000001</ele>
        <time>2019-09-01T14:21:35Z</time>
      </trkpt>
      <trkpt lat="57.433104962110519" lon="-3.310336014255881">
        <ele>226.05000000000001</ele>
        <time>2019-09-01T14:21:44Z</time>
      </trkpt>
      <trkpt lat="57.432803967967629" lon="-3.313147975131869">
        <ele>228.44999999999999</ele>
        <time>2019-09-01T14:21:52Z</time>
      </trkpt>
      <trkpt lat="57.432714030146599" lon="-3.317248988896608">
        <ele>233.25999999999999</ele>
        <time>2019-09-01T14:22:03Z</time>
      </trkpt>
      <trkpt lat="57.432644963264465" lon="-3.3207549713552">
        <ele>235.18000000000001</ele>
        <time>2019-09-01T14:22:13Z</time>
      </trkpt>
      <trkpt lat="57.432548990473151" lon="-3.324709972366691">
        <ele>231.81</ele>
        <time>2019-09-01T14:22:24Z</time>
      </trkpt>
      <trkpt lat="57.432276997715235" lon="-3.327219011262059">
        <ele>225.09</ele>
        <time>2019-09-01T14:22:31Z</time>
      </trkpt>
      <trkpt lat="57.43136596865952" lon="-3.332059979438782">
        <ele>213.55000000000001</ele>
        <time>2019-09-01T14:22:45Z</time>
      </trkpt>
      <trkpt lat="57.430463992059231" lon="-3.336788965389133">
        <ele>202.49000000000001</ele>
        <time>2019-09-01T14:22:58Z</time>
      </trkpt>
      <trkpt lat="57.429993012920022" lon="-3.339259028434753">
        <ele>196.72999999999999</ele>
        <time>2019-09-01T14:23:06Z</time>
      </trkpt>
      <trkpt lat="57.429598979651928" lon="-3.341218968853355">
        <ele>194.31999999999999</ele>
        <time>2019-09-01T14:23:15Z</time>
      </trkpt>
      <trkpt lat="57.429470987990499" lon="-3.341843001544476">
        <ele>193.36000000000001</ele>
        <time>2019-09-01T14:23:22Z</time>
      </trkpt>
      <trkpt lat="57.429399993270636" lon="-3.342188000679016">
        <ele>191.91999999999999</ele>
        <time>2019-09-01T14:23:30Z</time>
      </trkpt>
      <trkpt lat="57.42938700132072" lon="-3.342252038419247">
        <ele>191.44</ele>
        <time>2019-09-01T14:23:41Z</time>
      </trkpt>
      <trkpt lat="57.429378032684326" lon="-3.342294031754136">
        <ele>191.44</ele>
        <time>2019-09-01T14:23:42Z</time>
      </trkpt>
      <trkpt lat="57.429369986057281" lon="-3.34243300370872">
        <ele>190.96000000000001</ele>
        <time>2019-09-01T14:23:54Z</time>
      </trkpt>
      <trkpt lat="57.429396975785494" lon="-3.342509027570486">
        <ele>190.47999999999999</ele>
        <time>2019-09-01T14:23:55Z</time>
      </trkpt>
      <trkpt lat="57.429466964676976" lon="-3.342772973701358">
        <ele>190</ele>
        <time>2019-09-01T14:23:57Z</time>
      </trkpt>
      <trkpt lat="57.429470987990499" lon="-3.342933990061283">
        <ele>190</ele>
        <time>2019-09-01T14:23:58Z</time>
      </trkpt>
      <trkpt lat="57.429477022960782" lon="-3.343125013634563">
        <ele>189.52000000000001</ele>
        <time>2019-09-01T14:23:59Z</time>
      </trkpt>
      <trkpt lat="57.429507030174136" lon="-3.344179959967732">
        <ele>188.56</ele>
        <time>2019-09-01T14:24:04Z</time>
      </trkpt>
      <trkpt lat="57.429511975497007" lon="-3.344368971884251">
        <ele>188.56</ele>
        <time>2019-09-01T14:24:05Z</time>
      </trkpt>
      <trkpt lat="57.429532008245587" lon="-3.344984035938978">
        <ele>188.08000000000001</ele>
        <time>2019-09-01T14:24:08Z</time>
      </trkpt>
      <trkpt lat="57.429548017680645" lon="-3.345191990956664">
        <ele>187.59</ele>
        <time>2019-09-01T14:24:09Z</time>
      </trkpt>
      <trkpt lat="57.429830990731716" lon="-3.347496008500457">
        <ele>181.34999999999999</ele>
        <time>2019-09-01T14:24:20Z</time>
      </trkpt>
      <trkpt lat="57.430153023451567" lon="-3.349271966144443">
        <ele>171.25</ele>
        <time>2019-09-01T14:24:29Z</time>
      </trkpt>
      <trkpt lat="57.430478995665908" lon="-3.350645005702972">
        <ele>161.63999999999999</ele>
        <time>2019-09-01T14:24:36Z</time>
      </trkpt>
      <trkpt lat="57.430878980085254" lon="-3.352754982188344">
        <ele>151.06</ele>
        <time>2019-09-01T14:24:45Z</time>
      </trkpt>
      <trkpt lat="57.43136303499341" lon="-3.354865964502096">
        <ele>146.74000000000001</ele>
        <time>2019-09-01T14:24:55Z</time>
      </trkpt>
      <trkpt lat="57.431993018835783" lon="-3.357248017564416">
        <ele>142.88999999999999</ele>
        <time>2019-09-01T14:25:08Z</time>
      </trkpt>
      <trkpt lat="57.432271968573332" lon="-3.358311010524631">
        <ele>135.68000000000001</ele>
        <time>2019-09-01T14:25:14Z</time>
      </trkpt>
      <trkpt lat="57.432329971343279" lon="-3.358428021892905">
        <ele>135.19999999999999</ele>
        <time>2019-09-01T14:25:15Z</time>
      </trkpt>
      <trkpt lat="57.432399960234761" lon="-3.358520977199078">
        <ele>135.19999999999999</ele>
        <time>2019-09-01T14:25:16Z</time>
      </trkpt>
      <trkpt lat="57.432473972439766" lon="-3.358579985797405">
        <ele>134.72</ele>
        <time>2019-09-01T14:25:17Z</time>
      </trkpt>
      <trkpt lat="57.43254697881639" lon="-3.358638994395733">
        <ele>134.24000000000001</ele>
        <time>2019-09-01T14:25:18Z</time>
      </trkpt>
      <trkpt lat="57.432626020163298" lon="-3.3586769644171">
        <ele>133.28</ele>
        <time>2019-09-01T14:25:19Z</time>
      </trkpt>
      <trkpt lat="57.432709001004696" lon="-3.358701020479202">
        <ele>133.28</ele>
        <time>2019-09-01T14:25:20Z</time>
      </trkpt>
      <trkpt lat="57.432792987674475" lon="-3.358725998550654">
        <ele>132.80000000000001</ele>
        <time>2019-09-01T14:25:21Z</time>
      </trkpt>
      <trkpt lat="57.433044025674462" lon="-3.358754999935627">
        <ele>131.84</ele>
        <time>2019-09-01T14:25:24Z</time>
      </trkpt>
      <trkpt lat="57.433601003140211" lon="-3.358675036579371">
        <ele>128.94999999999999</ele>
        <time>2019-09-01T14:25:31Z</time>
      </trkpt>
      <trkpt lat="57.433658000081778" lon="-3.358666989952326">
        <ele>128.94999999999999</ele>
        <time>2019-09-01T14:25:32Z</time>
      </trkpt>
      <trkpt lat="57.433707034215331" lon="-3.35867403075099">
        <ele>128.47</ele>
        <time>2019-09-01T14:25:33Z</time>
      </trkpt>
      <trkpt lat="57.43374802172184" lon="-3.358704959973693">
        <ele>128.47</ele>
        <time>2019-09-01T14:25:34Z</time>
      </trkpt>
      <trkpt lat="57.433778028935194" lon="-3.358727004379034">
        <ele>128.47</ele>
        <time>2019-09-01T14:25:35Z</time>
      </trkpt>
      <trkpt lat="57.433808958157897" lon="-3.358820965513587">
        <ele>127.98999999999999</ele>
        <time>2019-09-01T14:25:36Z</time>
      </trkpt>
      <trkpt lat="57.433841982856393" lon="-3.358920039609075">
        <ele>127.98999999999999</ele>
        <time>2019-09-01T14:25:37Z</time>
      </trkpt>
      <trkpt lat="57.433854974806309" lon="-3.359010983258486">
        <ele>127.98999999999999</ele>
        <time>2019-09-01T14:25:38Z</time>
      </trkpt>
      <trkpt lat="57.433867966756225" lon="-3.359132017940283">
        <ele>127.51000000000001</ele>
        <time>2019-09-01T14:25:39Z</time>
      </trkpt>
      <trkpt lat="57.433954970911145" lon="-3.360709995031357">
        <ele>127.98999999999999</ele>
        <time>2019-09-01T14:25:49Z</time>
      </trkpt>
      <trkpt lat="57.433992018923163" lon="-3.361755972728133">
        <ele>131.36000000000001</ele>
        <time>2019-09-01T14:25:57Z</time>
      </trkpt>
      <trkpt lat="57.433992018923163" lon="-3.361835014075041">
        <ele>131.84</ele>
        <time>2019-09-01T14:25:58Z</time>
      </trkpt>
      <trkpt lat="57.433992018923163" lon="-3.361916989088059">
        <ele>132.31999999999999</ele>
        <time>2019-09-01T14:25:59Z</time>
      </trkpt>
      <trkpt lat="57.433981960639358" lon="-3.361999969929457">
        <ele>132.31999999999999</ele>
        <time>2019-09-01T14:26:00Z</time>
      </trkpt>
      <trkpt lat="57.433953965082765" lon="-3.3620909973979">
        <ele>132.80000000000001</ele>
        <time>2019-09-01T14:26:01Z</time>
      </trkpt>
      <trkpt lat="57.433906020596623" lon="-3.362245978787541">
        <ele>133.28</ele>
        <time>2019-09-01T14:26:02Z</time>
      </trkpt>
      <trkpt lat="57.433847011998296" lon="-3.362297024577856">
        <ele>133.75999999999999</ele>
        <time>2019-09-01T14:26:03Z</time>
      </trkpt>
      <trkpt lat="57.433765958994627" lon="-3.3623690251261">
        <ele>134.24000000000001</ele>
        <time>2019-09-01T14:26:04Z</time>
      </trkpt>
      <trkpt lat="57.433678032830358" lon="-3.362442031502724">
        <ele>134.72</ele>
        <time>2019-09-01T14:26:05Z</time>
      </trkpt>
      <trkpt lat="57.433581976220012" lon="-3.362519983202219">
        <ele>135.19999999999999</ele>
        <time>2019-09-01T14:26:06Z</time>
      </trkpt>
      <trkpt lat="57.433478040620685" lon="-3.362603969871998">
        <ele>135.68000000000001</ele>
        <time>2019-09-01T14:26:07Z</time>
      </trkpt>
      <trkpt lat="57.433372009545565" lon="-3.362701032310724">
        <ele>135.68000000000001</ele>
        <time>2019-09-01T14:26:08Z</time>
      </trkpt>
      <trkpt lat="57.432720987126231" lon="-3.363621030002832">
        <ele>139.05000000000001</ele>
        <time>2019-09-01T14:26:15Z</time>
      </trkpt>
      <trkpt lat="57.432643035426736" lon="-3.363758996129036">
        <ele>140.00999999999999</ele>
        <time>2019-09-01T14:26:16Z</time>
      </trkpt>
      <trkpt lat="57.432586960494518" lon="-3.363926969468594">
        <ele>140.97</ele>
        <time>2019-09-01T14:26:17Z</time>
      </trkpt>
      <trkpt lat="57.432529963552952" lon="-3.364096032455564">
        <ele>141.93000000000001</ele>
        <time>2019-09-01T14:26:18Z</time>
      </trkpt>
      <trkpt lat="57.432473972439766" lon="-3.364262999966741">
        <ele>142.88999999999999</ele>
        <time>2019-09-01T14:26:19Z</time>
      </trkpt>
      <trkpt lat="57.432416975498199" lon="-3.364431979134679">
        <ele>143.84999999999999</ele>
        <time>2019-09-01T14:26:20Z</time>
      </trkpt>
      <trkpt lat="57.432039035484195" lon="-3.365550041198731">
        <ele>151.06</ele>
        <time>2019-09-01T14:26:28Z</time>
      </trkpt>
      <trkpt lat="57.432019002735615" lon="-3.365662023425102">
        <ele>152.03</ele>
        <time>2019-09-01T14:26:29Z</time>
      </trkpt>
      <trkpt lat="57.431868966668844" lon="-3.366080028936267">
        <ele>157.31</ele>
        <time>2019-09-01T14:26:36Z</time>
      </trkpt>
      <trkpt lat="57.431800989434123" lon="-3.366127973422408">
        <ele>157.78999999999999</ele>
        <time>2019-09-01T14:26:37Z</time>
      </trkpt>
      <trkpt lat="57.431723037734628" lon="-3.366182036697865">
        <ele>158.75</ele>
        <time>2019-09-01T14:26:38Z</time>
      </trkpt>
      <trkpt lat="57.431022981181741" lon="-3.36664698086679">
        <ele>159.24000000000001</ele>
        <time>2019-09-01T14:26:45Z</time>
      </trkpt>
      <trkpt lat="57.43091301061213" lon="-3.366700038313866">
        <ele>158.75</ele>
        <time>2019-09-01T14:26:46Z</time>
      </trkpt>
      <trkpt lat="57.43080304004252" lon="-3.366752006113529">
        <ele>158.75</ele>
        <time>2019-09-01T14:26:47Z</time>
      </trkpt>
      <trkpt lat="57.430690973997116" lon="-3.366805985569954">
        <ele>157.78999999999999</ele>
        <time>2019-09-01T14:26:48Z</time>
      </trkpt>
      <trkpt lat="57.430572034791112" lon="-3.36686298251152">
        <ele>157.31</ele>
        <time>2019-09-01T14:26:49Z</time>
      </trkpt>
      <trkpt lat="57.430456029251218" lon="-3.366918973624706">
        <ele>156.83000000000001</ele>
        <time>2019-09-01T14:26:50Z</time>
      </trkpt>
      <trkpt lat="57.430233992636204" lon="-3.367025004699826">
        <ele>155.87</ele>
        <time>2019-09-01T14:26:52Z</time>
      </trkpt>
      <trkpt lat="57.429202012717724" lon="-3.36804298684001">
        <ele>157.31</ele>
        <time>2019-09-01T14:27:03Z</time>
      </trkpt>
      <trkpt lat="57.42900101467967" lon="-3.368264017626643">
        <ele>158.27000000000001</ele>
        <time>2019-09-01T14:27:05Z</time>
      </trkpt>
      <trkpt lat="57.428644029423594" lon="-3.368434002622962">
        <ele>159.24000000000001</ele>
        <time>2019-09-01T14:27:08Z</time>
      </trkpt>
      <trkpt lat="57.427521022036672" lon="-3.369046971201897">
        <ele>161.63999999999999</ele>
        <time>2019-09-01T14:27:17Z</time>
      </trkpt>
      <trkpt lat="57.426216965541244" lon="-3.370549008250237">
        <ele>159.24000000000001</ele>
        <time>2019-09-01T14:27:28Z</time>
      </trkpt>
      <trkpt lat="57.42489798925817" lon="-3.372061019763351">
        <ele>153.94999999999999</ele>
        <time>2019-09-01T14:27:38Z</time>
      </trkpt>
      <trkpt lat="57.42375603877008" lon="-3.374041998758912">
        <ele>152.03</ele>
        <time>2019-09-01T14:27:50Z</time>
      </trkpt>
      <trkpt lat="57.423397041857243" lon="-3.375079007819295">
        <ele>150.09999999999999</ele>
        <time>2019-09-01T14:27:55Z</time>
      </trkpt>
      <trkpt lat="57.422523982822895" lon="-3.376798974350095">
        <ele>142.88999999999999</ele>
        <time>2019-09-01T14:28:04Z</time>
      </trkpt>
      <trkpt lat="57.421741029247642" lon="-3.378087021410465">
        <ele>142.88999999999999</ele>
        <time>2019-09-01T14:28:13Z</time>
      </trkpt>
      <trkpt lat="57.420780966058373" lon="-3.379468023777008">
        <ele>142.88999999999999</ele>
        <time>2019-09-01T14:28:23Z</time>
      </trkpt>
      <trkpt lat="57.419628035277128" lon="-3.380395984277129">
        <ele>142.41</ele>
        <time>2019-09-01T14:28:32Z</time>
      </trkpt>
      <trkpt lat="57.418317021802068" lon="-3.38155603967607">
        <ele>139.53</ele>
        <time>2019-09-01T14:28:42Z</time>
      </trkpt>
      <trkpt lat="57.417373973876238" lon="-3.382466984912753">
        <ele>139.05000000000001</ele>
        <time>2019-09-01T14:28:51Z</time>
      </trkpt>
      <trkpt lat="57.41658297367394" lon="-3.383397962898016">
        <ele>136.16</ele>
        <time>2019-09-01T14:28:59Z</time>
      </trkpt>
      <trkpt lat="57.416505021974444" lon="-3.383567025884986">
        <ele>135.68000000000001</ele>
        <time>2019-09-01T14:29:00Z</time>
      </trkpt>
      <trkpt lat="57.415978973731399" lon="-3.385434010997415">
        <ele>130.88</ele>
        <time>2019-09-01T14:29:09Z</time>
      </trkpt>
      <trkpt lat="57.415653001517057" lon="-3.386786011978984">
        <ele>129.91999999999999</ele>
        <time>2019-09-01T14:29:15Z</time>
      </trkpt>
      <trkpt lat="57.415504977107048" lon="-3.38740199804306">
        <ele>129.43000000000001</ele>
        <time>2019-09-01T14:29:18Z</time>
      </trkpt>
      <trkpt lat="57.415064005181193" lon="-3.389297984540463">
        <ele>126.55</ele>
        <time>2019-09-01T14:29:27Z</time>
      </trkpt>
      <trkpt lat="57.415025029331446" lon="-3.389511974528432">
        <ele>126.06999999999999</ele>
        <time>2019-09-01T14:29:28Z</time>
      </trkpt>
      <trkpt lat="57.414913969114423" lon="-3.391047958284617">
        <ele>117.42</ele>
        <time>2019-09-01T14:29:35Z</time>
      </trkpt>
      <trkpt lat="57.415032992139459" lon="-3.393291039392352">
        <ele>111.17</ele>
        <time>2019-09-01T14:29:45Z</time>
      </trkpt>
      <trkpt lat="57.415049001574516" lon="-3.393483990803361">
        <ele>110.69</ele>
        <time>2019-09-01T14:29:46Z</time>
      </trkpt>
      <trkpt lat="57.415065011009574" lon="-3.393673002719879">
        <ele>110.69</ele>
        <time>2019-09-01T14:29:47Z</time>
      </trkpt>
      <trkpt lat="57.415081020444632" lon="-3.393866959959269">
        <ele>110.69</ele>
        <time>2019-09-01T14:29:48Z</time>
      </trkpt>
      <trkpt lat="57.415097029879689" lon="-3.394067035987973">
        <ele>110.69</ele>
        <time>2019-09-01T14:29:49Z</time>
      </trkpt>
      <trkpt lat="57.415113961324096" lon="-3.394265016540885">
        <ele>110.69</ele>
        <time>2019-09-01T14:29:50Z</time>
      </trkpt>
      <trkpt lat="57.415129970759153" lon="-3.394465008750558">
        <ele>110.69</ele>
        <time>2019-09-01T14:29:51Z</time>
      </trkpt>
      <trkpt lat="57.415162995457649" lon="-3.394863987341523">
        <ele>111.17</ele>
        <time>2019-09-01T14:29:53Z</time>
      </trkpt>
      <trkpt lat="57.415176993235946" lon="-3.395064985379577">
        <ele>111.65000000000001</ele>
        <time>2019-09-01T14:29:54Z</time>
      </trkpt>
      <trkpt lat="57.41518503986299" lon="-3.395276963710785">
        <ele>111.65000000000001</ele>
        <time>2019-09-01T14:29:55Z</time>
      </trkpt>
      <trkpt lat="57.415209012106061" lon="-3.39588699862361">
        <ele>112.13</ele>
        <time>2019-09-01T14:29:58Z</time>
      </trkpt>
      <trkpt lat="57.41523097269237" lon="-3.396463003009558">
        <ele>113.09</ele>
        <time>2019-09-01T14:30:01Z</time>
      </trkpt>
      <trkpt lat="57.415290987119079" lon="-3.398819994181395">
        <ele>121.73999999999999</ele>
        <time>2019-09-01T14:30:12Z</time>
      </trkpt>
      <trkpt lat="57.415300961583853" lon="-3.401735974475741">
        <ele>125.59</ele>
        <time>2019-09-01T14:30:24Z</time>
      </trkpt>
      <trkpt lat="57.415599022060633" lon="-3.403651993721724">
        <ele>128.47</ele>
        <time>2019-09-01T14:30:32Z</time>
      </trkpt>
      <trkpt lat="57.415644032880664" lon="-3.403902025893331">
        <ele>128.47</ele>
        <time>2019-09-01T14:30:33Z</time>
      </trkpt>
      <trkpt lat="57.415745034813881" lon="-3.404625970870256">
        <ele>130.40000000000001</ele>
        <time>2019-09-01T14:30:36Z</time>
      </trkpt>
      <trkpt lat="57.415758026763797" lon="-3.404859993606806">
        <ele>130.88</ele>
        <time>2019-09-01T14:30:37Z</time>
      </trkpt>
      <trkpt lat="57.415770012885332" lon="-3.405086975544691">
        <ele>130.88</ele>
        <time>2019-09-01T14:30:38Z</time>
      </trkpt>
      <trkpt lat="57.415770012885332" lon="-3.405287973582745">
        <ele>130.88</ele>
        <time>2019-09-01T14:30:39Z</time>
      </trkpt>
      <trkpt lat="57.415763977915049" lon="-3.405502969399095">
        <ele>131.36000000000001</ele>
        <time>2019-09-01T14:30:40Z</time>
      </trkpt>
      <trkpt lat="57.415748974308372" lon="-3.405953999608755">
        <ele>131.84</ele>
        <time>2019-09-01T14:30:42Z</time>
      </trkpt>
      <trkpt lat="57.415742017328739" lon="-3.406185004860163">
        <ele>131.84</ele>
        <time>2019-09-01T14:30:43Z</time>
      </trkpt>
      <trkpt lat="57.415621988475323" lon="-3.407570030540228">
        <ele>133.28</ele>
        <time>2019-09-01T14:30:49Z</time>
      </trkpt>
      <trkpt lat="57.415600027889013" lon="-3.40779097750783">
        <ele>133.75999999999999</ele>
        <time>2019-09-01T14:30:50Z</time>
      </trkpt>
      <trkpt lat="57.415575971826911" lon="-3.408021982759237">
        <ele>134.24000000000001</ele>
        <time>2019-09-01T14:30:51Z</time>
      </trkpt>
      <trkpt lat="57.415549987927079" lon="-3.408253993839026">
        <ele>134.24000000000001</ele>
        <time>2019-09-01T14:30:52Z</time>
      </trkpt>
      <trkpt lat="57.415524004027247" lon="-3.408484999090433">
        <ele>134.72</ele>
        <time>2019-09-01T14:30:53Z</time>
      </trkpt>
      <trkpt lat="57.41544202901423" lon="-3.40920802205801">
        <ele>135.19999999999999</ele>
        <time>2019-09-01T14:30:56Z</time>
      </trkpt>
      <trkpt lat="57.415170036256313" lon="-3.411238035187125">
        <ele>140.00999999999999</ele>
        <time>2019-09-01T14:31:05Z</time>
      </trkpt>
      <trkpt lat="57.415093006566167" lon="-3.411660986021161">
        <ele>141.44999999999999</ele>
        <time>2019-09-01T14:31:07Z</time>
      </trkpt>
      <trkpt lat="57.415059981867671" lon="-3.411843962967396">
        <ele>141.44999999999999</ele>
        <time>2019-09-01T14:31:08Z</time>
      </trkpt>
      <trkpt lat="57.414980018511415" lon="-3.412278983741999">
        <ele>141.44999999999999</ele>
        <time>2019-09-01T14:31:11Z</time>
      </trkpt>
      <trkpt lat="57.414955962449312" lon="-3.41240999288857">
        <ele>140.97</ele>
        <time>2019-09-01T14:31:12Z</time>
      </trkpt>
      <trkpt lat="57.414915980771184" lon="-3.412801008671522">
        <ele>140.97</ele>
        <time>2019-09-01T14:31:15Z</time>
      </trkpt>
      <trkpt lat="57.414932996034622" lon="-3.412950960919261">
        <ele>140.97</ele>
        <time>2019-09-01T14:31:16Z</time>
      </trkpt>
      <trkpt lat="57.414963003247976" lon="-3.413134021684527">
        <ele>140.97</ele>
        <time>2019-09-01T14:31:17Z</time>
      </trkpt>
      <trkpt lat="57.414995022118092" lon="-3.41333300806582">
        <ele>141.44999999999999</ele>
        <time>2019-09-01T14:31:18Z</time>
      </trkpt>
      <trkpt lat="57.415027962997556" lon="-3.413539035245776">
        <ele>141.93000000000001</ele>
        <time>2019-09-01T14:31:19Z</time>
      </trkpt>
      <trkpt lat="57.41505897603929" lon="-3.413735004141927">
        <ele>142.41</ele>
        <time>2019-09-01T14:31:20Z</time>
      </trkpt>
      <trkpt lat="57.415083032101393" lon="-3.413957040756941">
        <ele>142.88999999999999</ele>
        <time>2019-09-01T14:31:21Z</time>
      </trkpt>
      <trkpt lat="57.415059981867671" lon="-3.414160972461104">
        <ele>143.84999999999999</ele>
        <time>2019-09-01T14:31:22Z</time>
      </trkpt>
      <trkpt lat="57.41503500379622" lon="-3.414378985762596">
        <ele>144.81999999999999</ele>
        <time>2019-09-01T14:31:23Z</time>
      </trkpt>
      <trkpt lat="57.415006002411246" lon="-3.414633963257074">
        <ele>145.78</ele>
        <time>2019-09-01T14:31:24Z</time>
      </trkpt>
      <trkpt lat="57.414823025465012" lon="-3.415728975087404">
        <ele>147.69999999999999</ele>
        <time>2019-09-01T14:31:28Z</time>
      </trkpt>
      <trkpt lat="57.414764016866684" lon="-3.415901977568865">
        <ele>148.66</ele>
        <time>2019-09-01T14:31:29Z</time>
      </trkpt>
      <trkpt lat="57.41469101049006" lon="-3.416059976443648">
        <ele>149.62</ele>
        <time>2019-09-01T14:31:30Z</time>
      </trkpt>
      <trkpt lat="57.414216008037329" lon="-3.417076030746102">
        <ele>154.91</ele>
        <time>2019-09-01T14:31:36Z</time>
      </trkpt>
      <trkpt lat="57.414144007489085" lon="-3.417306030169129">
        <ele>155.87</ele>
        <time>2019-09-01T14:31:37Z</time>
      </trkpt>
      <trkpt lat="57.414114000275731" lon="-3.417514991015196">
        <ele>156.83000000000001</ele>
        <time>2019-09-01T14:31:38Z</time>
      </trkpt>
      <trkpt lat="57.413825998082757" lon="-3.419337971135974">
        <ele>165</ele>
        <time>2019-09-01T14:31:46Z</time>
      </trkpt>
      <trkpt lat="57.413718961179256" lon="-3.420020006597042">
        <ele>167.41</ele>
        <time>2019-09-01T14:31:50Z</time>
      </trkpt>
      <trkpt lat="57.413727007806301" lon="-3.420190997421742">
        <ele>167.88999999999999</ele>
        <time>2019-09-01T14:31:51Z</time>
      </trkpt>
      <trkpt lat="57.413735976442695" lon="-3.420373974367976">
        <ele>168.37</ele>
        <time>2019-09-01T14:31:52Z</time>
      </trkpt>
      <trkpt lat="57.413774030283093" lon="-3.420568015426397">
        <ele>168.37</ele>
        <time>2019-09-01T14:31:53Z</time>
      </trkpt>
      <trkpt lat="57.413815017789602" lon="-3.420776976272464">
        <ele>168.84999999999999</ele>
        <time>2019-09-01T14:31:54Z</time>
      </trkpt>
      <trkpt lat="57.413856005296111" lon="-3.420990966260433">
        <ele>169.81</ele>
        <time>2019-09-01T14:31:55Z</time>
      </trkpt>
      <trkpt lat="57.413979973644018" lon="-3.421903001144528">
        <ele>171.25</ele>
        <time>2019-09-01T14:31:59Z</time>
      </trkpt>
      <trkpt lat="57.413991037756205" lon="-3.422137023881078">
        <ele>172.21000000000001</ele>
        <time>2019-09-01T14:32:00Z</time>
      </trkpt>
      <trkpt lat="57.413987014442682" lon="-3.422376997768879">
        <ele>172.69</ele>
        <time>2019-09-01T14:32:01Z</time>
      </trkpt>
      <trkpt lat="57.413906967267394" lon="-3.423564964905381">
        <ele>177.97999999999999</ele>
        <time>2019-09-01T14:32:06Z</time>
      </trkpt>
      <trkpt lat="57.413867991417646" lon="-3.423764035105705">
        <ele>178.94</ele>
        <time>2019-09-01T14:32:07Z</time>
      </trkpt>
      <trkpt lat="57.413808982819319" lon="-3.423976013436914">
        <ele>179.41999999999999</ele>
        <time>2019-09-01T14:32:08Z</time>
      </trkpt>
      <trkpt lat="57.413676967844367" lon="-3.424386978149414">
        <ele>180.87</ele>
        <time>2019-09-01T14:32:10Z</time>
      </trkpt>
      <trkpt lat="57.413599016144872" lon="-3.424586970359087">
        <ele>181.34999999999999</ele>
        <time>2019-09-01T14:32:11Z</time>
      </trkpt>
      <trkpt lat="57.413527015596628" lon="-3.424757961183786">
        <ele>182.31</ele>
        <time>2019-09-01T14:32:12Z</time>
      </trkpt>
      <trkpt lat="57.413427019491792" lon="-3.424926018342376">
        <ele>182.78999999999999</ele>
        <time>2019-09-01T14:32:13Z</time>
      </trkpt>
      <trkpt lat="57.413324005901814" lon="-3.425101032480598">
        <ele>183.27000000000001</ele>
        <time>2019-09-01T14:32:14Z</time>
      </trkpt>
      <trkpt lat="57.41226302459836" lon="-3.42650500126183">
        <ele>182.78999999999999</ele>
        <time>2019-09-01T14:32:22Z</time>
      </trkpt>
      <trkpt lat="57.410833993926644" lon="-3.428365029394627">
        <ele>184.22999999999999</ele>
        <time>2019-09-01T14:32:32Z</time>
      </trkpt>
      <trkpt lat="57.410607011988759" lon="-3.428659988567233">
        <ele>184.22999999999999</ele>
        <time>2019-09-01T14:32:34Z</time>
      </trkpt>
      <trkpt lat="57.409543013200164" lon="-3.430011989548802">
        <ele>182.78999999999999</ele>
        <time>2019-09-01T14:32:43Z</time>
      </trkpt>
      <trkpt lat="57.408639024943113" lon="-3.431050004437566">
        <ele>186.15000000000001</ele>
        <time>2019-09-01T14:32:51Z</time>
      </trkpt>
      <trkpt lat="57.4085240252316" lon="-3.431087974458933">
        <ele>186.63</ele>
        <time>2019-09-01T14:32:52Z</time>
      </trkpt>
      <trkpt lat="57.408410031348467" lon="-3.431093003600836">
        <ele>186.63</ele>
        <time>2019-09-01T14:32:53Z</time>
      </trkpt>
      <trkpt lat="57.408305006101727" lon="-3.431077999994159">
        <ele>187.11000000000001</ele>
        <time>2019-09-01T14:32:54Z</time>
      </trkpt>
      <trkpt lat="57.408197969198227" lon="-3.431061990559101">
        <ele>186.63</ele>
        <time>2019-09-01T14:32:55Z</time>
      </trkpt>
      <trkpt lat="57.407049983739853" lon="-3.430895023047924">
        <ele>183.27000000000001</ele>
        <time>2019-09-01T14:33:04Z</time>
      </trkpt>
      <trkpt lat="57.406518990173936" lon="-3.430832996964455">
        <ele>180.38</ele>
        <time>2019-09-01T14:33:08Z</time>
      </trkpt>
      <trkpt lat="57.406387981027365" lon="-3.430854035541415">
        <ele>179.41999999999999</ele>
        <time>2019-09-01T14:33:09Z</time>
      </trkpt>
      <trkpt lat="57.406260995194316" lon="-3.430912960320711">
        <ele>177.97999999999999</ele>
        <time>2019-09-01T14:33:10Z</time>
      </trkpt>
      <trkpt lat="57.406148007139564" lon="-3.43101697973907">
        <ele>177.02000000000001</ele>
        <time>2019-09-01T14:33:11Z</time>
      </trkpt>
      <trkpt lat="57.406036024913192" lon="-3.431126028299332">
        <ele>176.53999999999999</ele>
        <time>2019-09-01T14:33:12Z</time>
      </trkpt>
      <trkpt lat="57.405925970524549" lon="-3.431260976940393">
        <ele>175.58000000000001</ele>
        <time>2019-09-01T14:33:13Z</time>
      </trkpt>
      <trkpt lat="57.405012007802725" lon="-3.432379039004445">
        <ele>168.84999999999999</ele>
        <time>2019-09-01T14:33:22Z</time>
      </trkpt>
      <trkpt lat="57.404896002262831" lon="-3.432448022067547">
        <ele>167.88999999999999</ele>
        <time>2019-09-01T14:33:23Z</time>
      </trkpt>
      <trkpt lat="57.404060997068882" lon="-3.432986978441477">
        <ele>160.68000000000001</ele>
        <time>2019-09-01T14:33:30Z</time>
      </trkpt>
      <trkpt lat="57.403951026499271" lon="-3.433111030608416">
        <ele>159.24000000000001</ele>
        <time>2019-09-01T14:33:31Z</time>
      </trkpt>
      <trkpt lat="57.403838960453868" lon="-3.433237010613084">
        <ele>157.78999999999999</ele>
        <time>2019-09-01T14:33:32Z</time>
      </trkpt>
      <trkpt lat="57.403732007369399" lon="-3.43335896730423">
        <ele>156.83000000000001</ele>
        <time>2019-09-01T14:33:33Z</time>
      </trkpt>
      <trkpt lat="57.403664030134678" lon="-3.433520989492536">
        <ele>155.38999999999999</ele>
        <time>2019-09-01T14:33:34Z</time>
      </trkpt>
      <trkpt lat="57.403598986566067" lon="-3.43370103277266">
        <ele>154.43000000000001</ele>
        <time>2019-09-01T14:33:35Z</time>
      </trkpt>
      <trkpt lat="57.403531009331346" lon="-3.433889960870147">
        <ele>153.47</ele>
        <time>2019-09-01T14:33:36Z</time>
      </trkpt>
      <trkpt lat="57.403383990749717" lon="-3.434298997744918">
        <ele>152.03</ele>
        <time>2019-09-01T14:33:38Z</time>
      </trkpt>
      <trkpt lat="57.403298998251557" lon="-3.434510976076126">
        <ele>151.06</ele>
        <time>2019-09-01T14:33:39Z</time>
      </trkpt>
      <trkpt lat="57.403201013803482" lon="-3.434708034619689">
        <ele>150.58000000000001</ele>
        <time>2019-09-01T14:33:40Z</time>
      </trkpt>
      <trkpt lat="57.4022520147264" lon="-3.436620030552149">
        <ele>150.58000000000001</ele>
        <time>2019-09-01T14:33:50Z</time>
      </trkpt>
      <trkpt lat="57.401613984256983" lon="-3.438105974346399">
        <ele>152.99000000000001</ele>
        <time>2019-09-01T14:33:58Z</time>
      </trkpt>
      <trkpt lat="57.401280971243978" lon="-3.439412964507937">
        <ele>153.94999999999999</ele>
        <time>2019-09-01T14:34:04Z</time>
      </trkpt>
      <trkpt lat="57.401150967925787" lon="-3.4417790081352">
        <ele>158.75</ele>
        <time>2019-09-01T14:34:13Z</time>
      </trkpt>
      <trkpt lat="57.401206037029624" lon="-3.443764010444284">
        <ele>163.08000000000001</ele>
        <time>2019-09-01T14:34:21Z</time>
      </trkpt>
      <trkpt lat="57.401245012879372" lon="-3.445452963933349">
        <ele>163.56</ele>
        <time>2019-09-01T14:34:29Z</time>
      </trkpt>
      <trkpt lat="57.401217017322779" lon="-3.447372000664473">
        <ele>158.27000000000001</ele>
        <time>2019-09-01T14:34:38Z</time>
      </trkpt>
      <trkpt lat="57.401278037577868" lon="-3.448930028825998">
        <ele>152.99000000000001</ele>
        <time>2019-09-01T14:34:45Z</time>
      </trkpt>
      <trkpt lat="57.401527985930443" lon="-3.45144703052938">
        <ele>151.53999999999999</ele>
        <time>2019-09-01T14:34:56Z</time>
      </trkpt>
      <trkpt lat="57.401599986478686" lon="-3.452254962176085">
        <ele>153.94999999999999</ele>
        <time>2019-09-01T14:35:01Z</time>
      </trkpt>
      <trkpt lat="57.401624964550138" lon="-3.452428970485926">
        <ele>154.91</ele>
        <time>2019-09-01T14:35:02Z</time>
      </trkpt>
      <trkpt lat="57.401679027825594" lon="-3.452590992674232">
        <ele>155.87</ele>
        <time>2019-09-01T14:35:03Z</time>
      </trkpt>
      <trkpt lat="57.40212201140821" lon="-3.454074002802372">
        <ele>160.68000000000001</ele>
        <time>2019-09-01T14:35:11Z</time>
      </trkpt>
      <trkpt lat="57.40252903662622" lon="-3.455978035926819">
        <ele>159.24000000000001</ele>
        <time>2019-09-01T14:35:19Z</time>
      </trkpt>
      <trkpt lat="57.402966991066933" lon="-3.458031015470624">
        <ele>160.19999999999999</ele>
        <time>2019-09-01T14:35:27Z</time>
      </trkpt>
      <trkpt lat="57.402991969138384" lon="-3.458257997408509">
        <ele>160.68000000000001</ele>
        <time>2019-09-01T14:35:28Z</time>
      </trkpt>
      <trkpt lat="57.40300202742219" lon="-3.45849696546793">
        <ele>161.16</ele>
        <time>2019-09-01T14:35:29Z</time>
      </trkpt>
      <trkpt lat="57.4030049610883" lon="-3.45873199403286">
        <ele>161.63999999999999</ele>
        <time>2019-09-01T14:35:30Z</time>
      </trkpt>
      <trkpt lat="57.403000015765429" lon="-3.458970040082932">
        <ele>161.63999999999999</ele>
        <time>2019-09-01T14:35:31Z</time>
      </trkpt>
      <trkpt lat="57.402860959991813" lon="-3.461529035121203">
        <ele>159.24000000000001</ele>
        <time>2019-09-01T14:35:42Z</time>
      </trkpt>
      <trkpt lat="57.40278803743422" lon="-3.462002025917172">
        <ele>158.75</ele>
        <time>2019-09-01T14:35:44Z</time>
      </trkpt>
      <trkpt lat="57.402665996924043" lon="-3.462409973144531">
        <ele>158.75</ele>
        <time>2019-09-01T14:35:46Z</time>
      </trkpt>
      <trkpt lat="57.402597013860941" lon="-3.462606025859714">
        <ele>158.75</ele>
        <time>2019-09-01T14:35:47Z</time>
      </trkpt>
      <trkpt lat="57.402089992538095" lon="-3.463874040171504">
        <ele>158.75</ele>
        <time>2019-09-01T14:35:55Z</time>
      </trkpt>
      <trkpt lat="57.401996031403542" lon="-3.464033966884017">
        <ele>158.75</ele>
        <time>2019-09-01T14:35:56Z</time>
      </trkpt>
      <trkpt lat="57.40188798867166" lon="-3.464195989072323">
        <ele>158.27000000000001</ele>
        <time>2019-09-01T14:35:57Z</time>
      </trkpt>
      <trkpt lat="57.401001015678048" lon="-3.465483030304313">
        <ele>156.34999999999999</ele>
        <time>2019-09-01T14:36:05Z</time>
      </trkpt>
      <trkpt lat="57.400905964896083" lon="-3.465620996430516">
        <ele>156.34999999999999</ele>
        <time>2019-09-01T14:36:06Z</time>
      </trkpt>
      <trkpt lat="57.400131979957223" lon="-3.466909965500236">
        <ele>156.34999999999999</ele>
        <time>2019-09-01T14:36:14Z</time>
      </trkpt>
      <trkpt lat="57.400037012994289" lon="-3.467118004336953">
        <ele>156.34999999999999</ele>
        <time>2019-09-01T14:36:15Z</time>
      </trkpt>
      <trkpt lat="57.399466037750244" lon="-3.46859104000032">
        <ele>162.59999999999999</ele>
        <time>2019-09-01T14:36:22Z</time>
      </trkpt>
      <trkpt lat="57.398992041125894" lon="-3.469722010195255">
        <ele>167.88999999999999</ele>
        <time>2019-09-01T14:36:29Z</time>
      </trkpt>
      <trkpt lat="57.398180002346635" lon="-3.470829008147121">
        <ele>169.81</ele>
        <time>2019-09-01T14:36:35Z</time>
      </trkpt>
      <trkpt lat="57.397611038759351" lon="-3.471398977562785">
        <ele>170.77000000000001</ele>
        <time>2019-09-01T14:36:39Z</time>
      </trkpt>
      <trkpt lat="57.397472988814116" lon="-3.471524035558105">
        <ele>171.25</ele>
        <time>2019-09-01T14:36:40Z</time>
      </trkpt>
      <trkpt lat="57.397342985495925" lon="-3.471642974764109">
        <ele>171.25</ele>
        <time>2019-09-01T14:36:41Z</time>
      </trkpt>
      <trkpt lat="57.397217005491257" lon="-3.471757974475622">
        <ele>171.72999999999999</ele>
        <time>2019-09-01T14:36:42Z</time>
      </trkpt>
      <trkpt lat="57.397090019658208" lon="-3.471873980015516">
        <ele>172.21000000000001</ele>
        <time>2019-09-01T14:36:43Z</time>
      </trkpt>
      <trkpt lat="57.395774982869625" lon="-3.472973015159369">
        <ele>172.21000000000001</ele>
        <time>2019-09-01T14:36:52Z</time>
      </trkpt>
      <trkpt lat="57.394347963854671" lon="-3.474133992567658">
        <ele>173.16999999999999</ele>
        <time>2019-09-01T14:37:02Z</time>
      </trkpt>
      <trkpt lat="57.392894960939884" lon="-3.47531701438129">
        <ele>177.97999999999999</ele>
        <time>2019-09-01T14:37:12Z</time>
      </trkpt>
      <trkpt lat="57.392191970720887" lon="-3.475831998512149">
        <ele>179.90000000000001</ele>
        <time>2019-09-01T14:37:17Z</time>
      </trkpt>
      <trkpt lat="57.392037995159626" lon="-3.475869968533516">
        <ele>180.38</ele>
        <time>2019-09-01T14:37:18Z</time>
      </trkpt>
      <trkpt lat="57.391414968296885" lon="-3.476059986278415">
        <ele>180.38</ele>
        <time>2019-09-01T14:37:22Z</time>
      </trkpt>
      <trkpt lat="57.39127398468554" lon="-3.476129975169897">
        <ele>180.38</ele>
        <time>2019-09-01T14:37:23Z</time>
      </trkpt>
      <trkpt lat="57.390536963939667" lon="-3.476688964292407">
        <ele>180.87</ele>
        <time>2019-09-01T14:37:29Z</time>
      </trkpt>
      <trkpt lat="57.390392040833831" lon="-3.476720983162522">
        <ele>181.34999999999999</ele>
        <time>2019-09-01T14:37:30Z</time>
      </trkpt>
      <trkpt lat="57.39009004086256" lon="-3.476787032559514">
        <ele>182.78999999999999</ele>
        <time>2019-09-01T14:37:32Z</time>
      </trkpt>
      <trkpt lat="57.389753004536033" lon="-3.476955005899072">
        <ele>183.27000000000001</ele>
        <time>2019-09-01T14:37:34Z</time>
      </trkpt>
      <trkpt lat="57.38856696523726" lon="-3.477663025259972">
        <ele>185.66999999999999</ele>
        <time>2019-09-01T14:37:41Z</time>
      </trkpt>
      <trkpt lat="57.387390984222293" lon="-3.478662986308336">
        <ele>186.15000000000001</ele>
        <time>2019-09-01T14:37:49Z</time>
      </trkpt>
      <trkpt lat="57.386485990136862" lon="-3.479541996493936">
        <ele>186.63</ele>
        <time>2019-09-01T14:37:56Z</time>
      </trkpt>
      <trkpt lat="57.386290021240711" lon="-3.479733020067215">
        <ele>186.63</ele>
        <time>2019-09-01T14:37:58Z</time>
      </trkpt>
      <trkpt lat="57.385936975479126" lon="-3.479956984519959">
        <ele>186.15000000000001</ele>
        <time>2019-09-01T14:38:02Z</time>
      </trkpt>
      <trkpt lat="57.385849971324205" lon="-3.479977017268539">
        <ele>186.15000000000001</ele>
        <time>2019-09-01T14:38:03Z</time>
      </trkpt>
      <trkpt lat="57.385761039331555" lon="-3.479949021711946">
        <ele>185.66999999999999</ele>
        <time>2019-09-01T14:38:04Z</time>
      </trkpt>
      <trkpt lat="57.385659031569958" lon="-3.479886995628476">
        <ele>185.66999999999999</ele>
        <time>2019-09-01T14:38:05Z</time>
      </trkpt>
      <trkpt lat="57.385542020201683" lon="-3.479816000908613">
        <ele>185.66999999999999</ele>
        <time>2019-09-01T14:38:06Z</time>
      </trkpt>
      <trkpt lat="57.385422997176647" lon="-3.479742994531989">
        <ele>185.66999999999999</ele>
        <time>2019-09-01T14:38:07Z</time>
      </trkpt>
      <trkpt lat="57.38504002802074" lon="-3.479619026184082">
        <ele>187.59</ele>
        <time>2019-09-01T14:38:11Z</time>
      </trkpt>
      <trkpt lat="57.384945983067155" lon="-3.479631012305617">
        <ele>188.08000000000001</ele>
        <time>2019-09-01T14:38:12Z</time>
      </trkpt>
      <trkpt lat="57.38484900444746" lon="-3.479707036167383">
        <ele>189.03999999999999</ele>
        <time>2019-09-01T14:38:13Z</time>
      </trkpt>
      <trkpt lat="57.384750014171004" lon="-3.479784987866879">
        <ele>189.52000000000001</ele>
        <time>2019-09-01T14:38:14Z</time>
      </trkpt>
      <trkpt lat="57.384643983095884" lon="-3.479889007285237">
        <ele>190.47999999999999</ele>
        <time>2019-09-01T14:38:15Z</time>
      </trkpt>
      <trkpt lat="57.384564019739628" lon="-3.480049017816782">
        <ele>190.96000000000001</ele>
        <time>2019-09-01T14:38:16Z</time>
      </trkpt>
      <trkpt lat="57.384480033069849" lon="-3.480215985327959">
        <ele>191.91999999999999</ele>
        <time>2019-09-01T14:38:17Z</time>
      </trkpt>
      <trkpt lat="57.384390011429787" lon="-3.480397034436464">
        <ele>192.40000000000001</ele>
        <time>2019-09-01T14:38:18Z</time>
      </trkpt>
      <trkpt lat="57.384305018931627" lon="-3.480617981404066">
        <ele>193.36000000000001</ele>
        <time>2019-09-01T14:38:19Z</time>
      </trkpt>
      <trkpt lat="57.384231006726623" lon="-3.480877988040447">
        <ele>194.31999999999999</ele>
        <time>2019-09-01T14:38:20Z</time>
      </trkpt>
      <trkpt lat="57.384155988693237" lon="-3.48114101216197">
        <ele>195.28</ele>
        <time>2019-09-01T14:38:21Z</time>
      </trkpt>
      <trkpt lat="57.383657013997436" lon="-3.482991987839341">
        <ele>203.46000000000001</ele>
        <time>2019-09-01T14:38:29Z</time>
      </trkpt>
      <trkpt lat="57.383566992357373" lon="-3.483447963371873">
        <ele>205.86000000000001</ele>
        <time>2019-09-01T14:38:31Z</time>
      </trkpt>
      <trkpt lat="57.383317966014147" lon="-3.485167007893324">
        <ele>213.55000000000001</ele>
        <time>2019-09-01T14:38:38Z</time>
      </trkpt>
      <trkpt lat="57.383197015151381" lon="-3.486980013549328">
        <ele>220.75999999999999</ele>
        <time>2019-09-01T14:38:45Z</time>
      </trkpt>
      <trkpt lat="57.383192991837859" lon="-3.487218981608748">
        <ele>221.72</ele>
        <time>2019-09-01T14:38:46Z</time>
      </trkpt>
      <trkpt lat="57.383188968524337" lon="-3.487463984638453">
        <ele>222.68000000000001</ele>
        <time>2019-09-01T14:38:47Z</time>
      </trkpt>
      <trkpt lat="57.383185029029846" lon="-3.487705970183015">
        <ele>223.16</ele>
        <time>2019-09-01T14:38:48Z</time>
      </trkpt>
      <trkpt lat="57.383182011544704" lon="-3.487934963777661">
        <ele>223.16</ele>
        <time>2019-09-01T14:38:49Z</time>
      </trkpt>
      <trkpt lat="57.383161978796124" lon="-3.488147025927901">
        <ele>223.63999999999999</ele>
        <time>2019-09-01T14:38:50Z</time>
      </trkpt>
      <trkpt lat="57.38313197158277" lon="-3.488365039229393">
        <ele>223.63999999999999</ele>
        <time>2019-09-01T14:38:51Z</time>
      </trkpt>
      <trkpt lat="57.383089978247881" lon="-3.488563019782305">
        <ele>224.12</ele>
        <time>2019-09-01T14:38:52Z</time>
      </trkpt>
      <trkpt lat="57.383028035983443" lon="-3.488761000335217">
        <ele>224.12</ele>
        <time>2019-09-01T14:38:53Z</time>
      </trkpt>
      <trkpt lat="57.382966009899974" lon="-3.488956969231367">
        <ele>224.12</ele>
        <time>2019-09-01T14:38:54Z</time>
      </trkpt>
      <trkpt lat="57.382907001301646" lon="-3.489143969491124">
        <ele>223.63999999999999</ele>
        <time>2019-09-01T14:38:55Z</time>
      </trkpt>
      <trkpt lat="57.382799964398146" lon="-3.489485029131174">
        <ele>223.16</ele>
        <time>2019-09-01T14:38:57Z</time>
      </trkpt>
      <trkpt lat="57.382751014083624" lon="-3.489647973328829">
        <ele>222.68000000000001</ele>
        <time>2019-09-01T14:38:58Z</time>
      </trkpt>
      <trkpt lat="57.382751014083624" lon="-3.489833967760205">
        <ele>222.68000000000001</ele>
        <time>2019-09-01T14:38:59Z</time>
      </trkpt>
      <trkpt lat="57.382751014083624" lon="-3.490029014647007">
        <ele>222.19999999999999</ele>
        <time>2019-09-01T14:39:00Z</time>
      </trkpt>
      <trkpt lat="57.382751014083624" lon="-3.490233030170202">
        <ele>222.19999999999999</ele>
        <time>2019-09-01T14:39:01Z</time>
      </trkpt>
      <trkpt lat="57.382751014083624" lon="-3.490646006539464">
        <ele>222.68000000000001</ele>
        <time>2019-09-01T14:39:03Z</time>
      </trkpt>
      <trkpt lat="57.382751014083624" lon="-3.490837030112743">
        <ele>223.63999999999999</ele>
        <time>2019-09-01T14:39:04Z</time>
      </trkpt>
      <trkpt lat="57.382714971899986" lon="-3.491010032594204">
        <ele>224.12</ele>
        <time>2019-09-01T14:39:05Z</time>
      </trkpt>
      <trkpt lat="57.3826589807868" lon="-3.491175994277">
        <ele>224.61000000000001</ele>
        <time>2019-09-01T14:39:06Z</time>
      </trkpt>
      <trkpt lat="57.382598966360092" lon="-3.491350002586842">
        <ele>225.09</ele>
        <time>2019-09-01T14:39:07Z</time>
      </trkpt>
      <trkpt lat="57.382535012438893" lon="-3.491538008674979">
        <ele>225.56999999999999</ele>
        <time>2019-09-01T14:39:08Z</time>
      </trkpt>
      <trkpt lat="57.382367039099336" lon="-3.491876972839236">
        <ele>227.00999999999999</ele>
        <time>2019-09-01T14:39:10Z</time>
      </trkpt>
      <trkpt lat="57.382067972794175" lon="-3.492397991940379">
        <ele>228.93000000000001</ele>
        <time>2019-09-01T14:39:13Z</time>
      </trkpt>
      <trkpt lat="57.381290970370173" lon="-3.493228973820806">
        <ele>232.30000000000001</ele>
        <time>2019-09-01T14:39:19Z</time>
      </trkpt>
      <trkpt lat="57.380005018785596" lon="-3.494360027834773">
        <ele>235.18000000000001</ele>
        <time>2019-09-01T14:39:28Z</time>
      </trkpt>
      <trkpt lat="57.379307979717851" lon="-3.494965033605695">
        <ele>236.13999999999999</ele>
        <time>2019-09-01T14:39:33Z</time>
      </trkpt>
      <trkpt lat="57.379058031365275" lon="-3.495182963088155">
        <ele>236.62</ele>
        <time>2019-09-01T14:39:35Z</time>
      </trkpt>
      <trkpt lat="57.37799596041441" lon="-3.496110001578927">
        <ele>239.02000000000001</ele>
        <time>2019-09-01T14:39:43Z</time>
      </trkpt>
      <trkpt lat="57.377685997635126" lon="-3.496468998491764">
        <ele>240.47</ele>
        <time>2019-09-01T14:39:46Z</time>
      </trkpt>
      <trkpt lat="57.377592958509922" lon="-3.496611993759871">
        <ele>240.94999999999999</ele>
        <time>2019-09-01T14:39:47Z</time>
      </trkpt>
      <trkpt lat="57.377512995153666" lon="-3.496795976534486">
        <ele>241.43000000000001</ele>
        <time>2019-09-01T14:39:48Z</time>
      </trkpt>
      <trkpt lat="57.376804975792766" lon="-3.49843799136579">
        <ele>247.19999999999999</ele>
        <time>2019-09-01T14:39:55Z</time>
      </trkpt>
      <trkpt lat="57.376241963356733" lon="-3.499784963205457">
        <ele>250.56</ele>
        <time>2019-09-01T14:40:02Z</time>
      </trkpt>
      <trkpt lat="57.375448029488325" lon="-3.501117015257478">
        <ele>252.47999999999999</ele>
        <time>2019-09-01T14:40:09Z</time>
      </trkpt>
      <trkpt lat="57.375257005915046" lon="-3.501504007726908">
        <ele>251.52000000000001</ele>
        <time>2019-09-01T14:40:11Z</time>
      </trkpt>
      <trkpt lat="57.375167990103364" lon="-3.501730989664793">
        <ele>251.03999999999999</ele>
        <time>2019-09-01T14:40:12Z</time>
      </trkpt>
      <trkpt lat="57.375090960413218" lon="-3.501978004351258">
        <ele>250.08000000000001</ele>
        <time>2019-09-01T14:40:13Z</time>
      </trkpt>
      <trkpt lat="57.374737998470664" lon="-3.503109980374575">
        <ele>245.27000000000001</ele>
        <time>2019-09-01T14:40:18Z</time>
      </trkpt>
      <trkpt lat="57.374679995700717" lon="-3.503331011161208">
        <ele>243.83000000000001</ele>
        <time>2019-09-01T14:40:19Z</time>
      </trkpt>
      <trkpt lat="57.374663986265659" lon="-3.503588000312448">
        <ele>242.87</ele>
        <time>2019-09-01T14:40:20Z</time>
      </trkpt>
      <trkpt lat="57.374491989612579" lon="-3.505847007036209">
        <ele>237.09999999999999</ele>
        <time>2019-09-01T14:40:28Z</time>
      </trkpt>
      <trkpt lat="57.374463994055986" lon="-3.50608304142952">
        <ele>236.62</ele>
        <time>2019-09-01T14:40:29Z</time>
      </trkpt>
      <trkpt lat="57.374358968809247" lon="-3.506491994485259">
        <ele>234.69999999999999</ele>
        <time>2019-09-01T14:40:31Z</time>
      </trkpt>
      <trkpt lat="57.374282022938132" lon="-3.506678994745016">
        <ele>233.74000000000001</ele>
        <time>2019-09-01T14:40:32Z</time>
      </trkpt>
      <trkpt lat="57.373492028564215" lon="-3.508079024031758">
        <ele>230.37</ele>
        <time>2019-09-01T14:40:40Z</time>
      </trkpt>
      <trkpt lat="57.372377989813685" lon="-3.510048016905785">
        <ele>214.03</ele>
        <time>2019-09-01T14:40:50Z</time>
      </trkpt>
      <trkpt lat="57.371550025418401" lon="-3.511934028938413">
        <ele>207.30000000000001</ele>
        <time>2019-09-01T14:40:58Z</time>
      </trkpt>
      <trkpt lat="57.371500991284847" lon="-3.512155981734395">
        <ele>207.78</ele>
        <time>2019-09-01T14:40:59Z</time>
      </trkpt>
      <trkpt lat="57.371464027091861" lon="-3.512321021407843">
        <ele>208.74000000000001</ele>
        <time>2019-09-01T14:41:00Z</time>
      </trkpt>
      <trkpt lat="57.371461009606719" lon="-3.512524031102657">
        <ele>209.69999999999999</ele>
        <time>2019-09-01T14:41:01Z</time>
      </trkpt>
      <trkpt lat="57.371456986293197" lon="-3.512733997777104">
        <ele>210.19</ele>
        <time>2019-09-01T14:41:02Z</time>
      </trkpt>
      <trkpt lat="57.371452040970325" lon="-3.512971960008144">
        <ele>210.66999999999999</ele>
        <time>2019-09-01T14:41:03Z</time>
      </trkpt>
      <trkpt lat="57.371417004615068" lon="-3.514831988140941">
        <ele>208.25999999999999</ele>
        <time>2019-09-01T14:41:10Z</time>
      </trkpt>
      <trkpt lat="57.371400995180011" lon="-3.515699012205005">
        <ele>204.90000000000001</ele>
        <time>2019-09-01T14:41:14Z</time>
      </trkpt>
      <trkpt lat="57.371381968259811" lon="-3.515888024121523">
        <ele>204.41999999999999</ele>
        <time>2019-09-01T14:41:15Z</time>
      </trkpt>
      <trkpt lat="57.371357996016741" lon="-3.516068989410996">
        <ele>203.46000000000001</ele>
        <time>2019-09-01T14:41:16Z</time>
      </trkpt>
      <trkpt lat="57.371289012953639" lon="-3.516212990507484">
        <ele>202.49000000000001</ele>
        <time>2019-09-01T14:41:17Z</time>
      </trkpt>
      <trkpt lat="57.371206032112241" lon="-3.516336958855391">
        <ele>201.53</ele>
        <time>2019-09-01T14:41:18Z</time>
      </trkpt>
      <trkpt lat="57.371107041835785" lon="-3.516472997143865">
        <ele>200.56999999999999</ele>
        <time>2019-09-01T14:41:19Z</time>
      </trkpt>
      <trkpt lat="57.370240017771721" lon="-3.517661970108748">
        <ele>191.91999999999999</ele>
        <time>2019-09-01T14:41:26Z</time>
      </trkpt>
      <trkpt lat="57.369008967652917" lon="-3.519079014658928">
        <ele>190</ele>
        <time>2019-09-01T14:41:36Z</time>
      </trkpt>
      <trkpt lat="57.368230037391186" lon="-3.519891975447536">
        <ele>183.27000000000001</ele>
        <time>2019-09-01T14:41:42Z</time>
      </trkpt>
      <trkpt lat="57.367224963381886" lon="-3.521311031654477">
        <ele>175.09999999999999</ele>
        <time>2019-09-01T14:41:51Z</time>
      </trkpt>
      <trkpt lat="57.366320975124836" lon="-3.52280099876225">
        <ele>170.28999999999999</ele>
        <time>2019-09-01T14:41:59Z</time>
      </trkpt>
      <trkpt lat="57.365823006257415" lon="-3.524007992818952">
        <ele>165</ele>
        <time>2019-09-01T14:42:04Z</time>
      </trkpt>
      <trkpt lat="57.365729967132211" lon="-3.524131961166859">
        <ele>164.52000000000001</ele>
        <time>2019-09-01T14:42:05Z</time>
      </trkpt>
      <trkpt lat="57.3656390234828" lon="-3.524164985865355">
        <ele>164.03999999999999</ele>
        <time>2019-09-01T14:42:06Z</time>
      </trkpt>
      <trkpt lat="57.365555036813021" lon="-3.524195998907089">
        <ele>163.56</ele>
        <time>2019-09-01T14:42:07Z</time>
      </trkpt>
      <trkpt lat="57.365458980202675" lon="-3.52417797781527">
        <ele>163.56</ele>
        <time>2019-09-01T14:42:08Z</time>
      </trkpt>
      <trkpt lat="57.365366024896502" lon="-3.52413397282362">
        <ele>163.08000000000001</ele>
        <time>2019-09-01T14:42:09Z</time>
      </trkpt>
      <trkpt lat="57.365265022963285" lon="-3.524085022509098">
        <ele>163.08000000000001</ele>
        <time>2019-09-01T14:42:10Z</time>
      </trkpt>
      <trkpt lat="57.365161003544927" lon="-3.524033976718783">
        <ele>162.59999999999999</ele>
        <time>2019-09-01T14:42:11Z</time>
      </trkpt>
      <trkpt lat="57.365057989954948" lon="-3.523984020575881">
        <ele>162.59999999999999</ele>
        <time>2019-09-01T14:42:12Z</time>
      </trkpt>
      <trkpt lat="57.364841988310218" lon="-3.523886958137155">
        <ele>162.12</ele>
        <time>2019-09-01T14:42:14Z</time>
      </trkpt>
      <trkpt lat="57.363568022847176" lon="-3.523950995877385">
        <ele>162.12</ele>
        <time>2019-09-01T14:42:24Z</time>
      </trkpt>
      <trkpt lat="57.363464003428817" lon="-3.523992989212275">
        <ele>162.59999999999999</ele>
        <time>2019-09-01T14:42:25Z</time>
      </trkpt>
      <trkpt lat="57.36336400732398" lon="-3.524033976718783">
        <ele>163.08000000000001</ele>
        <time>2019-09-01T14:42:26Z</time>
      </trkpt>
      <trkpt lat="57.363255964592099" lon="-3.524077981710434">
        <ele>163.08000000000001</ele>
        <time>2019-09-01T14:42:27Z</time>
      </trkpt>
      <trkpt lat="57.362927980720997" lon="-3.524256013333798">
        <ele>164.03999999999999</ele>
        <time>2019-09-01T14:42:30Z</time>
      </trkpt>
      <trkpt lat="57.362818010151386" lon="-3.524340000003576">
        <ele>164.03999999999999</ele>
        <time>2019-09-01T14:42:31Z</time>
      </trkpt>
      <trkpt lat="57.362505029886961" lon="-3.524772003293037">
        <ele>164.52000000000001</ele>
        <time>2019-09-01T14:42:34Z</time>
      </trkpt>
      <trkpt lat="57.361761974170804" lon="-3.526527006179094">
        <ele>167.88999999999999</ele>
        <time>2019-09-01T14:42:43Z</time>
      </trkpt>
      <trkpt lat="57.361734984442592" lon="-3.526705959811807">
        <ele>168.37</ele>
        <time>2019-09-01T14:42:44Z</time>
      </trkpt>
      <trkpt lat="57.36171000637114" lon="-3.526878040283918">
        <ele>168.84999999999999</ele>
        <time>2019-09-01T14:42:45Z</time>
      </trkpt>
      <trkpt lat="57.361714029684663" lon="-3.527045007795095">
        <ele>169.81</ele>
        <time>2019-09-01T14:42:46Z</time>
      </trkpt>
      <trkpt lat="57.36173297278583" lon="-3.527214992791414">
        <ele>170.77000000000001</ele>
        <time>2019-09-01T14:42:47Z</time>
      </trkpt>
      <trkpt lat="57.361764991655946" lon="-3.527373997494578">
        <ele>172.21000000000001</ele>
        <time>2019-09-01T14:42:48Z</time>
      </trkpt>
      <trkpt lat="57.361821988597512" lon="-3.527521016076207">
        <ele>173.66</ele>
        <time>2019-09-01T14:42:49Z</time>
      </trkpt>
      <trkpt lat="57.361876973882318" lon="-3.527665017172694">
        <ele>174.62</ele>
        <time>2019-09-01T14:42:50Z</time>
      </trkpt>
      <trkpt lat="57.361927013844252" lon="-3.527794014662504">
        <ele>175.58000000000001</ele>
        <time>2019-09-01T14:42:51Z</time>
      </trkpt>
      <trkpt lat="57.361962972208858" lon="-3.527944972738624">
        <ele>176.06</ele>
        <time>2019-09-01T14:42:52Z</time>
      </trkpt>
      <trkpt lat="57.361973030492663" lon="-3.528091991320252">
        <ele>176.53999999999999</ele>
        <time>2019-09-01T14:42:53Z</time>
      </trkpt>
      <trkpt lat="57.361961966380477" lon="-3.528287038207054">
        <ele>177.02000000000001</ele>
        <time>2019-09-01T14:42:54Z</time>
      </trkpt>
      <trkpt lat="57.361922990530729" lon="-3.528473032638431">
        <ele>177.5</ele>
        <time>2019-09-01T14:42:55Z</time>
      </trkpt>
      <trkpt lat="57.361878985539079" lon="-3.528681993484497">
        <ele>177.97999999999999</ele>
        <time>2019-09-01T14:42:56Z</time>
      </trkpt>
      <trkpt lat="57.361831963062286" lon="-3.528906963765621">
        <ele>178.46000000000001</ele>
        <time>2019-09-01T14:42:57Z</time>
      </trkpt>
      <trkpt lat="57.36143097281456" lon="-3.53081502020359">
        <ele>179.41999999999999</ele>
        <time>2019-09-01T14:43:04Z</time>
      </trkpt>
      <trkpt lat="57.361137019470334" lon="-3.532281015068293">
        <ele>180.87</ele>
        <time>2019-09-01T14:43:10Z</time>
      </trkpt>
      <trkpt lat="57.361012967303395" lon="-3.53317997418344">
        <ele>181.34999999999999</ele>
        <time>2019-09-01T14:43:14Z</time>
      </trkpt>
      <trkpt lat="57.360982038080692" lon="-3.533401004970074">
        <ele>181.83000000000001</ele>
        <time>2019-09-01T14:43:15Z</time>
      </trkpt>
      <trkpt lat="57.360926968976855" lon="-3.533610971644521">
        <ele>182.31</ele>
        <time>2019-09-01T14:43:16Z</time>
      </trkpt>
      <trkpt lat="57.360839964821935" lon="-3.533796966075897">
        <ele>182.78999999999999</ele>
        <time>2019-09-01T14:43:17Z</time>
      </trkpt>
      <trkpt lat="57.36074298620224" lon="-3.533981032669544">
        <ele>183.75</ele>
        <time>2019-09-01T14:43:18Z</time>
      </trkpt>
      <trkpt lat="57.360013006255031" lon="-3.535596979781985">
        <ele>191.44</ele>
        <time>2019-09-01T14:43:26Z</time>
      </trkpt>
      <trkpt lat="57.359374975785613" lon="-3.537226002663374">
        <ele>196.25</ele>
        <time>2019-09-01T14:43:34Z</time>
      </trkpt>
      <trkpt lat="57.358087012544274" lon="-3.539714002981782">
        <ele>199.13</ele>
        <time>2019-09-01T14:43:47Z</time>
      </trkpt>
      <trkpt lat="57.35728302039206" lon="-3.541587023064494">
        <ele>199.61000000000001</ele>
        <time>2019-09-01T14:43:56Z</time>
      </trkpt>
      <trkpt lat="57.357097025960684" lon="-3.542309962213039">
        <ele>199.61000000000001</ele>
        <time>2019-09-01T14:43:59Z</time>
      </trkpt>
      <trkpt lat="57.357062995433807" lon="-3.542554965242744">
        <ele>199.13</ele>
        <time>2019-09-01T14:44:00Z</time>
      </trkpt>
      <trkpt lat="57.357054026797414" lon="-3.542793011292815">
        <ele>199.13</ele>
        <time>2019-09-01T14:44:01Z</time>
      </trkpt>
      <trkpt lat="57.357034999877214" lon="-3.543264996260405">
        <ele>199.13</ele>
        <time>2019-09-01T14:44:03Z</time>
      </trkpt>
      <trkpt lat="57.357026031240821" lon="-3.543505975976586">
        <ele>199.13</ele>
        <time>2019-09-01T14:44:04Z</time>
      </trkpt>
      <trkpt lat="57.357007004320621" lon="-3.5440060403198">
        <ele>198.65000000000001</ele>
        <time>2019-09-01T14:44:06Z</time>
      </trkpt>
      <trkpt lat="57.356721013784409" lon="-3.545968998223543">
        <ele>197.21000000000001</ele>
        <time>2019-09-01T14:44:13Z</time>
      </trkpt>
      <trkpt lat="57.356652030721307" lon="-3.546215007081628">
        <ele>197.21000000000001</ele>
        <time>2019-09-01T14:44:14Z</time>
      </trkpt>
      <trkpt lat="57.356046019122005" lon="-3.548660008236766">
        <ele>199.13</ele>
        <time>2019-09-01T14:44:23Z</time>
      </trkpt>
      <trkpt lat="57.355746030807495" lon="-3.549632979556918">
        <ele>201.05000000000001</ele>
        <time>2019-09-01T14:44:27Z</time>
      </trkpt>
      <trkpt lat="57.354612965136766" lon="-3.552082004025579">
        <ele>202.97999999999999</ele>
        <time>2019-09-01T14:44:38Z</time>
      </trkpt>
      <trkpt lat="57.353987004607916" lon="-3.553635003045201">
        <ele>203.94</ele>
        <time>2019-09-01T14:44:45Z</time>
      </trkpt>
      <trkpt lat="57.353897988796234" lon="-3.553800964727998">
        <ele>203.46000000000001</ele>
        <time>2019-09-01T14:44:46Z</time>
      </trkpt>
      <trkpt lat="57.353628007695079" lon="-3.554304968565702">
        <ele>203.46000000000001</ele>
        <time>2019-09-01T14:44:49Z</time>
      </trkpt>
      <trkpt lat="57.353525999933481" lon="-3.554403958842158">
        <ele>203.46000000000001</ele>
        <time>2019-09-01T14:44:50Z</time>
      </trkpt>
      <trkpt lat="57.353412006050348" lon="-3.554498003795743">
        <ele>203.46000000000001</ele>
        <time>2019-09-01T14:44:51Z</time>
      </trkpt>
      <trkpt lat="57.353038005530834" lon="-3.554802015423775">
        <ele>203.94</ele>
        <time>2019-09-01T14:44:54Z</time>
      </trkpt>
      <trkpt lat="57.352924011647701" lon="-3.554915003478527">
        <ele>203.94</ele>
        <time>2019-09-01T14:44:55Z</time>
      </trkpt>
      <trkpt lat="57.352715972810984" lon="-3.555122958496213">
        <ele>204.41999999999999</ele>
        <time>2019-09-01T14:44:57Z</time>
      </trkpt>
      <trkpt lat="57.352604996412992" lon="-3.555234018713236">
        <ele>204.41999999999999</ele>
        <time>2019-09-01T14:44:58Z</time>
      </trkpt>
      <trkpt lat="57.35249100252986" lon="-3.555303001776338">
        <ele>203.94</ele>
        <time>2019-09-01T14:44:59Z</time>
      </trkpt>
      <trkpt lat="57.351402025669813" lon="-3.555773980915546">
        <ele>199.61000000000001</ele>
        <time>2019-09-01T14:45:07Z</time>
      </trkpt>
      <trkpt lat="57.350090006366372" lon="-3.556699007749558">
        <ele>199.13</ele>
        <time>2019-09-01T14:45:16Z</time>
      </trkpt>
      <trkpt lat="57.349663032218814" lon="-3.557017017155886">
        <ele>198.16999999999999</ele>
        <time>2019-09-01T14:45:19Z</time>
      </trkpt>
      <trkpt lat="57.349538980051875" lon="-3.557178033515811">
        <ele>197.69</ele>
        <time>2019-09-01T14:45:20Z</time>
      </trkpt>
      <trkpt lat="57.349402019754052" lon="-3.557355981320143">
        <ele>197.21000000000001</ele>
        <time>2019-09-01T14:45:21Z</time>
      </trkpt>
      <trkpt lat="57.349264975637197" lon="-3.557553039863706">
        <ele>196.72999999999999</ele>
        <time>2019-09-01T14:45:22Z</time>
      </trkpt>
      <trkpt lat="57.349145030602813" lon="-3.557782033458352">
        <ele>196.25</ele>
        <time>2019-09-01T14:45:23Z</time>
      </trkpt>
      <trkpt lat="57.34903497621417" lon="-3.558026030659676">
        <ele>195.77000000000001</ele>
        <time>2019-09-01T14:45:24Z</time>
      </trkpt>
      <trkpt lat="57.348936991766095" lon="-3.558282013982534">
        <ele>195.28</ele>
        <time>2019-09-01T14:45:25Z</time>
      </trkpt>
      <trkpt lat="57.348835989832878" lon="-3.558544032275677">
        <ele>195.28</ele>
        <time>2019-09-01T14:45:26Z</time>
      </trkpt>
      <trkpt lat="57.348749991506338" lon="-3.558814013376832">
        <ele>195.28</ele>
        <time>2019-09-01T14:45:27Z</time>
      </trkpt>
      <trkpt lat="57.348369034007192" lon="-3.560015978291631">
        <ele>193.84</ele>
        <time>2019-09-01T14:45:32Z</time>
      </trkpt>
      <trkpt lat="57.348261997103691" lon="-3.560234997421503">
        <ele>193.36000000000001</ele>
        <time>2019-09-01T14:45:33Z</time>
      </trkpt>
      <trkpt lat="57.347522964701056" lon="-3.561747008934617">
        <ele>193.36000000000001</ele>
        <time>2019-09-01T14:45:40Z</time>
      </trkpt>
      <trkpt lat="57.347170002758503" lon="-3.563074031844735">
        <ele>195.28</ele>
        <time>2019-09-01T14:45:45Z</time>
      </trkpt>
      <trkpt lat="57.347094984725118" lon="-3.563375025987625">
        <ele>195.77000000000001</ele>
        <time>2019-09-01T14:45:46Z</time>
      </trkpt>
      <trkpt lat="57.346652001142502" lon="-3.565072026103735">
        <ele>198.65000000000001</ele>
        <time>2019-09-01T14:45:52Z</time>
      </trkpt>
      <trkpt lat="57.345835017040372" lon="-3.56695200316608">
        <ele>202.49000000000001</ele>
        <time>2019-09-01T14:45:59Z</time>
      </trkpt>
      <trkpt lat="57.345301005989313" lon="-3.568228986114264">
        <ele>203.94</ele>
        <time>2019-09-01T14:46:04Z</time>
      </trkpt>
      <trkpt lat="57.344830026850104" lon="-3.570097982883453">
        <ele>205.86000000000001</ele>
        <time>2019-09-01T14:46:11Z</time>
      </trkpt>
      <trkpt lat="57.344213034957647" lon="-3.572763008996844">
        <ele>206.81999999999999</ele>
        <time>2019-09-01T14:46:21Z</time>
      </trkpt>
      <trkpt lat="57.343599982559681" lon="-3.574940962716937">
        <ele>205.38</ele>
        <time>2019-09-01T14:46:30Z</time>
      </trkpt>
      <trkpt lat="57.343513984233141" lon="-3.575147995725274">
        <ele>204.41999999999999</ele>
        <time>2019-09-01T14:46:31Z</time>
      </trkpt>
      <trkpt lat="57.343400996178389" lon="-3.575290990993381">
        <ele>203.94</ele>
        <time>2019-09-01T14:46:32Z</time>
      </trkpt>
      <trkpt lat="57.343281973153353" lon="-3.575430968776345">
        <ele>203.46000000000001</ele>
        <time>2019-09-01T14:46:33Z</time>
      </trkpt>
      <trkpt lat="57.343159010633826" lon="-3.575573964044452">
        <ele>202.97999999999999</ele>
        <time>2019-09-01T14:46:34Z</time>
      </trkpt>
      <trkpt lat="57.343026995658875" lon="-3.575675971806049">
        <ele>202.00999999999999</ele>
        <time>2019-09-01T14:46:35Z</time>
      </trkpt>
      <trkpt lat="57.342878971248865" lon="-3.575763981789351">
        <ele>201.53</ele>
        <time>2019-09-01T14:46:36Z</time>
      </trkpt>
      <trkpt lat="57.342733964323997" lon="-3.575851991772652">
        <ele>200.56999999999999</ele>
        <time>2019-09-01T14:46:37Z</time>
      </trkpt>
      <trkpt lat="57.341864006593823" lon="-3.576569985598326">
        <ele>195.28</ele>
        <time>2019-09-01T14:46:43Z</time>
      </trkpt>
      <trkpt lat="57.341751018539071" lon="-3.576766038313508">
        <ele>194.31999999999999</ele>
        <time>2019-09-01T14:46:44Z</time>
      </trkpt>
      <trkpt lat="57.341643981635571" lon="-3.576970975846052">
        <ele>193.84</ele>
        <time>2019-09-01T14:46:45Z</time>
      </trkpt>
      <trkpt lat="57.341544991359115" lon="-3.577198041602969">
        <ele>192.88</ele>
        <time>2019-09-01T14:46:46Z</time>
      </trkpt>
      <trkpt lat="57.341441977769136" lon="-3.577432986348867">
        <ele>192.88</ele>
        <time>2019-09-01T14:46:47Z</time>
      </trkpt>
      <trkpt lat="57.340719038620591" lon="-3.579085981473327">
        <ele>192.88</ele>
        <time>2019-09-01T14:46:54Z</time>
      </trkpt>
      <trkpt lat="57.340625999495387" lon="-3.579295026138425">
        <ele>192.88</ele>
        <time>2019-09-01T14:46:55Z</time>
      </trkpt>
      <trkpt lat="57.340506976470351" lon="-3.579442966729403">
        <ele>193.36000000000001</ele>
        <time>2019-09-01T14:46:56Z</time>
      </trkpt>
      <trkpt lat="57.340372027829289" lon="-3.579612029716373">
        <ele>193.84</ele>
        <time>2019-09-01T14:46:57Z</time>
      </trkpt>
      <trkpt lat="57.340259039774537" lon="-3.579706996679306">
        <ele>194.31999999999999</ele>
        <time>2019-09-01T14:46:58Z</time>
      </trkpt>
      <trkpt lat="57.339652022346854" lon="-3.580392971634865">
        <ele>195.28</ele>
        <time>2019-09-01T14:47:03Z</time>
      </trkpt>
      <trkpt lat="57.33878499828279" lon="-3.582009002566338">
        <ele>196.25</ele>
        <time>2019-09-01T14:47:11Z</time>
      </trkpt>
      <trkpt lat="57.337800962850451" lon="-3.584002973511815">
        <ele>196.25</ele>
        <time>2019-09-01T14:47:19Z</time>
      </trkpt>
      <trkpt lat="57.336741993203759" lon="-3.586360970512033">
        <ele>197.21000000000001</ele>
        <time>2019-09-01T14:47:28Z</time>
      </trkpt>
      <trkpt lat="57.336641997098923" lon="-3.586606979370117">
        <ele>197.21000000000001</ele>
        <time>2019-09-01T14:47:29Z</time>
      </trkpt>
      <trkpt lat="57.336544012650847" lon="-3.586847959086299">
        <ele>197.69</ele>
        <time>2019-09-01T14:47:30Z</time>
      </trkpt>
      <trkpt lat="57.336449967697263" lon="-3.587088016793132">
        <ele>198.16999999999999</ele>
        <time>2019-09-01T14:47:31Z</time>
      </trkpt>
      <trkpt lat="57.336362963542342" lon="-3.587347017601132">
        <ele>198.16999999999999</ele>
        <time>2019-09-01T14:47:32Z</time>
      </trkpt>
      <trkpt lat="57.336275959387422" lon="-3.587608030065894">
        <ele>198.65000000000001</ele>
        <time>2019-09-01T14:47:33Z</time>
      </trkpt>
      <trkpt lat="57.336197001859546" lon="-3.587887985631824">
        <ele>199.13</ele>
        <time>2019-09-01T14:47:34Z</time>
      </trkpt>
      <trkpt lat="57.335393009707332" lon="-3.591591026633978">
        <ele>202.49000000000001</ele>
        <time>2019-09-01T14:47:46Z</time>
      </trkpt>
      <trkpt lat="57.334805019199848" lon="-3.593983976170421">
        <ele>202.00999999999999</ele>
        <time>2019-09-01T14:47:54Z</time>
      </trkpt>
      <trkpt lat="57.334329010918736" lon="-3.596007032319903">
        <ele>204.41999999999999</ele>
        <time>2019-09-01T14:48:02Z</time>
      </trkpt>
      <trkpt lat="57.334300009533763" lon="-3.596220016479492">
        <ele>204.90000000000001</ele>
        <time>2019-09-01T14:48:03Z</time>
      </trkpt>
      <trkpt lat="57.334300009533763" lon="-3.59640902839601">
        <ele>205.38</ele>
        <time>2019-09-01T14:48:04Z</time>
      </trkpt>
      <trkpt lat="57.334300009533763" lon="-3.596615977585316">
        <ele>205.38</ele>
        <time>2019-09-01T14:48:05Z</time>
      </trkpt>
      <trkpt lat="57.334332028403878" lon="-3.596827033907175">
        <ele>205.86000000000001</ele>
        <time>2019-09-01T14:48:06Z</time>
      </trkpt>
      <trkpt lat="57.334375027567148" lon="-3.59703398309648">
        <ele>206.34</ele>
        <time>2019-09-01T14:48:07Z</time>
      </trkpt>
      <trkpt lat="57.334419032558799" lon="-3.59724797308445">
        <ele>206.34</ele>
        <time>2019-09-01T14:48:08Z</time>
      </trkpt>
      <trkpt lat="57.334462031722069" lon="-3.597459029406309">
        <ele>206.81999999999999</ele>
        <time>2019-09-01T14:48:09Z</time>
      </trkpt>
      <trkpt lat="57.334679961204529" lon="-3.598478017374873">
        <ele>208.74000000000001</ele>
        <time>2019-09-01T14:48:15Z</time>
      </trkpt>
      <trkpt lat="57.335038958117366" lon="-3.600006038323045">
        <ele>212.59</ele>
        <time>2019-09-01T14:48:24Z</time>
      </trkpt>
      <trkpt lat="57.335278009995818" lon="-3.601012034341693">
        <ele>212.59</ele>
        <time>2019-09-01T14:48:30Z</time>
      </trkpt>
      <trkpt lat="57.335314974188805" lon="-3.601170033216476">
        <ele>212.11000000000001</ele>
        <time>2019-09-01T14:48:31Z</time>
      </trkpt>
      <trkpt lat="57.335799029096961" lon="-3.60324296168983">
        <ele>211.15000000000001</ele>
        <time>2019-09-01T14:48:44Z</time>
      </trkpt>
      <trkpt lat="57.335881004109979" lon="-3.603604976087809">
        <ele>211.63</ele>
        <time>2019-09-01T14:48:50Z</time>
      </trkpt>
      <trkpt lat="57.335896007716656" lon="-3.603674964979291">
        <ele>211.63</ele>
        <time>2019-09-01T14:48:51Z</time>
      </trkpt>
      <trkpt lat="57.335910005494952" lon="-3.603730034083128">
        <ele>211.63</ele>
        <time>2019-09-01T14:48:52Z</time>
      </trkpt>
      <trkpt lat="57.33596901409328" lon="-3.603725004941225">
        <ele>211.63</ele>
        <time>2019-09-01T14:48:53Z</time>
      </trkpt>
      <trkpt lat="57.336044032126665" lon="-3.60371695831418">
        <ele>212.11000000000001</ele>
        <time>2019-09-01T14:48:54Z</time>
      </trkpt>
      <trkpt lat="57.336130030453205" lon="-3.603708995506167">
        <ele>212.59</ele>
        <time>2019-09-01T14:48:55Z</time>
      </trkpt>
      <trkpt lat="57.337048016488552" lon="-3.603613022714853">
        <ele>218.84</ele>
        <time>2019-09-01T14:49:03Z</time>
      </trkpt>
      <trkpt lat="57.337179025635123" lon="-3.603601036593318">
        <ele>219.80000000000001</ele>
        <time>2019-09-01T14:49:04Z</time>
      </trkpt>
      <trkpt lat="57.338378978893161" lon="-3.603835981339216">
        <ele>225.56999999999999</ele>
        <time>2019-09-01T14:49:13Z</time>
      </trkpt>
      <trkpt lat="57.338496996089816" lon="-3.603894989937544">
        <ele>226.53</ele>
        <time>2019-09-01T14:49:14Z</time>
      </trkpt>
      <trkpt lat="57.338817017152905" lon="-3.604132030159235">
        <ele>228.44999999999999</ele>
        <time>2019-09-01T14:49:17Z</time>
      </trkpt>
      <trkpt lat="57.338917013257742" lon="-3.604237977415323">
        <ele>229.41</ele>
        <time>2019-09-01T14:49:18Z</time>
      </trkpt>
      <trkpt lat="57.339415987953544" lon="-3.60485102981329">
        <ele>230.84999999999999</ele>
        <time>2019-09-01T14:49:23Z</time>
      </trkpt>
      <trkpt lat="57.339616985991597" lon="-3.605118999257684">
        <ele>231.33000000000001</ele>
        <time>2019-09-01T14:49:25Z</time>
      </trkpt>
      <trkpt lat="57.339819995686412" lon="-3.605418987572193">
        <ele>231.33000000000001</ele>
        <time>2019-09-01T14:49:27Z</time>
      </trkpt>
      <trkpt lat="57.340711997821927" lon="-3.606760008260608">
        <ele>233.74000000000001</ele>
        <time>2019-09-01T14:49:34Z</time>
      </trkpt>
      <trkpt lat="57.341021960601211" lon="-3.607094027101994">
        <ele>235.18000000000001</ele>
        <time>2019-09-01T14:49:36Z</time>
      </trkpt>
      <trkpt lat="57.342231972143054" lon="-3.607645975425839">
        <ele>239.50999999999999</ele>
        <time>2019-09-01T14:49:43Z</time>
      </trkpt>
      <trkpt lat="57.342418972402811" lon="-3.607677994295955">
        <ele>239.99000000000001</ele>
        <time>2019-09-01T14:49:44Z</time>
      </trkpt>
      <trkpt lat="57.342605972662568" lon="-3.607709007337689">
        <ele>240.47</ele>
        <time>2019-09-01T14:49:45Z</time>
      </trkpt>
      <trkpt lat="57.342794984579086" lon="-3.607741026207805">
        <ele>240.47</ele>
        <time>2019-09-01T14:49:46Z</time>
      </trkpt>
      <trkpt lat="57.344341026619077" lon="-3.60829196870327">
        <ele>246.72</ele>
        <time>2019-09-01T14:49:54Z</time>
      </trkpt>
      <trkpt lat="57.345884973183274" lon="-3.608489027246833">
        <ele>254.41</ele>
        <time>2019-09-01T14:50:02Z</time>
      </trkpt>
      <trkpt lat="57.347587002441287" lon="-3.608640991151333">
        <ele>259.69</ele>
        <time>2019-09-01T14:50:11Z</time>
      </trkpt>
      <trkpt lat="57.348766000941396" lon="-3.608746016398072">
        <ele>264.01999999999998</ele>
        <time>2019-09-01T14:50:18Z</time>
      </trkpt>
      <trkpt lat="57.350587975233793" lon="-3.608928993344307">
        <ele>264.5</ele>
        <time>2019-09-01T14:50:29Z</time>
      </trkpt>
      <trkpt lat="57.351573016494513" lon="-3.609029995277524">
        <ele>264.01999999999998</ele>
        <time>2019-09-01T14:50:36Z</time>
      </trkpt>
      <trkpt lat="57.3516979906708" lon="-3.609077017754316">
        <ele>263.54000000000002</ele>
        <time>2019-09-01T14:50:37Z</time>
      </trkpt>
      <trkpt lat="57.351811984553933" lon="-3.609120016917586">
        <ele>264.01999999999998</ele>
        <time>2019-09-01T14:50:38Z</time>
      </trkpt>
      <trkpt lat="57.351922038942575" lon="-3.609162010252476">
        <ele>264.01999999999998</ele>
        <time>2019-09-01T14:50:39Z</time>
      </trkpt>
      <trkpt lat="57.35201801173389" lon="-3.609228981658816">
        <ele>264.01999999999998</ele>
        <time>2019-09-01T14:50:40Z</time>
      </trkpt>
      <trkpt lat="57.352119013667107" lon="-3.609297964721918">
        <ele>264.5</ele>
        <time>2019-09-01T14:50:41Z</time>
      </trkpt>
      <trkpt lat="57.352224038913846" lon="-3.609369965270162">
        <ele>264.98000000000002</ele>
        <time>2019-09-01T14:50:42Z</time>
      </trkpt>
      <trkpt lat="57.352338032796979" lon="-3.609373988583684">
        <ele>265.94</ele>
        <time>2019-09-01T14:50:43Z</time>
      </trkpt>
      <trkpt lat="57.352451020851731" lon="-3.609341969713569">
        <ele>266.42000000000002</ele>
        <time>2019-09-01T14:50:44Z</time>
      </trkpt>
      <trkpt lat="57.352571971714497" lon="-3.609308023005724">
        <ele>266.89999999999998</ele>
        <time>2019-09-01T14:50:45Z</time>
      </trkpt>
      <trkpt lat="57.352844970300794" lon="-3.609233004972339">
        <ele>268.82999999999998</ele>
        <time>2019-09-01T14:50:47Z</time>
      </trkpt>
      <trkpt lat="57.354052970185876" lon="-3.609284972772002">
        <ele>275.56</ele>
        <time>2019-09-01T14:50:54Z</time>
      </trkpt>
      <trkpt lat="57.35565098002553" lon="-3.609439032152295">
        <ele>288.05000000000001</ele>
        <time>2019-09-01T14:51:03Z</time>
      </trkpt>
      <trkpt lat="57.356924023479223" lon="-3.609456969425082">
        <ele>293.81999999999999</ele>
        <time>2019-09-01T14:51:11Z</time>
      </trkpt>
      <trkpt lat="57.357238009572029" lon="-3.609352027997375">
        <ele>293.81999999999999</ele>
        <time>2019-09-01T14:51:13Z</time>
      </trkpt>
      <trkpt lat="57.357409000396729" lon="-3.609295031055808">
        <ele>293.33999999999997</ele>
        <time>2019-09-01T14:51:14Z</time>
      </trkpt>
      <trkpt lat="57.358578024432063" lon="-3.608994036912918">
        <ele>291.89999999999998</ele>
        <time>2019-09-01T14:51:20Z</time>
      </trkpt>
      <trkpt lat="57.358785979449749" lon="-3.608949026092887">
        <ele>291.89999999999998</ele>
        <time>2019-09-01T14:51:21Z</time>
      </trkpt>
      <trkpt lat="57.360362028703094" lon="-3.608928993344307">
        <ele>291.89999999999998</ele>
        <time>2019-09-01T14:51:29Z</time>
      </trkpt>
      <trkpt lat="57.361476989462972" lon="-3.609101995825768">
        <ele>292.86000000000001</ele>
        <time>2019-09-01T14:51:35Z</time>
      </trkpt>
      <trkpt lat="57.362850029021502" lon="-3.609822001308203">
        <ele>294.30000000000001</ele>
        <time>2019-09-01T14:51:42Z</time>
      </trkpt>
      <trkpt lat="57.364616012200713" lon="-3.610822968184948">
        <ele>297.67000000000002</ele>
        <time>2019-09-01T14:51:51Z</time>
      </trkpt>
      <trkpt lat="57.366429017856717" lon="-3.611790994182229">
        <ele>303.91000000000003</ele>
        <time>2019-09-01T14:52:00Z</time>
      </trkpt>
      <trkpt lat="57.367310039699078" lon="-3.612406980246306">
        <ele>306.80000000000001</ele>
        <time>2019-09-01T14:52:05Z</time>
      </trkpt>
      <trkpt lat="57.368911989033222" lon="-3.614387037232518">
        <ele>309.68000000000001</ele>
        <time>2019-09-01T14:52:15Z</time>
      </trkpt>
      <trkpt lat="57.369247013702989" lon="-3.615125985816121">
        <ele>309.68000000000001</ele>
        <time>2019-09-01T14:52:18Z</time>
      </trkpt>
      <trkpt lat="57.36931599676609" lon="-3.615404013544321">
        <ele>309.19999999999999</ele>
        <time>2019-09-01T14:52:19Z</time>
      </trkpt>
      <trkpt lat="57.369385985657573" lon="-3.615695033222437">
        <ele>309.19999999999999</ele>
        <time>2019-09-01T14:52:20Z</time>
      </trkpt>
      <trkpt lat="57.370219985023141" lon="-3.61914100125432">
        <ele>311.60000000000002</ele>
        <time>2019-09-01T14:52:31Z</time>
      </trkpt>
      <trkpt lat="57.370704961940646" lon="-3.620427036657929">
        <ele>313.52999999999997</ele>
        <time>2019-09-01T14:52:37Z</time>
      </trkpt>
      <trkpt lat="57.371456986293197" lon="-3.621972994878888">
        <ele>316.41000000000003</ele>
        <time>2019-09-01T14:52:45Z</time>
      </trkpt>
      <trkpt lat="57.37223600037396" lon="-3.624012982472777">
        <ele>317.85000000000002</ele>
        <time>2019-09-01T14:52:52Z</time>
      </trkpt>
      <trkpt lat="57.373075028881431" lon="-3.626459995284677">
        <ele>318.32999999999998</ele>
        <time>2019-09-01T14:53:00Z</time>
      </trkpt>
      <trkpt lat="57.373692020773888" lon="-3.629158968105912">
        <ele>323.62</ele>
        <time>2019-09-01T14:53:08Z</time>
      </trkpt>
      <trkpt lat="57.374382019042969" lon="-3.630945989862084">
        <ele>331.79000000000002</ele>
        <time>2019-09-01T14:53:14Z</time>
      </trkpt>
      <trkpt lat="57.375076040625572" lon="-3.632263960316777">
        <ele>335.63999999999999</ele>
        <time>2019-09-01T14:53:19Z</time>
      </trkpt>
      <trkpt lat="57.37634296528995" lon="-3.633563993498683">
        <ele>337.07999999999998</ele>
        <time>2019-09-01T14:53:26Z</time>
      </trkpt>
      <trkpt lat="57.378441961482167" lon="-3.634905014187098">
        <ele>328.91000000000003</ele>
        <time>2019-09-01T14:53:36Z</time>
      </trkpt>
      <trkpt lat="57.381266998127103" lon="-3.636767975986004">
        <ele>320.74000000000001</ele>
        <time>2019-09-01T14:53:50Z</time>
      </trkpt>
      <trkpt lat="57.383675035089254" lon="-3.638430023565888">
        <ele>318.81</ele>
        <time>2019-09-01T14:54:02Z</time>
      </trkpt>
      <trkpt lat="57.386508034542203" lon="-3.640387030318379">
        <ele>321.69999999999999</ele>
        <time>2019-09-01T14:54:16Z</time>
      </trkpt>
      <trkpt lat="57.388439979404211" lon="-3.64165797829628">
        <ele>322.18000000000001</ele>
        <time>2019-09-01T14:54:26Z</time>
      </trkpt>
      <trkpt lat="57.3899170383811" lon="-3.642090987414122">
        <ele>320.25999999999999</ele>
        <time>2019-09-01T14:54:34Z</time>
      </trkpt>
      <trkpt lat="57.390667973086238" lon="-3.642112025991082">
        <ele>319.77999999999997</ele>
        <time>2019-09-01T14:54:38Z</time>
      </trkpt>
      <trkpt lat="57.39084298722446" lon="-3.64217396825552">
        <ele>319.77999999999997</ele>
        <time>2019-09-01T14:54:39Z</time>
      </trkpt>
      <trkpt lat="57.391020013019443" lon="-3.642252003774047">
        <ele>319.30000000000001</ele>
        <time>2019-09-01T14:54:40Z</time>
      </trkpt>
      <trkpt lat="57.391184968873858" lon="-3.642404973506928">
        <ele>319.30000000000001</ele>
        <time>2019-09-01T14:54:41Z</time>
      </trkpt>
      <trkpt lat="57.391338022425771" lon="-3.64258199930191">
        <ele>318.81</ele>
        <time>2019-09-01T14:54:42Z</time>
      </trkpt>
      <trkpt lat="57.391473976895213" lon="-3.642805963754654">
        <ele>318.81</ele>
        <time>2019-09-01T14:54:43Z</time>
      </trkpt>
      <trkpt lat="57.391608003526926" lon="-3.643025988712907">
        <ele>318.81</ele>
        <time>2019-09-01T14:54:44Z</time>
      </trkpt>
      <trkpt lat="57.391752004623413" lon="-3.643219023942947">
        <ele>318.81</ele>
        <time>2019-09-01T14:54:45Z</time>
      </trkpt>
      <trkpt lat="57.391891982406378" lon="-3.643383979797363">
        <ele>318.81</ele>
        <time>2019-09-01T14:54:46Z</time>
      </trkpt>
      <trkpt lat="57.392092980444431" lon="-3.643477018922567">
        <ele>319.30000000000001</ele>
        <time>2019-09-01T14:54:47Z</time>
      </trkpt>
      <trkpt lat="57.393201990053058" lon="-3.643994014710188">
        <ele>317.85000000000002</ele>
        <time>2019-09-01T14:54:53Z</time>
      </trkpt>
      <trkpt lat="57.393356971442699" lon="-3.644066015258431">
        <ele>317.37</ele>
        <time>2019-09-01T14:54:54Z</time>
      </trkpt>
      <trkpt lat="57.393495021387935" lon="-3.644179003313184">
        <ele>316.88999999999999</ele>
        <time>2019-09-01T14:54:55Z</time>
      </trkpt>
      <trkpt lat="57.393605997785926" lon="-3.644380001351237">
        <ele>315.93000000000001</ele>
        <time>2019-09-01T14:54:56Z</time>
      </trkpt>
      <trkpt lat="57.393711023032665" lon="-3.644602037966251">
        <ele>315.44999999999999</ele>
        <time>2019-09-01T14:54:57Z</time>
      </trkpt>
      <trkpt lat="57.393810013309121" lon="-3.644864978268743">
        <ele>314.97000000000003</ele>
        <time>2019-09-01T14:54:58Z</time>
      </trkpt>
      <trkpt lat="57.394826989620924" lon="-3.647518018260598">
        <ele>310.63999999999999</ele>
        <time>2019-09-01T14:55:07Z</time>
      </trkpt>
      <trkpt lat="57.39595502614975" lon="-3.650070978328586">
        <ele>312.56999999999999</ele>
        <time>2019-09-01T14:55:16Z</time>
      </trkpt>
      <trkpt lat="57.396124005317688" lon="-3.65031598135829">
        <ele>312.56999999999999</ele>
        <time>2019-09-01T14:55:17Z</time>
      </trkpt>
      <trkpt lat="57.396308993920684" lon="-3.650538017973304">
        <ele>312.56999999999999</ele>
        <time>2019-09-01T14:55:18Z</time>
      </trkpt>
      <trkpt lat="57.396503034979105" lon="-3.650752007961273">
        <ele>312.56999999999999</ele>
        <time>2019-09-01T14:55:19Z</time>
      </trkpt>
      <trkpt lat="57.397788986563683" lon="-3.651445023715496">
        <ele>312.08999999999997</ele>
        <time>2019-09-01T14:55:25Z</time>
      </trkpt>
      <trkpt lat="57.399254981428385" lon="-3.652327973395586">
        <ele>311.60000000000002</ele>
        <time>2019-09-01T14:55:33Z</time>
      </trkpt>
      <trkpt lat="57.401837026700377" lon="-3.654852015897632">
        <ele>309.19999999999999</ele>
        <time>2019-09-01T14:55:46Z</time>
      </trkpt>
      <trkpt lat="57.403651038184762" lon="-3.656343994662166">
        <ele>306.31999999999999</ele>
        <time>2019-09-01T14:55:55Z</time>
      </trkpt>
      <trkpt lat="57.40424900315702" lon="-3.656386993825436">
        <ele>305.36000000000001</ele>
        <time>2019-09-01T14:55:58Z</time>
      </trkpt>
      <trkpt lat="57.404436003416777" lon="-3.656290015205741">
        <ele>305.36000000000001</ele>
        <time>2019-09-01T14:55:59Z</time>
      </trkpt>
      <trkpt lat="57.404631972312927" lon="-3.656184989959002">
        <ele>304.88</ele>
        <time>2019-09-01T14:56:00Z</time>
      </trkpt>
      <trkpt lat="57.404835987836123" lon="-3.656077031046152">
        <ele>304.88</ele>
        <time>2019-09-01T14:56:01Z</time>
      </trkpt>
      <trkpt lat="57.405032040551305" lon="-3.655920960009098">
        <ele>304.88</ele>
        <time>2019-09-01T14:56:02Z</time>
      </trkpt>
      <trkpt lat="57.405222980305552" lon="-3.655713004991412">
        <ele>304.38999999999999</ele>
        <time>2019-09-01T14:56:03Z</time>
      </trkpt>
      <trkpt lat="57.405419033020735" lon="-3.655500020831823">
        <ele>303.91000000000003</ele>
        <time>2019-09-01T14:56:04Z</time>
      </trkpt>
      <trkpt lat="57.405598992481828" lon="-3.655231967568398">
        <ele>303.91000000000003</ele>
        <time>2019-09-01T14:56:05Z</time>
      </trkpt>
      <trkpt lat="57.407092982903123" lon="-3.653211006894708">
        <ele>306.31999999999999</ele>
        <time>2019-09-01T14:56:13Z</time>
      </trkpt>
      <trkpt lat="57.407291969284415" lon="-3.65304596722126">
        <ele>306.31999999999999</ele>
        <time>2019-09-01T14:56:14Z</time>
      </trkpt>
      <trkpt lat="57.407495984807611" lon="-3.652926022186875">
        <ele>306.80000000000001</ele>
        <time>2019-09-01T14:56:15Z</time>
      </trkpt>
      <trkpt lat="57.407697988674045" lon="-3.652809010818601">
        <ele>306.80000000000001</ele>
        <time>2019-09-01T14:56:16Z</time>
      </trkpt>
      <trkpt lat="57.407909967005253" lon="-3.652771040797234">
        <ele>306.80000000000001</ele>
        <time>2019-09-01T14:56:17Z</time>
      </trkpt>
      <trkpt lat="57.408130997791886" lon="-3.652736004441977">
        <ele>306.80000000000001</ele>
        <time>2019-09-01T14:56:18Z</time>
      </trkpt>
      <trkpt lat="57.40835596807301" lon="-3.65269904024899">
        <ele>307.27999999999997</ele>
        <time>2019-09-01T14:56:19Z</time>
      </trkpt>
      <trkpt lat="57.408584039658308" lon="-3.652739021927118">
        <ele>307.27999999999997</ele>
        <time>2019-09-01T14:56:20Z</time>
      </trkpt>
      <trkpt lat="57.410448007285595" lon="-3.653485011309385">
        <ele>309.19999999999999</ele>
        <time>2019-09-01T14:56:28Z</time>
      </trkpt>
      <trkpt lat="57.413991037756205" lon="-3.655076986178756">
        <ele>310.63999999999999</ele>
        <time>2019-09-01T14:56:43Z</time>
      </trkpt>
      <trkpt lat="57.416871981695294" lon="-3.656371990218759">
        <ele>310.63999999999999</ele>
        <time>2019-09-01T14:56:56Z</time>
      </trkpt>
      <trkpt lat="57.420141007751226" lon="-3.657925995066762">
        <ele>306.80000000000001</ele>
        <time>2019-09-01T14:57:11Z</time>
      </trkpt>
      <trkpt lat="57.420314010232687" lon="-3.658120036125183">
        <ele>305.83999999999997</ele>
        <time>2019-09-01T14:57:12Z</time>
      </trkpt>
      <trkpt lat="57.421723008155823" lon="-3.659708993509412">
        <ele>294.30000000000001</ele>
        <time>2019-09-01T14:57:19Z</time>
      </trkpt>
      <trkpt lat="57.422465980052948" lon="-3.660447020083666">
        <ele>287.56999999999999</ele>
        <time>2019-09-01T14:57:23Z</time>
      </trkpt>
      <trkpt lat="57.422634037211537" lon="-3.660546010360122">
        <ele>286.61000000000001</ele>
        <time>2019-09-01T14:57:24Z</time>
      </trkpt>
      <trkpt lat="57.422811985015869" lon="-3.660559002310038">
        <ele>285.64999999999998</ele>
        <time>2019-09-01T14:57:25Z</time>
      </trkpt>
      <trkpt lat="57.424050997942686" lon="-3.660490019246936">
        <ele>280.83999999999997</ele>
        <time>2019-09-01T14:57:31Z</time>
      </trkpt>
      <trkpt lat="57.424241015687585" lon="-3.660547016188502">
        <ele>280.36000000000001</ele>
        <time>2019-09-01T14:57:32Z</time>
      </trkpt>
      <trkpt lat="57.424430027604103" lon="-3.660603007301688">
        <ele>279.88</ele>
        <time>2019-09-01T14:57:33Z</time>
      </trkpt>
      <trkpt lat="57.425401993095875" lon="-3.660785984247923">
        <ele>277.95999999999998</ele>
        <time>2019-09-01T14:57:38Z</time>
      </trkpt>
      <trkpt lat="57.425597039982677" lon="-3.660768968984485">
        <ele>277.95999999999998</ele>
        <time>2019-09-01T14:57:39Z</time>
      </trkpt>
      <trkpt lat="57.427147021517158" lon="-3.660321962088347">
        <ele>279.88</ele>
        <time>2019-09-01T14:57:47Z</time>
      </trkpt>
      <trkpt lat="57.428277991712093" lon="-3.659904962405562">
        <ele>280.83999999999997</ele>
        <time>2019-09-01T14:57:55Z</time>
      </trkpt>
      <trkpt lat="57.42958297021687" lon="-3.659309009090066">
        <ele>279.88</ele>
        <time>2019-09-01T14:58:05Z</time>
      </trkpt>
      <trkpt lat="57.430026959627867" lon="-3.658975996077061">
        <ele>279.88</ele>
        <time>2019-09-01T14:58:09Z</time>
      </trkpt>
      <trkpt lat="57.430102983489633" lon="-3.658984964713454">
        <ele>279.88</ele>
        <time>2019-09-01T14:58:10Z</time>
      </trkpt>
      <trkpt lat="57.430162997916341" lon="-3.659007009118795">
        <ele>279.39999999999998</ele>
        <time>2019-09-01T14:58:11Z</time>
      </trkpt>
      <trkpt lat="57.430215971544385" lon="-3.659027041867375">
        <ele>279.39999999999998</ele>
        <time>2019-09-01T14:58:12Z</time>
      </trkpt>
      <trkpt lat="57.430228041484952" lon="-3.65910398773849">
        <ele>279.39999999999998</ele>
        <time>2019-09-01T14:58:13Z</time>
      </trkpt>
      <trkpt lat="57.4302479904145" lon="-3.65923197939992">
        <ele>279.39999999999998</ele>
        <time>2019-09-01T14:58:14Z</time>
      </trkpt>
      <trkpt lat="57.430272968485951" lon="-3.659386960789561">
        <ele>278.92000000000002</ele>
        <time>2019-09-01T14:58:15Z</time>
      </trkpt>
      <trkpt lat="57.430300964042544" lon="-3.659562980756164">
        <ele>278.92000000000002</ele>
        <time>2019-09-01T14:58:16Z</time>
      </trkpt>
      <trkpt lat="57.430300964042544" lon="-3.659780994057655">
        <ele>278.44</ele>
        <time>2019-09-01T14:58:17Z</time>
      </trkpt>
      <trkpt lat="57.430300964042544" lon="-3.660023985430598">
        <ele>277.95999999999998</ele>
        <time>2019-09-01T14:58:18Z</time>
      </trkpt>
      <trkpt lat="57.430286966264248" lon="-3.660290027037263">
        <ele>277.48000000000002</ele>
        <time>2019-09-01T14:58:19Z</time>
      </trkpt>
      <trkpt lat="57.4299889896065" lon="-3.662880035117269">
        <ele>274.58999999999997</ele>
        <time>2019-09-01T14:58:28Z</time>
      </trkpt>
      <trkpt lat="57.429707022383809" lon="-3.665488986298442">
        <ele>272.67000000000002</ele>
        <time>2019-09-01T14:58:37Z</time>
      </trkpt>
      <trkpt lat="57.429704004898667" lon="-3.665730971843004">
        <ele>272.67000000000002</ele>
        <time>2019-09-01T14:58:38Z</time>
      </trkpt>
      <trkpt lat="57.42973099462688" lon="-3.665987960994244">
        <ele>273.14999999999998</ele>
        <time>2019-09-01T14:58:39Z</time>
      </trkpt>
      <trkpt lat="57.429807018488646" lon="-3.666519038379192">
        <ele>273.14999999999998</ele>
        <time>2019-09-01T14:58:41Z</time>
      </trkpt>
      <trkpt lat="57.430129973217845" lon="-3.668625997379422">
        <ele>271.23000000000002</ele>
        <time>2019-09-01T14:58:48Z</time>
      </trkpt>
      <trkpt lat="57.43018202483654" lon="-3.668962027877569">
        <ele>270.75</ele>
        <time>2019-09-01T14:58:49Z</time>
      </trkpt>
      <trkpt lat="57.430434990674257" lon="-3.670609993860126">
        <ele>270.26999999999998</ele>
        <time>2019-09-01T14:58:54Z</time>
      </trkpt>
      <trkpt lat="57.43048201315105" lon="-3.67091802880168">
        <ele>270.26999999999998</ele>
        <time>2019-09-01T14:58:55Z</time>
      </trkpt>
      <trkpt lat="57.431029016152024" lon="-3.674357039853931">
        <ele>273.63</ele>
        <time>2019-09-01T14:59:06Z</time>
      </trkpt>
      <trkpt lat="57.431607032194734" lon="-3.676973031833768">
        <ele>280.83999999999997</ele>
        <time>2019-09-01T14:59:14Z</time>
      </trkpt>
      <trkpt lat="57.43263297714293" lon="-3.679990014061332">
        <ele>284.69</ele>
        <time>2019-09-01T14:59:23Z</time>
      </trkpt>
      <trkpt lat="57.433707034215331" lon="-3.682753024622798">
        <ele>285.17000000000002</ele>
        <time>2019-09-01T14:59:32Z</time>
      </trkpt>
      <trkpt lat="57.433880958706141" lon="-3.683392982929945">
        <ele>284.69</ele>
        <time>2019-09-01T14:59:34Z</time>
      </trkpt>
      <trkpt lat="57.433957988396287" lon="-3.68372499011457">
        <ele>284.69</ele>
        <time>2019-09-01T14:59:35Z</time>
      </trkpt>
      <trkpt lat="57.434467021375895" lon="-3.687804965302348">
        <ele>282.27999999999997</ele>
        <time>2019-09-01T14:59:46Z</time>
      </trkpt>
      <trkpt lat="57.434756029397249" lon="-3.691349001601338">
        <ele>277</ele>
        <time>2019-09-01T14:59:55Z</time>
      </trkpt>
      <trkpt lat="57.435001032426953" lon="-3.694344023242593">
        <ele>274.58999999999997</ele>
        <time>2019-09-01T15:00:03Z</time>
      </trkpt>
      <trkpt lat="57.435277970507741" lon="-3.697731988504529">
        <ele>279.88</ele>
        <time>2019-09-01T15:00:13Z</time>
      </trkpt>
      <trkpt lat="57.435336979106069" lon="-3.698451993986964">
        <ele>282.27999999999997</ele>
        <time>2019-09-01T15:00:16Z</time>
      </trkpt>
      <trkpt lat="57.435392970219254" lon="-3.698703031986952">
        <ele>282.76999999999998</ele>
        <time>2019-09-01T15:00:17Z</time>
      </trkpt>
      <trkpt lat="57.435466982424259" lon="-3.698961026966572">
        <ele>283.25</ele>
        <time>2019-09-01T15:00:18Z</time>
      </trkpt>
      <trkpt lat="57.435564966872334" lon="-3.699217010289431">
        <ele>283.73000000000002</ele>
        <time>2019-09-01T15:00:19Z</time>
      </trkpt>
      <trkpt lat="57.435670997947454" lon="-3.699490008875728">
        <ele>284.20999999999998</ele>
        <time>2019-09-01T15:00:20Z</time>
      </trkpt>
      <trkpt lat="57.436123033985496" lon="-3.700512014329433">
        <ele>285.64999999999998</ele>
        <time>2019-09-01T15:00:24Z</time>
      </trkpt>
      <trkpt lat="57.436244990676641" lon="-3.700718963518739">
        <ele>286.13</ele>
        <time>2019-09-01T15:00:25Z</time>
      </trkpt>
      <trkpt lat="57.436403995379806" lon="-3.7008470389992">
        <ele>286.61000000000001</ele>
        <time>2019-09-01T15:00:26Z</time>
      </trkpt>
      <trkpt lat="57.436574986204505" lon="-3.700985005125403">
        <ele>286.61000000000001</ele>
        <time>2019-09-01T15:00:27Z</time>
      </trkpt>
      <trkpt lat="57.436757041141391" lon="-3.701132023707032">
        <ele>286.61000000000001</ele>
        <time>2019-09-01T15:00:28Z</time>
      </trkpt>
      <trkpt lat="57.438470972701907" lon="-3.702003993093967">
        <ele>285.17000000000002</ele>
        <time>2019-09-01T15:00:36Z</time>
      </trkpt>
      <trkpt lat="57.441144967451692" lon="-3.703359011560679">
        <ele>280.83999999999997</ele>
        <time>2019-09-01T15:00:49Z</time>
      </trkpt>
      <trkpt lat="57.443390982225537" lon="-3.704569023102522">
        <ele>277.48000000000002</ele>
        <time>2019-09-01T15:01:01Z</time>
      </trkpt>
      <trkpt lat="57.445537000894547" lon="-3.705875007435679">
        <ele>273.14999999999998</ele>
        <time>2019-09-01T15:01:13Z</time>
      </trkpt>
      <trkpt lat="57.446995032951236" lon="-3.707436975091696">
        <ele>268.35000000000002</ele>
        <time>2019-09-01T15:01:21Z</time>
      </trkpt>
      <trkpt lat="57.449030997231603" lon="-3.709360035136342">
        <ele>263.54000000000002</ele>
        <time>2019-09-01T15:01:31Z</time>
      </trkpt>
      <trkpt lat="57.45055197738111" lon="-3.711015963926911">
        <ele>264.5</ele>
        <time>2019-09-01T15:01:39Z</time>
      </trkpt>
      <trkpt lat="57.452611997723579" lon="-3.713213028386235">
        <ele>269.31</ele>
        <time>2019-09-01T15:01:50Z</time>
      </trkpt>
      <trkpt lat="57.45439600199461" lon="-3.715075990185142">
        <ele>270.26999999999998</ele>
        <time>2019-09-01T15:02:00Z</time>
      </trkpt>
      <trkpt lat="57.45630799792707" lon="-3.71666201390326">
        <ele>268.35000000000002</ele>
        <time>2019-09-01T15:02:10Z</time>
      </trkpt>
      <trkpt lat="57.458948967978358" lon="-3.717562984675169">
        <ele>264.5</ele>
        <time>2019-09-01T15:02:23Z</time>
      </trkpt>
      <trkpt lat="57.461837958544493" lon="-3.718346022069454">
        <ele>259.69</ele>
        <time>2019-09-01T15:02:37Z</time>
      </trkpt>
      <trkpt lat="57.464900035411119" lon="-3.719356963410974">
        <ele>248.16</ele>
        <time>2019-09-01T15:02:52Z</time>
      </trkpt>
      <trkpt lat="57.466954020783305" lon="-3.720156010240316">
        <ele>241.43000000000001</ele>
        <time>2019-09-01T15:03:02Z</time>
      </trkpt>
      <trkpt lat="57.468755962327123" lon="-3.721021022647619">
        <ele>237.09999999999999</ele>
        <time>2019-09-01T15:03:10Z</time>
      </trkpt>
      <trkpt lat="57.470828974619508" lon="-3.722702013328672">
        <ele>232.30000000000001</ele>
        <time>2019-09-01T15:03:21Z</time>
      </trkpt>
      <trkpt lat="57.47323902323842" lon="-3.724945010617375">
        <ele>226.05000000000001</ele>
        <time>2019-09-01T15:03:34Z</time>
      </trkpt>
      <trkpt lat="57.475057980045676" lon="-3.726608986034989">
        <ele>223.63999999999999</ele>
        <time>2019-09-01T15:03:43Z</time>
      </trkpt>
      <trkpt lat="57.477414971217513" lon="-3.728422997519374">
        <ele>218.84</ele>
        <time>2019-09-01T15:03:53Z</time>
      </trkpt>
      <trkpt lat="57.479239040985703" lon="-3.729344001039863">
        <ele>213.55000000000001</ele>
        <time>2019-09-01T15:04:01Z</time>
      </trkpt>
      <trkpt lat="57.481290008872747" lon="-3.729974990710616">
        <ele>207.78</ele>
        <time>2019-09-01T15:04:10Z</time>
      </trkpt>
      <trkpt lat="57.482699006795883" lon="-3.730302974581718">
        <ele>201.53</ele>
        <time>2019-09-01T15:04:18Z</time>
      </trkpt>
      <trkpt lat="57.483969032764435" lon="-3.730309009552002">
        <ele>194.80000000000001</ele>
        <time>2019-09-01T15:04:27Z</time>
      </trkpt>
      <trkpt lat="57.485267976298928" lon="-3.730601035058498">
        <ele>188.08000000000001</ele>
        <time>2019-09-01T15:04:36Z</time>
      </trkpt>
      <trkpt lat="57.486720979213715" lon="-3.731136973947287">
        <ele>178.46000000000001</ele>
        <time>2019-09-01T15:04:45Z</time>
      </trkpt>
      <trkpt lat="57.488103993237019" lon="-3.731617005541921">
        <ele>169.81</ele>
        <time>2019-09-01T15:04:54Z</time>
      </trkpt>
      <trkpt lat="57.488245982676744" lon="-3.731637038290501">
        <ele>168.84999999999999</ele>
        <time>2019-09-01T15:04:55Z</time>
      </trkpt>
      <trkpt lat="57.48838696628809" lon="-3.73159596696496">
        <ele>167.41</ele>
        <time>2019-09-01T15:04:56Z</time>
      </trkpt>
      <trkpt lat="57.488932963460684" lon="-3.731563026085496">
        <ele>163.56</ele>
        <time>2019-09-01T15:05:00Z</time>
      </trkpt>
      <trkpt lat="57.489046035334468" lon="-3.731669979169965">
        <ele>162.59999999999999</ele>
        <time>2019-09-01T15:05:01Z</time>
      </trkpt>
      <trkpt lat="57.48915801756084" lon="-3.731777016073465">
        <ele>161.63999999999999</ele>
        <time>2019-09-01T15:05:02Z</time>
      </trkpt>
      <trkpt lat="57.490366017445922" lon="-3.732758034020662">
        <ele>152.03</ele>
        <time>2019-09-01T15:05:11Z</time>
      </trkpt>
      <trkpt lat="57.491233041509986" lon="-3.733391035348177">
        <ele>142.88999999999999</ele>
        <time>2019-09-01T15:05:17Z</time>
      </trkpt>
      <trkpt lat="57.491342006251216" lon="-3.733546016737819">
        <ele>141.44999999999999</ele>
        <time>2019-09-01T15:05:18Z</time>
      </trkpt>
      <trkpt lat="57.491440996527672" lon="-3.733693035319448">
        <ele>140.49000000000001</ele>
        <time>2019-09-01T15:05:19Z</time>
      </trkpt>
      <trkpt lat="57.491956986486912" lon="-3.734844960272312">
        <ele>133.28</ele>
        <time>2019-09-01T15:05:25Z</time>
      </trkpt>
      <trkpt lat="57.492614965885878" lon="-3.735392969101667">
        <ele>127.03</ele>
        <time>2019-09-01T15:05:30Z</time>
      </trkpt>
      <trkpt lat="57.492755027487874" lon="-3.735467987135053">
        <ele>125.59</ele>
        <time>2019-09-01T15:05:31Z</time>
      </trkpt>
      <trkpt lat="57.492912020534277" lon="-3.735508974641562">
        <ele>123.67</ele>
        <time>2019-09-01T15:05:32Z</time>
      </trkpt>
      <trkpt lat="57.493692962452769" lon="-3.735705027356744">
        <ele>117.90000000000001</ele>
        <time>2019-09-01T15:05:39Z</time>
      </trkpt>
      <trkpt lat="57.493982976302505" lon="-3.735882975161076">
        <ele>114.53</ele>
        <time>2019-09-01T15:05:47Z</time>
      </trkpt>
      <trkpt lat="57.494034022092819" lon="-3.735941983759403">
        <ele>114.53</ele>
        <time>2019-09-01T15:05:49Z</time>
      </trkpt>
      <trkpt lat="57.494050031527877" lon="-3.735995041206479">
        <ele>114.53</ele>
        <time>2019-09-01T15:05:50Z</time>
      </trkpt>
      <trkpt lat="57.494063023477793" lon="-3.736039968207479">
        <ele>114.05</ele>
        <time>2019-09-01T15:05:51Z</time>
      </trkpt>
      <trkpt lat="57.494074003770947" lon="-3.736077016219497">
        <ele>114.05</ele>
        <time>2019-09-01T15:05:52Z</time>
      </trkpt>
      <trkpt lat="57.49408096075058" lon="-3.736101994290948">
        <ele>114.05</ele>
        <time>2019-09-01T15:05:53Z</time>
      </trkpt>
      <trkpt lat="57.49408096075058" lon="-3.736101994290948">
        <ele>113.56999999999999</ele>
        <time>2019-09-01T15:06:06Z</time>
      </trkpt>
      <trkpt lat="57.494098981842399" lon="-3.736161002889276">
        <ele>113.56999999999999</ele>
        <time>2019-09-01T15:06:09Z</time>
      </trkpt>
      <trkpt lat="57.4941679649055" lon="-3.736395025625825">
        <ele>113.56999999999999</ele>
        <time>2019-09-01T15:06:12Z</time>
      </trkpt>
      <trkpt lat="57.494203001260757" lon="-3.736513964831829">
        <ele>113.56999999999999</ele>
        <time>2019-09-01T15:06:13Z</time>
      </trkpt>
      <trkpt lat="57.494215993210673" lon="-3.736670035868883">
        <ele>113.56999999999999</ele>
        <time>2019-09-01T15:06:14Z</time>
      </trkpt>
      <trkpt lat="57.494334010407329" lon="-3.73797501437366">
        <ele>115.5</ele>
        <time>2019-09-01T15:06:22Z</time>
      </trkpt>
      <trkpt lat="57.494394024834037" lon="-3.738080961629748">
        <ele>115.5</ele>
        <time>2019-09-01T15:06:23Z</time>
      </trkpt>
      <trkpt lat="57.494456972926855" lon="-3.738194033503532">
        <ele>115.5</ele>
        <time>2019-09-01T15:06:24Z</time>
      </trkpt>
      <trkpt lat="57.49491898342967" lon="-3.739016968756914">
        <ele>117.90000000000001</ele>
        <time>2019-09-01T15:06:30Z</time>
      </trkpt>
      <trkpt lat="57.495820038020611" lon="-3.740184986963868">
        <ele>127.03</ele>
        <time>2019-09-01T15:06:40Z</time>
      </trkpt>
      <trkpt lat="57.496170988306403" lon="-3.740434013307095">
        <ele>129.91999999999999</ele>
        <time>2019-09-01T15:06:43Z</time>
      </trkpt>
      <trkpt lat="57.496309960260987" lon="-3.740504002198577">
        <ele>131.36000000000001</ele>
        <time>2019-09-01T15:06:44Z</time>
      </trkpt>
      <trkpt lat="57.496451027691364" lon="-3.740573991090059">
        <ele>132.31999999999999</ele>
        <time>2019-09-01T15:06:45Z</time>
      </trkpt>
      <trkpt lat="57.496597962453961" lon="-3.740603998303413">
        <ele>133.28</ele>
        <time>2019-09-01T15:06:46Z</time>
      </trkpt>
      <trkpt lat="57.496740035712719" lon="-3.7405960354954">
        <ele>134.24000000000001</ele>
        <time>2019-09-01T15:06:47Z</time>
      </trkpt>
      <trkpt lat="57.496884036809206" lon="-3.740587988868356">
        <ele>135.68000000000001</ele>
        <time>2019-09-01T15:06:48Z</time>
      </trkpt>
      <trkpt lat="57.497030971571803" lon="-3.740497967228293">
        <ele>136.63999999999999</ele>
        <time>2019-09-01T15:06:49Z</time>
      </trkpt>
      <trkpt lat="57.49717497266829" lon="-3.740410041064024">
        <ele>137.61000000000001</ele>
        <time>2019-09-01T15:06:50Z</time>
      </trkpt>
      <trkpt lat="57.497310005128384" lon="-3.740309039130807">
        <ele>138.56999999999999</ele>
        <time>2019-09-01T15:06:51Z</time>
      </trkpt>
      <trkpt lat="57.497433973476291" lon="-3.740177024155855">
        <ele>140.00999999999999</ele>
        <time>2019-09-01T15:06:52Z</time>
      </trkpt>
      <trkpt lat="57.497558025643229" lon="-3.740042997524142">
        <ele>141.44999999999999</ele>
        <time>2019-09-01T15:06:53Z</time>
      </trkpt>
      <trkpt lat="57.497653998434544" lon="-3.739853985607624">
        <ele>142.41</ele>
        <time>2019-09-01T15:06:54Z</time>
      </trkpt>
      <trkpt lat="57.497745025902987" lon="-3.739662040024996">
        <ele>143.37</ele>
        <time>2019-09-01T15:06:55Z</time>
      </trkpt>
      <trkpt lat="57.497809985652566" lon="-3.739448972046375">
        <ele>144.34</ele>
        <time>2019-09-01T15:06:56Z</time>
      </trkpt>
      <trkpt lat="57.497868994250894" lon="-3.739228025078774">
        <ele>145.30000000000001</ele>
        <time>2019-09-01T15:06:57Z</time>
      </trkpt>
      <trkpt lat="57.497921967878938" lon="-3.739026021212339">
        <ele>146.25999999999999</ele>
        <time>2019-09-01T15:06:58Z</time>
      </trkpt>
      <trkpt lat="57.497957004234195" lon="-3.738891994580627">
        <ele>147.22</ele>
        <time>2019-09-01T15:06:59Z</time>
      </trkpt>
      <trkpt lat="57.498053982853889" lon="-3.738699965178967">
        <ele>147.69999999999999</ele>
        <time>2019-09-01T15:07:00Z</time>
      </trkpt>
      <trkpt lat="57.498132018372416" lon="-3.73857599683106">
        <ele>148.18000000000001</ele>
        <time>2019-09-01T15:07:01Z</time>
      </trkpt>
      <trkpt lat="57.498230002820492" lon="-3.738510031253099">
        <ele>148.66</ele>
        <time>2019-09-01T15:07:02Z</time>
      </trkpt>
      <trkpt lat="57.498337039723992" lon="-3.738458985462785">
        <ele>149.13999999999999</ele>
        <time>2019-09-01T15:07:03Z</time>
      </trkpt>
      <trkpt lat="57.498461008071899" lon="-3.738444987684488">
        <ele>150.09999999999999</ele>
        <time>2019-09-01T15:07:04Z</time>
      </trkpt>
      <trkpt lat="57.498595034703612" lon="-3.738428978249431">
        <ele>150.58000000000001</ele>
        <time>2019-09-01T15:07:05Z</time>
      </trkpt>
      <trkpt lat="57.499015973880887" lon="-3.73838103376329">
        <ele>153.47</ele>
        <time>2019-09-01T15:07:08Z</time>
      </trkpt>
      <trkpt lat="57.499272963032126" lon="-3.738240972161293">
        <ele>155.38999999999999</ele>
        <time>2019-09-01T15:07:10Z</time>
      </trkpt>
      <trkpt lat="57.499395003542304" lon="-3.738123960793018">
        <ele>155.87</ele>
        <time>2019-09-01T15:07:11Z</time>
      </trkpt>
      <trkpt lat="57.499516038224101" lon="-3.737973002716899">
        <ele>156.34999999999999</ele>
        <time>2019-09-01T15:07:12Z</time>
      </trkpt>
      <trkpt lat="57.49964302405715" lon="-3.737812992185354">
        <ele>156.83000000000001</ele>
        <time>2019-09-01T15:07:13Z</time>
      </trkpt>
      <trkpt lat="57.49977202154696" lon="-3.737650969997048">
        <ele>156.83000000000001</ele>
        <time>2019-09-01T15:07:14Z</time>
      </trkpt>
      <trkpt lat="57.50078497454524" lon="-3.736377004534006">
        <ele>162.59999999999999</ele>
        <time>2019-09-01T15:07:23Z</time>
      </trkpt>
      <trkpt lat="57.500885976478457" lon="-3.73629704117775">
        <ele>163.08000000000001</ele>
        <time>2019-09-01T15:07:24Z</time>
      </trkpt>
      <trkpt lat="57.500997958704829" lon="-3.736253958195448">
        <ele>163.56</ele>
        <time>2019-09-01T15:07:25Z</time>
      </trkpt>
      <trkpt lat="57.501230975612998" lon="-3.736219005659223">
        <ele>165</ele>
        <time>2019-09-01T15:07:27Z</time>
      </trkpt>
      <trkpt lat="57.501357961446047" lon="-3.736228980123997">
        <ele>165.47999999999999</ele>
        <time>2019-09-01T15:07:28Z</time>
      </trkpt>
      <trkpt lat="57.501480001956224" lon="-3.736296035349369">
        <ele>165.96000000000001</ele>
        <time>2019-09-01T15:07:29Z</time>
      </trkpt>
      <trkpt lat="57.501610005274415" lon="-3.736391002312303">
        <ele>166.44999999999999</ele>
        <time>2019-09-01T15:07:30Z</time>
      </trkpt>
      <trkpt lat="57.501731039956212" lon="-3.736545983701944">
        <ele>166.93000000000001</ele>
        <time>2019-09-01T15:07:31Z</time>
      </trkpt>
      <trkpt lat="57.501849979162216" lon="-3.736710017547011">
        <ele>167.88999999999999</ele>
        <time>2019-09-01T15:07:32Z</time>
      </trkpt>
      <trkpt lat="57.501974031329155" lon="-3.736882014200091">
        <ele>169.33000000000001</ele>
        <time>2019-09-01T15:07:33Z</time>
      </trkpt>
      <trkpt lat="57.502082996070385" lon="-3.737101033329964">
        <ele>170.28999999999999</ele>
        <time>2019-09-01T15:07:34Z</time>
      </trkpt>
      <trkpt lat="57.503057979047298" lon="-3.739017974585295">
        <ele>176.06</ele>
        <time>2019-09-01T15:07:43Z</time>
      </trkpt>
      <trkpt lat="57.503908993676305" lon="-3.740290012210608">
        <ele>176.06</ele>
        <time>2019-09-01T15:07:51Z</time>
      </trkpt>
      <trkpt lat="57.504105968400836" lon="-3.740674993023276">
        <ele>177.5</ele>
        <time>2019-09-01T15:07:53Z</time>
      </trkpt>
      <trkpt lat="57.504191966727376" lon="-3.740878002718091">
        <ele>177.97999999999999</ele>
        <time>2019-09-01T15:07:54Z</time>
      </trkpt>
      <trkpt lat="57.504274025559425" lon="-3.74107195995748">
        <ele>178.94</ele>
        <time>2019-09-01T15:07:55Z</time>
      </trkpt>
      <trkpt lat="57.504317024722695" lon="-3.741301037371159">
        <ele>178.94</ele>
        <time>2019-09-01T15:07:56Z</time>
      </trkpt>
      <trkpt lat="57.504351977258921" lon="-3.741536987945437">
        <ele>179.41999999999999</ele>
        <time>2019-09-01T15:07:57Z</time>
      </trkpt>
      <trkpt lat="57.504387013614178" lon="-3.74177897349">
        <ele>179.90000000000001</ele>
        <time>2019-09-01T15:07:58Z</time>
      </trkpt>
      <trkpt lat="57.504422971978784" lon="-3.742022970691323">
        <ele>179.90000000000001</ele>
        <time>2019-09-01T15:07:59Z</time>
      </trkpt>
      <trkpt lat="57.504623970016837" lon="-3.743259971961379">
        <ele>179.41999999999999</ele>
        <time>2019-09-01T15:08:04Z</time>
      </trkpt>
      <trkpt lat="57.504696976393461" lon="-3.743504974991083">
        <ele>178.94</ele>
        <time>2019-09-01T15:08:05Z</time>
      </trkpt>
      <trkpt lat="57.504774006083608" lon="-3.743760036304593">
        <ele>177.97999999999999</ele>
        <time>2019-09-01T15:08:06Z</time>
      </trkpt>
      <trkpt lat="57.505155969411135" lon="-3.745229970663786">
        <ele>177.02000000000001</ele>
        <time>2019-09-01T15:08:12Z</time>
      </trkpt>
      <trkpt lat="57.505181031301618" lon="-3.745478997007012">
        <ele>177.02000000000001</ele>
        <time>2019-09-01T15:08:13Z</time>
      </trkpt>
      <trkpt lat="57.505210032686591" lon="-3.745759036391974">
        <ele>176.53999999999999</ele>
        <time>2019-09-01T15:08:14Z</time>
      </trkpt>
      <trkpt lat="57.505176002159715" lon="-3.745953999459744">
        <ele>176.06</ele>
        <time>2019-09-01T15:08:15Z</time>
      </trkpt>
      <trkpt lat="57.505134008824825" lon="-3.746189028024674">
        <ele>176.06</ele>
        <time>2019-09-01T15:08:16Z</time>
      </trkpt>
      <trkpt lat="57.505081035196781" lon="-3.746488010510802">
        <ele>175.58000000000001</ele>
        <time>2019-09-01T15:08:17Z</time>
      </trkpt>
      <trkpt lat="57.504999982193112" lon="-3.746660007163882">
        <ele>175.09999999999999</ele>
        <time>2019-09-01T15:08:18Z</time>
      </trkpt>
      <trkpt lat="57.504892023280263" lon="-3.746886989101768">
        <ele>174.62</ele>
        <time>2019-09-01T15:08:19Z</time>
      </trkpt>
      <trkpt lat="57.504776017740369" lon="-3.747132997959852">
        <ele>174.13999999999999</ele>
        <time>2019-09-01T15:08:20Z</time>
      </trkpt>
      <trkpt lat="57.503581009805202" lon="-3.749655028805137">
        <ele>173.16999999999999</ele>
        <time>2019-09-01T15:08:30Z</time>
      </trkpt>
      <trkpt lat="57.503179013729095" lon="-3.750503025949001">
        <ele>172.21000000000001</ele>
        <time>2019-09-01T15:08:34Z</time>
      </trkpt>
      <trkpt lat="57.503098966553807" lon="-3.750713998451829">
        <ele>172.21000000000001</ele>
        <time>2019-09-01T15:08:35Z</time>
      </trkpt>
      <trkpt lat="57.502949014306068" lon="-3.751158993691206">
        <ele>171.25</ele>
        <time>2019-09-01T15:08:37Z</time>
      </trkpt>
      <trkpt lat="57.502894029021263" lon="-3.751414977014065">
        <ele>170.77000000000001</ele>
        <time>2019-09-01T15:08:38Z</time>
      </trkpt>
      <trkpt lat="57.502376027405262" lon="-3.753762999549508">
        <ele>166.44999999999999</ele>
        <time>2019-09-01T15:08:47Z</time>
      </trkpt>
      <trkpt lat="57.50213798135519" lon="-3.754573026672006">
        <ele>165.96000000000001</ele>
        <time>2019-09-01T15:08:51Z</time>
      </trkpt>
      <trkpt lat="57.502084001898766" lon="-3.754786010831595">
        <ele>165.96000000000001</ele>
        <time>2019-09-01T15:08:52Z</time>
      </trkpt>
      <trkpt lat="57.502038991078734" lon="-3.755020033568144">
        <ele>165.47999999999999</ele>
        <time>2019-09-01T15:08:53Z</time>
      </trkpt>
      <trkpt lat="57.502020969986916" lon="-3.755252966657281">
        <ele>165.47999999999999</ele>
        <time>2019-09-01T15:08:54Z</time>
      </trkpt>
      <trkpt lat="57.502041002735496" lon="-3.755498975515366">
        <ele>165</ele>
        <time>2019-09-01T15:08:55Z</time>
      </trkpt>
      <trkpt lat="57.502068998292089" lon="-3.755752025172114">
        <ele>164.52000000000001</ele>
        <time>2019-09-01T15:08:56Z</time>
      </trkpt>
      <trkpt lat="57.50211400911212" lon="-3.756030974909663">
        <ele>164.03999999999999</ele>
        <time>2019-09-01T15:08:57Z</time>
      </trkpt>
      <trkpt lat="57.502160025760531" lon="-3.756317971274257">
        <ele>164.03999999999999</ele>
        <time>2019-09-01T15:08:58Z</time>
      </trkpt>
      <trkpt lat="57.502812976017594" lon="-3.759950017556548">
        <ele>158.27000000000001</ele>
        <time>2019-09-01T15:09:11Z</time>
      </trkpt>
      <trkpt lat="57.503522001206875" lon="-3.763054003939033">
        <ele>152.50999999999999</ele>
        <time>2019-09-01T15:09:21Z</time>
      </trkpt>
      <trkpt lat="57.504120972007513" lon="-3.765227012336254">
        <ele>152.03</ele>
        <time>2019-09-01T15:09:29Z</time>
      </trkpt>
      <trkpt lat="57.504865033552051" lon="-3.767247973009944">
        <ele>151.06</ele>
        <time>2019-09-01T15:09:38Z</time>
      </trkpt>
      <trkpt lat="57.505473978817463" lon="-3.768407022580504">
        <ele>149.62</ele>
        <time>2019-09-01T15:09:43Z</time>
      </trkpt>
      <trkpt lat="57.506203036755323" lon="-3.770343996584415">
        <ele>148.18000000000001</ele>
        <time>2019-09-01T15:09:50Z</time>
      </trkpt>
      <trkpt lat="57.507204003632069" lon="-3.773121004924178">
        <ele>149.13999999999999</ele>
        <time>2019-09-01T15:09:59Z</time>
      </trkpt>
      <trkpt lat="57.508328016847372" lon="-3.77623999491334">
        <ele>150.09999999999999</ele>
        <time>2019-09-01T15:10:09Z</time>
      </trkpt>
      <trkpt lat="57.509567029774189" lon="-3.77967800013721">
        <ele>146.74000000000001</ele>
        <time>2019-09-01T15:10:20Z</time>
      </trkpt>
      <trkpt lat="57.510787015780807" lon="-3.783063031733036">
        <ele>140.49000000000001</ele>
        <time>2019-09-01T15:10:31Z</time>
      </trkpt>
      <trkpt lat="57.511770967394114" lon="-3.785355985164642">
        <ele>138.09</ele>
        <time>2019-09-01T15:10:40Z</time>
      </trkpt>
      <trkpt lat="57.51287997700274" lon="-3.786995988339186">
        <ele>136.16</ele>
        <time>2019-09-01T15:10:47Z</time>
      </trkpt>
      <trkpt lat="57.514064004644752" lon="-3.788758032023907">
        <ele>133.75999999999999</ele>
        <time>2019-09-01T15:10:55Z</time>
      </trkpt>
      <trkpt lat="57.515376023948193" lon="-3.790711015462875">
        <ele>134.72</ele>
        <time>2019-09-01T15:11:05Z</time>
      </trkpt>
      <trkpt lat="57.516742022708058" lon="-3.792780004441738">
        <ele>135.68000000000001</ele>
        <time>2019-09-01T15:11:15Z</time>
      </trkpt>
      <trkpt lat="57.518321005627513" lon="-3.795197010040283">
        <ele>136.16</ele>
        <time>2019-09-01T15:11:26Z</time>
      </trkpt>
      <trkpt lat="57.519810972735286" lon="-3.797176983207464">
        <ele>134.72</ele>
        <time>2019-09-01T15:11:35Z</time>
      </trkpt>
      <trkpt lat="57.521189041435719" lon="-3.799007004126906">
        <ele>130.40000000000001</ele>
        <time>2019-09-01T15:11:44Z</time>
      </trkpt>
      <trkpt lat="57.522902972996235" lon="-3.801239021122456">
        <ele>126.55</ele>
        <time>2019-09-01T15:11:56Z</time>
      </trkpt>
      <trkpt lat="57.523696990683675" lon="-3.802231019362807">
        <ele>123.19</ele>
        <time>2019-09-01T15:12:02Z</time>
      </trkpt>
      <trkpt lat="57.523788018152118" lon="-3.80245397798717">
        <ele>122.22</ele>
        <time>2019-09-01T15:12:03Z</time>
      </trkpt>
      <trkpt lat="57.523876028135419" lon="-3.802671991288662">
        <ele>121.73999999999999</ele>
        <time>2019-09-01T15:12:04Z</time>
      </trkpt>
      <trkpt lat="57.524869032204151" lon="-3.805659972131252">
        <ele>117.90000000000001</ele>
        <time>2019-09-01T15:12:16Z</time>
      </trkpt>
      <trkpt lat="57.525837980210781" lon="-3.807494016364217">
        <ele>117.42</ele>
        <time>2019-09-01T15:12:23Z</time>
      </trkpt>
      <trkpt lat="57.5269940122962" lon="-3.808987000957131">
        <ele>118.38</ele>
        <time>2019-09-01T15:12:30Z</time>
      </trkpt>
      <trkpt lat="57.527104988694191" lon="-3.809225969016552">
        <ele>118.86</ele>
        <time>2019-09-01T15:12:31Z</time>
      </trkpt>
      <trkpt lat="57.527201967313886" lon="-3.809481030330062">
        <ele>118.86</ele>
        <time>2019-09-01T15:12:32Z</time>
      </trkpt>
      <trkpt lat="57.527301963418722" lon="-3.809741958975792">
        <ele>118.86</ele>
        <time>2019-09-01T15:12:33Z</time>
      </trkpt>
      <trkpt lat="57.527402965351939" lon="-3.810004983097315">
        <ele>119.34</ele>
        <time>2019-09-01T15:12:34Z</time>
      </trkpt>
      <trkpt lat="57.527691973373294" lon="-3.810762036591768">
        <ele>118.86</ele>
        <time>2019-09-01T15:12:37Z</time>
      </trkpt>
      <trkpt lat="57.527822982519865" lon="-3.810953982174397">
        <ele>118.86</ele>
        <time>2019-09-01T15:12:38Z</time>
      </trkpt>
      <trkpt lat="57.528758989647031" lon="-3.81263698451221">
        <ele>116.45999999999999</ele>
        <time>2019-09-01T15:12:46Z</time>
      </trkpt>
      <trkpt lat="57.529684016481042" lon="-3.815693026408553">
        <ele>113.09</ele>
        <time>2019-09-01T15:12:57Z</time>
      </trkpt>
      <trkpt lat="57.530222972854972" lon="-3.817935017868877">
        <ele>115.5</ele>
        <time>2019-09-01T15:13:05Z</time>
      </trkpt>
      <trkpt lat="57.531005004420877" lon="-3.821131037548184">
        <ele>115.01000000000001</ele>
        <time>2019-09-01T15:13:16Z</time>
      </trkpt>
      <trkpt lat="57.53202298656106" lon="-3.823240008205175">
        <ele>108.77</ele>
        <time>2019-09-01T15:13:24Z</time>
      </trkpt>
      <trkpt lat="57.533063013106585" lon="-3.825267003849149">
        <ele>103.48</ele>
        <time>2019-09-01T15:13:33Z</time>
      </trkpt>
      <trkpt lat="57.533163009211421" lon="-3.825461966916919">
        <ele>103</ele>
        <time>2019-09-01T15:13:34Z</time>
      </trkpt>
      <trkpt lat="57.533284965902567" lon="-3.825602028518915">
        <ele>102.52</ele>
        <time>2019-09-01T15:13:35Z</time>
      </trkpt>
      <trkpt lat="57.533425027504563" lon="-3.825729014351964">
        <ele>102.04000000000001</ele>
        <time>2019-09-01T15:13:36Z</time>
      </trkpt>
      <trkpt lat="57.534539988264441" lon="-3.826740961521864">
        <ele>98.670000000000002</ele>
        <time>2019-09-01T15:13:44Z</time>
      </trkpt>
      <trkpt lat="57.534654987975955" lon="-3.826921004801989">
        <ele>98.189999999999998</ele>
        <time>2019-09-01T15:13:45Z</time>
      </trkpt>
      <trkpt lat="57.53475297242403" lon="-3.8271380122751">
        <ele>97.709999999999994</ele>
        <time>2019-09-01T15:13:46Z</time>
      </trkpt>
      <trkpt lat="57.534834025427699" lon="-3.827388966456056">
        <ele>97.709999999999994</ele>
        <time>2019-09-01T15:13:47Z</time>
      </trkpt>
      <trkpt lat="57.534914994612336" lon="-3.827638998627663">
        <ele>97.230000000000004</ele>
        <time>2019-09-01T15:13:48Z</time>
      </trkpt>
      <trkpt lat="57.535149017348886" lon="-3.828323967754841">
        <ele>96.75</ele>
        <time>2019-09-01T15:13:51Z</time>
      </trkpt>
      <trkpt lat="57.535258987918496" lon="-3.828484984114766">
        <ele>96.75</ele>
        <time>2019-09-01T15:13:52Z</time>
      </trkpt>
      <trkpt lat="57.535367030650377" lon="-3.82864298298955">
        <ele>96.269999999999996</ele>
        <time>2019-09-01T15:13:53Z</time>
      </trkpt>
      <trkpt lat="57.535483036190271" lon="-3.828720012679696">
        <ele>95.790000000000006</ele>
        <time>2019-09-01T15:13:54Z</time>
      </trkpt>
      <trkpt lat="57.535611027851701" lon="-3.828762006014586">
        <ele>95.790000000000006</ele>
        <time>2019-09-01T15:13:55Z</time>
      </trkpt>
      <trkpt lat="57.53573901951313" lon="-3.828798970207572">
        <ele>95.310000000000002</ele>
        <time>2019-09-01T15:13:56Z</time>
      </trkpt>
      <trkpt lat="57.535878997296095" lon="-3.828786984086037">
        <ele>94.829999999999998</ele>
        <time>2019-09-01T15:13:57Z</time>
      </trkpt>
      <trkpt lat="57.536024004220963" lon="-3.828774997964501">
        <ele>94.349999999999994</ele>
        <time>2019-09-01T15:13:58Z</time>
      </trkpt>
      <trkpt lat="57.536927992478013" lon="-3.828529994934797">
        <ele>91.939999999999998</ele>
        <time>2019-09-01T15:14:04Z</time>
      </trkpt>
      <trkpt lat="57.537069981917739" lon="-3.828437961637974">
        <ele>91.459999999999994</ele>
        <time>2019-09-01T15:14:05Z</time>
      </trkpt>
      <trkpt lat="57.537611033767462" lon="-3.828026996925473">
        <ele>88.099999999999994</ele>
        <time>2019-09-01T15:14:09Z</time>
      </trkpt>
      <trkpt lat="57.53775998018682" lon="-3.827985003590584">
        <ele>87.140000000000001</ele>
        <time>2019-09-01T15:14:10Z</time>
      </trkpt>
      <trkpt lat="57.537901969626546" lon="-3.827945021912456">
        <ele>86.659999999999997</ele>
        <time>2019-09-01T15:14:11Z</time>
      </trkpt>
      <trkpt lat="57.538043959066272" lon="-3.827983997762203">
        <ele>85.689999999999998</ele>
        <time>2019-09-01T15:14:12Z</time>
      </trkpt>
      <trkpt lat="57.538187960162759" lon="-3.828030014410615">
        <ele>84.730000000000004</ele>
        <time>2019-09-01T15:14:13Z</time>
      </trkpt>
      <trkpt lat="57.53833900205791" lon="-3.828077958896756">
        <ele>83.769999999999996</ele>
        <time>2019-09-01T15:14:14Z</time>
      </trkpt>
      <trkpt lat="57.538485014811158" lon="-3.828145014122129">
        <ele>82.810000000000002</ele>
        <time>2019-09-01T15:14:15Z</time>
      </trkpt>
      <trkpt lat="57.538618035614491" lon="-3.828261019662023">
        <ele>81.849999999999994</ele>
        <time>2019-09-01T15:14:16Z</time>
      </trkpt>
      <trkpt lat="57.538751978427172" lon="-3.828378031030297">
        <ele>80.890000000000001</ele>
        <time>2019-09-01T15:14:17Z</time>
      </trkpt>
      <trkpt lat="57.538892962038517" lon="-3.828500993549824">
        <ele>80.409999999999997</ele>
        <time>2019-09-01T15:14:18Z</time>
      </trkpt>
      <trkpt lat="57.539476007223129" lon="-3.828938025981188">
        <ele>77.040000000000006</ele>
        <time>2019-09-01T15:14:22Z</time>
      </trkpt>
      <trkpt lat="57.53962897695601" lon="-3.828958980739117">
        <ele>76.079999999999998</ele>
        <time>2019-09-01T15:14:23Z</time>
      </trkpt>
      <trkpt lat="57.539784964174032" lon="-3.828969039022923">
        <ele>75.120000000000005</ele>
        <time>2019-09-01T15:14:24Z</time>
      </trkpt>
      <trkpt lat="57.539946986362338" lon="-3.828980019316077">
        <ele>74.640000000000001</ele>
        <time>2019-09-01T15:14:25Z</time>
      </trkpt>
      <trkpt lat="57.540111020207405" lon="-3.828990999609232">
        <ele>73.680000000000007</ele>
        <time>2019-09-01T15:14:26Z</time>
      </trkpt>
      <trkpt lat="57.540717031806707" lon="-3.828908018767834">
        <ele>71.269999999999996</ele>
        <time>2019-09-01T15:14:30Z</time>
      </trkpt>
      <trkpt lat="57.540860027074814" lon="-3.828886980190873">
        <ele>70.790000000000006</ele>
        <time>2019-09-01T15:14:31Z</time>
      </trkpt>
      <trkpt lat="57.542166011407971" lon="-3.828997034579516">
        <ele>66.950000000000003</ele>
        <time>2019-09-01T15:14:40Z</time>
      </trkpt>
      <trkpt lat="57.542327027767897" lon="-3.82902997545898">
        <ele>66.950000000000003</ele>
        <time>2019-09-01T15:14:41Z</time>
      </trkpt>
      <trkpt lat="57.542495001107454" lon="-3.829044979065657">
        <ele>66.469999999999999</ele>
        <time>2019-09-01T15:14:42Z</time>
      </trkpt>
      <trkpt lat="57.542661968618631" lon="-3.82898697629571">
        <ele>66.469999999999999</ele>
        <time>2019-09-01T15:14:43Z</time>
      </trkpt>
      <trkpt lat="57.544328039512038" lon="-3.828408960253">
        <ele>64.069999999999993</ele>
        <time>2019-09-01T15:14:52Z</time>
      </trkpt>
      <trkpt lat="57.544887028634548" lon="-3.828245010226965">
        <ele>64.069999999999993</ele>
        <time>2019-09-01T15:14:56Z</time>
      </trkpt>
      <trkpt lat="57.545003034174442" lon="-3.828259008005261">
        <ele>63.579999999999998</ele>
        <time>2019-09-01T15:14:57Z</time>
      </trkpt>
      <trkpt lat="57.545111998915672" lon="-3.828328996896744">
        <ele>63.579999999999998</ele>
        <time>2019-09-01T15:14:58Z</time>
      </trkpt>
      <trkpt lat="57.545224986970425" lon="-3.828426981344819">
        <ele>63.100000000000001</ele>
        <time>2019-09-01T15:14:59Z</time>
      </trkpt>
      <trkpt lat="57.545357001945376" lon="-3.828541981056333">
        <ele>62.619999999999997</ele>
        <time>2019-09-01T15:15:00Z</time>
      </trkpt>
      <trkpt lat="57.545461021363735" lon="-3.828710038214922">
        <ele>62.140000000000001</ele>
        <time>2019-09-01T15:15:01Z</time>
      </trkpt>
      <trkpt lat="57.545577026903629" lon="-3.828897960484028">
        <ele>61.659999999999997</ele>
        <time>2019-09-01T15:15:02Z</time>
      </trkpt>
      <trkpt lat="57.545700995251536" lon="-3.829099964350462">
        <ele>60.700000000000003</ele>
        <time>2019-09-01T15:15:03Z</time>
      </trkpt>
      <trkpt lat="57.545804008841515" lon="-3.829334992915392">
        <ele>59.740000000000002</ele>
        <time>2019-09-01T15:15:04Z</time>
      </trkpt>
      <trkpt lat="57.545900987461209" lon="-3.829602962359786">
        <ele>59.259999999999998</ele>
        <time>2019-09-01T15:15:05Z</time>
      </trkpt>
      <trkpt lat="57.545993020758033" lon="-3.829893982037902">
        <ele>58.780000000000001</ele>
        <time>2019-09-01T15:15:06Z</time>
      </trkpt>
      <trkpt lat="57.546771029010415" lon="-3.831923995167017">
        <ele>56.859999999999999</ele>
        <time>2019-09-01T15:15:14Z</time>
      </trkpt>
      <trkpt lat="57.547811977565289" lon="-3.833302985876799">
        <ele>59.259999999999998</ele>
        <time>2019-09-01T15:15:22Z</time>
      </trkpt>
      <trkpt lat="57.547947010025382" lon="-3.8333909958601">
        <ele>59.259999999999998</ele>
        <time>2019-09-01T15:15:23Z</time>
      </trkpt>
      <trkpt lat="57.548078019171953" lon="-3.83347800001502">
        <ele>59.259999999999998</ele>
        <time>2019-09-01T15:15:24Z</time>
      </trkpt>
      <trkpt lat="57.548331990838051" lon="-3.833644967526197">
        <ele>59.740000000000002</ele>
        <time>2019-09-01T15:15:26Z</time>
      </trkpt>
      <trkpt lat="57.548447996377945" lon="-3.833747981116176">
        <ele>59.740000000000002</ele>
        <time>2019-09-01T15:15:27Z</time>
      </trkpt>
      <trkpt lat="57.548553021624684" lon="-3.83388502523303">
        <ele>59.740000000000002</ele>
        <time>2019-09-01T15:15:28Z</time>
      </trkpt>
      <trkpt lat="57.548646982759237" lon="-3.834048975259066">
        <ele>59.740000000000002</ele>
        <time>2019-09-01T15:15:29Z</time>
      </trkpt>
      <trkpt lat="57.548725018277764" lon="-3.834260031580925">
        <ele>59.740000000000002</ele>
        <time>2019-09-01T15:15:30Z</time>
      </trkpt>
      <trkpt lat="57.548807999119163" lon="-3.83448600769043">
        <ele>60.219999999999999</ele>
        <time>2019-09-01T15:15:31Z</time>
      </trkpt>
      <trkpt lat="57.549184011295438" lon="-3.835511030629277">
        <ele>61.18</ele>
        <time>2019-09-01T15:15:35Z</time>
      </trkpt>
      <trkpt lat="57.549279984086752" lon="-3.835773970931768">
        <ele>61.659999999999997</ele>
        <time>2019-09-01T15:15:36Z</time>
      </trkpt>
      <trkpt lat="57.549635041505098" lon="-3.83667997084558">
        <ele>61.659999999999997</ele>
        <time>2019-09-01T15:15:40Z</time>
      </trkpt>
      <trkpt lat="57.549744006246328" lon="-3.836867976933718">
        <ele>61.18</ele>
        <time>2019-09-01T15:15:41Z</time>
      </trkpt>
      <trkpt lat="57.549869986250997" lon="-3.837050031870604">
        <ele>60.219999999999999</ele>
        <time>2019-09-01T15:15:42Z</time>
      </trkpt>
      <trkpt lat="57.55088503472507" lon="-3.838621973991394">
        <ele>55.890000000000001</ele>
        <time>2019-09-01T15:15:50Z</time>
      </trkpt>
      <trkpt lat="57.551044039428234" lon="-3.838949035853148">
        <ele>55.409999999999997</ele>
        <time>2019-09-01T15:15:52Z</time>
      </trkpt>
      <trkpt lat="57.551119979470968" lon="-3.839199990034103">
        <ele>55.409999999999997</ele>
        <time>2019-09-01T15:15:53Z</time>
      </trkpt>
      <trkpt lat="57.551188040524721" lon="-3.839425966143608">
        <ele>54.93</ele>
        <time>2019-09-01T15:15:54Z</time>
      </trkpt>
      <trkpt lat="57.551472019404173" lon="-3.840361973270774">
        <ele>52.530000000000001</ele>
        <time>2019-09-01T15:15:58Z</time>
      </trkpt>
      <trkpt lat="57.551592970266938" lon="-3.840561965480447">
        <ele>52.049999999999997</ele>
        <time>2019-09-01T15:15:59Z</time>
      </trkpt>
      <trkpt lat="57.551710987463593" lon="-3.840752989053726">
        <ele>51.090000000000003</ele>
        <time>2019-09-01T15:16:00Z</time>
      </trkpt>
      <trkpt lat="57.55279703065753" lon="-3.842358961701393">
        <ele>43.399999999999999</ele>
        <time>2019-09-01T15:16:08Z</time>
      </trkpt>
      <trkpt lat="57.553059970960021" lon="-3.842682000249624">
        <ele>42.439999999999998</ele>
        <time>2019-09-01T15:16:10Z</time>
      </trkpt>
      <trkpt lat="57.553138006478548" lon="-3.842919040471315">
        <ele>41.950000000000003</ele>
        <time>2019-09-01T15:16:11Z</time>
      </trkpt>
      <trkpt lat="57.553219981491566" lon="-3.84316798299551">
        <ele>41.469999999999999</ele>
        <time>2019-09-01T15:16:12Z</time>
      </trkpt>
      <trkpt lat="57.55404501222074" lon="-3.845302015542984">
        <ele>38.590000000000003</ele>
        <time>2019-09-01T15:16:20Z</time>
      </trkpt>
      <trkpt lat="57.555229039862752" lon="-3.847305038943887">
        <ele>36.189999999999998</ele>
        <time>2019-09-01T15:16:28Z</time>
      </trkpt>
      <trkpt lat="57.556173009797931" lon="-3.84907596744597">
        <ele>39.07</ele>
        <time>2019-09-01T15:16:36Z</time>
      </trkpt>
      <trkpt lat="57.55644902586937" lon="-3.849595980718732">
        <ele>40.990000000000002</ele>
        <time>2019-09-01T15:16:39Z</time>
      </trkpt>
      <trkpt lat="57.556551033630967" lon="-3.849750962108374">
        <ele>41.469999999999999</ele>
        <time>2019-09-01T15:16:40Z</time>
      </trkpt>
      <trkpt lat="57.556683970615268" lon="-3.849865961819887">
        <ele>41.950000000000003</ele>
        <time>2019-09-01T15:16:41Z</time>
      </trkpt>
      <trkpt lat="57.556828977540135" lon="-3.849983979016542">
        <ele>42.439999999999998</ele>
        <time>2019-09-01T15:16:42Z</time>
      </trkpt>
      <trkpt lat="57.556996028870344" lon="-3.850050028413534">
        <ele>42.439999999999998</ele>
        <time>2019-09-01T15:16:43Z</time>
      </trkpt>
      <trkpt lat="57.557170959189534" lon="-3.850109959021211">
        <ele>42.920000000000002</ele>
        <time>2019-09-01T15:16:44Z</time>
      </trkpt>
      <trkpt lat="57.557352008298039" lon="-3.850126974284649">
        <ele>42.920000000000002</ele>
        <time>2019-09-01T15:16:45Z</time>
      </trkpt>
      <trkpt lat="57.557529034093022" lon="-3.850142983719707">
        <ele>42.920000000000002</ele>
        <time>2019-09-01T15:16:46Z</time>
      </trkpt>
      <trkpt lat="57.558030020445585" lon="-3.850187994539738">
        <ele>42.920000000000002</ele>
        <time>2019-09-01T15:16:49Z</time>
      </trkpt>
      <trkpt lat="57.558181984350085" lon="-3.850138038396835">
        <ele>42.920000000000002</ele>
        <time>2019-09-01T15:16:50Z</time>
      </trkpt>
      <trkpt lat="57.558326991274953" lon="-3.850057991221547">
        <ele>42.920000000000002</ele>
        <time>2019-09-01T15:16:51Z</time>
      </trkpt>
      <trkpt lat="57.558469986543059" lon="-3.849980039522052">
        <ele>42.920000000000002</ele>
        <time>2019-09-01T15:16:52Z</time>
      </trkpt>
      <trkpt lat="57.558606024831533" lon="-3.849871996790171">
        <ele>42.920000000000002</ele>
        <time>2019-09-01T15:16:53Z</time>
      </trkpt>
      <trkpt lat="57.5592449773103" lon="-3.849295992404223">
        <ele>41.469999999999999</ele>
        <time>2019-09-01T15:16:58Z</time>
      </trkpt>
      <trkpt lat="57.559371963143349" lon="-3.849184010177851">
        <ele>41.469999999999999</ele>
        <time>2019-09-01T15:16:59Z</time>
      </trkpt>
      <trkpt lat="57.559509007260203" lon="-3.849155008792877">
        <ele>41.469999999999999</ele>
        <time>2019-09-01T15:17:00Z</time>
      </trkpt>
      <trkpt lat="57.559647979214787" lon="-3.849126007407904">
        <ele>41.469999999999999</ele>
        <time>2019-09-01T15:17:01Z</time>
      </trkpt>
      <trkpt lat="57.559789968654513" lon="-3.849099017679691">
        <ele>41.469999999999999</ele>
        <time>2019-09-01T15:17:02Z</time>
      </trkpt>
      <trkpt lat="57.560652969405055" lon="-3.84907697327435">
        <ele>42.439999999999998</ele>
        <time>2019-09-01T15:17:08Z</time>
      </trkpt>
      <trkpt lat="57.562279980629683" lon="-3.848544973880053">
        <ele>40.509999999999998</ele>
        <time>2019-09-01T15:17:19Z</time>
      </trkpt>
      <trkpt lat="57.563487980514765" lon="-3.848712025210261">
        <ele>37.630000000000003</ele>
        <time>2019-09-01T15:17:27Z</time>
      </trkpt>
      <trkpt lat="57.565570967271924" lon="-3.849232960492373">
        <ele>33.780000000000001</ele>
        <time>2019-09-01T15:17:38Z</time>
      </trkpt>
      <trkpt lat="57.566505968570709" lon="-3.849564967676997">
        <ele>29.940000000000001</ele>
        <time>2019-09-01T15:17:43Z</time>
      </trkpt>
      <trkpt lat="57.567772977054119" lon="-3.851045966148377">
        <ele>25.129999999999999</ele>
        <time>2019-09-01T15:17:51Z</time>
      </trkpt>
      <trkpt lat="57.568786013871431" lon="-3.852626038715243">
        <ele>24.649999999999999</ele>
        <time>2019-09-01T15:17:59Z</time>
      </trkpt>
      <trkpt lat="57.56910402327776" lon="-3.853012025356293">
        <ele>24.649999999999999</ele>
        <time>2019-09-01T15:18:02Z</time>
      </trkpt>
      <trkpt lat="57.569207958877087" lon="-3.853121995925903">
        <ele>24.170000000000002</ele>
        <time>2019-09-01T15:18:03Z</time>
      </trkpt>
      <trkpt lat="57.569337040185928" lon="-3.85313699953258">
        <ele>24.170000000000002</ele>
        <time>2019-09-01T15:18:04Z</time>
      </trkpt>
      <trkpt lat="57.569472994655371" lon="-3.853141022846103">
        <ele>24.170000000000002</ele>
        <time>2019-09-01T15:18:05Z</time>
      </trkpt>
      <trkpt lat="57.569618001580238" lon="-3.853146973997355">
        <ele>24.170000000000002</ele>
        <time>2019-09-01T15:18:06Z</time>
      </trkpt>
      <trkpt lat="57.570878975093365" lon="-3.85292200371623">
        <ele>22.73</ele>
        <time>2019-09-01T15:18:14Z</time>
      </trkpt>
      <trkpt lat="57.571508958935738" lon="-3.852799963206053">
        <ele>19.359999999999999</ele>
        <time>2019-09-01T15:18:19Z</time>
      </trkpt>
      <trkpt lat="57.571622030809522" lon="-3.852811027318239">
        <ele>18.879999999999999</ele>
        <time>2019-09-01T15:18:20Z</time>
      </trkpt>
      <trkpt lat="57.571730995550752" lon="-3.852919992059469">
        <ele>17.920000000000002</ele>
        <time>2019-09-01T15:18:21Z</time>
      </trkpt>
      <trkpt lat="57.571833003312349" lon="-3.853034991770983">
        <ele>17.440000000000001</ele>
        <time>2019-09-01T15:18:22Z</time>
      </trkpt>
      <trkpt lat="57.571931993588805" lon="-3.85319902561605">
        <ele>16.48</ele>
        <time>2019-09-01T15:18:23Z</time>
      </trkpt>
      <trkpt lat="57.572035007178783" lon="-3.853370016440749">
        <ele>16</ele>
        <time>2019-09-01T15:18:24Z</time>
      </trkpt>
      <trkpt lat="57.573117027059197" lon="-3.855182016268373">
        <ele>12.15</ele>
        <time>2019-09-01T15:18:34Z</time>
      </trkpt>
      <trkpt lat="57.574313040822744" lon="-3.857195014134049">
        <ele>8.789999999999999</ele>
        <time>2019-09-01T15:18:46Z</time>
      </trkpt>
      <trkpt lat="57.574682012200356" lon="-3.857817035168409">
        <ele>8.310000000000001</ele>
        <time>2019-09-01T15:18:49Z</time>
      </trkpt>
      <trkpt lat="57.575156008824706" lon="-3.858531005680561">
        <ele>6.39</ele>
        <time>2019-09-01T15:18:53Z</time>
      </trkpt>
      <trkpt lat="57.575235972180963" lon="-3.858737032860518">
        <ele>5.91</ele>
        <time>2019-09-01T15:18:54Z</time>
      </trkpt>
      <trkpt lat="57.57531400769949" lon="-3.858945993706584">
        <ele>5.42</ele>
        <time>2019-09-01T15:18:55Z</time>
      </trkpt>
      <trkpt lat="57.575990008190274" lon="-3.860875004902482">
        <ele>2.06</ele>
        <time>2019-09-01T15:19:04Z</time>
      </trkpt>
      <trkpt lat="57.576147001236677" lon="-3.86134397238493">
        <ele>2.54</ele>
        <time>2019-09-01T15:19:07Z</time>
      </trkpt>
      <trkpt lat="57.576187988743186" lon="-3.861468024551868">
        <ele>2.54</ele>
        <time>2019-09-01T15:19:08Z</time>
      </trkpt>
      <trkpt lat="57.576224030926824" lon="-3.861575983464718">
        <ele>2.54</ele>
        <time>2019-09-01T15:19:09Z</time>
      </trkpt>
      <trkpt lat="57.576355040073395" lon="-3.861603979021311">
        <ele>3.02</ele>
        <time>2019-09-01T15:19:10Z</time>
      </trkpt>
      <trkpt lat="57.576436009258032" lon="-3.861547987908125">
        <ele>3.02</ele>
        <time>2019-09-01T15:19:11Z</time>
      </trkpt>
      <trkpt lat="57.576529970392585" lon="-3.861482022330165">
        <ele>3.02</ele>
        <time>2019-09-01T15:19:12Z</time>
      </trkpt>
      <trkpt lat="57.576637007296085" lon="-3.86140801012516">
        <ele>3.02</ele>
        <time>2019-09-01T15:19:13Z</time>
      </trkpt>
      <trkpt lat="57.576755024492741" lon="-3.861326035112143">
        <ele>3.5</ele>
        <time>2019-09-01T15:19:14Z</time>
      </trkpt>
      <trkpt lat="57.577989008277655" lon="-3.860349962487817">
        <ele>3.98</ele>
        <time>2019-09-01T15:19:23Z</time>
      </trkpt>
      <trkpt lat="57.579316031187773" lon="-3.859310019761324">
        <ele>5.91</ele>
        <time>2019-09-01T15:19:34Z</time>
      </trkpt>
      <trkpt lat="57.580448007211089" lon="-3.859058981761336">
        <ele>5.91</ele>
        <time>2019-09-01T15:19:44Z</time>
      </trkpt>
      <trkpt lat="57.581807971000671" lon="-3.859570026397705">
        <ele>11.19</ele>
        <time>2019-09-01T15:19:57Z</time>
      </trkpt>
      <trkpt lat="57.582241985946894" lon="-3.859569020569325">
        <ele>13.6</ele>
        <time>2019-09-01T15:20:01Z</time>
      </trkpt>
      <trkpt lat="57.582348017022014" lon="-3.859532978385687">
        <ele>13.6</ele>
        <time>2019-09-01T15:20:02Z</time>
      </trkpt>
      <trkpt lat="57.583015970885754" lon="-3.858991004526615">
        <ele>12.15</ele>
        <time>2019-09-01T15:20:11Z</time>
      </trkpt>
      <trkpt lat="57.583224009722471" lon="-3.858686992898583">
        <ele>9.27</ele>
        <time>2019-09-01T15:20:20Z</time>
      </trkpt>
      <trkpt lat="57.583321994170547" lon="-3.858543997630477">
        <ele>7.83</ele>
        <time>2019-09-01T15:20:44Z</time>
      </trkpt>
      <trkpt lat="57.583363987505436" lon="-3.858482977375388">
        <ele>7.35</ele>
        <time>2019-09-01T15:20:45Z</time>
      </trkpt>
      <trkpt lat="57.583406986668706" lon="-3.85842002928257">
        <ele>6.87</ele>
        <time>2019-09-01T15:20:46Z</time>
      </trkpt>
      <trkpt lat="57.583440011367202" lon="-3.858372000977397">
        <ele>6.87</ele>
        <time>2019-09-01T15:20:47Z</time>
      </trkpt>
      <trkpt lat="57.583549981936812" lon="-3.858278039842844">
        <ele>6.39</ele>
        <time>2019-09-01T15:20:48Z</time>
      </trkpt>
      <trkpt lat="57.583573032170534" lon="-3.858324978500605">
        <ele>6.39</ele>
        <time>2019-09-01T15:20:49Z</time>
      </trkpt>
      <trkpt lat="57.583600021898746" lon="-3.858379041776061">
        <ele>5.91</ele>
        <time>2019-09-01T15:20:50Z</time>
      </trkpt>
      <trkpt lat="57.583656013011932" lon="-3.858500998467207">
        <ele>4.94</ele>
        <time>2019-09-01T15:20:52Z</time>
      </trkpt>
      <trkpt lat="57.58401601575315" lon="-3.859334997832775">
        <ele>5.42</ele>
        <time>2019-09-01T15:20:59Z</time>
      </trkpt>
      <trkpt lat="57.584222964942455" lon="-3.859792985022068">
        <ele>5.91</ele>
        <time>2019-09-01T15:21:02Z</time>
      </trkpt>
      <trkpt lat="57.584292031824589" lon="-3.8599450327456">
        <ele>5.91</ele>
        <time>2019-09-01T15:21:03Z</time>
      </trkpt>
      <trkpt lat="57.58472696878016" lon="-3.861306002363563">
        <ele>6.87</ele>
        <time>2019-09-01T15:21:13Z</time>
      </trkpt>
      <trkpt lat="57.584817996248603" lon="-3.861770024523139">
        <ele>7.35</ele>
        <time>2019-09-01T15:21:20Z</time>
      </trkpt>
      <trkpt lat="57.584927966818213" lon="-3.86230998672545">
        <ele>7.83</ele>
        <time>2019-09-01T15:21:31Z</time>
      </trkpt>
      <trkpt lat="57.585355024784803" lon="-3.863754021003842">
        <ele>6.39</ele>
        <time>2019-09-01T15:21:41Z</time>
      </trkpt>
      <trkpt lat="57.58567001670599" lon="-3.864725986495614">
        <ele>6.39</ele>
        <time>2019-09-01T15:21:49Z</time>
      </trkpt>
      <trkpt lat="57.585976962000132" lon="-3.865621006116271">
        <ele>7.35</ele>
        <time>2019-09-01T15:21:57Z</time>
      </trkpt>
      <trkpt lat="57.585991965606809" lon="-3.865695018321276">
        <ele>7.83</ele>
        <time>2019-09-01T15:21:58Z</time>
      </trkpt>
      <trkpt lat="57.586002023890615" lon="-3.8657489977777">
        <ele>8.310000000000001</ele>
        <time>2019-09-01T15:21:59Z</time>
      </trkpt>
      <trkpt lat="57.58601501584053" lon="-3.865813035517931">
        <ele>8.789999999999999</ele>
        <time>2019-09-01T15:22:00Z</time>
      </trkpt>
      <trkpt lat="57.586040999740362" lon="-3.865943038836122">
        <ele>9.27</ele>
        <time>2019-09-01T15:22:01Z</time>
      </trkpt>
      <trkpt lat="57.58605700917542" lon="-3.866105983033776">
        <ele>9.75</ele>
        <time>2019-09-01T15:22:02Z</time>
      </trkpt>
      <trkpt lat="57.586024990305305" lon="-3.866181001067162">
        <ele>10.23</ele>
        <time>2019-09-01T15:22:03Z</time>
      </trkpt>
      <trkpt lat="57.585991965606809" lon="-3.866258030757308">
        <ele>10.710000000000001</ele>
        <time>2019-09-01T15:22:04Z</time>
      </trkpt>
      <trkpt lat="57.585915019735694" lon="-3.866437990218401">
        <ele>11.67</ele>
        <time>2019-09-01T15:22:06Z</time>
      </trkpt>
      <trkpt lat="57.58586497977376" lon="-3.866550978273153">
        <ele>12.15</ele>
        <time>2019-09-01T15:22:07Z</time>
      </trkpt>
      <trkpt lat="57.585745034739375" lon="-3.866772009059787">
        <ele>12.630000000000001</ele>
        <time>2019-09-01T15:22:10Z</time>
      </trkpt>
      <trkpt lat="57.585717961192131" lon="-3.866821965202689">
        <ele>13.119999999999999</ele>
        <time>2019-09-01T15:22:11Z</time>
      </trkpt>
      <trkpt lat="57.585694994777441" lon="-3.86686303652823">
        <ele>13.6</ele>
        <time>2019-09-01T15:22:12Z</time>
      </trkpt>
      <trkpt lat="57.585674962028861" lon="-3.866900000721216">
        <ele>14.08</ele>
        <time>2019-09-01T15:22:13Z</time>
      </trkpt>
      <trkpt lat="57.585654007270932" lon="-3.866938976570964">
        <ele>14.08</ele>
        <time>2019-09-01T15:22:14Z</time>
      </trkpt>
      <trkpt lat="57.585625005885959" lon="-3.86699203401804">
        <ele>14.08</ele>
        <time>2019-09-01T15:22:15Z</time>
      </trkpt>
      <trkpt lat="57.585596004500985" lon="-3.867044001817703">
        <ele>14.56</ele>
        <time>2019-09-01T15:22:16Z</time>
      </trkpt>
      <trkpt lat="57.58556499145925" lon="-3.867097981274128">
        <ele>14.56</ele>
        <time>2019-09-01T15:22:17Z</time>
      </trkpt>
      <trkpt lat="57.585519980639219" lon="-3.867175010964274">
        <ele>15.039999999999999</ele>
        <time>2019-09-01T15:22:18Z</time>
      </trkpt>
      <trkpt lat="57.585467007011175" lon="-3.867266960442066">
        <ele>15.039999999999999</ele>
        <time>2019-09-01T15:22:19Z</time>
      </trkpt>
      <trkpt lat="57.585217980667949" lon="-3.867709022015333">
        <ele>15.039999999999999</ele>
        <time>2019-09-01T15:22:24Z</time>
      </trkpt>
      <trkpt lat="57.585170958191156" lon="-3.86778999119997">
        <ele>15.039999999999999</ele>
        <time>2019-09-01T15:22:25Z</time>
      </trkpt>
      <trkpt lat="57.58498203009367" lon="-3.868119986727834">
        <ele>14.56</ele>
        <time>2019-09-01T15:22:29Z</time>
      </trkpt>
      <trkpt lat="57.584852026775479" lon="-3.868358032777906">
        <ele>14.56</ele>
        <time>2019-09-01T15:22:32Z</time>
      </trkpt>
      <trkpt lat="57.584692016243935" lon="-3.868664978072047">
        <ele>14.08</ele>
        <time>2019-09-01T15:22:36Z</time>
      </trkpt>
      <trkpt lat="57.584256995469332" lon="-3.869429994374514">
        <ele>13.6</ele>
        <time>2019-09-01T15:22:45Z</time>
      </trkpt>
      <trkpt lat="57.584176026284695" lon="-3.86957298964262">
        <ele>13.6</ele>
        <time>2019-09-01T15:22:47Z</time>
      </trkpt>
      <trkpt lat="57.584152976050973" lon="-3.869611965492368">
        <ele>13.6</ele>
        <time>2019-09-01T15:22:48Z</time>
      </trkpt>
      <trkpt lat="57.584111988544464" lon="-3.869748003780842">
        <ele>13.6</ele>
        <time>2019-09-01T15:22:49Z</time>
      </trkpt>
      <trkpt lat="57.584087010473013" lon="-3.869840959087014">
        <ele>14.08</ele>
        <time>2019-09-01T15:22:50Z</time>
      </trkpt>
      <trkpt lat="57.584073012694716" lon="-3.869949001818895">
        <ele>14.08</ele>
        <time>2019-09-01T15:22:51Z</time>
      </trkpt>
      <trkpt lat="57.584075024351478" lon="-3.870052015408874">
        <ele>14.56</ele>
        <time>2019-09-01T15:22:52Z</time>
      </trkpt>
      <trkpt lat="57.584091033786535" lon="-3.870160980150104">
        <ele>15.039999999999999</ele>
        <time>2019-09-01T15:22:53Z</time>
      </trkpt>
      <trkpt lat="57.584220031276345" lon="-3.87103202752769">
        <ele>17.920000000000002</ele>
        <time>2019-09-01T15:23:01Z</time>
      </trkpt>
      <trkpt lat="57.584232017397881" lon="-3.871109979227185">
        <ele>18.399999999999999</ele>
        <time>2019-09-01T15:23:02Z</time>
      </trkpt>
      <trkpt lat="57.584241991862655" lon="-3.871181979775429">
        <ele>18.399999999999999</ele>
        <time>2019-09-01T15:23:03Z</time>
      </trkpt>
      <trkpt lat="57.584252972155809" lon="-3.871254986152053">
        <ele>18.879999999999999</ele>
        <time>2019-09-01T15:23:04Z</time>
      </trkpt>
      <trkpt lat="57.584264958277345" lon="-3.871332015842199">
        <ele>19.359999999999999</ele>
        <time>2019-09-01T15:23:05Z</time>
      </trkpt>
      <trkpt lat="57.584276022389531" lon="-3.871410973370075">
        <ele>19.359999999999999</ele>
        <time>2019-09-01T15:23:06Z</time>
      </trkpt>
      <trkpt lat="57.584308963268995" lon="-3.871635021641851">
        <ele>20.809999999999999</ele>
        <time>2019-09-01T15:23:14Z</time>
      </trkpt>
      <trkpt lat="57.584364032372832" lon="-3.872011033818126">
        <ele>20.809999999999999</ele>
        <time>2019-09-01T15:23:32Z</time>
      </trkpt>
      <trkpt lat="57.584375012665987" lon="-3.872088985517621">
        <ele>20.809999999999999</ele>
        <time>2019-09-01T15:23:33Z</time>
      </trkpt>
      <trkpt lat="57.584389010444283" lon="-3.872186969965696">
        <ele>20.32</ele>
        <time>2019-09-01T15:23:34Z</time>
      </trkpt>
      <trkpt lat="57.584355985745788" lon="-3.872282020747662">
        <ele>19.84</ele>
        <time>2019-09-01T15:23:35Z</time>
      </trkpt>
      <trkpt lat="57.584009980782866" lon="-3.873421037569642">
        <ele>17.920000000000002</ele>
        <time>2019-09-01T15:23:44Z</time>
      </trkpt>
      <trkpt lat="57.583627011626959" lon="-3.875362034887075">
        <ele>17.920000000000002</ele>
        <time>2019-09-01T15:23:54Z</time>
      </trkpt>
      <trkpt lat="57.583531038835645" lon="-3.87573997490108">
        <ele>17.920000000000002</ele>
        <time>2019-09-01T15:23:56Z</time>
      </trkpt>
      <trkpt lat="57.582841040566564" lon="-3.877395987510681">
        <ele>17.920000000000002</ele>
        <time>2019-09-01T15:24:06Z</time>
      </trkpt>
      <trkpt lat="57.581866979598999" lon="-3.878866005688906">
        <ele>19.84</ele>
        <time>2019-09-01T15:24:16Z</time>
      </trkpt>
      <trkpt lat="57.580800969153643" lon="-3.880571974441409">
        <ele>17.440000000000001</ele>
        <time>2019-09-01T15:24:27Z</time>
      </trkpt>
      <trkpt lat="57.580279028043151" lon="-3.881728006526828">
        <ele>17.440000000000001</ele>
        <time>2019-09-01T15:24:35Z</time>
      </trkpt>
      <trkpt lat="57.579936040565372" lon="-3.882890995591879">
        <ele>17.920000000000002</ele>
        <time>2019-09-01T15:24:46Z</time>
      </trkpt>
      <trkpt lat="57.579832021147013" lon="-3.883262984454632">
        <ele>17.440000000000001</ele>
        <time>2019-09-01T15:24:54Z</time>
      </trkpt>
      <trkpt lat="57.579823974519968" lon="-3.883288968354464">
        <ele>16.960000000000001</ele>
        <time>2019-09-01T15:24:55Z</time>
      </trkpt>
      <trkpt lat="57.579823974519968" lon="-3.883288968354464">
        <ele>16</ele>
        <time>2019-09-01T15:25:06Z</time>
      </trkpt>
      <trkpt lat="57.579823974519968" lon="-3.883288968354464">
        <ele>16</ele>
        <time>2019-09-01T15:25:23Z</time>
      </trkpt>
      <trkpt lat="57.579823974519968" lon="-3.883288968354464">
        <ele>16</ele>
        <time>2019-09-01T15:25:59Z</time>
      </trkpt>
      <trkpt lat="57.579823974519968" lon="-3.883288968354464">
        <ele>15.52</ele>
        <time>2019-09-01T15:26:32Z</time>
      </trkpt>
      <trkpt lat="57.579683996737003" lon="-3.883384019136429">
        <ele>13.6</ele>
        <time>2019-09-01T15:40:07Z</time>
      </trkpt>
      <trkpt lat="57.579724984243512" lon="-3.883462976664305">
        <ele>8.310000000000001</ele>
        <time>2019-09-01T15:40:20Z</time>
      </trkpt>
      <trkpt lat="57.579752979800105" lon="-3.883396005257964">
        <ele>13.119999999999999</ele>
        <time>2019-09-01T15:40:52Z</time>
      </trkpt>
      <trkpt lat="57.579752979800105" lon="-3.883519973605871">
        <ele>17.440000000000001</ele>
        <time>2019-09-01T15:41:25Z</time>
      </trkpt>
      <trkpt lat="57.579748034477234" lon="-3.883544029667974">
        <ele>17.920000000000002</ele>
        <time>2019-09-01T15:41:26Z</time>
      </trkpt>
      <trkpt lat="57.579730013385415" lon="-3.88362399302423">
        <ele>18.879999999999999</ele>
        <time>2019-09-01T15:41:28Z</time>
      </trkpt>
      <trkpt lat="57.579706041142344" lon="-3.883707979694009">
        <ele>18.879999999999999</ele>
        <time>2019-09-01T15:41:29Z</time>
      </trkpt>
      <trkpt lat="57.579662958160043" lon="-3.88385902158916">
        <ele>18.879999999999999</ele>
        <time>2019-09-01T15:41:30Z</time>
      </trkpt>
      <trkpt lat="57.57961199618876" lon="-3.884039986878634">
        <ele>18.879999999999999</ele>
        <time>2019-09-01T15:41:31Z</time>
      </trkpt>
      <trkpt lat="57.579324999824166" lon="-3.885790966451168">
        <ele>17.920000000000002</ele>
        <time>2019-09-01T15:41:39Z</time>
      </trkpt>
      <trkpt lat="57.57933396846056" lon="-3.887817040085793">
        <ele>19.359999999999999</ele>
        <time>2019-09-01T15:41:48Z</time>
      </trkpt>
      <trkpt lat="57.579389959573746" lon="-3.889656029641628">
        <ele>18.879999999999999</ele>
        <time>2019-09-01T15:41:57Z</time>
      </trkpt>
      <trkpt lat="57.579395994544029" lon="-3.88987597078085">
        <ele>18.879999999999999</ele>
        <time>2019-09-01T15:41:58Z</time>
      </trkpt>
      <trkpt lat="57.57946003228426" lon="-3.891978990286589">
        <ele>17.920000000000002</ele>
        <time>2019-09-01T15:42:07Z</time>
      </trkpt>
      <trkpt lat="57.579488027840853" lon="-3.893429981544614">
        <ele>17.440000000000001</ele>
        <time>2019-09-01T15:42:13Z</time>
      </trkpt>
      <trkpt lat="57.579262973740697" lon="-3.895596032962203">
        <ele>17.920000000000002</ele>
        <time>2019-09-01T15:42:22Z</time>
      </trkpt>
      <trkpt lat="57.578926021233201" lon="-3.898416962474585">
        <ele>17.440000000000001</ele>
        <time>2019-09-01T15:42:34Z</time>
      </trkpt>
      <trkpt lat="57.578582027927041" lon="-3.901260020211339">
        <ele>17.920000000000002</ele>
        <time>2019-09-01T15:42:44Z</time>
      </trkpt>
      <trkpt lat="57.578025972470641" lon="-3.905690023675561">
        <ele>18.399999999999999</ele>
        <time>2019-09-01T15:42:57Z</time>
      </trkpt>
      <trkpt lat="57.577638980001211" lon="-3.908939016982913">
        <ele>20.32</ele>
        <time>2019-09-01T15:43:08Z</time>
      </trkpt>
      <trkpt lat="57.577199013903737" lon="-3.912377022206783">
        <ele>22.25</ele>
        <time>2019-09-01T15:43:20Z</time>
      </trkpt>
      <trkpt lat="57.576705990359187" lon="-3.916211994364858">
        <ele>17.440000000000001</ele>
        <time>2019-09-01T15:43:32Z</time>
      </trkpt>
      <trkpt lat="57.576225036755204" lon="-3.919133003801107">
        <ele>17.920000000000002</ele>
        <time>2019-09-01T15:43:40Z</time>
      </trkpt>
      <trkpt lat="57.575323982164264" lon="-3.922154009342194">
        <ele>19.84</ele>
        <time>2019-09-01T15:43:48Z</time>
      </trkpt>
      <trkpt lat="57.573795039206743" lon="-3.926264997571707">
        <ele>21.77</ele>
        <time>2019-09-01T15:43:59Z</time>
      </trkpt>
      <trkpt lat="57.572317980229855" lon="-3.930240031331778">
        <ele>22.25</ele>
        <time>2019-09-01T15:44:10Z</time>
      </trkpt>
      <trkpt lat="57.571154991164804" lon="-3.933327002450824">
        <ele>21.289999999999999</ele>
        <time>2019-09-01T15:44:21Z</time>
      </trkpt>
      <trkpt lat="57.569863004609942" lon="-3.936799960210919">
        <ele>22.73</ele>
        <time>2019-09-01T15:44:32Z</time>
      </trkpt>
      <trkpt lat="57.568218978121877" lon="-3.941219989210367">
        <ele>24.170000000000002</ele>
        <time>2019-09-01T15:44:45Z</time>
      </trkpt>
      <trkpt lat="57.566565982997417" lon="-3.945663990452886">
        <ele>26.09</ele>
        <time>2019-09-01T15:44:58Z</time>
      </trkpt>
      <trkpt lat="57.564982976764441" lon="-3.94990598782897">
        <ele>27.050000000000001</ele>
        <time>2019-09-01T15:45:10Z</time>
      </trkpt>
      <trkpt lat="57.562967967242002" lon="-3.95527602173388">
        <ele>25.609999999999999</ele>
        <time>2019-09-01T15:45:25Z</time>
      </trkpt>
      <trkpt lat="57.560838963836432" lon="-3.960973033681512">
        <ele>23.690000000000001</ele>
        <time>2019-09-01T15:45:41Z</time>
      </trkpt>
      <trkpt lat="57.558641983196139" lon="-3.96653501316905">
        <ele>21.289999999999999</ele>
        <time>2019-09-01T15:45:57Z</time>
      </trkpt>
      <trkpt lat="57.556953029707074" lon="-3.97061700001359">
        <ele>24.170000000000002</ele>
        <time>2019-09-01T15:46:09Z</time>
      </trkpt>
      <trkpt lat="57.554987976327538" lon="-3.975948980078101">
        <ele>28.98</ele>
        <time>2019-09-01T15:46:24Z</time>
      </trkpt>
      <trkpt lat="57.553704036399722" lon="-3.979659983888269">
        <ele>23.690000000000001</ele>
        <time>2019-09-01T15:46:35Z</time>
      </trkpt>
      <trkpt lat="57.551823975518346" lon="-3.984726006165147">
        <ele>24.170000000000002</ele>
        <time>2019-09-01T15:46:50Z</time>
      </trkpt>
      <trkpt lat="57.549407975748181" lon="-3.99120002053678">
        <ele>30.899999999999999</ele>
        <time>2019-09-01T15:47:09Z</time>
      </trkpt>
      <trkpt lat="57.547165984287858" lon="-3.997278995811939">
        <ele>33.299999999999997</ele>
        <time>2019-09-01T15:47:26Z</time>
      </trkpt>
      <trkpt lat="57.545681968331337" lon="-4.001462990418077">
        <ele>32.82</ele>
        <time>2019-09-01T15:47:38Z</time>
      </trkpt>
      <trkpt lat="57.544244974851608" lon="-4.005236020311713">
        <ele>30.420000000000002</ele>
        <time>2019-09-01T15:47:50Z</time>
      </trkpt>
      <trkpt lat="57.542181015014648" lon="-4.010465992614627">
        <ele>28.98</ele>
        <time>2019-09-01T15:48:05Z</time>
      </trkpt>
      <trkpt lat="57.539769960567355" lon="-4.016812015324831">
        <ele>26.57</ele>
        <time>2019-09-01T15:48:23Z</time>
      </trkpt>
      <trkpt lat="57.537986040115356" lon="-4.021608978509903">
        <ele>24.170000000000002</ele>
        <time>2019-09-01T15:48:37Z</time>
      </trkpt>
      <trkpt lat="57.535605998709798" lon="-4.027914013713598">
        <ele>27.050000000000001</ele>
        <time>2019-09-01T15:48:56Z</time>
      </trkpt>
      <trkpt lat="57.53505296073854" lon="-4.03056001290679">
        <ele>26.57</ele>
        <time>2019-09-01T15:49:02Z</time>
      </trkpt>
      <trkpt lat="57.534368997439742" lon="-4.035388994961977">
        <ele>23.690000000000001</ele>
        <time>2019-09-01T15:49:13Z</time>
      </trkpt>
      <trkpt lat="57.533522006124258" lon="-4.040264999493957">
        <ele>21.77</ele>
        <time>2019-09-01T15:49:25Z</time>
      </trkpt>
      <trkpt lat="57.532383995130658" lon="-4.043528996407986">
        <ele>19.84</ele>
        <time>2019-09-01T15:49:34Z</time>
      </trkpt>
      <trkpt lat="57.531594000756741" lon="-4.045612988993526">
        <ele>18.399999999999999</ele>
        <time>2019-09-01T15:49:41Z</time>
      </trkpt>
      <trkpt lat="57.531022019684315" lon="-4.047094993293285">
        <ele>16.48</ele>
        <time>2019-09-01T15:49:49Z</time>
      </trkpt>
      <trkpt lat="57.530791014432907" lon="-4.047717014327645">
        <ele>16</ele>
        <time>2019-09-01T15:49:54Z</time>
      </trkpt>
      <trkpt lat="57.530748015269637" lon="-4.047831008210778">
        <ele>15.52</ele>
        <time>2019-09-01T15:49:55Z</time>
      </trkpt>
      <trkpt lat="57.530646007508039" lon="-4.047998981550336">
        <ele>15.52</ele>
        <time>2019-09-01T15:49:56Z</time>
      </trkpt>
      <trkpt lat="57.53049697726965" lon="-4.047961011528969">
        <ele>15.52</ele>
        <time>2019-09-01T15:49:58Z</time>
      </trkpt>
      <trkpt lat="57.530423970893025" lon="-4.04804902151227">
        <ele>15.52</ele>
        <time>2019-09-01T15:49:59Z</time>
      </trkpt>
      <trkpt lat="57.530370997264981" lon="-4.048177013173699">
        <ele>15.52</ele>
        <time>2019-09-01T15:50:00Z</time>
      </trkpt>
      <trkpt lat="57.530336966738105" lon="-4.048290001228452">
        <ele>16</ele>
        <time>2019-09-01T15:50:01Z</time>
      </trkpt>
      <trkpt lat="57.530359011143446" lon="-4.048504997044802">
        <ele>16</ele>
        <time>2019-09-01T15:50:02Z</time>
      </trkpt>
      <trkpt lat="57.530356999486685" lon="-4.048787970095873">
        <ele>15.52</ele>
        <time>2019-09-01T15:50:03Z</time>
      </trkpt>
      <trkpt lat="57.530301008373499" lon="-4.048940017819405">
        <ele>15.52</ele>
        <time>2019-09-01T15:50:04Z</time>
      </trkpt>
      <trkpt lat="57.530236970633268" lon="-4.049115031957626">
        <ele>15.52</ele>
        <time>2019-09-01T15:50:05Z</time>
      </trkpt>
      <trkpt lat="57.530164970085025" lon="-4.049311000853777">
        <ele>15.52</ele>
        <time>2019-09-01T15:50:06Z</time>
      </trkpt>
      <trkpt lat="57.530085006728768" lon="-4.049525996670127">
        <ele>15.52</ele>
        <time>2019-09-01T15:50:07Z</time>
      </trkpt>
      <trkpt lat="57.529260981827974" lon="-4.051729012280703">
        <ele>15.52</ele>
        <time>2019-09-01T15:50:15Z</time>
      </trkpt>
      <trkpt lat="57.528306031599641" lon="-4.05434500426054">
        <ele>16</ele>
        <time>2019-09-01T15:50:23Z</time>
      </trkpt>
      <trkpt lat="57.527095014229417" lon="-4.057431975379586">
        <ele>15.52</ele>
        <time>2019-09-01T15:50:33Z</time>
      </trkpt>
      <trkpt lat="57.5258560013026" lon="-4.059476992115378">
        <ele>16.960000000000001</ele>
        <time>2019-09-01T15:50:42Z</time>
      </trkpt>
      <trkpt lat="57.523584002628922" lon="-4.062279984354973">
        <ele>15.52</ele>
        <time>2019-09-01T15:50:56Z</time>
      </trkpt>
      <trkpt lat="57.522304002195597" lon="-4.064144035801292">
        <ele>16.48</ele>
        <time>2019-09-01T15:51:05Z</time>
      </trkpt>
      <trkpt lat="57.52140898257494" lon="-4.066472025588155">
        <ele>17.920000000000002</ele>
        <time>2019-09-01T15:51:13Z</time>
      </trkpt>
      <trkpt lat="57.519998978823423" lon="-4.071321040391922">
        <ele>16.960000000000001</ele>
        <time>2019-09-01T15:51:26Z</time>
      </trkpt>
      <trkpt lat="57.517905011773109" lon="-4.078503996133804">
        <ele>14.08</ele>
        <time>2019-09-01T15:51:45Z</time>
      </trkpt>
      <trkpt lat="57.516192002221942" lon="-4.084448022767901">
        <ele>15.039999999999999</ele>
        <time>2019-09-01T15:52:01Z</time>
      </trkpt>
      <trkpt lat="57.515077963471413" lon="-4.088259022682905">
        <ele>17.440000000000001</ele>
        <time>2019-09-01T15:52:13Z</time>
      </trkpt>
      <trkpt lat="57.513601994141936" lon="-4.093080963939428">
        <ele>14.56</ele>
        <time>2019-09-01T15:52:27Z</time>
      </trkpt>
      <trkpt lat="57.512009013444185" lon="-4.098147992044687">
        <ele>12.630000000000001</ele>
        <time>2019-09-01T15:52:41Z</time>
      </trkpt>
      <trkpt lat="57.511348016560078" lon="-4.10103396512568">
        <ele>11.67</ele>
        <time>2019-09-01T15:52:49Z</time>
      </trkpt>
      <trkpt lat="57.510341014713049" lon="-4.105969984084368">
        <ele>10.710000000000001</ele>
        <time>2019-09-01T15:53:03Z</time>
      </trkpt>
      <trkpt lat="57.509341975674033" lon="-4.108512969687581">
        <ele>12.630000000000001</ele>
        <time>2019-09-01T15:53:11Z</time>
      </trkpt>
      <trkpt lat="57.507359990850091" lon="-4.112838031724095">
        <ele>16.960000000000001</ele>
        <time>2019-09-01T15:53:25Z</time>
      </trkpt>
      <trkpt lat="57.505504991859198" lon="-4.116363041102886">
        <ele>18.399999999999999</ele>
        <time>2019-09-01T15:53:37Z</time>
      </trkpt>
      <trkpt lat="57.504579965025187" lon="-4.118536971509457">
        <ele>18.879999999999999</ele>
        <time>2019-09-01T15:53:45Z</time>
      </trkpt>
      <trkpt lat="57.503625014796853" lon="-4.121909011155367">
        <ele>18.399999999999999</ele>
        <time>2019-09-01T15:53:55Z</time>
      </trkpt>
      <trkpt lat="57.502407962456346" lon="-4.126349994912744">
        <ele>19.84</ele>
        <time>2019-09-01T15:54:08Z</time>
      </trkpt>
      <trkpt lat="57.501816032454371" lon="-4.129315009340644">
        <ele>24.170000000000002</ele>
        <time>2019-09-01T15:54:17Z</time>
      </trkpt>
      <trkpt lat="57.501251008361578" lon="-4.134535007178783">
        <ele>24.649999999999999</ele>
        <time>2019-09-01T15:54:31Z</time>
      </trkpt>
      <trkpt lat="57.501029977574944" lon="-4.139025025069714">
        <ele>23.690000000000001</ele>
        <time>2019-09-01T15:54:43Z</time>
      </trkpt>
      <trkpt lat="57.500581964850426" lon="-4.142273012548685">
        <ele>21.289999999999999</ele>
        <time>2019-09-01T15:54:52Z</time>
      </trkpt>
      <trkpt lat="57.499680994078517" lon="-4.144835025072098">
        <ele>18.879999999999999</ele>
        <time>2019-09-01T15:55:00Z</time>
      </trkpt>
      <trkpt lat="57.497807973995805" lon="-4.148361040279269">
        <ele>16.48</ele>
        <time>2019-09-01T15:55:12Z</time>
      </trkpt>
      <trkpt lat="57.495673019438982" lon="-4.152443027123809">
        <ele>13.119999999999999</ele>
        <time>2019-09-01T15:55:26Z</time>
      </trkpt>
      <trkpt lat="57.494841031730175" lon="-4.154227031394839">
        <ele>9.27</ele>
        <time>2019-09-01T15:55:32Z</time>
      </trkpt>
      <trkpt lat="57.493084017187357" lon="-4.157120967283845">
        <ele>8.789999999999999</ele>
        <time>2019-09-01T15:55:43Z</time>
      </trkpt>
      <trkpt lat="57.491218037903309" lon="-4.160318998619914">
        <ele>8.789999999999999</ele>
        <time>2019-09-01T15:55:54Z</time>
      </trkpt>
      <trkpt lat="57.489994028583169" lon="-4.162739021703601">
        <ele>10.710000000000001</ele>
        <time>2019-09-01T15:56:03Z</time>
      </trkpt>
      <trkpt lat="57.489080987870693" lon="-4.164404002949596">
        <ele>13.119999999999999</ele>
        <time>2019-09-01T15:56:12Z</time>
      </trkpt>
      <trkpt lat="57.488673962652683" lon="-4.164840029552579">
        <ele>13.6</ele>
        <time>2019-09-01T15:56:19Z</time>
      </trkpt>
      <trkpt lat="57.488553011789918" lon="-4.16488504037261">
        <ele>14.56</ele>
        <time>2019-09-01T15:56:23Z</time>
      </trkpt>
      <trkpt lat="57.488496014848351" lon="-4.164877999573946">
        <ele>14.56</ele>
        <time>2019-09-01T15:56:24Z</time>
      </trkpt>
      <trkpt lat="57.488425020128489" lon="-4.164866013452411">
        <ele>14.56</ele>
        <time>2019-09-01T15:56:25Z</time>
      </trkpt>
      <trkpt lat="57.488340027630329" lon="-4.164813961833715">
        <ele>14.56</ele>
        <time>2019-09-01T15:56:26Z</time>
      </trkpt>
      <trkpt lat="57.488246988505125" lon="-4.16475797072053">
        <ele>14.08</ele>
        <time>2019-09-01T15:56:27Z</time>
      </trkpt>
      <trkpt lat="57.488151015713811" lon="-4.164824020117521">
        <ele>14.08</ele>
        <time>2019-09-01T15:56:28Z</time>
      </trkpt>
      <trkpt lat="57.488067029044032" lon="-4.164913035929203">
        <ele>13.6</ele>
        <time>2019-09-01T15:56:29Z</time>
      </trkpt>
      <trkpt lat="57.487991005182266" lon="-4.165031975135207">
        <ele>13.6</ele>
        <time>2019-09-01T15:56:30Z</time>
      </trkpt>
      <trkpt lat="57.48795404098928" lon="-4.165168013423681">
        <ele>13.119999999999999</ele>
        <time>2019-09-01T15:56:31Z</time>
      </trkpt>
      <trkpt lat="57.487944988533854" lon="-4.165354007855058">
        <ele>13.119999999999999</ele>
        <time>2019-09-01T15:56:32Z</time>
      </trkpt>
      <trkpt lat="57.487937025725842" lon="-4.165514018386602">
        <ele>13.119999999999999</ele>
        <time>2019-09-01T15:56:33Z</time>
      </trkpt>
      <trkpt lat="57.487912969663739" lon="-4.165748963132501">
        <ele>12.630000000000001</ele>
        <time>2019-09-01T15:56:34Z</time>
      </trkpt>
      <trkpt lat="57.487893020734191" lon="-4.165955996140838">
        <ele>12.630000000000001</ele>
        <time>2019-09-01T15:56:35Z</time>
      </trkpt>
      <trkpt lat="57.48787097632885" lon="-4.166174009442329">
        <ele>12.630000000000001</ele>
        <time>2019-09-01T15:56:36Z</time>
      </trkpt>
      <trkpt lat="57.487843986600637" lon="-4.166394034400582">
        <ele>12.630000000000001</ele>
        <time>2019-09-01T15:56:37Z</time>
      </trkpt>
      <trkpt lat="57.48778497800231" lon="-4.166598971933126">
        <ele>12.630000000000001</ele>
        <time>2019-09-01T15:56:38Z</time>
      </trkpt>
      <trkpt lat="57.487723035737872" lon="-4.166813967749476">
        <ele>13.119999999999999</ele>
        <time>2019-09-01T15:56:39Z</time>
      </trkpt>
      <trkpt lat="57.487657992169261" lon="-4.167036004364491">
        <ele>13.119999999999999</ele>
        <time>2019-09-01T15:56:40Z</time>
      </trkpt>
      <trkpt lat="57.487584985792637" lon="-4.167259968817234">
        <ele>13.119999999999999</ele>
        <time>2019-09-01T15:56:41Z</time>
      </trkpt>
      <trkpt lat="57.487495969980955" lon="-4.167480999603868">
        <ele>13.119999999999999</ele>
        <time>2019-09-01T15:56:42Z</time>
      </trkpt>
      <trkpt lat="57.486477987840772" lon="-4.170036977156997">
        <ele>14.56</ele>
        <time>2019-09-01T15:56:52Z</time>
      </trkpt>
      <trkpt lat="57.485482972115278" lon="-4.173010960221291">
        <ele>16.48</ele>
        <time>2019-09-01T15:57:03Z</time>
      </trkpt>
      <trkpt lat="57.484890958294272" lon="-4.17562703602016">
        <ele>19.84</ele>
        <time>2019-09-01T15:57:13Z</time>
      </trkpt>
      <trkpt lat="57.484417967498302" lon="-4.177809013053775">
        <ele>22.25</ele>
        <time>2019-09-01T15:57:23Z</time>
      </trkpt>
      <trkpt lat="57.48432501219213" lon="-4.178177984431386">
        <ele>22.25</ele>
        <time>2019-09-01T15:57:25Z</time>
      </trkpt>
      <trkpt lat="57.484295004978776" lon="-4.178300024941564">
        <ele>22.25</ele>
        <time>2019-09-01T15:57:26Z</time>
      </trkpt>
      <trkpt lat="57.484272038564086" lon="-4.17835601605475">
        <ele>22.25</ele>
        <time>2019-09-01T15:57:27Z</time>
      </trkpt>
      <trkpt lat="57.484177993610501" lon="-4.178531030192971">
        <ele>22.73</ele>
        <time>2019-09-01T15:57:31Z</time>
      </trkpt>
      <trkpt lat="57.484116973355412" lon="-4.178646029904485">
        <ele>22.73</ele>
        <time>2019-09-01T15:57:32Z</time>
      </trkpt>
      <trkpt lat="57.484030975028872" lon="-4.178689029067755">
        <ele>22.73</ele>
        <time>2019-09-01T15:57:33Z</time>
      </trkpt>
      <trkpt lat="57.48398001305759" lon="-4.178749965503812">
        <ele>22.73</ele>
        <time>2019-09-01T15:57:34Z</time>
      </trkpt>
      <trkpt lat="57.483913963660598" lon="-4.178902013227344">
        <ele>22.73</ele>
        <time>2019-09-01T15:57:35Z</time>
      </trkpt>
      <trkpt lat="57.483890997245908" lon="-4.179080966860056">
        <ele>22.73</ele>
        <time>2019-09-01T15:57:36Z</time>
      </trkpt>
      <trkpt lat="57.483881022781134" lon="-4.179292023181915">
        <ele>22.73</ele>
        <time>2019-09-01T15:57:37Z</time>
      </trkpt>
      <trkpt lat="57.483849003911018" lon="-4.179510036483407">
        <ele>22.73</ele>
        <time>2019-09-01T15:57:38Z</time>
      </trkpt>
      <trkpt lat="57.483812961727381" lon="-4.179749004542828">
        <ele>22.73</ele>
        <time>2019-09-01T15:57:39Z</time>
      </trkpt>
      <trkpt lat="57.48352998867631" lon="-4.182228958234191">
        <ele>24.170000000000002</ele>
        <time>2019-09-01T15:57:47Z</time>
      </trkpt>
      <trkpt lat="57.483008969575167" lon="-4.185509970411658">
        <ele>26.09</ele>
        <time>2019-09-01T15:57:57Z</time>
      </trkpt>
      <trkpt lat="57.482566991820931" lon="-4.188045999035239">
        <ele>25.609999999999999</ele>
        <time>2019-09-01T15:58:04Z</time>
      </trkpt>
      <trkpt lat="57.482259962707758" lon="-4.18987400829792">
        <ele>23.210000000000001</ele>
        <time>2019-09-01T15:58:11Z</time>
      </trkpt>
      <trkpt lat="57.482010014355183" lon="-4.191090976819396">
        <ele>19.359999999999999</ele>
        <time>2019-09-01T15:58:18Z</time>
      </trkpt>
      <trkpt lat="57.481974977999926" lon="-4.191178986802697">
        <ele>18.879999999999999</ele>
        <time>2019-09-01T15:58:19Z</time>
      </trkpt>
      <trkpt lat="57.481942037120461" lon="-4.191261967644095">
        <ele>18.399999999999999</ele>
        <time>2019-09-01T15:58:20Z</time>
      </trkpt>
      <trkpt lat="57.481866013258696" lon="-4.191354000940919">
        <ele>17.920000000000002</ele>
        <time>2019-09-01T15:58:21Z</time>
      </trkpt>
      <trkpt lat="57.48178998939693" lon="-4.191362969577313">
        <ele>17.440000000000001</ele>
        <time>2019-09-01T15:58:22Z</time>
      </trkpt>
      <trkpt lat="57.481709020212293" lon="-4.191397000104189">
        <ele>16.960000000000001</ele>
        <time>2019-09-01T15:58:23Z</time>
      </trkpt>
      <trkpt lat="57.481626961380243" lon="-4.191478975117207">
        <ele>16.48</ele>
        <time>2019-09-01T15:58:24Z</time>
      </trkpt>
      <trkpt lat="57.481540963053703" lon="-4.191564973443747">
        <ele>16</ele>
        <time>2019-09-01T15:58:25Z</time>
      </trkpt>
      <trkpt lat="57.481413977220654" lon="-4.191821040585637">
        <ele>15.039999999999999</ele>
        <time>2019-09-01T15:58:27Z</time>
      </trkpt>
      <trkpt lat="57.481387993320823" lon="-4.192010974511504">
        <ele>14.56</ele>
        <time>2019-09-01T15:58:28Z</time>
      </trkpt>
      <trkpt lat="57.48136100359261" lon="-4.192203003913164">
        <ele>14.08</ele>
        <time>2019-09-01T15:58:29Z</time>
      </trkpt>
      <trkpt lat="57.48135999776423" lon="-4.192384975031018">
        <ele>14.08</ele>
        <time>2019-09-01T15:58:30Z</time>
      </trkpt>
      <trkpt lat="57.481385981664062" lon="-4.192597037181258">
        <ele>14.08</ele>
        <time>2019-09-01T15:58:31Z</time>
      </trkpt>
      <trkpt lat="57.481412971392274" lon="-4.192823013290763">
        <ele>13.6</ele>
        <time>2019-09-01T15:58:32Z</time>
      </trkpt>
      <trkpt lat="57.481507016345859" lon="-4.193258034065366">
        <ele>12.630000000000001</ele>
        <time>2019-09-01T15:58:34Z</time>
      </trkpt>
      <trkpt lat="57.481823014095426" lon="-4.195319982245565">
        <ele>7.83</ele>
        <time>2019-09-01T15:58:43Z</time>
      </trkpt>
      <trkpt lat="57.482103975489736" lon="-4.198169996961951">
        <ele>2.06</ele>
        <time>2019-09-01T15:58:57Z</time>
      </trkpt>
      <trkpt lat="57.482294999063015" lon="-4.199831960722804">
        <ele>0.62</ele>
        <time>2019-09-01T15:59:07Z</time>
      </trkpt>
      <trkpt lat="57.482315031811595" lon="-4.200082998722792">
        <ele>1.1</ele>
        <time>2019-09-01T15:59:11Z</time>
      </trkpt>
      <trkpt lat="57.482315031811595" lon="-4.200234040617943">
        <ele>1.1</ele>
        <time>2019-09-01T15:59:13Z</time>
      </trkpt>
      <trkpt lat="57.482315031811595" lon="-4.200323978438973">
        <ele>1.1</ele>
        <time>2019-09-01T15:59:14Z</time>
      </trkpt>
      <trkpt lat="57.482247976586223" lon="-4.200594965368509">
        <ele>1.58</ele>
        <time>2019-09-01T15:59:16Z</time>
      </trkpt>
      <trkpt lat="57.482218975201249" lon="-4.200720023363829">
        <ele>2.06</ele>
        <time>2019-09-01T15:59:17Z</time>
      </trkpt>
      <trkpt lat="57.482226015999913" lon="-4.200827982276678">
        <ele>2.54</ele>
        <time>2019-09-01T15:59:18Z</time>
      </trkpt>
      <trkpt lat="57.482264991849661" lon="-4.200954968109727">
        <ele>3.02</ele>
        <time>2019-09-01T15:59:19Z</time>
      </trkpt>
      <trkpt lat="57.482292987406254" lon="-4.20104700140655">
        <ele>3.02</ele>
        <time>2019-09-01T15:59:20Z</time>
      </trkpt>
      <trkpt lat="57.482406981289387" lon="-4.201169963926077">
        <ele>3.02</ele>
        <time>2019-09-01T15:59:21Z</time>
      </trkpt>
      <trkpt lat="57.482459032908082" lon="-4.201318994164467">
        <ele>3.02</ele>
        <time>2019-09-01T15:59:22Z</time>
      </trkpt>
      <trkpt lat="57.482513012364507" lon="-4.201474981382489">
        <ele>3.5</ele>
        <time>2019-09-01T15:59:23Z</time>
      </trkpt>
      <trkpt lat="57.482555005699396" lon="-4.201674973592162">
        <ele>3.5</ele>
        <time>2019-09-01T15:59:24Z</time>
      </trkpt>
      <trkpt lat="57.482565985992551" lon="-4.201902961358428">
        <ele>3.5</ele>
        <time>2019-09-01T15:59:25Z</time>
      </trkpt>
      <trkpt lat="57.482576966285706" lon="-4.202130027115345">
        <ele>3.5</ele>
        <time>2019-09-01T15:59:26Z</time>
      </trkpt>
      <trkpt lat="57.482588030397892" lon="-4.202345022931695">
        <ele>3.5</ele>
        <time>2019-09-01T15:59:27Z</time>
      </trkpt>
      <trkpt lat="57.482598004862666" lon="-4.202563036233187">
        <ele>3.5</ele>
        <time>2019-09-01T15:59:28Z</time>
      </trkpt>
      <trkpt lat="57.482608985155821" lon="-4.202794963493943">
        <ele>3.02</ele>
        <time>2019-09-01T15:59:29Z</time>
      </trkpt>
      <trkpt lat="57.482550982385874" lon="-4.204952968284488">
        <ele>4.94</ele>
        <time>2019-09-01T15:59:39Z</time>
      </trkpt>
      <trkpt lat="57.482364987954497" lon="-4.207272995263338">
        <ele>7.83</ele>
        <time>2019-09-01T15:59:50Z</time>
      </trkpt>
      <trkpt lat="57.482196008786559" lon="-4.209695030003786">
        <ele>10.23</ele>
        <time>2019-09-01T15:59:59Z</time>
      </trkpt>
      <trkpt lat="57.48196299187839" lon="-4.213584987446666">
        <ele>9.75</ele>
        <time>2019-09-01T16:00:14Z</time>
      </trkpt>
      <trkpt lat="57.481766017153859" lon="-4.215380977839232">
        <ele>10.23</ele>
        <time>2019-09-01T16:00:22Z</time>
      </trkpt>
      <trkpt lat="57.481712037697434" lon="-4.215519027784467">
        <ele>10.23</ele>
        <time>2019-09-01T16:00:23Z</time>
      </trkpt>
      <trkpt lat="57.481658980250359" lon="-4.215628998354077">
        <ele>10.23</ele>
        <time>2019-09-01T16:00:24Z</time>
      </trkpt>
      <trkpt lat="57.481583962216973" lon="-4.21578599140048">
        <ele>9.75</ele>
        <time>2019-09-01T16:00:26Z</time>
      </trkpt>
      <trkpt lat="57.481556972488761" lon="-4.215843994170427">
        <ele>9.75</ele>
        <time>2019-09-01T16:00:27Z</time>
      </trkpt>
      <trkpt lat="57.4813839700073" lon="-4.216206008568406">
        <ele>8.789999999999999</ele>
        <time>2019-09-01T16:00:37Z</time>
      </trkpt>
      <trkpt lat="57.480947021394968" lon="-4.217156013473868">
        <ele>8.789999999999999</ele>
        <time>2019-09-01T16:00:45Z</time>
      </trkpt>
      <trkpt lat="57.480407981202006" lon="-4.218204002827406">
        <ele>10.23</ele>
        <time>2019-09-01T16:00:53Z</time>
      </trkpt>
      <trkpt lat="57.480075974017382" lon="-4.218637011945248">
        <ele>10.23</ele>
        <time>2019-09-01T16:00:59Z</time>
      </trkpt>
      <trkpt lat="57.48002802953124" lon="-4.218694008886814">
        <ele>10.710000000000001</ele>
        <time>2019-09-01T16:01:00Z</time>
      </trkpt>
      <trkpt lat="57.47998503036797" lon="-4.218745976686478">
        <ele>10.710000000000001</ele>
        <time>2019-09-01T16:01:01Z</time>
      </trkpt>
      <trkpt lat="57.47994395904243" lon="-4.218794004991651">
        <ele>10.710000000000001</ele>
        <time>2019-09-01T16:01:02Z</time>
      </trkpt>
      <trkpt lat="57.479906994849443" lon="-4.218839015811682">
        <ele>10.710000000000001</ele>
        <time>2019-09-01T16:01:03Z</time>
      </trkpt>
      <trkpt lat="57.479872964322567" lon="-4.21887899748981">
        <ele>10.710000000000001</ele>
        <time>2019-09-01T16:01:04Z</time>
      </trkpt>
      <trkpt lat="57.479703985154629" lon="-4.219079995527864">
        <ele>11.19</ele>
        <time>2019-09-01T16:01:13Z</time>
      </trkpt>
      <trkpt lat="57.479703985154629" lon="-4.219079995527864">
        <ele>11.19</ele>
        <time>2019-09-01T16:01:38Z</time>
      </trkpt>
      <trkpt lat="57.479652017354965" lon="-4.219176974147558">
        <ele>11.19</ele>
        <time>2019-09-01T16:01:57Z</time>
      </trkpt>
      <trkpt lat="57.479618992656469" lon="-4.21926598995924">
        <ele>11.19</ele>
        <time>2019-09-01T16:01:58Z</time>
      </trkpt>
      <trkpt lat="57.479321015998721" lon="-4.220396960154176">
        <ele>12.15</ele>
        <time>2019-09-01T16:02:08Z</time>
      </trkpt>
      <trkpt lat="57.479254966601729" lon="-4.220958966761828">
        <ele>11.67</ele>
        <time>2019-09-01T16:02:20Z</time>
      </trkpt>
      <trkpt lat="57.479254966601729" lon="-4.220958966761828">
        <ele>11.67</ele>
        <time>2019-09-01T16:02:35Z</time>
      </trkpt>
      <trkpt lat="57.479251027107239" lon="-4.221010012552142">
        <ele>11.67</ele>
        <time>2019-09-01T16:02:43Z</time>
      </trkpt>
      <trkpt lat="57.478874009102583" lon="-4.221282005310059">
        <ele>7.83</ele>
        <time>2019-09-01T16:02:46Z</time>
      </trkpt>
      <trkpt lat="57.478614002466202" lon="-4.221078995615244">
        <ele>3.02</ele>
        <time>2019-09-01T16:02:50Z</time>
      </trkpt>
      <trkpt lat="57.478573014959693" lon="-4.221046976745129">
        <ele>2.06</ele>
        <time>2019-09-01T16:02:51Z</time>
      </trkpt>
      <trkpt lat="57.478517023846507" lon="-4.221002971753478">
        <ele>1.1</ele>
        <time>2019-09-01T16:02:52Z</time>
      </trkpt>
      <trkpt lat="57.47848198749125" lon="-4.220943041145802">
        <ele>0.14</ele>
        <time>2019-09-01T16:02:53Z</time>
      </trkpt>
      <trkpt lat="57.478432031348348" lon="-4.220838015899062">
        <ele>0.62</ele>
        <time>2019-09-01T16:02:54Z</time>
      </trkpt>
      <trkpt lat="57.478439994156361" lon="-4.220723016187549">
        <ele>0.62</ele>
        <time>2019-09-01T16:02:55Z</time>
      </trkpt>
      <trkpt lat="57.478447034955025" lon="-4.220609022304416">
        <ele>0.14</ele>
        <time>2019-09-01T16:02:56Z</time>
      </trkpt>
      <trkpt lat="57.47845902107656" lon="-4.220493016764522">
        <ele>0.14</ele>
        <time>2019-09-01T16:02:57Z</time>
      </trkpt>
      <trkpt lat="57.478639986366034" lon="-4.219801006838679">
        <ele>2.06</ele>
        <time>2019-09-01T16:03:05Z</time>
      </trkpt>
      <trkpt lat="57.478678040206432" lon="-4.219703022390604">
        <ele>2.06</ele>
        <time>2019-09-01T16:03:06Z</time>
      </trkpt>
      <trkpt lat="57.47873998247087" lon="-4.21954401768744">
        <ele>3.02</ele>
        <time>2019-09-01T16:03:08Z</time>
      </trkpt>
      <trkpt lat="57.478763032704592" lon="-4.219487020745874">
        <ele>3.02</ele>
        <time>2019-09-01T16:03:09Z</time>
      </trkpt>
      <trkpt lat="57.478790022432804" lon="-4.219433041289449">
        <ele>3.5</ele>
        <time>2019-09-01T16:03:10Z</time>
      </trkpt>
      <trkpt lat="57.478823969140649" lon="-4.219380989670754">
        <ele>3.98</ele>
        <time>2019-09-01T16:03:11Z</time>
      </trkpt>
      <trkpt lat="57.478862022981048" lon="-4.219319969415665">
        <ele>4.46</ele>
        <time>2019-09-01T16:03:12Z</time>
      </trkpt>
      <trkpt lat="57.478908039629459" lon="-4.219248974695802">
        <ele>4.46</ele>
        <time>2019-09-01T16:03:13Z</time>
      </trkpt>
      <trkpt lat="57.479010969400406" lon="-4.219087036326528">
        <ele>5.42</ele>
        <time>2019-09-01T16:03:15Z</time>
      </trkpt>
      <trkpt lat="57.479066960513592" lon="-4.218998020514846">
        <ele>5.91</ele>
        <time>2019-09-01T16:03:16Z</time>
      </trkpt>
      <trkpt lat="57.479263013228774" lon="-4.218712029978633">
        <ele>7.35</ele>
        <time>2019-09-01T16:03:19Z</time>
      </trkpt>
      <trkpt lat="57.479983018711209" lon="-4.217992024496198">
        <ele>15.039999999999999</ele>
        <time>2019-09-01T16:03:29Z</time>
      </trkpt>
      <trkpt lat="57.480044038966298" lon="-4.217923963442445">
        <ele>16</ele>
        <time>2019-09-01T16:03:30Z</time>
      </trkpt>
      <trkpt lat="57.480082008987665" lon="-4.217824973165989">
        <ele>16.960000000000001</ele>
        <time>2019-09-01T16:03:31Z</time>
      </trkpt>
      <trkpt lat="57.4801130220294" lon="-4.217705028131604">
        <ele>17.440000000000001</ele>
        <time>2019-09-01T16:03:32Z</time>
      </trkpt>
      <trkpt lat="57.480129031464458" lon="-4.217604026198387">
        <ele>18.399999999999999</ele>
        <time>2019-09-01T16:03:33Z</time>
      </trkpt>
      <trkpt lat="57.480143029242754" lon="-4.217516016215086">
        <ele>18.879999999999999</ele>
        <time>2019-09-01T16:03:34Z</time>
      </trkpt>
      <trkpt lat="57.480122996494174" lon="-4.217386012896895">
        <ele>19.84</ele>
        <time>2019-09-01T16:03:35Z</time>
      </trkpt>
      <trkpt lat="57.480107992887497" lon="-4.217325998470187">
        <ele>20.809999999999999</ele>
        <time>2019-09-01T16:03:36Z</time>
      </trkpt>
      <trkpt lat="57.480104975402355" lon="-4.217312000691891">
        <ele>21.77</ele>
        <time>2019-09-01T16:03:37Z</time>
      </trkpt>
      <trkpt lat="57.480119979009032" lon="-4.217122988775373">
        <ele>22.73</ele>
        <time>2019-09-01T16:03:38Z</time>
      </trkpt>
      <trkpt lat="57.480161972343922" lon="-4.217017963528633">
        <ele>23.210000000000001</ele>
        <time>2019-09-01T16:03:39Z</time>
      </trkpt>
      <trkpt lat="57.480208994820714" lon="-4.21690103597939">
        <ele>24.170000000000002</ele>
        <time>2019-09-01T16:03:40Z</time>
      </trkpt>
      <trkpt lat="57.480262974277139" lon="-4.216766003519297">
        <ele>25.129999999999999</ele>
        <time>2019-09-01T16:03:41Z</time>
      </trkpt>
      <trkpt lat="57.480373028665781" lon="-4.216428967192769">
        <ele>26.57</ele>
        <time>2019-09-01T16:03:43Z</time>
      </trkpt>
      <trkpt lat="57.48039398342371" lon="-4.216245990246534">
        <ele>27.050000000000001</ele>
        <time>2019-09-01T16:03:44Z</time>
      </trkpt>
      <trkpt lat="57.480401024222374" lon="-4.216041974723339">
        <ele>27.530000000000001</ele>
        <time>2019-09-01T16:03:45Z</time>
      </trkpt>
      <trkpt lat="57.48039498925209" lon="-4.215854974463582">
        <ele>28.02</ele>
        <time>2019-09-01T16:03:46Z</time>
      </trkpt>
      <trkpt lat="57.480389038100839" lon="-4.215667974203825">
        <ele>28.5</ele>
        <time>2019-09-01T16:03:47Z</time>
      </trkpt>
      <trkpt lat="57.480361964553595" lon="-4.215449960902333">
        <ele>28.5</ele>
        <time>2019-09-01T16:03:48Z</time>
      </trkpt>
      <trkpt lat="57.480311002582312" lon="-4.215305959805846">
        <ele>28.98</ele>
        <time>2019-09-01T16:03:49Z</time>
      </trkpt>
      <trkpt lat="57.480260962620378" lon="-4.215164976194501">
        <ele>28.98</ele>
        <time>2019-09-01T16:03:50Z</time>
      </trkpt>
      <trkpt lat="57.480211006477475" lon="-4.215024998411536">
        <ele>28.98</ele>
        <time>2019-09-01T16:03:51Z</time>
      </trkpt>
      <trkpt lat="57.480012020096183" lon="-4.214476989582181">
        <ele>28.02</ele>
        <time>2019-09-01T16:03:55Z</time>
      </trkpt>
      <trkpt lat="57.479374995455146" lon="-4.212895995005965">
        <ele>27.050000000000001</ele>
        <time>2019-09-01T16:04:08Z</time>
      </trkpt>
      <trkpt lat="57.479181038215756" lon="-4.212569016963244">
        <ele>27.530000000000001</ele>
        <time>2019-09-01T16:04:12Z</time>
      </trkpt>
      <trkpt lat="57.479132004082203" lon="-4.212511014193296">
        <ele>27.530000000000001</ele>
        <time>2019-09-01T16:04:13Z</time>
      </trkpt>
      <trkpt lat="57.479075007140636" lon="-4.212441025301814">
        <ele>28.02</ele>
        <time>2019-09-01T16:04:14Z</time>
      </trkpt>
      <trkpt lat="57.479046005755663" lon="-4.212415963411331">
        <ele>28.02</ele>
        <time>2019-09-01T16:04:15Z</time>
      </trkpt>
      <trkpt lat="57.479009041562676" lon="-4.212531968951225">
        <ele>28.02</ele>
        <time>2019-09-01T16:04:16Z</time>
      </trkpt>
      <trkpt lat="57.478965958580375" lon="-4.212591983377934">
        <ele>28.02</ele>
        <time>2019-09-01T16:04:17Z</time>
      </trkpt>
      <trkpt lat="57.478921031579375" lon="-4.212654009461403">
        <ele>28.02</ele>
        <time>2019-09-01T16:04:18Z</time>
      </trkpt>
      <trkpt lat="57.478606961667538" lon="-4.213086012750864">
        <ele>28.02</ele>
        <time>2019-09-01T16:04:23Z</time>
      </trkpt>
      <trkpt lat="57.478536972776055" lon="-4.213177962228656">
        <ele>27.530000000000001</ele>
        <time>2019-09-01T16:04:24Z</time>
      </trkpt>
      <trkpt lat="57.477875975891948" lon="-4.214059989899397">
        <ele>26.57</ele>
        <time>2019-09-01T16:04:35Z</time>
      </trkpt>
      <trkpt lat="57.477826019749045" lon="-4.214106006547809">
        <ele>26.57</ele>
        <time>2019-09-01T16:04:36Z</time>
      </trkpt>
      <trkpt lat="57.477787965908647" lon="-4.214126039296389">
        <ele>26.57</ele>
        <time>2019-09-01T16:04:37Z</time>
      </trkpt>
      <trkpt lat="57.477757958695292" lon="-4.214140959084034">
        <ele>26.57</ele>
        <time>2019-09-01T16:04:38Z</time>
      </trkpt>
      <trkpt lat="57.477727029472589" lon="-4.214155962690711">
        <ele>26.57</ele>
        <time>2019-09-01T16:04:39Z</time>
      </trkpt>
      <trkpt lat="57.477701967582107" lon="-4.214169038459659">
        <ele>26.57</ele>
        <time>2019-09-01T16:04:40Z</time>
      </trkpt>
      <trkpt lat="57.477683024480939" lon="-4.214178007096052">
        <ele>26.57</ele>
        <time>2019-09-01T16:04:41Z</time>
      </trkpt>
      <trkpt lat="57.477668020874262" lon="-4.214185969904065">
        <ele>26.57</ele>
        <time>2019-09-01T16:04:42Z</time>
      </trkpt>
      <trkpt lat="57.477652011439204" lon="-4.214193010702729">
        <ele>26.57</ele>
        <time>2019-09-01T16:04:43Z</time>
      </trkpt>
      <trkpt lat="57.477638013660908" lon="-4.214200973510742">
        <ele>26.09</ele>
        <time>2019-09-01T16:04:44Z</time>
      </trkpt>
      <trkpt lat="57.477638013660908" lon="-4.214200973510742">
        <ele>26.09</ele>
        <time>2019-09-01T16:04:45Z</time>
      </trkpt>
      <trkpt lat="57.477638013660908" lon="-4.214200973510742">
        <ele>26.09</ele>
        <time>2019-09-01T16:04:46Z</time>
      </trkpt>
      <trkpt lat="57.47760197147727" lon="-4.214218994602561">
        <ele>26.09</ele>
        <time>2019-09-01T16:04:47Z</time>
      </trkpt>
      <trkpt lat="57.477587973698974" lon="-4.214225029572845">
        <ele>26.09</ele>
        <time>2019-09-01T16:04:48Z</time>
      </trkpt>
      <trkpt lat="57.477568024769425" lon="-4.214235004037619">
        <ele>26.09</ele>
        <time>2019-09-01T16:04:49Z</time>
      </trkpt>
      <trkpt lat="57.477551009505987" lon="-4.214243972674012">
        <ele>26.09</ele>
        <time>2019-09-01T16:04:50Z</time>
      </trkpt>
      <trkpt lat="57.477551009505987" lon="-4.214243972674012">
        <ele>26.09</ele>
        <time>2019-09-01T16:04:51Z</time>
      </trkpt>
      <trkpt lat="57.47742997482419" lon="-4.214155962690711">
        <ele>26.09</ele>
        <time>2019-09-01T16:04:52Z</time>
      </trkpt>
      <trkpt lat="57.477397033944726" lon="-4.214235004037619">
        <ele>25.609999999999999</ele>
        <time>2019-09-01T16:04:53Z</time>
      </trkpt>
      <trkpt lat="57.477355962619185" lon="-4.214330976828933">
        <ele>25.609999999999999</ele>
        <time>2019-09-01T16:04:54Z</time>
      </trkpt>
      <trkpt lat="57.477310029789805" lon="-4.214439019560814">
        <ele>26.09</ele>
        <time>2019-09-01T16:04:55Z</time>
      </trkpt>
      <trkpt lat="57.477264013141394" lon="-4.214548990130425">
        <ele>26.09</ele>
        <time>2019-09-01T16:04:56Z</time>
      </trkpt>
      <trkpt lat="57.477086987346411" lon="-4.214966995641589">
        <ele>26.57</ele>
        <time>2019-09-01T16:05:00Z</time>
      </trkpt>
      <trkpt lat="57.477039964869618" lon="-4.215075960382819">
        <ele>26.57</ele>
        <time>2019-09-01T16:05:01Z</time>
      </trkpt>
      <trkpt lat="57.476491034030914" lon="-4.216371970251203">
        <ele>27.050000000000001</ele>
        <time>2019-09-01T16:05:12Z</time>
      </trkpt>
      <trkpt lat="57.476014019921422" lon="-4.217449966818094">
        <ele>24.649999999999999</ele>
        <time>2019-09-01T16:05:24Z</time>
      </trkpt>
      <trkpt lat="57.475964985787868" lon="-4.217454995959997">
        <ele>24.649999999999999</ele>
        <time>2019-09-01T16:05:25Z</time>
      </trkpt>
      <trkpt lat="57.475920980796218" lon="-4.217447033151984">
        <ele>24.649999999999999</ele>
        <time>2019-09-01T16:05:26Z</time>
      </trkpt>
      <trkpt lat="57.475816961377859" lon="-4.217427000403404">
        <ele>24.649999999999999</ele>
        <time>2019-09-01T16:05:28Z</time>
      </trkpt>
      <trkpt lat="57.475121011957526" lon="-4.21733002178371">
        <ele>24.170000000000002</ele>
        <time>2019-09-01T16:05:36Z</time>
      </trkpt>
      <trkpt lat="57.474209982901812" lon="-4.217327004298568">
        <ele>25.129999999999999</ele>
        <time>2019-09-01T16:05:47Z</time>
      </trkpt>
      <trkpt lat="57.47394603677094" lon="-4.217391964048147">
        <ele>26.09</ele>
        <time>2019-09-01T16:05:50Z</time>
      </trkpt>
      <trkpt lat="57.473800024017692" lon="-4.217475028708577">
        <ele>26.09</ele>
        <time>2019-09-01T16:05:52Z</time>
      </trkpt>
      <trkpt lat="57.473742021247745" lon="-4.217508975416422">
        <ele>26.09</ele>
        <time>2019-09-01T16:05:53Z</time>
      </trkpt>
      <trkpt lat="57.473696004599333" lon="-4.217534959316254">
        <ele>26.09</ele>
        <time>2019-09-01T16:05:54Z</time>
      </trkpt>
      <trkpt lat="57.473657028749585" lon="-4.217557003721595">
        <ele>26.09</ele>
        <time>2019-09-01T16:05:55Z</time>
      </trkpt>
      <trkpt lat="57.473620986565948" lon="-4.217577958479524">
        <ele>26.09</ele>
        <time>2019-09-01T16:05:56Z</time>
      </trkpt>
      <trkpt lat="57.473466005176306" lon="-4.217707039788365">
        <ele>33.299999999999997</ele>
        <time>2019-09-01T16:06:04Z</time>
      </trkpt>
      <trkpt lat="57.473442032933235" lon="-4.217731012031436">
        <ele>35.710000000000001</ele>
        <time>2019-09-01T16:06:23Z</time>
      </trkpt>
      <trkpt lat="57.473402973264456" lon="-4.217769987881184">
        <ele>36.670000000000002</ele>
        <time>2019-09-01T16:06:24Z</time>
      </trkpt>
      <trkpt lat="57.473299959674478" lon="-4.217873001471162">
        <ele>38.590000000000003</ele>
        <time>2019-09-01T16:06:26Z</time>
      </trkpt>
      <trkpt lat="57.473064009100199" lon="-4.218124961480498">
        <ele>38.109999999999999</ele>
        <time>2019-09-01T16:06:31Z</time>
      </trkpt>
      <trkpt lat="57.473015980795026" lon="-4.218188999220729">
        <ele>37.630000000000003</ele>
        <time>2019-09-01T16:06:32Z</time>
      </trkpt>
      <trkpt lat="57.472968958318233" lon="-4.218253036960959">
        <ele>37.630000000000003</ele>
        <time>2019-09-01T16:06:33Z</time>
      </trkpt>
      <trkpt lat="57.472712974995375" lon="-4.218597030267119">
        <ele>38.109999999999999</ele>
        <time>2019-09-01T16:06:42Z</time>
      </trkpt>
      <trkpt lat="57.472652960568666" lon="-4.218677999451757">
        <ele>38.109999999999999</ele>
        <time>2019-09-01T16:06:44Z</time>
      </trkpt>
      <trkpt lat="57.47261599637568" lon="-4.218728961423039">
        <ele>38.109999999999999</ele>
        <time>2019-09-01T16:06:45Z</time>
      </trkpt>
      <trkpt lat="57.472644997760653" lon="-4.218834992498159">
        <ele>38.109999999999999</ele>
        <time>2019-09-01T16:06:46Z</time>
      </trkpt>
      <trkpt lat="57.472670981660485" lon="-4.218929037451744">
        <ele>38.109999999999999</ele>
        <time>2019-09-01T16:06:47Z</time>
      </trkpt>
      <trkpt lat="57.472700988873839" lon="-4.219036996364594">
        <ele>38.109999999999999</ele>
        <time>2019-09-01T16:06:48Z</time>
      </trkpt>
      <trkpt lat="57.472734013572335" lon="-4.219154007732868">
        <ele>38.109999999999999</ele>
        <time>2019-09-01T16:06:49Z</time>
      </trkpt>
      <trkpt lat="57.473130980506539" lon="-4.220658978447318">
        <ele>37.149999999999999</ele>
        <time>2019-09-01T16:06:58Z</time>
      </trkpt>
      <trkpt lat="57.473385035991669" lon="-4.222609028220177">
        <ele>37.630000000000003</ele>
        <time>2019-09-01T16:07:08Z</time>
      </trkpt>
      <trkpt lat="57.473400039598346" lon="-4.222940029576421">
        <ele>37.630000000000003</ele>
        <time>2019-09-01T16:07:10Z</time>
      </trkpt>
      <trkpt lat="57.473405990749598" lon="-4.223077995702624">
        <ele>37.630000000000003</ele>
        <time>2019-09-01T16:07:11Z</time>
      </trkpt>
      <trkpt lat="57.473403979092836" lon="-4.223215961828828">
        <ele>37.630000000000003</ele>
        <time>2019-09-01T16:07:12Z</time>
      </trkpt>
      <trkpt lat="57.473392998799682" lon="-4.223329033702612">
        <ele>37.630000000000003</ele>
        <time>2019-09-01T16:07:13Z</time>
      </trkpt>
      <trkpt lat="57.473383024334908" lon="-4.223435986787081">
        <ele>37.630000000000003</ele>
        <time>2019-09-01T16:07:14Z</time>
      </trkpt>
      <trkpt lat="57.473343964666128" lon="-4.223854998126626">
        <ele>37.149999999999999</ele>
        <time>2019-09-01T16:07:17Z</time>
      </trkpt>
      <trkpt lat="57.473331978544593" lon="-4.22399397008121">
        <ele>37.149999999999999</ele>
        <time>2019-09-01T16:07:18Z</time>
      </trkpt>
      <trkpt lat="57.473322004079819" lon="-4.224103018641472">
        <ele>36.670000000000002</ele>
        <time>2019-09-01T16:07:19Z</time>
      </trkpt>
      <trkpt lat="57.473314041271806" lon="-4.22418499365449">
        <ele>36.670000000000002</ele>
        <time>2019-09-01T16:07:20Z</time>
      </trkpt>
      <trkpt lat="57.473308006301522" lon="-4.224252970889211">
        <ele>36.189999999999998</ele>
        <time>2019-09-01T16:07:21Z</time>
      </trkpt>
      <trkpt lat="57.47334698215127" lon="-4.224330000579357">
        <ele>36.189999999999998</ele>
        <time>2019-09-01T16:07:22Z</time>
      </trkpt>
      <trkpt lat="57.473394004628062" lon="-4.224352966994047">
        <ele>36.189999999999998</ele>
        <time>2019-09-01T16:07:23Z</time>
      </trkpt>
      <trkpt lat="57.47345301322639" lon="-4.224382974207401">
        <ele>35.710000000000001</ele>
        <time>2019-09-01T16:07:24Z</time>
      </trkpt>
      <trkpt lat="57.473525013774633" lon="-4.224419016391039">
        <ele>35.710000000000001</ele>
        <time>2019-09-01T16:07:25Z</time>
      </trkpt>
      <trkpt lat="57.474219035357237" lon="-4.224747000262141">
        <ele>33.780000000000001</ele>
        <time>2019-09-01T16:07:33Z</time>
      </trkpt>
      <trkpt lat="57.474378040060401" lon="-4.224780024960637">
        <ele>32.340000000000003</ele>
        <time>2019-09-01T16:07:36Z</time>
      </trkpt>
      <trkpt lat="57.47442003339529" lon="-4.224793016910553">
        <ele>31.859999999999999</ele>
        <time>2019-09-01T16:07:37Z</time>
      </trkpt>
      <trkpt lat="57.47446496039629" lon="-4.22480802051723">
        <ele>31.859999999999999</ele>
        <time>2019-09-01T16:07:38Z</time>
      </trkpt>
      <trkpt lat="57.474507037550211" lon="-4.224821012467146">
        <ele>31.379999999999999</ele>
        <time>2019-09-01T16:07:39Z</time>
      </trkpt>
      <trkpt lat="57.4745490308851" lon="-4.224834004417062">
        <ele>30.899999999999999</ele>
        <time>2019-09-01T16:07:40Z</time>
      </trkpt>
      <trkpt lat="57.47459203004837" lon="-4.224848002195358">
        <ele>30.420000000000002</ele>
        <time>2019-09-01T16:07:41Z</time>
      </trkpt>
      <trkpt lat="57.474733013659716" lon="-4.224892007187009">
        <ele>28.98</ele>
        <time>2019-09-01T16:07:44Z</time>
      </trkpt>
      <trkpt lat="57.474779030308127" lon="-4.224906004965305">
        <ele>28.98</ele>
        <time>2019-09-01T16:07:45Z</time>
      </trkpt>
      <trkpt lat="57.474830998107791" lon="-4.224923020228744">
        <ele>28.5</ele>
        <time>2019-09-01T16:07:46Z</time>
      </trkpt>
      <trkpt lat="57.474941974505782" lon="-4.224957972764969">
        <ele>27.530000000000001</ele>
        <time>2019-09-01T16:07:48Z</time>
      </trkpt>
      <trkpt lat="57.47500098310411" lon="-4.224975993856788">
        <ele>27.050000000000001</ele>
        <time>2019-09-01T16:07:49Z</time>
      </trkpt>
      <trkpt lat="57.475057980045676" lon="-4.224994014948607">
        <ele>26.57</ele>
        <time>2019-09-01T16:07:50Z</time>
      </trkpt>
      <trkpt lat="57.475351011380553" lon="-4.224996026605368">
        <ele>23.690000000000001</ele>
        <time>2019-09-01T16:07:56Z</time>
      </trkpt>
      <trkpt lat="57.475397028028965" lon="-4.224978005513549">
        <ele>23.210000000000001</ele>
        <time>2019-09-01T16:07:57Z</time>
      </trkpt>
      <trkpt lat="57.475446984171867" lon="-4.22495897859335">
        <ele>22.73</ele>
        <time>2019-09-01T16:07:58Z</time>
      </trkpt>
      <trkpt lat="57.475768011063337" lon="-4.224814977496862">
        <ele>19.84</ele>
        <time>2019-09-01T16:08:05Z</time>
      </trkpt>
      <trkpt lat="57.475922992452979" lon="-4.224739037454128">
        <ele>16</ele>
        <time>2019-09-01T16:08:18Z</time>
      </trkpt>
      <trkpt lat="57.475971020758152" lon="-4.224714981392026">
        <ele>15.039999999999999</ele>
        <time>2019-09-01T16:08:30Z</time>
      </trkpt>
      <trkpt lat="57.475971020758152" lon="-4.224714981392026">
        <ele>15.039999999999999</ele>
        <time>2019-09-01T16:08:49Z</time>
      </trkpt>
      <trkpt lat="57.476015025749803" lon="-4.224694026634097">
        <ele>14.56</ele>
        <time>2019-09-01T16:09:11Z</time>
      </trkpt>
      <trkpt lat="57.476015025749803" lon="-4.224694026634097">
        <ele>14.56</ele>
        <time>2019-09-01T16:09:25Z</time>
      </trkpt>
      <trkpt lat="57.476179981604218" lon="-4.224737025797367">
        <ele>25.129999999999999</ele>
        <time>2019-09-01T16:31:45Z</time>
      </trkpt>
      <trkpt lat="57.476184004917741" lon="-4.22472202219069">
        <ele>25.129999999999999</ele>
        <time>2019-09-01T16:32:18Z</time>
      </trkpt>
      <trkpt lat="57.476156009361148" lon="-4.22470198944211">
        <ele>22.25</ele>
        <time>2019-09-01T16:32:58Z</time>
      </trkpt>
      <trkpt lat="57.476144023239613" lon="-4.224688997492194">
        <ele>20.32</ele>
        <time>2019-09-01T16:33:47Z</time>
      </trkpt>
      <trkpt lat="57.476147962734103" lon="-4.224688997492194">
        <ele>20.809999999999999</ele>
        <time>2019-09-01T16:34:29Z</time>
      </trkpt>
      <trkpt lat="57.476147040724754" lon="-4.224692014977336">
        <ele>20.32</ele>
        <time>2019-09-01T16:35:00Z</time>
      </trkpt>
      <trkpt lat="57.476147040724754" lon="-4.224692014977336">
        <ele>20.32</ele>
        <time>2019-09-01T16:35:22Z</time>
      </trkpt>
      <trkpt lat="57.476147962734103" lon="-4.224693020805717">
        <ele>20.32</ele>
        <time>2019-09-01T16:35:48Z</time>
      </trkpt>
      <trkpt lat="57.476148968562484" lon="-4.224687991663814">
        <ele>20.32</ele>
        <time>2019-09-01T16:36:26Z</time>
      </trkpt>
      <trkpt lat="57.476148968562484" lon="-4.224687991663814">
        <ele>20.32</ele>
        <time>2019-09-01T16:36:27Z</time>
      </trkpt>
      <trkpt lat="57.476233039051294" lon="-4.224639041349292">
        <ele>20.32</ele>
        <time>2019-09-01T16:36:38Z</time>
      </trkpt>
      <trkpt lat="57.47641702182591" lon="-4.224496968090534">
        <ele>18.879999999999999</ele>
        <time>2019-09-01T16:36:54Z</time>
      </trkpt>
      <trkpt lat="57.476931000128388" lon="-4.224434019997716">
        <ele>16.960000000000001</ele>
        <time>2019-09-01T16:37:09Z</time>
      </trkpt>
      <trkpt lat="57.477045999839902" lon="-4.224461009725928">
        <ele>16.48</ele>
        <time>2019-09-01T16:37:13Z</time>
      </trkpt>
      <trkpt lat="57.477122023701668" lon="-4.224479030817747">
        <ele>16.48</ele>
        <time>2019-09-01T16:37:14Z</time>
      </trkpt>
      <trkpt lat="57.477122023701668" lon="-4.224479030817747">
        <ele>16.960000000000001</ele>
        <time>2019-09-01T16:37:17Z</time>
      </trkpt>
      <trkpt lat="57.477122023701668" lon="-4.224479030817747">
        <ele>16.960000000000001</ele>
        <time>2019-09-01T16:37:18Z</time>
      </trkpt>
      <trkpt lat="57.477465011179447" lon="-4.224714981392026">
        <ele>15.52</ele>
        <time>2019-09-01T16:37:28Z</time>
      </trkpt>
      <trkpt lat="57.477569030597806" lon="-4.224927965551615">
        <ele>14.08</ele>
        <time>2019-09-01T16:37:34Z</time>
      </trkpt>
      <trkpt lat="57.47755796648562" lon="-4.225000971928239">
        <ele>14.08</ele>
        <time>2019-09-01T16:37:35Z</time>
      </trkpt>
      <trkpt lat="57.477539023384452" lon="-4.225069032981992">
        <ele>14.08</ele>
        <time>2019-09-01T16:37:36Z</time>
      </trkpt>
      <trkpt lat="57.477522008121014" lon="-4.225129969418049">
        <ele>13.6</ele>
        <time>2019-09-01T16:37:37Z</time>
      </trkpt>
      <trkpt lat="57.477504992857575" lon="-4.225186966359615">
        <ele>13.6</ele>
        <time>2019-09-01T16:37:38Z</time>
      </trkpt>
      <trkpt lat="57.477487977594137" lon="-4.225246980786324">
        <ele>13.6</ele>
        <time>2019-09-01T16:37:39Z</time>
      </trkpt>
      <trkpt lat="57.477370966225863" lon="-4.225695999339223">
        <ele>11.19</ele>
        <time>2019-09-01T16:37:52Z</time>
      </trkpt>
      <trkpt lat="57.47727801091969" lon="-4.226077040657401">
        <ele>10.23</ele>
        <time>2019-09-01T16:38:11Z</time>
      </trkpt>
      <trkpt lat="57.477137027308345" lon="-4.226647010073066">
        <ele>7.83</ele>
        <time>2019-09-01T16:38:16Z</time>
      </trkpt>
      <trkpt lat="57.476985985413194" lon="-4.227434992790222">
        <ele>5.91</ele>
        <time>2019-09-01T16:38:23Z</time>
      </trkpt>
      <trkpt lat="57.476964024826884" lon="-4.22755803912878">
        <ele>5.91</ele>
        <time>2019-09-01T16:38:24Z</time>
      </trkpt>
      <trkpt lat="57.476938040927052" lon="-4.227702962234616">
        <ele>5.91</ele>
        <time>2019-09-01T16:38:25Z</time>
      </trkpt>
      <trkpt lat="57.476908033713698" lon="-4.227870013564825">
        <ele>5.42</ele>
        <time>2019-09-01T16:38:26Z</time>
      </trkpt>
      <trkpt lat="57.476878026500344" lon="-4.228041004389525">
        <ele>5.42</ele>
        <time>2019-09-01T16:38:27Z</time>
      </trkpt>
      <trkpt lat="57.476842990145087" lon="-4.228234039619565">
        <ele>4.94</ele>
        <time>2019-09-01T16:38:28Z</time>
      </trkpt>
      <trkpt lat="57.47682798653841" lon="-4.228343004360795">
        <ele>4.94</ele>
        <time>2019-09-01T16:38:29Z</time>
      </trkpt>
      <trkpt lat="57.47680401429534" lon="-4.228464039042592">
        <ele>4.94</ele>
        <time>2019-09-01T16:38:30Z</time>
      </trkpt>
      <trkpt lat="57.476780964061618" lon="-4.228566968813539">
        <ele>4.94</ele>
        <time>2019-09-01T16:38:31Z</time>
      </trkpt>
      <trkpt lat="57.47674198821187" lon="-4.228748017922044">
        <ele>4.94</ele>
        <time>2019-09-01T16:38:33Z</time>
      </trkpt>
      <trkpt lat="57.476726984605193" lon="-4.228813983500004">
        <ele>5.42</ele>
        <time>2019-09-01T16:38:34Z</time>
      </trkpt>
      <trkpt lat="57.476681973785162" lon="-4.229017999023199">
        <ele>5.42</ele>
        <time>2019-09-01T16:38:38Z</time>
      </trkpt>
      <trkpt lat="57.476667976006866" lon="-4.229082958772779">
        <ele>5.42</ele>
        <time>2019-09-01T16:38:39Z</time>
      </trkpt>
      <trkpt lat="57.476650038734078" lon="-4.229163005948067">
        <ele>5.42</ele>
        <time>2019-09-01T16:38:40Z</time>
      </trkpt>
      <trkpt lat="57.476631011813879" lon="-4.229249004274607">
        <ele>4.94</ele>
        <time>2019-09-01T16:38:41Z</time>
      </trkpt>
      <trkpt lat="57.47661198489368" lon="-4.229337014257908">
        <ele>4.94</ele>
        <time>2019-09-01T16:38:42Z</time>
      </trkpt>
      <trkpt lat="57.476581977680326" lon="-4.229465005919337">
        <ele>4.94</ele>
        <time>2019-09-01T16:38:43Z</time>
      </trkpt>
      <trkpt lat="57.476549036800861" lon="-4.229549998417497">
        <ele>4.46</ele>
        <time>2019-09-01T16:38:44Z</time>
      </trkpt>
      <trkpt lat="57.476519029587507" lon="-4.229624010622501">
        <ele>4.46</ele>
        <time>2019-09-01T16:38:45Z</time>
      </trkpt>
      <trkpt lat="57.476493967697024" lon="-4.229686036705971">
        <ele>4.46</ele>
        <time>2019-09-01T16:38:46Z</time>
      </trkpt>
      <trkpt lat="57.476410986855626" lon="-4.229894997552037">
        <ele>3.5</ele>
        <time>2019-09-01T16:38:54Z</time>
      </trkpt>
      <trkpt lat="57.476391037926078" lon="-4.229944031685591">
        <ele>3.5</ele>
        <time>2019-09-01T16:39:02Z</time>
      </trkpt>
      <trkpt lat="57.47620495967567" lon="-4.230347033590078">
        <ele>4.94</ele>
        <time>2019-09-01T16:39:11Z</time>
      </trkpt>
      <trkpt lat="57.47620495967567" lon="-4.230347033590078">
        <ele>5.42</ele>
        <time>2019-09-01T16:39:25Z</time>
      </trkpt>
      <trkpt lat="57.47620495967567" lon="-4.230347033590078">
        <ele>4.94</ele>
        <time>2019-09-01T16:40:12Z</time>
      </trkpt>
      <trkpt lat="57.476118039339781" lon="-4.230521963909268">
        <ele>8.310000000000001</ele>
        <time>2019-09-01T16:40:48Z</time>
      </trkpt>
      <trkpt lat="57.476085014641285" lon="-4.230586001649499">
        <ele>8.310000000000001</ele>
        <time>2019-09-01T16:40:49Z</time>
      </trkpt>
      <trkpt lat="57.476060958579183" lon="-4.230635035783052">
        <ele>7.83</ele>
        <time>2019-09-01T16:40:50Z</time>
      </trkpt>
      <trkpt lat="57.476105969399214" lon="-4.230755986645818">
        <ele>7.83</ele>
        <time>2019-09-01T16:40:51Z</time>
      </trkpt>
      <trkpt lat="57.476143017411232" lon="-4.230819018557668">
        <ele>7.35</ele>
        <time>2019-09-01T16:40:52Z</time>
      </trkpt>
      <trkpt lat="57.476187022402883" lon="-4.230893030762672">
        <ele>6.87</ele>
        <time>2019-09-01T16:40:53Z</time>
      </trkpt>
      <trkpt lat="57.476235972717404" lon="-4.230977017432451">
        <ele>6.39</ele>
        <time>2019-09-01T16:40:54Z</time>
      </trkpt>
      <trkpt lat="57.476287018507719" lon="-4.23106100410223">
        <ele>5.91</ele>
        <time>2019-09-01T16:40:55Z</time>
      </trkpt>
      <trkpt lat="57.476342003792524" lon="-4.231148008257151">
        <ele>5.42</ele>
        <time>2019-09-01T16:40:56Z</time>
      </trkpt>
      <trkpt lat="57.476400006562471" lon="-4.231240963563323">
        <ele>4.94</ele>
        <time>2019-09-01T16:40:57Z</time>
      </trkpt>
      <trkpt lat="57.476462032645941" lon="-4.231340037658811">
        <ele>4.46</ele>
        <time>2019-09-01T16:40:58Z</time>
      </trkpt>
      <trkpt lat="57.477202992886305" lon="-4.232614003121853">
        <ele>1.1</ele>
        <time>2019-09-01T16:41:09Z</time>
      </trkpt>
      <trkpt lat="57.478173030540347" lon="-4.234203966334462">
        <ele>2.06</ele>
        <time>2019-09-01T16:41:23Z</time>
      </trkpt>
      <trkpt lat="57.479080958291888" lon="-4.235718995332718">
        <ele>2.54</ele>
        <time>2019-09-01T16:41:36Z</time>
      </trkpt>
      <trkpt lat="57.479773974046111" lon="-4.236864969134331">
        <ele>4.94</ele>
        <time>2019-09-01T16:41:47Z</time>
      </trkpt>
      <trkpt lat="57.480002967640758" lon="-4.237203011289239">
        <ele>7.35</ele>
        <time>2019-09-01T16:41:56Z</time>
      </trkpt>
      <trkpt lat="57.480061976239085" lon="-4.237289009615779">
        <ele>7.35</ele>
        <time>2019-09-01T16:42:05Z</time>
      </trkpt>
      <trkpt lat="57.480075974017382" lon="-4.237489001825452">
        <ele>7.83</ele>
        <time>2019-09-01T16:42:07Z</time>
      </trkpt>
      <trkpt lat="57.480083014816046" lon="-4.237590003758669">
        <ele>7.83</ele>
        <time>2019-09-01T16:42:08Z</time>
      </trkpt>
      <trkpt lat="57.480172030627728" lon="-4.237645994871855">
        <ele>7.83</ele>
        <time>2019-09-01T16:42:09Z</time>
      </trkpt>
      <trkpt lat="57.480304967612028" lon="-4.237896027043462">
        <ele>7.83</ele>
        <time>2019-09-01T16:42:11Z</time>
      </trkpt>
      <trkpt lat="57.480333968997002" lon="-4.238013038411737">
        <ele>8.310000000000001</ele>
        <time>2019-09-01T16:42:12Z</time>
      </trkpt>
      <trkpt lat="57.480358025059104" lon="-4.238112028688192">
        <ele>8.789999999999999</ele>
        <time>2019-09-01T16:42:13Z</time>
      </trkpt>
      <trkpt lat="57.480378979817033" lon="-4.238192997872829">
        <ele>9.27</ele>
        <time>2019-09-01T16:42:14Z</time>
      </trkpt>
      <trkpt lat="57.480395995080471" lon="-4.238263992592692">
        <ele>9.75</ele>
        <time>2019-09-01T16:42:15Z</time>
      </trkpt>
      <trkpt lat="57.480513006448746" lon="-4.238763973116875">
        <ele>12.630000000000001</ele>
        <time>2019-09-01T16:42:23Z</time>
      </trkpt>
      <trkpt lat="57.480783993378282" lon="-4.239769969135523">
        <ele>14.08</ele>
        <time>2019-09-01T16:42:32Z</time>
      </trkpt>
      <trkpt lat="57.480945009738207" lon="-4.240390984341502">
        <ele>12.630000000000001</ele>
        <time>2019-09-01T16:42:36Z</time>
      </trkpt>
      <trkpt lat="57.481023967266083" lon="-4.240702958777547">
        <ele>11.67</ele>
        <time>2019-09-01T16:42:38Z</time>
      </trkpt>
      <trkpt lat="57.48106000944972" lon="-4.240844026207924">
        <ele>11.19</ele>
        <time>2019-09-01T16:42:39Z</time>
      </trkpt>
      <trkpt lat="57.481396961957216" lon="-4.242285965010524">
        <ele>10.23</ele>
        <time>2019-09-01T16:42:49Z</time>
      </trkpt>
      <trkpt lat="57.481700973585248" lon="-4.243764029815793">
        <ele>10.23</ele>
        <time>2019-09-01T16:42:56Z</time>
      </trkpt>
      <trkpt lat="57.482042033225298" lon="-4.245362039655447">
        <ele>9.27</ele>
        <time>2019-09-01T16:43:03Z</time>
      </trkpt>
      <trkpt lat="57.48211202211678" lon="-4.245683988556266">
        <ele>9.75</ele>
        <time>2019-09-01T16:43:07Z</time>
      </trkpt>
      <trkpt lat="57.482130965217948" lon="-4.245773004367948">
        <ele>9.75</ele>
        <time>2019-09-01T16:43:08Z</time>
      </trkpt>
      <trkpt lat="57.482101041823626" lon="-4.245923040434718">
        <ele>9.75</ele>
        <time>2019-09-01T16:43:09Z</time>
      </trkpt>
      <trkpt lat="57.482118979096413" lon="-4.246063018217683">
        <ele>9.75</ele>
        <time>2019-09-01T16:43:10Z</time>
      </trkpt>
      <trkpt lat="57.482230961322784" lon="-4.246138036251068">
        <ele>9.75</ele>
        <time>2019-09-01T16:43:11Z</time>
      </trkpt>
      <trkpt lat="57.482259040698409" lon="-4.24627298489213">
        <ele>10.23</ele>
        <time>2019-09-01T16:43:12Z</time>
      </trkpt>
      <trkpt lat="57.482287036255002" lon="-4.246410029008985">
        <ele>10.23</ele>
        <time>2019-09-01T16:43:13Z</time>
      </trkpt>
      <trkpt lat="57.482316959649324" lon="-4.246553024277091">
        <ele>10.710000000000001</ele>
        <time>2019-09-01T16:43:14Z</time>
      </trkpt>
      <trkpt lat="57.482764972373843" lon="-4.247648036107421">
        <ele>14.08</ele>
        <time>2019-09-01T16:43:23Z</time>
      </trkpt>
      <trkpt lat="57.48301399871707" lon="-4.248068975284696">
        <ele>16</ele>
        <time>2019-09-01T16:43:31Z</time>
      </trkpt>
      <trkpt lat="57.48301399871707" lon="-4.248068975284696">
        <ele>16</ele>
        <time>2019-09-01T16:43:45Z</time>
      </trkpt>
      <trkpt lat="57.483232012018561" lon="-4.248363012447953">
        <ele>15.52</ele>
        <time>2019-09-01T16:43:54Z</time>
      </trkpt>
      <trkpt lat="57.483538035303354" lon="-4.24880800768733">
        <ele>15.52</ele>
        <time>2019-09-01T16:44:00Z</time>
      </trkpt>
      <trkpt lat="57.483590003103018" lon="-4.24889400601387">
        <ele>15.52</ele>
        <time>2019-09-01T16:44:01Z</time>
      </trkpt>
      <trkpt lat="57.483768034726381" lon="-4.249192988499999">
        <ele>15.52</ele>
        <time>2019-09-01T16:44:04Z</time>
      </trkpt>
      <trkpt lat="57.483890997245908" lon="-4.249401027336717">
        <ele>15.039999999999999</ele>
        <time>2019-09-01T16:44:06Z</time>
      </trkpt>
      <trkpt lat="57.484572026878595" lon="-4.250752022489905">
        <ele>15.52</ele>
        <time>2019-09-01T16:44:16Z</time>
      </trkpt>
      <trkpt lat="57.485165968537331" lon="-4.252198990434408">
        <ele>14.08</ele>
        <time>2019-09-01T16:44:25Z</time>
      </trkpt>
      <trkpt lat="57.485238974913955" lon="-4.252337962388992">
        <ele>13.6</ele>
        <time>2019-09-01T16:44:26Z</time>
      </trkpt>
      <trkpt lat="57.485644994303584" lon="-4.252941962331533">
        <ele>12.630000000000001</ele>
        <time>2019-09-01T16:44:31Z</time>
      </trkpt>
      <trkpt lat="57.485735015943646" lon="-4.253036007285118">
        <ele>12.15</ele>
        <time>2019-09-01T16:44:32Z</time>
      </trkpt>
      <trkpt lat="57.48679700307548" lon="-4.253647970035672">
        <ele>8.789999999999999</ele>
        <time>2019-09-01T16:44:43Z</time>
      </trkpt>
      <trkpt lat="57.487950017675757" lon="-4.254359006881714">
        <ele>7.35</ele>
        <time>2019-09-01T16:44:54Z</time>
      </trkpt>
      <trkpt lat="57.488154033198953" lon="-4.254580037668347">
        <ele>7.35</ele>
        <time>2019-09-01T16:44:56Z</time>
      </trkpt>
      <trkpt lat="57.488246988505125" lon="-4.254695037379861">
        <ele>7.83</ele>
        <time>2019-09-01T16:44:57Z</time>
      </trkpt>
      <trkpt lat="57.488413034006953" lon="-4.254900980740786">
        <ele>7.83</ele>
        <time>2019-09-01T16:44:59Z</time>
      </trkpt>
      <trkpt lat="57.488486040383577" lon="-4.255056967958808">
        <ele>7.35</ele>
        <time>2019-09-01T16:45:00Z</time>
      </trkpt>
      <trkpt lat="57.48853599652648" lon="-4.255215972661972">
        <ele>7.35</ele>
        <time>2019-09-01T16:45:01Z</time>
      </trkpt>
      <trkpt lat="57.488584024831653" lon="-4.255411019548774">
        <ele>7.35</ele>
        <time>2019-09-01T16:45:02Z</time>
      </trkpt>
      <trkpt lat="57.488595005124807" lon="-4.255593996495009">
        <ele>7.35</ele>
        <time>2019-09-01T16:45:03Z</time>
      </trkpt>
      <trkpt lat="57.488598022609949" lon="-4.255788959562779">
        <ele>7.35</ele>
        <time>2019-09-01T16:45:04Z</time>
      </trkpt>
      <trkpt lat="57.488588970154524" lon="-4.255975959822536">
        <ele>6.87</ele>
        <time>2019-09-01T16:45:05Z</time>
      </trkpt>
      <trkpt lat="57.48858000151813" lon="-4.256167989224196">
        <ele>6.87</ele>
        <time>2019-09-01T16:45:06Z</time>
      </trkpt>
      <trkpt lat="57.488414961844683" lon="-4.258648026734591">
        <ele>1.1</ele>
        <time>2019-09-01T16:45:19Z</time>
      </trkpt>
      <trkpt lat="57.488267021253705" lon="-4.259815961122513">
        <ele>-1.79</ele>
        <time>2019-09-01T16:45:25Z</time>
      </trkpt>
      <trkpt lat="57.488241959363222" lon="-4.260156014934182">
        <ele>-2.27</ele>
        <time>2019-09-01T16:45:27Z</time>
      </trkpt>
      <trkpt lat="57.488251011818647" lon="-4.260321976616979">
        <ele>-2.75</ele>
        <time>2019-09-01T16:45:28Z</time>
      </trkpt>
      <trkpt lat="57.48825897462666" lon="-4.260463966056705">
        <ele>-3.23</ele>
        <time>2019-09-01T16:45:29Z</time>
      </trkpt>
      <trkpt lat="57.488293005153537" lon="-4.260592963546515">
        <ele>-3.71</ele>
        <time>2019-09-01T16:45:30Z</time>
      </trkpt>
      <trkpt lat="57.488328963518143" lon="-4.260726990178227">
        <ele>-3.71</ele>
        <time>2019-09-01T16:45:31Z</time>
      </trkpt>
      <trkpt lat="57.48842996545136" lon="-4.261022033169866">
        <ele>-4.19</ele>
        <time>2019-09-01T16:45:33Z</time>
      </trkpt>
      <trkpt lat="57.488438012078404" lon="-4.261137032881379">
        <ele>-4.67</ele>
        <time>2019-09-01T16:45:34Z</time>
      </trkpt>
      <trkpt lat="57.488452009856701" lon="-4.261322021484375">
        <ele>-5.15</ele>
        <time>2019-09-01T16:45:35Z</time>
      </trkpt>
      <trkpt lat="57.48842996545136" lon="-4.261471973732114">
        <ele>-5.63</ele>
        <time>2019-09-01T16:45:36Z</time>
      </trkpt>
      <trkpt lat="57.488400964066386" lon="-4.26165503449738">
        <ele>-6.11</ele>
        <time>2019-09-01T16:45:37Z</time>
      </trkpt>
      <trkpt lat="57.488359976559877" lon="-4.261835999786854">
        <ele>-6.59</ele>
        <time>2019-09-01T16:45:38Z</time>
      </trkpt>
      <trkpt lat="57.487874999642372" lon="-4.263914963230491">
        <ele>-8.029999999999999</ele>
        <time>2019-09-01T16:45:47Z</time>
      </trkpt>
      <trkpt lat="57.48720402829349" lon="-4.265406019985676">
        <ele>-6.59</ele>
        <time>2019-09-01T16:45:54Z</time>
      </trkpt>
      <trkpt lat="57.487024990841746" lon="-4.265830982476473">
        <ele>-7.07</ele>
        <time>2019-09-01T16:45:56Z</time>
      </trkpt>
      <trkpt lat="57.486937986686826" lon="-4.266065005213022">
        <ele>-7.07</ele>
        <time>2019-09-01T16:45:57Z</time>
      </trkpt>
      <trkpt lat="57.486867997795343" lon="-4.266321994364262">
        <ele>-7.07</ele>
        <time>2019-09-01T16:45:58Z</time>
      </trkpt>
      <trkpt lat="57.486186968162656" lon="-4.269158011302352">
        <ele>-5.15</ele>
        <time>2019-09-01T16:46:08Z</time>
      </trkpt>
      <trkpt lat="57.48535699211061" lon="-4.272178011015058">
        <ele>-1.3</ele>
        <time>2019-09-01T16:46:18Z</time>
      </trkpt>
      <trkpt lat="57.483985964208841" lon="-4.276966005563736">
        <ele>3.5</ele>
        <time>2019-09-01T16:46:33Z</time>
      </trkpt>
      <trkpt lat="57.482989020645618" lon="-4.280566032975912">
        <ele>5.91</ele>
        <time>2019-09-01T16:46:44Z</time>
      </trkpt>
      <trkpt lat="57.481973972171545" lon="-4.28393698297441">
        <ele>5.42</ele>
        <time>2019-09-01T16:46:54Z</time>
      </trkpt>
      <trkpt lat="57.481300989165902" lon="-4.287141971290112">
        <ele>10.23</ele>
        <time>2019-09-01T16:47:03Z</time>
      </trkpt>
      <trkpt lat="57.480852976441383" lon="-4.29128497838974">
        <ele>10.23</ele>
        <time>2019-09-01T16:47:14Z</time>
      </trkpt>
      <trkpt lat="57.48063001781702" lon="-4.29390599951148">
        <ele>10.23</ele>
        <time>2019-09-01T16:47:21Z</time>
      </trkpt>
      <trkpt lat="57.480115033686161" lon="-4.296835977584124">
        <ele>11.19</ele>
        <time>2019-09-01T16:47:29Z</time>
      </trkpt>
      <trkpt lat="57.479569958522916" lon="-4.299694960936904">
        <ele>12.15</ele>
        <time>2019-09-01T16:47:37Z</time>
      </trkpt>
      <trkpt lat="57.479409025982022" lon="-4.302056981250644">
        <ele>14.08</ele>
        <time>2019-09-01T16:47:44Z</time>
      </trkpt>
      <trkpt lat="57.479195035994053" lon="-4.30598197504878">
        <ele>17.920000000000002</ele>
        <time>2019-09-01T16:47:56Z</time>
      </trkpt>
      <trkpt lat="57.478577960282564" lon="-4.309648973867297">
        <ele>15.039999999999999</ele>
        <time>2019-09-01T16:48:07Z</time>
      </trkpt>
      <trkpt lat="57.478169007226825" lon="-4.312182990834117">
        <ele>12.630000000000001</ele>
        <time>2019-09-01T16:48:15Z</time>
      </trkpt>
      <trkpt lat="57.478320971131325" lon="-4.314623968675733">
        <ele>10.23</ele>
        <time>2019-09-01T16:48:22Z</time>
      </trkpt>
      <trkpt lat="57.478930000215769" lon="-4.316676026210189">
        <ele>9.27</ele>
        <time>2019-09-01T16:48:29Z</time>
      </trkpt>
      <trkpt lat="57.480108998715878" lon="-4.319072999060154">
        <ele>9.75</ele>
        <time>2019-09-01T16:48:39Z</time>
      </trkpt>
      <trkpt lat="57.481943964958191" lon="-4.322817027568817">
        <ele>10.710000000000001</ele>
        <time>2019-09-01T16:48:55Z</time>
      </trkpt>
      <trkpt lat="57.483524959534407" lon="-4.326057974249125">
        <ele>8.310000000000001</ele>
        <time>2019-09-01T16:49:07Z</time>
      </trkpt>
      <trkpt lat="57.484267009422183" lon="-4.327832004055381">
        <ele>7.83</ele>
        <time>2019-09-01T16:49:13Z</time>
      </trkpt>
      <trkpt lat="57.484342027455568" lon="-4.328172979876399">
        <ele>7.83</ele>
        <time>2019-09-01T16:49:14Z</time>
      </trkpt>
      <trkpt lat="57.484410004690289" lon="-4.328510016202927">
        <ele>7.35</ele>
        <time>2019-09-01T16:49:15Z</time>
      </trkpt>
      <trkpt lat="57.484463984146714" lon="-4.328841017559171">
        <ele>7.35</ele>
        <time>2019-09-01T16:49:16Z</time>
      </trkpt>
      <trkpt lat="57.484477981925011" lon="-4.329185010865331">
        <ele>7.35</ele>
        <time>2019-09-01T16:49:17Z</time>
      </trkpt>
      <trkpt lat="57.484492985531688" lon="-4.329538978636265">
        <ele>7.35</ele>
        <time>2019-09-01T16:49:18Z</time>
      </trkpt>
      <trkpt lat="57.484501032158732" lon="-4.329896969720721">
        <ele>6.87</ele>
        <time>2019-09-01T16:49:19Z</time>
      </trkpt>
      <trkpt lat="57.484489968046546" lon="-4.330264013260603">
        <ele>6.87</ele>
        <time>2019-09-01T16:49:20Z</time>
      </trkpt>
      <trkpt lat="57.484469013288617" lon="-4.330642037093639">
        <ele>6.87</ele>
        <time>2019-09-01T16:49:21Z</time>
      </trkpt>
      <trkpt lat="57.484406987205148" lon="-4.331002961844206">
        <ele>6.87</ele>
        <time>2019-09-01T16:49:22Z</time>
      </trkpt>
      <trkpt lat="57.484344039112329" lon="-4.331373022869229">
        <ele>6.87</ele>
        <time>2019-09-01T16:49:23Z</time>
      </trkpt>
      <trkpt lat="57.484258962795138" lon="-4.331741994246841">
        <ele>6.87</ele>
        <time>2019-09-01T16:49:24Z</time>
      </trkpt>
      <trkpt lat="57.48361598700285" lon="-4.334410959854722">
        <ele>4.46</ele>
        <time>2019-09-01T16:49:31Z</time>
      </trkpt>
      <trkpt lat="57.483547003939748" lon="-4.334773980081081">
        <ele>3.98</ele>
        <time>2019-09-01T16:49:32Z</time>
      </trkpt>
      <trkpt lat="57.483481038361788" lon="-4.335120990872383">
        <ele>3.5</ele>
        <time>2019-09-01T16:49:33Z</time>
      </trkpt>
      <trkpt lat="57.483413983136415" lon="-4.335471019148827">
        <ele>3.5</ele>
        <time>2019-09-01T16:49:34Z</time>
      </trkpt>
      <trkpt lat="57.4833819642663" lon="-4.335817024111748">
        <ele>3.02</ele>
        <time>2019-09-01T16:49:35Z</time>
      </trkpt>
      <trkpt lat="57.483371989801526" lon="-4.336190018802881">
        <ele>3.02</ele>
        <time>2019-09-01T16:49:36Z</time>
      </trkpt>
      <trkpt lat="57.483374001458287" lon="-4.336550021544099">
        <ele>2.54</ele>
        <time>2019-09-01T16:49:37Z</time>
      </trkpt>
      <trkpt lat="57.483377018943429" lon="-4.338771980255842">
        <ele>2.06</ele>
        <time>2019-09-01T16:49:43Z</time>
      </trkpt>
      <trkpt lat="57.482964964583516" lon="-4.341588970273733">
        <ele>1.58</ele>
        <time>2019-09-01T16:49:51Z</time>
      </trkpt>
      <trkpt lat="57.482776958495378" lon="-4.342540986835957">
        <ele>2.06</ele>
        <time>2019-09-01T16:49:54Z</time>
      </trkpt>
      <trkpt lat="57.482682997360826" lon="-4.342855978757143">
        <ele>2.06</ele>
        <time>2019-09-01T16:49:55Z</time>
      </trkpt>
      <trkpt lat="57.481839023530483" lon="-4.345226967707276">
        <ele>4.46</ele>
        <time>2019-09-01T16:50:03Z</time>
      </trkpt>
      <trkpt lat="57.481730980798602" lon="-4.345509018748999">
        <ele>4.94</ele>
        <time>2019-09-01T16:50:04Z</time>
      </trkpt>
      <trkpt lat="57.481626039370894" lon="-4.345790985971689">
        <ele>5.42</ele>
        <time>2019-09-01T16:50:05Z</time>
      </trkpt>
      <trkpt lat="57.481485977768898" lon="-4.346470003947616">
        <ele>6.39</ele>
        <time>2019-09-01T16:50:07Z</time>
      </trkpt>
      <trkpt lat="57.480926988646388" lon="-4.34953099116683">
        <ele>5.91</ele>
        <time>2019-09-01T16:50:16Z</time>
      </trkpt>
      <trkpt lat="57.480897987261415" lon="-4.349861992523074">
        <ele>5.42</ele>
        <time>2019-09-01T16:50:17Z</time>
      </trkpt>
      <trkpt lat="57.480883989483118" lon="-4.350204980000854">
        <ele>5.91</ele>
        <time>2019-09-01T16:50:18Z</time>
      </trkpt>
      <trkpt lat="57.480890024453402" lon="-4.350574035197496">
        <ele>5.91</ele>
        <time>2019-09-01T16:50:19Z</time>
      </trkpt>
      <trkpt lat="57.480911985039711" lon="-4.350943006575108">
        <ele>5.42</ele>
        <time>2019-09-01T16:50:20Z</time>
      </trkpt>
      <trkpt lat="57.480997983366251" lon="-4.352330965921283">
        <ele>5.42</ele>
        <time>2019-09-01T16:50:24Z</time>
      </trkpt>
      <trkpt lat="57.480992032214999" lon="-4.352664984762669">
        <ele>4.94</ele>
        <time>2019-09-01T16:50:25Z</time>
      </trkpt>
      <trkpt lat="57.480791034176946" lon="-4.355842983350158">
        <ele>3.98</ele>
        <time>2019-09-01T16:50:34Z</time>
      </trkpt>
      <trkpt lat="57.480532033368945" lon="-4.358297036960721">
        <ele>3.98</ele>
        <time>2019-09-01T16:50:41Z</time>
      </trkpt>
      <trkpt lat="57.480381997302175" lon="-4.358972031623125">
        <ele>4.46</ele>
        <time>2019-09-01T16:50:43Z</time>
      </trkpt>
      <trkpt lat="57.479880005121231" lon="-4.361005984246731">
        <ele>4.46</ele>
        <time>2019-09-01T16:50:50Z</time>
      </trkpt>
      <trkpt lat="57.479370972141623" lon="-4.363024011254311">
        <ele>5.91</ele>
        <time>2019-09-01T16:50:57Z</time>
      </trkpt>
      <trkpt lat="57.478720033541322" lon="-4.366384986788034">
        <ele>4.94</ele>
        <time>2019-09-01T16:51:07Z</time>
      </trkpt>
      <trkpt lat="57.477992987260222" lon="-4.369027968496084">
        <ele>5.42</ele>
        <time>2019-09-01T16:51:15Z</time>
      </trkpt>
      <trkpt lat="57.476922031491995" lon="-4.371404992416501">
        <ele>7.35</ele>
        <time>2019-09-01T16:51:23Z</time>
      </trkpt>
      <trkpt lat="57.475555026903749" lon="-4.373740023002029">
        <ele>9.27</ele>
        <time>2019-09-01T16:51:32Z</time>
      </trkpt>
      <trkpt lat="57.474996959790587" lon="-4.37483998015523">
        <ele>9.75</ele>
        <time>2019-09-01T16:51:36Z</time>
      </trkpt>
      <trkpt lat="57.474068999290466" lon="-4.377372991293669">
        <ele>10.23</ele>
        <time>2019-09-01T16:51:45Z</time>
      </trkpt>
      <trkpt lat="57.473338013514876" lon="-4.379218015819788">
        <ele>9.27</ele>
        <time>2019-09-01T16:51:53Z</time>
      </trkpt>
      <trkpt lat="57.473073983564973" lon="-4.379829978570342">
        <ele>8.310000000000001</ele>
        <time>2019-09-01T16:51:56Z</time>
      </trkpt>
      <trkpt lat="57.473010029643774" lon="-4.380068024620414">
        <ele>7.83</ele>
        <time>2019-09-01T16:51:57Z</time>
      </trkpt>
      <trkpt lat="57.472954038530588" lon="-4.38033901154995">
        <ele>7.35</ele>
        <time>2019-09-01T16:51:58Z</time>
      </trkpt>
      <trkpt lat="57.472909027710557" lon="-4.380645034834743">
        <ele>6.87</ele>
        <time>2019-09-01T16:51:59Z</time>
      </trkpt>
      <trkpt lat="57.472888994961977" lon="-4.380953991785646">
        <ele>6.87</ele>
        <time>2019-09-01T16:52:00Z</time>
      </trkpt>
      <trkpt lat="57.472766032442451" lon="-4.382772026583552">
        <ele>7.35</ele>
        <time>2019-09-01T16:52:07Z</time>
      </trkpt>
      <trkpt lat="57.472589006647468" lon="-4.385395981371403">
        <ele>8.310000000000001</ele>
        <time>2019-09-01T16:52:18Z</time>
      </trkpt>
      <trkpt lat="57.4721659719944" lon="-4.387780968099833">
        <ele>9.27</ele>
        <time>2019-09-01T16:52:28Z</time>
      </trkpt>
      <trkpt lat="57.471664985641837" lon="-4.390236027538776">
        <ele>9.75</ele>
        <time>2019-09-01T16:52:39Z</time>
      </trkpt>
      <trkpt lat="57.471243962645531" lon="-4.391639996320009">
        <ele>8.310000000000001</ele>
        <time>2019-09-01T16:52:47Z</time>
      </trkpt>
      <trkpt lat="57.470484981313348" lon="-4.393159970641136">
        <ele>7.83</ele>
        <time>2019-09-01T16:52:55Z</time>
      </trkpt>
      <trkpt lat="57.469363985583186" lon="-4.395191995427012">
        <ele>11.67</ele>
        <time>2019-09-01T16:53:04Z</time>
      </trkpt>
      <trkpt lat="57.468278026208282" lon="-4.398225992918015">
        <ele>13.119999999999999</ele>
        <time>2019-09-01T16:53:14Z</time>
      </trkpt>
      <trkpt lat="57.467118976637721" lon="-4.401870025321841">
        <ele>13.119999999999999</ele>
        <time>2019-09-01T16:53:25Z</time>
      </trkpt>
      <trkpt lat="57.46606201864779" lon="-4.406661037355661">
        <ele>15.039999999999999</ele>
        <time>2019-09-01T16:53:38Z</time>
      </trkpt>
      <trkpt lat="57.465879041701555" lon="-4.409781033173204">
        <ele>16.48</ele>
        <time>2019-09-01T16:53:46Z</time>
      </trkpt>
      <trkpt lat="57.466209959238768" lon="-4.412875967100263">
        <ele>17.920000000000002</ele>
        <time>2019-09-01T16:53:54Z</time>
      </trkpt>
      <trkpt lat="57.466989979147911" lon="-4.416469959542155">
        <ele>16.960000000000001</ele>
        <time>2019-09-01T16:54:04Z</time>
      </trkpt>
      <trkpt lat="57.468036962673068" lon="-4.421406984329224">
        <ele>14.08</ele>
        <time>2019-09-01T16:54:17Z</time>
      </trkpt>
      <trkpt lat="57.468745987862349" lon="-4.42490198649466">
        <ele>18.879999999999999</ele>
        <time>2019-09-01T16:54:27Z</time>
      </trkpt>
      <trkpt lat="57.469031978398561" lon="-4.427378000691533">
        <ele>21.289999999999999</ele>
        <time>2019-09-01T16:54:34Z</time>
      </trkpt>
      <trkpt lat="57.469031978398561" lon="-4.427712019532919">
        <ele>21.77</ele>
        <time>2019-09-01T16:54:35Z</time>
      </trkpt>
      <trkpt lat="57.469014963135123" lon="-4.428044026717544">
        <ele>21.77</ele>
        <time>2019-09-01T16:54:36Z</time>
      </trkpt>
      <trkpt lat="57.468987973406911" lon="-4.428373016417027">
        <ele>22.25</ele>
        <time>2019-09-01T16:54:37Z</time>
      </trkpt>
      <trkpt lat="57.468953020870686" lon="-4.428696976974607">
        <ele>22.25</ele>
        <time>2019-09-01T16:54:38Z</time>
      </trkpt>
      <trkpt lat="57.468336028978229" lon="-4.431406008079648">
        <ele>23.690000000000001</ele>
        <time>2019-09-01T16:54:46Z</time>
      </trkpt>
      <trkpt lat="57.467185026034713" lon="-4.435938019305468">
        <ele>25.129999999999999</ele>
        <time>2019-09-01T16:54:59Z</time>
      </trkpt>
      <trkpt lat="57.466221023350954" lon="-4.43938197568059">
        <ele>28.98</ele>
        <time>2019-09-01T16:55:09Z</time>
      </trkpt>
      <trkpt lat="57.465047976002097" lon="-4.443072024732828">
        <ele>33.299999999999997</ele>
        <time>2019-09-01T16:55:20Z</time>
      </trkpt>
      <trkpt lat="57.46367703191936" lon="-4.446780011057854">
        <ele>35.710000000000001</ele>
        <time>2019-09-01T16:55:31Z</time>
      </trkpt>
      <trkpt lat="57.462326036766171" lon="-4.450849005952478">
        <ele>38.109999999999999</ele>
        <time>2019-09-01T16:55:43Z</time>
      </trkpt>
      <trkpt lat="57.461601002141833" lon="-4.453477989882231">
        <ele>38.109999999999999</ele>
        <time>2019-09-01T16:55:52Z</time>
      </trkpt>
      <trkpt lat="57.461579041555524" lon="-4.453758029267192">
        <ele>38.109999999999999</ele>
        <time>2019-09-01T16:55:53Z</time>
      </trkpt>
      <trkpt lat="57.461556997150183" lon="-4.45403496734798">
        <ele>38.109999999999999</ele>
        <time>2019-09-01T16:55:54Z</time>
      </trkpt>
      <trkpt lat="57.461556997150183" lon="-4.454296985641122">
        <ele>37.630000000000003</ele>
        <time>2019-09-01T16:55:55Z</time>
      </trkpt>
      <trkpt lat="57.46159303933382" lon="-4.4545519631356">
        <ele>37.630000000000003</ele>
        <time>2019-09-01T16:55:56Z</time>
      </trkpt>
      <trkpt lat="57.461630003526807" lon="-4.454806018620729">
        <ele>37.630000000000003</ele>
        <time>2019-09-01T16:55:57Z</time>
      </trkpt>
      <trkpt lat="57.461708961054683" lon="-4.455026965588331">
        <ele>37.149999999999999</ele>
        <time>2019-09-01T16:55:58Z</time>
      </trkpt>
      <trkpt lat="57.461793031543493" lon="-4.4552599824965">
        <ele>37.149999999999999</ele>
        <time>2019-09-01T16:55:59Z</time>
      </trkpt>
      <trkpt lat="57.46189596131444" lon="-4.455461986362934">
        <ele>37.149999999999999</ele>
        <time>2019-09-01T16:56:00Z</time>
      </trkpt>
      <trkpt lat="57.462013978511095" lon="-4.455654015764594">
        <ele>36.670000000000002</ele>
        <time>2019-09-01T16:56:01Z</time>
      </trkpt>
      <trkpt lat="57.463082000613213" lon="-4.457185976207256">
        <ele>35.710000000000001</ele>
        <time>2019-09-01T16:56:09Z</time>
      </trkpt>
      <trkpt lat="57.463235976174474" lon="-4.457330983132124">
        <ele>35.229999999999997</ele>
        <time>2019-09-01T16:56:10Z</time>
      </trkpt>
      <trkpt lat="57.463407972827554" lon="-4.457458974793553">
        <ele>35.229999999999997</ele>
        <time>2019-09-01T16:56:11Z</time>
      </trkpt>
      <trkpt lat="57.463587010279298" lon="-4.457594007253647">
        <ele>35.229999999999997</ele>
        <time>2019-09-01T16:56:12Z</time>
      </trkpt>
      <trkpt lat="57.463779039680958" lon="-4.457704983651638">
        <ele>34.740000000000002</ele>
        <time>2019-09-01T16:56:13Z</time>
      </trkpt>
      <trkpt lat="57.465784996747971" lon="-4.458605032414198">
        <ele>30.420000000000002</ele>
        <time>2019-09-01T16:56:22Z</time>
      </trkpt>
      <trkpt lat="57.467446960508823" lon="-4.45933903567493">
        <ele>23.210000000000001</ele>
        <time>2019-09-01T16:56:30Z</time>
      </trkpt>
      <trkpt lat="57.467982983216643" lon="-4.459696020931006">
        <ele>20.32</ele>
        <time>2019-09-01T16:56:33Z</time>
      </trkpt>
      <trkpt lat="57.46812698431313" lon="-4.45990095846355">
        <ele>19.359999999999999</ele>
        <time>2019-09-01T16:56:34Z</time>
      </trkpt>
      <trkpt lat="57.468269979581237" lon="-4.460102962329984">
        <ele>18.399999999999999</ele>
        <time>2019-09-01T16:56:35Z</time>
      </trkpt>
      <trkpt lat="57.468379028141499" lon="-4.460354000329971">
        <ele>17.440000000000001</ele>
        <time>2019-09-01T16:56:36Z</time>
      </trkpt>
      <trkpt lat="57.468477012589574" lon="-4.460618030279875">
        <ele>16.48</ele>
        <time>2019-09-01T16:56:37Z</time>
      </trkpt>
      <trkpt lat="57.468579020351171" lon="-4.460893040522933">
        <ele>15.52</ele>
        <time>2019-09-01T16:56:38Z</time>
      </trkpt>
      <trkpt lat="57.469186037778854" lon="-4.463242990896106">
        <ele>7.35</ele>
        <time>2019-09-01T16:56:45Z</time>
      </trkpt>
      <trkpt lat="57.469730023294687" lon="-4.465596964582801">
        <ele>6.39</ele>
        <time>2019-09-01T16:56:52Z</time>
      </trkpt>
      <trkpt lat="57.47012397274375" lon="-4.469325989484787">
        <ele>5.91</ele>
        <time>2019-09-01T16:57:03Z</time>
      </trkpt>
      <trkpt lat="57.470442987978458" lon="-4.472544975578785">
        <ele>6.87</ele>
        <time>2019-09-01T16:57:13Z</time>
      </trkpt>
      <trkpt lat="57.470547007396817" lon="-4.473506966605783">
        <ele>6.39</ele>
        <time>2019-09-01T16:57:19Z</time>
      </trkpt>
      <trkpt lat="57.470610039308667" lon="-4.474092023447156">
        <ele>5.91</ele>
        <time>2019-09-01T16:57:28Z</time>
      </trkpt>
      <trkpt lat="57.470612972974777" lon="-4.474125970155001">
        <ele>6.39</ele>
        <time>2019-09-01T16:57:38Z</time>
      </trkpt>
      <trkpt lat="57.470655972138047" lon="-4.474689988419414">
        <ele>6.87</ele>
        <time>2019-09-01T16:57:44Z</time>
      </trkpt>
      <trkpt lat="57.470626970753074" lon="-4.475066000595689">
        <ele>6.87</ele>
        <time>2019-09-01T16:57:47Z</time>
      </trkpt>
      <trkpt lat="57.470544995740056" lon="-4.476139973849058">
        <ele>8.789999999999999</ele>
        <time>2019-09-01T16:57:56Z</time>
      </trkpt>
      <trkpt lat="57.470533009618521" lon="-4.476300990208983">
        <ele>8.789999999999999</ele>
        <time>2019-09-01T16:57:57Z</time>
      </trkpt>
      <trkpt lat="57.470455979928374" lon="-4.47747403755784">
        <ele>7.35</ele>
        <time>2019-09-01T16:58:03Z</time>
      </trkpt>
      <trkpt lat="57.470410969108343" lon="-4.478508029133081">
        <ele>4.46</ele>
        <time>2019-09-01T16:58:08Z</time>
      </trkpt>
      <trkpt lat="57.470407029613853" lon="-4.478655969724059">
        <ele>4.46</ele>
        <time>2019-09-01T16:58:09Z</time>
      </trkpt>
      <trkpt lat="57.470429996028543" lon="-4.478801982477307">
        <ele>4.46</ele>
        <time>2019-09-01T16:58:10Z</time>
      </trkpt>
      <trkpt lat="57.470480035990477" lon="-4.478943971917033">
        <ele>3.98</ele>
        <time>2019-09-01T16:58:11Z</time>
      </trkpt>
      <trkpt lat="57.470529992133379" lon="-4.47908696718514">
        <ele>3.98</ele>
        <time>2019-09-01T16:58:12Z</time>
      </trkpt>
      <trkpt lat="57.470596041530371" lon="-4.479200039058924">
        <ele>3.98</ele>
        <time>2019-09-01T16:58:13Z</time>
      </trkpt>
      <trkpt lat="57.470691008493304" lon="-4.479295006021857">
        <ele>4.46</ele>
        <time>2019-09-01T16:58:14Z</time>
      </trkpt>
      <trkpt lat="57.470798967406154" lon="-4.479340016841888">
        <ele>4.46</ele>
        <time>2019-09-01T16:58:15Z</time>
      </trkpt>
      <trkpt lat="57.470921007916331" lon="-4.479353008791804">
        <ele>4.46</ele>
        <time>2019-09-01T16:58:16Z</time>
      </trkpt>
      <trkpt lat="57.471051011234522" lon="-4.479298023506999">
        <ele>4.94</ele>
        <time>2019-09-01T16:58:17Z</time>
      </trkpt>
      <trkpt lat="57.471187971532345" lon="-4.479241026565433">
        <ele>4.94</ele>
        <time>2019-09-01T16:58:18Z</time>
      </trkpt>
      <trkpt lat="57.472521029412746" lon="-4.478612970560789">
        <ele>6.87</ele>
        <time>2019-09-01T16:58:26Z</time>
      </trkpt>
      <trkpt lat="57.473889961838722" lon="-4.477790035307407">
        <ele>7.35</ele>
        <time>2019-09-01T16:58:33Z</time>
      </trkpt>
      <trkpt lat="57.474061036482453" lon="-4.477609992027283">
        <ele>7.35</ele>
        <time>2019-09-01T16:58:34Z</time>
      </trkpt>
      <trkpt lat="57.475461987778544" lon="-4.476110972464085">
        <ele>8.310000000000001</ele>
        <time>2019-09-01T16:58:43Z</time>
      </trkpt>
      <trkpt lat="57.476392965763807" lon="-4.474441967904568">
        <ele>9.75</ele>
        <time>2019-09-01T16:58:51Z</time>
      </trkpt>
      <trkpt lat="57.477115988731384" lon="-4.472944037988782">
        <ele>10.710000000000001</ele>
        <time>2019-09-01T16:58:59Z</time>
      </trkpt>
      <trkpt lat="57.477801041677594" lon="-4.471531016752124">
        <ele>10.23</ele>
        <time>2019-09-01T16:59:07Z</time>
      </trkpt>
      <trkpt lat="57.477886034175754" lon="-4.471349967643619">
        <ele>10.23</ele>
        <time>2019-09-01T16:59:08Z</time>
      </trkpt>
      <trkpt lat="57.477967003360391" lon="-4.471177970990539">
        <ele>10.23</ele>
        <time>2019-09-01T16:59:09Z</time>
      </trkpt>
      <trkpt lat="57.478047972545028" lon="-4.471005974337459">
        <ele>10.23</ele>
        <time>2019-09-01T16:59:10Z</time>
      </trkpt>
      <trkpt lat="57.478130031377077" lon="-4.470830960199237">
        <ele>10.710000000000001</ele>
        <time>2019-09-01T16:59:11Z</time>
      </trkpt>
      <trkpt lat="57.478212006390095" lon="-4.470658041536808">
        <ele>10.710000000000001</ele>
        <time>2019-09-01T16:59:12Z</time>
      </trkpt>
      <trkpt lat="57.478939974680543" lon="-4.469142006710172">
        <ele>11.19</ele>
        <time>2019-09-01T16:59:21Z</time>
      </trkpt>
      <trkpt lat="57.47964003123343" lon="-4.467695038765669">
        <ele>8.310000000000001</ele>
        <time>2019-09-01T16:59:29Z</time>
      </trkpt>
      <trkpt lat="57.479724017903209" lon="-4.467519018799067">
        <ele>7.83</ele>
        <time>2019-09-01T16:59:30Z</time>
      </trkpt>
      <trkpt lat="57.479806998744607" lon="-4.467347022145987">
        <ele>6.87</ele>
        <time>2019-09-01T16:59:31Z</time>
      </trkpt>
      <trkpt lat="57.479887967929244" lon="-4.467178964987397">
        <ele>6.39</ele>
        <time>2019-09-01T16:59:32Z</time>
      </trkpt>
      <trkpt lat="57.480791034176946" lon="-4.465298987925053">
        <ele>7.35</ele>
        <time>2019-09-01T16:59:44Z</time>
      </trkpt>
      <trkpt lat="57.481094039976597" lon="-4.464645031839609">
        <ele>8.310000000000001</ele>
        <time>2019-09-01T16:59:49Z</time>
      </trkpt>
      <trkpt lat="57.481546998023987" lon="-4.46368002332747">
        <ele>8.310000000000001</ele>
        <time>2019-09-01T16:59:57Z</time>
      </trkpt>
      <trkpt lat="57.481751013547182" lon="-4.463255982846022">
        <ele>8.789999999999999</ele>
        <time>2019-09-01T17:00:00Z</time>
      </trkpt>
      <trkpt lat="57.48181396164" lon="-4.463118016719818">
        <ele>8.789999999999999</ele>
        <time>2019-09-01T17:00:01Z</time>
      </trkpt>
      <trkpt lat="57.482062987983227" lon="-4.462571013718844">
        <ele>10.23</ele>
        <time>2019-09-01T17:00:06Z</time>
      </trkpt>
      <trkpt lat="57.482173964381218" lon="-4.462326010689139">
        <ele>10.23</ele>
        <time>2019-09-01T17:00:10Z</time>
      </trkpt>
      <trkpt lat="57.48219701461494" lon="-4.462274964898825">
        <ele>10.23</ele>
        <time>2019-09-01T17:00:11Z</time>
      </trkpt>
      <trkpt lat="57.482221992686391" lon="-4.462218973785639">
        <ele>10.23</ele>
        <time>2019-09-01T17:00:12Z</time>
      </trkpt>
      <trkpt lat="57.482286030426621" lon="-4.462074972689152">
        <ele>10.23</ele>
        <time>2019-09-01T17:00:15Z</time>
      </trkpt>
      <trkpt lat="57.482312014326453" lon="-4.462015964090824">
        <ele>10.23</ele>
        <time>2019-09-01T17:00:16Z</time>
      </trkpt>
      <trkpt lat="57.482595993205905" lon="-4.461382040753961">
        <ele>10.23</ele>
        <time>2019-09-01T17:00:27Z</time>
      </trkpt>
      <trkpt lat="57.48269397765398" lon="-4.461176013574004">
        <ele>10.23</ele>
        <time>2019-09-01T17:00:33Z</time>
      </trkpt>
      <trkpt lat="57.4828000087291" lon="-4.461371982470155">
        <ele>9.75</ele>
        <time>2019-09-01T17:00:37Z</time>
      </trkpt>
      <trkpt lat="57.482679979875684" lon="-4.461207026615739">
        <ele>10.23</ele>
        <time>2019-09-01T17:00:39Z</time>
      </trkpt>
      <trkpt lat="57.48284300789237" lon="-4.461527969688177">
        <ele>9.75</ele>
        <time>2019-09-01T17:00:49Z</time>
      </trkpt>
      <trkpt lat="57.482910985127091" lon="-4.461637018248439">
        <ele>9.27</ele>
        <time>2019-09-01T17:00:58Z</time>
      </trkpt>
      <trkpt lat="57.482952978461981" lon="-4.4616390299052">
        <ele>9.27</ele>
        <time>2019-09-01T17:01:13Z</time>
      </trkpt>
      <trkpt lat="57.482952978461981" lon="-4.4616390299052">
        <ele>9.27</ele>
        <time>2019-09-01T17:01:39Z</time>
      </trkpt>
    </trkseg>
  </trk>

</gpx>